<?xml version='1.0' encoding='UTF-8'?><gpx version="1.1" creator="JPX - https://github.com/jenetics/jpx" xmlns="http://www.topografix.com/GPX/1/1"><trk><trkseg><trkpt lat="44.5880658" lon="8.5367974"><ele>390.0</ele><time>2026-04-01T10:02:01.975Z</time></trkpt><trkpt lat="44.5881361" lon="8.5367772"><ele>390.0</ele><time>2026-04-01T10:02:02.972Z</time></trkpt><trkpt lat="44.5882214" lon="8.5367496"><ele>390.0</ele><time>2026-04-01T10:02:03.971Z</time></trkpt><trkpt lat="44.5882971" lon="8.5367162"><ele>390.0</ele><time>2026-04-01T10:02:04.972Z</time></trkpt><trkpt lat="44.5883647" lon="8.5366803"><ele>390.0</ele><time>2026-04-01T10:02:05.972Z</time></trkpt><trkpt lat="44.5884226" lon="8.5366319"><ele>390.0</ele><time>2026-04-01T10:02:06.972Z</time></trkpt><trkpt lat="44.5884705" lon="8.5365626"><ele>390.0</ele><time>2026-04-01T10:02:07.973Z</time></trkpt><trkpt lat="44.5885027" lon="8.5364802"><ele>390.0</ele><time>2026-04-01T10:02:08.972Z</time></trkpt><trkpt lat="44.5885283" lon="8.5363706"><ele>390.0</ele><time>2026-04-01T10:02:09.972Z</time></trkpt><trkpt lat="44.5885714" lon="8.5362667"><ele>390.0</ele><time>2026-04-01T10:02:10.971Z</time></trkpt><trkpt lat="44.5886286" lon="8.5361615"><ele>390.0</ele><time>2026-04-01T10:02:11.972Z</time></trkpt><trkpt lat="44.5887023" lon="8.5360597"><ele>390.0</ele><time>2026-04-01T10:02:12.971Z</time></trkpt><trkpt lat="44.5887721" lon="8.5359496"><ele>394.2</ele><time>2026-04-01T10:02:13.972Z</time></trkpt><trkpt lat="44.5888448" lon="8.5358296"><ele>398.4</ele><time>2026-04-01T10:02:14.973Z</time></trkpt><trkpt lat="44.5888975" lon="8.5356962"><ele>402.6</ele><time>2026-04-01T10:02:15.971Z</time></trkpt><trkpt lat="44.5889395" lon="8.5355605"><ele>406.8</ele><time>2026-04-01T10:02:16.975Z</time></trkpt><trkpt lat="44.5889828" lon="8.5354483"><ele>411.0</ele><time>2026-04-01T10:02:17.972Z</time></trkpt><trkpt lat="44.5890323" lon="8.5353328"><ele>412.1666666666667</ele><time>2026-04-01T10:02:18.97Z</time></trkpt><trkpt lat="44.5890615" lon="8.5352392"><ele>413.33333333333337</ele><time>2026-04-01T10:02:19.97Z</time></trkpt><trkpt lat="44.5890682" lon="8.535144"><ele>414.5</ele><time>2026-04-01T10:02:20.973Z</time></trkpt><trkpt lat="44.58907" lon="8.5350477"><ele>415.6666666666667</ele><time>2026-04-01T10:02:21.972Z</time></trkpt><trkpt lat="44.5890884" lon="8.5349138"><ele>416.83333333333337</ele><time>2026-04-01T10:02:23.974Z</time></trkpt><trkpt lat="44.5891655" lon="8.5348757"><ele>418.0</ele><time>2026-04-01T10:02:25.972Z</time></trkpt><trkpt lat="44.5892496" lon="8.5348942"><ele>418.00000000000006</ele><time>2026-04-01T10:02:26.975Z</time></trkpt><trkpt lat="44.5893209" lon="8.5349048"><ele>418.0</ele><time>2026-04-01T10:02:27.97Z</time></trkpt><trkpt lat="44.5894032" lon="8.534925"><ele>418.0</ele><time>2026-04-01T10:02:28.971Z</time></trkpt><trkpt lat="44.5894779" lon="8.5349464"><ele>418.0</ele><time>2026-04-01T10:02:29.971Z</time></trkpt><trkpt lat="44.5895557" lon="8.5349855"><ele>418.00000000000006</ele><time>2026-04-01T10:02:30.972Z</time></trkpt><trkpt lat="44.589632" lon="8.5350067"><ele>418.0</ele><time>2026-04-01T10:02:31.971Z</time></trkpt><trkpt lat="44.5897218" lon="8.5350228"><ele>420.1666666666667</ele><time>2026-04-01T10:02:32.971Z</time></trkpt><trkpt lat="44.5897977" lon="8.5350376"><ele>422.33333333333337</ele><time>2026-04-01T10:02:33.97Z</time></trkpt><trkpt lat="44.5898715" lon="8.535071"><ele>424.5</ele><time>2026-04-01T10:02:34.971Z</time></trkpt><trkpt lat="44.5899282" lon="8.5351106"><ele>426.66666666666663</ele><time>2026-04-01T10:02:35.972Z</time></trkpt><trkpt lat="44.5899675" lon="8.53528"><ele>428.8333333333333</ele><time>2026-04-01T10:02:37.972Z</time></trkpt><trkpt lat="44.5899473" lon="8.5353925"><ele>431.0</ele><time>2026-04-01T10:02:38.976Z</time></trkpt><trkpt lat="44.5899382" lon="8.535496"><ele>430.99999999999994</ele><time>2026-04-01T10:02:39.972Z</time></trkpt><trkpt lat="44.5899386" lon="8.5355895"><ele>431.0</ele><time>2026-04-01T10:02:40.961Z</time></trkpt><trkpt lat="44.5899522" lon="8.5356846"><ele>431.0</ele><time>2026-04-01T10:02:41.973Z</time></trkpt><trkpt lat="44.5899964" lon="8.5357917"><ele>431.0</ele><time>2026-04-01T10:02:42.972Z</time></trkpt><trkpt lat="44.590049" lon="8.5359128"><ele>430.99999999999994</ele><time>2026-04-01T10:02:43.972Z</time></trkpt><trkpt lat="44.5900937" lon="8.5360374"><ele>431.0</ele><time>2026-04-01T10:02:44.974Z</time></trkpt><trkpt lat="44.5901272" lon="8.5361401"><ele>431.0</ele><time>2026-04-01T10:02:45.971Z</time></trkpt><trkpt lat="44.5901741" lon="8.5362737"><ele>431.0</ele><time>2026-04-01T10:02:47.973Z</time></trkpt><trkpt lat="44.5902467" lon="8.5362905"><ele>431.0</ele><time>2026-04-01T10:02:49.971Z</time></trkpt><trkpt lat="44.5903245" lon="8.5361722"><ele>431.0</ele><time>2026-04-01T10:02:51.971Z</time></trkpt><trkpt lat="44.5903638" lon="8.5360733"><ele>431.0</ele><time>2026-04-01T10:02:52.973Z</time></trkpt><trkpt lat="44.5904009" lon="8.5359653"><ele>433.49999999999994</ele><time>2026-04-01T10:02:53.969Z</time></trkpt><trkpt lat="44.5904268" lon="8.5358645"><ele>436.0</ele><time>2026-04-01T10:02:54.97Z</time></trkpt><trkpt lat="44.5904494" lon="8.5357737"><ele>438.5</ele><time>2026-04-01T10:02:55.971Z</time></trkpt><trkpt lat="44.5904709" lon="8.5356837"><ele>441.0</ele><time>2026-04-01T10:02:56.975Z</time></trkpt><trkpt lat="44.5905019" lon="8.5355849"><ele>443.49999999999994</ele><time>2026-04-01T10:02:57.971Z</time></trkpt><trkpt lat="44.5905495" lon="8.5354858"><ele>446.0</ele><time>2026-04-01T10:02:58.972Z</time></trkpt><trkpt lat="44.5906031" lon="8.5353936"><ele>448.0</ele><time>2026-04-01T10:02:59.973Z</time></trkpt><trkpt lat="44.5906652" lon="8.535307"><ele>450.0</ele><time>2026-04-01T10:03:00.972Z</time></trkpt><trkpt lat="44.5907528" lon="8.5352501"><ele>452.0</ele><time>2026-04-01T10:03:01.973Z</time></trkpt><trkpt lat="44.5908512" lon="8.5352213"><ele>454.0</ele><time>2026-04-01T10:03:02.971Z</time></trkpt><trkpt lat="44.5909479" lon="8.5351878"><ele>456.0</ele><time>2026-04-01T10:03:03.972Z</time></trkpt><trkpt lat="44.5910135" lon="8.5351576"><ele>456.0</ele><time>2026-04-01T10:03:04.973Z</time></trkpt><trkpt lat="44.5910995" lon="8.535055"><ele>456.0</ele><time>2026-04-01T10:03:06.972Z</time></trkpt><trkpt lat="44.591122" lon="8.5349299"><ele>456.0</ele><time>2026-04-01T10:03:08.973Z</time></trkpt><trkpt lat="44.5911095" lon="8.5347438"><ele>456.0</ele><time>2026-04-01T10:03:10.971Z</time></trkpt><trkpt lat="44.5911101" lon="8.5346073"><ele>456.0</ele><time>2026-04-01T10:03:11.972Z</time></trkpt><trkpt lat="44.5911206" lon="8.5344547"><ele>459.0</ele><time>2026-04-01T10:03:12.972Z</time></trkpt><trkpt lat="44.5911352" lon="8.5343119"><ele>462.0</ele><time>2026-04-01T10:03:13.972Z</time></trkpt><trkpt lat="44.5911766" lon="8.5341836"><ele>465.0</ele><time>2026-04-01T10:03:14.973Z</time></trkpt><trkpt lat="44.5912427" lon="8.5340748"><ele>468.0</ele><time>2026-04-01T10:03:15.97Z</time></trkpt><trkpt lat="44.5913052" lon="8.5339674"><ele>471.0</ele><time>2026-04-01T10:03:16.975Z</time></trkpt><trkpt lat="44.5913704" lon="8.5338519"><ele>475.20000000000005</ele><time>2026-04-01T10:03:17.972Z</time></trkpt><trkpt lat="44.5914391" lon="8.5337202"><ele>479.40000000000003</ele><time>2026-04-01T10:03:18.972Z</time></trkpt><trkpt lat="44.5914994" lon="8.5336011"><ele>483.6</ele><time>2026-04-01T10:03:19.972Z</time></trkpt><trkpt lat="44.5915515" lon="8.5335015"><ele>487.8</ele><time>2026-04-01T10:03:20.973Z</time></trkpt><trkpt lat="44.591603" lon="8.5334113"><ele>492.0</ele><time>2026-04-01T10:03:21.972Z</time></trkpt><trkpt lat="44.5916483" lon="8.533335"><ele>492.0</ele><time>2026-04-01T10:03:22.972Z</time></trkpt><trkpt lat="44.5917011" lon="8.5332852"><ele>492.0</ele><time>2026-04-01T10:03:23.972Z</time></trkpt><trkpt lat="44.5918146" lon="8.5332791"><ele>492.0</ele><time>2026-04-01T10:03:25.974Z</time></trkpt><trkpt lat="44.5918941" lon="8.5332678"><ele>492.0</ele><time>2026-04-01T10:03:26.973Z</time></trkpt><trkpt lat="44.5919866" lon="8.533262"><ele>492.0</ele><time>2026-04-01T10:03:27.971Z</time></trkpt><trkpt lat="44.5920818" lon="8.5332343"><ele>492.0</ele><time>2026-04-01T10:03:28.972Z</time></trkpt><trkpt lat="44.5921761" lon="8.5331914"><ele>490.20000000000005</ele><time>2026-04-01T10:03:29.972Z</time></trkpt><trkpt lat="44.5922733" lon="8.533097"><ele>488.40000000000003</ele><time>2026-04-01T10:03:30.972Z</time></trkpt><trkpt lat="44.5923576" lon="8.5330324"><ele>486.59999999999997</ele><time>2026-04-01T10:03:31.972Z</time></trkpt><trkpt lat="44.5924521" lon="8.5329838"><ele>484.79999999999995</ele><time>2026-04-01T10:03:32.972Z</time></trkpt><trkpt lat="44.5925381" lon="8.5329259"><ele>483.0</ele><time>2026-04-01T10:03:33.974Z</time></trkpt><trkpt lat="44.592617" lon="8.5328593"><ele>482.5</ele><time>2026-04-01T10:03:34.972Z</time></trkpt><trkpt lat="44.5927055" lon="8.5327754"><ele>482.0</ele><time>2026-04-01T10:03:35.975Z</time></trkpt><trkpt lat="44.5928055" lon="8.5326652"><ele>481.5</ele><time>2026-04-01T10:03:36.972Z</time></trkpt><trkpt lat="44.5928908" lon="8.5325601"><ele>481.0</ele><time>2026-04-01T10:03:37.971Z</time></trkpt><trkpt lat="44.592955" lon="8.532444"><ele>481.0</ele><time>2026-04-01T10:03:38.973Z</time></trkpt><trkpt lat="44.5929971" lon="8.5323229"><ele>481.0</ele><time>2026-04-01T10:03:39.973Z</time></trkpt><trkpt lat="44.5930264" lon="8.5321858"><ele>481.0</ele><time>2026-04-01T10:03:40.973Z</time></trkpt><trkpt lat="44.5930439" lon="8.5320202"><ele>481.0</ele><time>2026-04-01T10:03:41.973Z</time></trkpt><trkpt lat="44.5930416" lon="8.5318373"><ele>481.0</ele><time>2026-04-01T10:03:42.972Z</time></trkpt><trkpt lat="44.5930528" lon="8.5316271"><ele>483.0</ele><time>2026-04-01T10:03:43.971Z</time></trkpt><trkpt lat="44.5930631" lon="8.5314238"><ele>485.0</ele><time>2026-04-01T10:03:44.972Z</time></trkpt><trkpt lat="44.5930611" lon="8.5312469"><ele>487.0</ele><time>2026-04-01T10:03:45.973Z</time></trkpt><trkpt lat="44.5930632" lon="8.5311001"><ele>489.0</ele><time>2026-04-01T10:03:46.972Z</time></trkpt><trkpt lat="44.5930751" lon="8.531006"><ele>491.0</ele><time>2026-04-01T10:03:47.972Z</time></trkpt><trkpt lat="44.5931144" lon="8.5308697"><ele>492.99999999999994</ele><time>2026-04-01T10:03:49.971Z</time></trkpt><trkpt lat="44.5931674" lon="8.5308112"><ele>495.0</ele><time>2026-04-01T10:03:50.972Z</time></trkpt><trkpt lat="44.5932375" lon="8.5307621"><ele>497.0</ele><time>2026-04-01T10:03:51.971Z</time></trkpt><trkpt lat="44.5933207" lon="8.5307261"><ele>499.0</ele><time>2026-04-01T10:03:52.972Z</time></trkpt><trkpt lat="44.5934192" lon="8.5307138"><ele>500.99999999999994</ele><time>2026-04-01T10:03:53.972Z</time></trkpt><trkpt lat="44.5935221" lon="8.530721"><ele>503.0</ele><time>2026-04-01T10:03:54.971Z</time></trkpt><trkpt lat="44.5936222" lon="8.5307627"><ele>501.79999999999995</ele><time>2026-04-01T10:03:55.973Z</time></trkpt><trkpt lat="44.5937043" lon="8.5308089"><ele>500.59999999999997</ele><time>2026-04-01T10:03:56.973Z</time></trkpt><trkpt lat="44.5937968" lon="8.5308767"><ele>499.40000000000003</ele><time>2026-04-01T10:03:57.971Z</time></trkpt><trkpt lat="44.5938821" lon="8.5309478"><ele>498.20000000000005</ele><time>2026-04-01T10:03:58.972Z</time></trkpt><trkpt lat="44.5939684" lon="8.5310159"><ele>497.0</ele><time>2026-04-01T10:03:59.973Z</time></trkpt><trkpt lat="44.5940468" lon="8.5310709"><ele>496.99999999999994</ele><time>2026-04-01T10:04:00.972Z</time></trkpt><trkpt lat="44.5941202" lon="8.5311207"><ele>497.0</ele><time>2026-04-01T10:04:01.978Z</time></trkpt><trkpt lat="44.5941993" lon="8.5311645"><ele>497.0</ele><time>2026-04-01T10:04:02.973Z</time></trkpt><trkpt lat="44.5942762" lon="8.5312123"><ele>497.0</ele><time>2026-04-01T10:04:03.972Z</time></trkpt><trkpt lat="44.5943553" lon="8.5312533"><ele>496.99999999999994</ele><time>2026-04-01T10:04:04.973Z</time></trkpt><trkpt lat="44.5944642" lon="8.5312785"><ele>497.0</ele><time>2026-04-01T10:04:05.973Z</time></trkpt><trkpt lat="44.5946069" lon="8.5313037"><ele>497.0</ele><time>2026-04-01T10:04:06.972Z</time></trkpt><trkpt lat="44.5947682" lon="8.5313439"><ele>497.0</ele><time>2026-04-01T10:04:07.973Z</time></trkpt><trkpt lat="44.5949493" lon="8.5314003"><ele>497.0</ele><time>2026-04-01T10:04:08.973Z</time></trkpt><trkpt lat="44.5951169" lon="8.531457"><ele>497.0</ele><time>2026-04-01T10:04:09.971Z</time></trkpt><trkpt lat="44.5952677" lon="8.5315204"><ele>497.0</ele><time>2026-04-01T10:04:10.974Z</time></trkpt><trkpt lat="44.5953883" lon="8.5315992"><ele>497.0</ele><time>2026-04-01T10:04:11.972Z</time></trkpt><trkpt lat="44.5954896" lon="8.5316818"><ele>497.0</ele><time>2026-04-01T10:04:12.973Z</time></trkpt><trkpt lat="44.5955643" lon="8.5317575"><ele>498.6</ele><time>2026-04-01T10:04:13.972Z</time></trkpt><trkpt lat="44.5956106" lon="8.5318242"><ele>500.20000000000005</ele><time>2026-04-01T10:04:14.971Z</time></trkpt><trkpt lat="44.5956284" lon="8.5320049"><ele>501.8</ele><time>2026-04-01T10:04:16.971Z</time></trkpt><trkpt lat="44.5956448" lon="8.5321097"><ele>503.4</ele><time>2026-04-01T10:04:17.971Z</time></trkpt><trkpt lat="44.5956804" lon="8.5322341"><ele>505.0</ele><time>2026-04-01T10:04:18.97Z</time></trkpt><trkpt lat="44.5957186" lon="8.5323668"><ele>505.0</ele><time>2026-04-01T10:04:19.971Z</time></trkpt><trkpt lat="44.5957352" lon="8.5325095"><ele>505.0</ele><time>2026-04-01T10:04:20.97Z</time></trkpt><trkpt lat="44.5957179" lon="8.5326549"><ele>505.0</ele><time>2026-04-01T10:04:21.97Z</time></trkpt><trkpt lat="44.5956928" lon="8.5327994"><ele>505.0</ele><time>2026-04-01T10:04:22.972Z</time></trkpt><trkpt lat="44.5956662" lon="8.5329258"><ele>505.0</ele><time>2026-04-01T10:04:23.97Z</time></trkpt><trkpt lat="44.5956761" lon="8.5330212"><ele>502.4</ele><time>2026-04-01T10:04:24.97Z</time></trkpt><trkpt lat="44.5957414" lon="8.5331779"><ele>499.8</ele><time>2026-04-01T10:04:26.972Z</time></trkpt><trkpt lat="44.5958087" lon="8.5332451"><ele>497.20000000000005</ele><time>2026-04-01T10:04:27.97Z</time></trkpt><trkpt lat="44.5959096" lon="8.5332679"><ele>494.6</ele><time>2026-04-01T10:04:28.971Z</time></trkpt><trkpt lat="44.5959895" lon="8.5332851"><ele>492.0</ele><time>2026-04-01T10:04:29.972Z</time></trkpt><trkpt lat="44.5960696" lon="8.533255"><ele>492.0</ele><time>2026-04-01T10:04:30.97Z</time></trkpt><trkpt lat="44.5961539" lon="8.5331887"><ele>492.0</ele><time>2026-04-01T10:04:31.971Z</time></trkpt><trkpt lat="44.5962392" lon="8.5331197"><ele>492.0</ele><time>2026-04-01T10:04:32.972Z</time></trkpt><trkpt lat="44.5963119" lon="8.5330784"><ele>492.0</ele><time>2026-04-01T10:04:33.97Z</time></trkpt><trkpt lat="44.5963794" lon="8.5330485"><ele>492.0</ele><time>2026-04-01T10:04:34.971Z</time></trkpt><trkpt lat="44.5964368" lon="8.5330052"><ele>492.0</ele><time>2026-04-01T10:04:35.971Z</time></trkpt><trkpt lat="44.5965458" lon="8.5329109"><ele>493.8</ele><time>2026-04-01T10:04:37.971Z</time></trkpt><trkpt lat="44.5966184" lon="8.5328298"><ele>495.6</ele><time>2026-04-01T10:04:38.972Z</time></trkpt><trkpt lat="44.5967082" lon="8.532742"><ele>497.40000000000003</ele><time>2026-04-01T10:04:39.97Z</time></trkpt><trkpt lat="44.5968017" lon="8.532647"><ele>499.20000000000005</ele><time>2026-04-01T10:04:40.972Z</time></trkpt><trkpt lat="44.5968984" lon="8.5325524"><ele>501.0</ele><time>2026-04-01T10:04:41.971Z</time></trkpt><trkpt lat="44.5969966" lon="8.532437"><ele>497.5</ele><time>2026-04-01T10:04:42.971Z</time></trkpt><trkpt lat="44.5970856" lon="8.5323308"><ele>494.0</ele><time>2026-04-01T10:04:43.971Z</time></trkpt><trkpt lat="44.5971859" lon="8.5322275"><ele>490.5</ele><time>2026-04-01T10:04:44.97Z</time></trkpt><trkpt lat="44.5972827" lon="8.5321365"><ele>487.0</ele><time>2026-04-01T10:04:45.971Z</time></trkpt><trkpt lat="44.5973825" lon="8.5320628"><ele>491.40000000000003</ele><time>2026-04-01T10:04:46.971Z</time></trkpt><trkpt lat="44.5974799" lon="8.5320237"><ele>495.80000000000007</ele><time>2026-04-01T10:04:47.972Z</time></trkpt><trkpt lat="44.597577" lon="8.5320099"><ele>500.2</ele><time>2026-04-01T10:04:48.97Z</time></trkpt><trkpt lat="44.5976734" lon="8.5319988"><ele>504.6</ele><time>2026-04-01T10:04:49.972Z</time></trkpt><trkpt lat="44.5977488" lon="8.5320063"><ele>509.0</ele><time>2026-04-01T10:04:50.971Z</time></trkpt><trkpt lat="44.5978453" lon="8.5320237"><ele>508.99999999999994</ele><time>2026-04-01T10:04:51.97Z</time></trkpt><trkpt lat="44.5979294" lon="8.5320415"><ele>509.0</ele><time>2026-04-01T10:04:52.97Z</time></trkpt><trkpt lat="44.5979951" lon="8.5320508"><ele>509.0</ele><time>2026-04-01T10:04:53.97Z</time></trkpt><trkpt lat="44.5980633" lon="8.5320481"><ele>509.0</ele><time>2026-04-01T10:04:54.97Z</time></trkpt><trkpt lat="44.5981448" lon="8.5320406"><ele>508.99999999999994</ele><time>2026-04-01T10:04:55.972Z</time></trkpt><trkpt lat="44.5982359" lon="8.5320204"><ele>509.0</ele><time>2026-04-01T10:04:56.97Z</time></trkpt><trkpt lat="44.5983255" lon="8.531989"><ele>508.99999999999994</ele><time>2026-04-01T10:04:57.97Z</time></trkpt><trkpt lat="44.5984047" lon="8.5319524"><ele>509.0</ele><time>2026-04-01T10:04:58.971Z</time></trkpt><trkpt lat="44.5984774" lon="8.5319122"><ele>509.0</ele><time>2026-04-01T10:04:59.971Z</time></trkpt><trkpt lat="44.5985681" lon="8.5318161"><ele>509.0</ele><time>2026-04-01T10:05:01.971Z</time></trkpt><trkpt lat="44.5986088" lon="8.5317443"><ele>508.99999999999994</ele><time>2026-04-01T10:05:02.972Z</time></trkpt><trkpt lat="44.5986565" lon="8.5316561"><ele>509.0</ele><time>2026-04-01T10:05:03.971Z</time></trkpt><trkpt lat="44.5987051" lon="8.5315655"><ele>508.8333333333333</ele><time>2026-04-01T10:05:04.972Z</time></trkpt><trkpt lat="44.5987574" lon="8.5314585"><ele>508.66666666666663</ele><time>2026-04-01T10:05:05.971Z</time></trkpt><trkpt lat="44.598801" lon="8.5313377"><ele>508.5</ele><time>2026-04-01T10:05:06.971Z</time></trkpt><trkpt lat="44.5988145" lon="8.5312264"><ele>508.33333333333337</ele><time>2026-04-01T10:05:07.972Z</time></trkpt><trkpt lat="44.5988308" lon="8.5311114"><ele>508.1666666666667</ele><time>2026-04-01T10:05:08.973Z</time></trkpt><trkpt lat="44.5988385" lon="8.5309959"><ele>508.0</ele><time>2026-04-01T10:05:09.972Z</time></trkpt><trkpt lat="44.5988388" lon="8.5308709"><ele>508.00000000000006</ele><time>2026-04-01T10:05:10.972Z</time></trkpt><trkpt lat="44.5988195" lon="8.5307559"><ele>508.0</ele><time>2026-04-01T10:05:11.973Z</time></trkpt><trkpt lat="44.598783" lon="8.5306569"><ele>508.0</ele><time>2026-04-01T10:05:12.973Z</time></trkpt><trkpt lat="44.5987381" lon="8.5305627"><ele>508.0</ele><time>2026-04-01T10:05:13.974Z</time></trkpt><trkpt lat="44.5988354" lon="8.5305436"><ele>508.00000000000006</ele><time>2026-04-01T10:05:19.971Z</time></trkpt><trkpt lat="44.5989197" lon="8.5305782"><ele>508.0</ele><time>2026-04-01T10:05:22.972Z</time></trkpt><trkpt lat="44.5989922" lon="8.5305769"><ele>508.0</ele><time>2026-04-01T10:05:24.971Z</time></trkpt><trkpt lat="44.5990891" lon="8.5305239"><ele>507.99999999999994</ele><time>2026-04-01T10:05:26.973Z</time></trkpt><trkpt lat="44.5991558" lon="8.530457"><ele>507.99999999999994</ele><time>2026-04-01T10:05:27.971Z</time></trkpt><trkpt lat="44.5992309" lon="8.5303793"><ele>508.0</ele><time>2026-04-01T10:05:28.972Z</time></trkpt><trkpt lat="44.5993044" lon="8.5303069"><ele>508.0</ele><time>2026-04-01T10:05:29.972Z</time></trkpt><trkpt lat="44.59937" lon="8.5302264"><ele>509.50000000000006</ele><time>2026-04-01T10:05:30.97Z</time></trkpt><trkpt lat="44.5994113" lon="8.5301288"><ele>511.0</ele><time>2026-04-01T10:05:31.971Z</time></trkpt><trkpt lat="44.5994294" lon="8.5300088"><ele>512.5</ele><time>2026-04-01T10:05:32.971Z</time></trkpt><trkpt lat="44.5994319" lon="8.5298812"><ele>514.0</ele><time>2026-04-01T10:05:33.971Z</time></trkpt><trkpt lat="44.5994201" lon="8.5297724"><ele>515.5</ele><time>2026-04-01T10:05:34.971Z</time></trkpt><trkpt lat="44.5994079" lon="8.5296718"><ele>517.0</ele><time>2026-04-01T10:05:35.971Z</time></trkpt><trkpt lat="44.5993919" lon="8.5295844"><ele>517.6</ele><time>2026-04-01T10:05:36.973Z</time></trkpt><trkpt lat="44.5993581" lon="8.5294579"><ele>518.2</ele><time>2026-04-01T10:05:38.973Z</time></trkpt><trkpt lat="44.5993299" lon="8.5293297"><ele>518.8</ele><time>2026-04-01T10:05:40.972Z</time></trkpt><trkpt lat="44.5993267" lon="8.5292029"><ele>519.4</ele><time>2026-04-01T10:05:42.971Z</time></trkpt><trkpt lat="44.5993447" lon="8.5290309"><ele>520.0</ele><time>2026-04-01T10:05:44.972Z</time></trkpt><trkpt lat="44.5993581" lon="8.5289055"><ele>520.0</ele><time>2026-04-01T10:05:45.974Z</time></trkpt><trkpt lat="44.5993725" lon="8.5287722"><ele>520.0</ele><time>2026-04-01T10:05:46.971Z</time></trkpt><trkpt lat="44.5993743" lon="8.5286283"><ele>520.0</ele><time>2026-04-01T10:05:47.972Z</time></trkpt><trkpt lat="44.5993684" lon="8.5284983"><ele>520.0</ele><time>2026-04-01T10:05:48.974Z</time></trkpt><trkpt lat="44.5993616" lon="8.5283879"><ele>520.0</ele><time>2026-04-01T10:05:49.971Z</time></trkpt><trkpt lat="44.5993582" lon="8.5282876"><ele>520.0</ele><time>2026-04-01T10:05:50.972Z</time></trkpt><trkpt lat="44.5993845" lon="8.5281563"><ele>520.3333333333334</ele><time>2026-04-01T10:05:52.971Z</time></trkpt><trkpt lat="44.5994804" lon="8.528065"><ele>520.6666666666667</ele><time>2026-04-01T10:05:54.971Z</time></trkpt><trkpt lat="44.5995547" lon="8.5280226"><ele>521.0</ele><time>2026-04-01T10:05:55.971Z</time></trkpt><trkpt lat="44.5996333" lon="8.5279976"><ele>521.3333333333334</ele><time>2026-04-01T10:05:56.972Z</time></trkpt><trkpt lat="44.5997013" lon="8.527976"><ele>521.6666666666666</ele><time>2026-04-01T10:05:57.971Z</time></trkpt><trkpt lat="44.5997955" lon="8.5279905"><ele>522.0</ele><time>2026-04-01T10:05:58.971Z</time></trkpt><trkpt lat="44.5998928" lon="8.5279885"><ele>522.4</ele><time>2026-04-01T10:05:59.972Z</time></trkpt><trkpt lat="44.599986" lon="8.5279718"><ele>522.8000000000001</ele><time>2026-04-01T10:06:00.97Z</time></trkpt><trkpt lat="44.6000904" lon="8.527946"><ele>523.2</ele><time>2026-04-01T10:06:01.971Z</time></trkpt><trkpt lat="44.6001922" lon="8.5278825"><ele>523.6</ele><time>2026-04-01T10:06:02.975Z</time></trkpt><trkpt lat="44.6002907" lon="8.5278047"><ele>524.0</ele><time>2026-04-01T10:06:03.971Z</time></trkpt><trkpt lat="44.6003875" lon="8.5277092"><ele>522.8</ele><time>2026-04-01T10:06:04.971Z</time></trkpt><trkpt lat="44.6004774" lon="8.5276144"><ele>521.5999999999999</ele><time>2026-04-01T10:06:05.971Z</time></trkpt><trkpt lat="44.6005532" lon="8.5275436"><ele>520.4</ele><time>2026-04-01T10:06:06.971Z</time></trkpt><trkpt lat="44.6006433" lon="8.5274667"><ele>519.1999999999999</ele><time>2026-04-01T10:06:08.972Z</time></trkpt><trkpt lat="44.6005615" lon="8.527452"><ele>518.0</ele><time>2026-04-01T10:06:47.972Z</time></trkpt><trkpt lat="44.6004708" lon="8.5275018"><ele>518.0</ele><time>2026-04-01T10:06:49.973Z</time></trkpt><trkpt lat="44.6004074" lon="8.5275258"><ele>518.0</ele><time>2026-04-01T10:06:50.973Z</time></trkpt><trkpt lat="44.600343" lon="8.5275478"><ele>518.0</ele><time>2026-04-01T10:06:51.97Z</time></trkpt><trkpt lat="44.6002777" lon="8.5275519"><ele>518.0</ele><time>2026-04-01T10:06:52.97Z</time></trkpt><trkpt lat="44.6001966" lon="8.527459"><ele>518.0</ele><time>2026-04-01T10:06:54.97Z</time></trkpt><trkpt lat="44.600195" lon="8.5273357"><ele>518.0</ele><time>2026-04-01T10:06:55.971Z</time></trkpt><trkpt lat="44.6001873" lon="8.5272169"><ele>518.5</ele><time>2026-04-01T10:06:56.971Z</time></trkpt><trkpt lat="44.6001838" lon="8.5271231"><ele>519.0</ele><time>2026-04-01T10:06:57.972Z</time></trkpt><trkpt lat="44.6001128" lon="8.5270951"><ele>519.5</ele><time>2026-04-01T10:06:58.97Z</time></trkpt><trkpt lat="44.6000289" lon="8.527069"><ele>520.0</ele><time>2026-04-01T10:06:59.974Z</time></trkpt><trkpt lat="44.5999316" lon="8.5270484"><ele>520.5</ele><time>2026-04-01T10:07:00.971Z</time></trkpt><trkpt lat="44.5998432" lon="8.5270322"><ele>521.0</ele><time>2026-04-01T10:07:01.972Z</time></trkpt><trkpt lat="44.5997379" lon="8.5270189"><ele>521.0</ele><time>2026-04-01T10:07:02.972Z</time></trkpt><trkpt lat="44.5996136" lon="8.5270181"><ele>521.0</ele><time>2026-04-01T10:07:03.971Z</time></trkpt><trkpt lat="44.5994873" lon="8.5270329"><ele>521.0</ele><time>2026-04-01T10:07:04.972Z</time></trkpt><trkpt lat="44.5993651" lon="8.5270452"><ele>521.0</ele><time>2026-04-01T10:07:05.973Z</time></trkpt><trkpt lat="44.5992573" lon="8.5270701"><ele>523.1666666666666</ele><time>2026-04-01T10:07:06.974Z</time></trkpt><trkpt lat="44.5991862" lon="8.5271013"><ele>525.3333333333333</ele><time>2026-04-01T10:07:07.975Z</time></trkpt><trkpt lat="44.5991094" lon="8.527176"><ele>527.5</ele><time>2026-04-01T10:07:09.972Z</time></trkpt><trkpt lat="44.5991002" lon="8.5272744"><ele>529.6666666666666</ele><time>2026-04-01T10:07:24.97Z</time></trkpt><trkpt lat="44.5990481" lon="8.5273985"><ele>531.8333333333334</ele><time>2026-04-01T10:07:26.974Z</time></trkpt><trkpt lat="44.5989861" lon="8.5275156"><ele>534.0</ele><time>2026-04-01T10:07:27.973Z</time></trkpt><trkpt lat="44.5989146" lon="8.5276426"><ele>534.0</ele><time>2026-04-01T10:07:28.974Z</time></trkpt><trkpt lat="44.5988558" lon="8.5277573"><ele>534.0</ele><time>2026-04-01T10:07:29.975Z</time></trkpt><trkpt lat="44.5988106" lon="8.5278561"><ele>534.0</ele><time>2026-04-01T10:07:30.973Z</time></trkpt><trkpt lat="44.5987714" lon="8.5279383"><ele>534.0</ele><time>2026-04-01T10:07:31.973Z</time></trkpt><trkpt lat="44.598727" lon="8.5280061"><ele>534.0</ele><time>2026-04-01T10:07:32.973Z</time></trkpt><trkpt lat="44.5986702" lon="8.5280729"><ele>534.0</ele><time>2026-04-01T10:07:33.973Z</time></trkpt><trkpt lat="44.5986259" lon="8.5281374"><ele>534.5</ele><time>2026-04-01T10:07:34.972Z</time></trkpt><trkpt lat="44.5985783" lon="8.5282129"><ele>535.0</ele><time>2026-04-01T10:07:35.974Z</time></trkpt><trkpt lat="44.5985388" lon="8.5283598"><ele>535.5</ele><time>2026-04-01T10:07:37.972Z</time></trkpt><trkpt lat="44.5984773" lon="8.5284495"><ele>536.0</ele><time>2026-04-01T10:07:39.972Z</time></trkpt><trkpt lat="44.5984092" lon="8.5284963"><ele>536.5</ele><time>2026-04-01T10:07:40.971Z</time></trkpt><trkpt lat="44.5983223" lon="8.5285345"><ele>537.0</ele><time>2026-04-01T10:07:41.973Z</time></trkpt><trkpt lat="44.5982135" lon="8.52856"><ele>537.0</ele><time>2026-04-01T10:07:42.971Z</time></trkpt><trkpt lat="44.5980933" lon="8.5285692"><ele>537.0</ele><time>2026-04-01T10:07:43.971Z</time></trkpt><trkpt lat="44.5979848" lon="8.5285698"><ele>537.0</ele><time>2026-04-01T10:07:44.972Z</time></trkpt><trkpt lat="44.5979104" lon="8.5285758"><ele>537.0</ele><time>2026-04-01T10:07:45.971Z</time></trkpt><trkpt lat="44.5978255" lon="8.5286374"><ele>537.0</ele><time>2026-04-01T10:07:47.971Z</time></trkpt><trkpt lat="44.5978503" lon="8.5287758"><ele>535.8000000000001</ele><time>2026-04-01T10:07:49.971Z</time></trkpt><trkpt lat="44.5978677" lon="8.528898"><ele>534.6</ele><time>2026-04-01T10:07:50.97Z</time></trkpt><trkpt lat="44.5978584" lon="8.5290399"><ele>533.4000000000001</ele><time>2026-04-01T10:07:51.971Z</time></trkpt><trkpt lat="44.5978404" lon="8.529169"><ele>532.2</ele><time>2026-04-01T10:07:52.971Z</time></trkpt><trkpt lat="44.5978178" lon="8.5292889"><ele>531.0</ele><time>2026-04-01T10:07:53.97Z</time></trkpt><trkpt lat="44.5977998" lon="8.529408"><ele>534.5</ele><time>2026-04-01T10:07:54.972Z</time></trkpt><trkpt lat="44.597782" lon="8.5295164"><ele>538.0</ele><time>2026-04-01T10:07:55.973Z</time></trkpt><trkpt lat="44.5977627" lon="8.5296192"><ele>541.5</ele><time>2026-04-01T10:07:56.972Z</time></trkpt><trkpt lat="44.5977465" lon="8.5297064"><ele>545.0</ele><time>2026-04-01T10:07:57.971Z</time></trkpt><trkpt lat="44.5976887" lon="8.5298584"><ele>548.5</ele><time>2026-04-01T10:07:59.971Z</time></trkpt><trkpt lat="44.5976298" lon="8.5299245"><ele>552.0</ele><time>2026-04-01T10:08:00.971Z</time></trkpt><trkpt lat="44.5975686" lon="8.5300049"><ele>552.3333333333334</ele><time>2026-04-01T10:08:01.971Z</time></trkpt><trkpt lat="44.5975043" lon="8.5300917"><ele>552.6666666666666</ele><time>2026-04-01T10:08:02.972Z</time></trkpt><trkpt lat="44.5974532" lon="8.530169"><ele>553.0</ele><time>2026-04-01T10:08:03.971Z</time></trkpt><trkpt lat="44.5973985" lon="8.5302325"><ele>553.3333333333333</ele><time>2026-04-01T10:08:04.971Z</time></trkpt><trkpt lat="44.5973377" lon="8.5302854"><ele>553.6666666666666</ele><time>2026-04-01T10:08:05.972Z</time></trkpt><trkpt lat="44.5972314" lon="8.5303568"><ele>554.0</ele><time>2026-04-01T10:08:07.971Z</time></trkpt><trkpt lat="44.5971644" lon="8.5303883"><ele>552.1666666666666</ele><time>2026-04-01T10:08:08.973Z</time></trkpt><trkpt lat="44.5970799" lon="8.5304188"><ele>550.3333333333333</ele><time>2026-04-01T10:08:09.971Z</time></trkpt><trkpt lat="44.5969908" lon="8.5304528"><ele>548.5</ele><time>2026-04-01T10:08:10.971Z</time></trkpt><trkpt lat="44.5969141" lon="8.5304869"><ele>546.6666666666666</ele><time>2026-04-01T10:08:11.972Z</time></trkpt><trkpt lat="44.5968369" lon="8.5305306"><ele>544.8333333333334</ele><time>2026-04-01T10:08:12.97Z</time></trkpt><trkpt lat="44.5967599" lon="8.530582"><ele>543.0</ele><time>2026-04-01T10:08:13.972Z</time></trkpt><trkpt lat="44.5966888" lon="8.530642"><ele>543.0</ele><time>2026-04-01T10:08:14.972Z</time></trkpt><trkpt lat="44.5966324" lon="8.5307031"><ele>543.0</ele><time>2026-04-01T10:08:15.97Z</time></trkpt><trkpt lat="44.5965431" lon="8.5307561"><ele>543.0</ele><time>2026-04-01T10:08:17.972Z</time></trkpt><trkpt lat="44.5964792" lon="8.5307091"><ele>543.0</ele><time>2026-04-01T10:08:19.971Z</time></trkpt><trkpt lat="44.5964074" lon="8.5305694"><ele>543.0</ele><time>2026-04-01T10:08:21.971Z</time></trkpt><trkpt lat="44.5963382" lon="8.530493"><ele>543.0</ele><time>2026-04-01T10:08:23.971Z</time></trkpt><trkpt lat="44.5962867" lon="8.5305582"><ele>543.0</ele><time>2026-04-01T10:08:25.972Z</time></trkpt><trkpt lat="44.5962578" lon="8.530641"><ele>543.0</ele><time>2026-04-01T10:08:26.971Z</time></trkpt><trkpt lat="44.5961918" lon="8.5307425"><ele>543.0</ele><time>2026-04-01T10:08:28.97Z</time></trkpt><trkpt lat="44.596123" lon="8.5307787"><ele>543.0</ele><time>2026-04-01T10:08:30.971Z</time></trkpt><trkpt lat="44.596019" lon="8.5307739"><ele>543.0</ele><time>2026-04-01T10:08:32.972Z</time></trkpt><trkpt lat="44.595898" lon="8.5307711"><ele>540.0</ele><time>2026-04-01T10:08:34.972Z</time></trkpt><trkpt lat="44.5958142" lon="8.5308051"><ele>537.0</ele><time>2026-04-01T10:08:36.971Z</time></trkpt><trkpt lat="44.5957524" lon="8.5307778"><ele>534.0</ele><time>2026-04-01T10:08:38.971Z</time></trkpt><trkpt lat="44.5956789" lon="8.5307906"><ele>531.0</ele><time>2026-04-01T10:08:41.971Z</time></trkpt><trkpt lat="44.5955852" lon="8.5308366"><ele>528.0</ele><time>2026-04-01T10:08:44.973Z</time></trkpt><trkpt lat="44.5954972" lon="8.5308512"><ele>525.0</ele><time>2026-04-01T10:08:46.97Z</time></trkpt><trkpt lat="44.5954092" lon="8.5308951"><ele>525.0</ele><time>2026-04-01T10:08:48.971Z</time></trkpt><trkpt lat="44.5953428" lon="8.5309256"><ele>525.0</ele><time>2026-04-01T10:08:50.971Z</time></trkpt><trkpt lat="44.5952689" lon="8.5309059"><ele>525.0</ele><time>2026-04-01T10:08:52.971Z</time></trkpt><trkpt lat="44.595206" lon="8.5309641"><ele>525.0</ele><time>2026-04-01T10:08:54.97Z</time></trkpt><trkpt lat="44.5951325" lon="8.5309954"><ele>525.0</ele><time>2026-04-01T10:08:56.972Z</time></trkpt><trkpt lat="44.5950418" lon="8.5310679"><ele>525.0</ele><time>2026-04-01T10:08:58.971Z</time></trkpt><trkpt lat="44.5949517" lon="8.53115"><ele>521.3333333333334</ele><time>2026-04-01T10:09:00.971Z</time></trkpt><trkpt lat="44.5948716" lon="8.5311689"><ele>517.6666666666666</ele><time>2026-04-01T10:09:02.971Z</time></trkpt><trkpt lat="44.594807" lon="8.5311922"><ele>514.0</ele><time>2026-04-01T10:09:04.971Z</time></trkpt><trkpt lat="44.594745" lon="8.5312344"><ele>510.3333333333333</ele><time>2026-04-01T10:09:06.972Z</time></trkpt><trkpt lat="44.5946708" lon="8.5312314"><ele>506.66666666666663</ele><time>2026-04-01T10:09:09.973Z</time></trkpt><trkpt lat="44.594608" lon="8.531127"><ele>503.0</ele><time>2026-04-01T10:09:12.971Z</time></trkpt><trkpt lat="44.5945521" lon="8.531022"><ele>501.79999999999995</ele><time>2026-04-01T10:09:15.971Z</time></trkpt><trkpt lat="44.5944652" lon="8.5309742"><ele>500.59999999999997</ele><time>2026-04-01T10:09:18.973Z</time></trkpt><trkpt lat="44.5943678" lon="8.5309201"><ele>499.40000000000003</ele><time>2026-04-01T10:09:50.972Z</time></trkpt><trkpt lat="44.5942873" lon="8.5308438"><ele>498.20000000000005</ele><time>2026-04-01T10:09:52.972Z</time></trkpt><trkpt lat="44.5942354" lon="8.5307344"><ele>497.0</ele><time>2026-04-01T10:09:54.971Z</time></trkpt><trkpt lat="44.5941884" lon="8.5306158"><ele>496.99999999999994</ele><time>2026-04-01T10:09:56.971Z</time></trkpt><trkpt lat="44.5941265" lon="8.5305522"><ele>497.0</ele><time>2026-04-01T10:09:58.971Z</time></trkpt><trkpt lat="44.5940648" lon="8.5305241"><ele>497.0</ele><time>2026-04-01T10:10:00.972Z</time></trkpt><trkpt lat="44.5939846" lon="8.5304953"><ele>497.0</ele><time>2026-04-01T10:10:02.97Z</time></trkpt><trkpt lat="44.5938828" lon="8.5303884"><ele>496.99999999999994</ele><time>2026-04-01T10:10:04.971Z</time></trkpt><trkpt lat="44.5938157" lon="8.5303234"><ele>497.0</ele><time>2026-04-01T10:10:05.972Z</time></trkpt><trkpt lat="44.5937462" lon="8.5302657"><ele>497.0</ele><time>2026-04-01T10:10:06.97Z</time></trkpt><trkpt lat="44.593677" lon="8.5302208"><ele>497.00000000000006</ele><time>2026-04-01T10:10:07.972Z</time></trkpt><trkpt lat="44.5935934" lon="8.5301784"><ele>497.00000000000006</ele><time>2026-04-01T10:10:08.97Z</time></trkpt><trkpt lat="44.5934878" lon="8.5301349"><ele>497.0</ele><time>2026-04-01T10:10:09.971Z</time></trkpt><trkpt lat="44.5933987" lon="8.5300884"><ele>497.0</ele><time>2026-04-01T10:10:10.97Z</time></trkpt><trkpt lat="44.5933179" lon="8.53004"><ele>499.57142857142856</ele><time>2026-04-01T10:10:11.97Z</time></trkpt><trkpt lat="44.5932474" lon="8.5299791"><ele>502.1428571428571</ele><time>2026-04-01T10:10:12.97Z</time></trkpt><trkpt lat="44.5931947" lon="8.5299066"><ele>504.7142857142857</ele><time>2026-04-01T10:10:13.971Z</time></trkpt><trkpt lat="44.5931388" lon="8.5298417"><ele>507.2857142857143</ele><time>2026-04-01T10:10:14.972Z</time></trkpt><trkpt lat="44.5930766" lon="8.5297853"><ele>509.85714285714283</ele><time>2026-04-01T10:10:15.97Z</time></trkpt><trkpt lat="44.5930034" lon="8.5297739"><ele>512.4285714285714</ele><time>2026-04-01T10:10:16.971Z</time></trkpt><trkpt lat="44.5929403" lon="8.5297826"><ele>515.0</ele><time>2026-04-01T10:10:17.971Z</time></trkpt><trkpt lat="44.5928628" lon="8.5298325"><ele>517.1666666666666</ele><time>2026-04-01T10:10:19.97Z</time></trkpt><trkpt lat="44.5927748" lon="8.529866"><ele>519.3333333333333</ele><time>2026-04-01T10:10:22.97Z</time></trkpt><trkpt lat="44.5926938" lon="8.5299089"><ele>521.5</ele><time>2026-04-01T10:10:24.971Z</time></trkpt><trkpt lat="44.5926371" lon="8.5299553"><ele>523.6666666666666</ele><time>2026-04-01T10:10:26.971Z</time></trkpt><trkpt lat="44.5925647" lon="8.5299352"><ele>525.8333333333334</ele><time>2026-04-01T10:10:30.971Z</time></trkpt><trkpt lat="44.5925" lon="8.5298648"><ele>528.0</ele><time>2026-04-01T10:10:33.972Z</time></trkpt><trkpt lat="44.592438" lon="8.5298121"><ele>528.0</ele><time>2026-04-01T10:10:36.971Z</time></trkpt><trkpt lat="44.5923578" lon="8.5298103"><ele>528.0</ele><time>2026-04-01T10:10:40.971Z</time></trkpt><trkpt lat="44.5922931" lon="8.5298527"><ele>528.0</ele><time>2026-04-01T10:10:42.972Z</time></trkpt><trkpt lat="44.5922222" lon="8.5298857"><ele>528.0</ele><time>2026-04-01T10:10:44.974Z</time></trkpt><trkpt lat="44.5921623" lon="8.5299259"><ele>528.0</ele><time>2026-04-01T10:10:46.97Z</time></trkpt><trkpt lat="44.5920975" lon="8.529953"><ele>528.0</ele><time>2026-04-01T10:10:49.971Z</time></trkpt><trkpt lat="44.5920343" lon="8.5298967"><ele>528.0</ele><time>2026-04-01T10:11:01.97Z</time></trkpt><trkpt lat="44.5919737" lon="8.5298502"><ele>529.0</ele><time>2026-04-01T10:11:04.972Z</time></trkpt><trkpt lat="44.5919243" lon="8.5297701"><ele>530.0</ele><time>2026-04-01T10:11:06.972Z</time></trkpt><trkpt lat="44.5918592" lon="8.5296816"><ele>531.0</ele><time>2026-04-01T10:11:09.971Z</time></trkpt><trkpt lat="44.5918085" lon="8.5296201"><ele>532.0</ele><time>2026-04-01T10:11:12.97Z</time></trkpt><trkpt lat="44.5917514" lon="8.5295676"><ele>533.0</ele><time>2026-04-01T10:11:14.972Z</time></trkpt><trkpt lat="44.5916885" lon="8.5294885"><ele>534.0</ele><time>2026-04-01T10:11:17.971Z</time></trkpt><trkpt lat="44.5916455" lon="8.5293468"><ele>534.0</ele><time>2026-04-01T10:11:27.974Z</time></trkpt><trkpt lat="44.5916336" lon="8.5291969"><ele>534.0</ele><time>2026-04-01T10:11:39.971Z</time></trkpt><trkpt lat="44.5916576" lon="8.5291016"><ele>534.0</ele><time>2026-04-01T10:12:00.97Z</time></trkpt><trkpt lat="44.5916702" lon="8.5289702"><ele>534.0</ele><time>2026-04-01T10:12:03.972Z</time></trkpt><trkpt lat="44.5916525" lon="8.5288475"><ele>534.0</ele><time>2026-04-01T10:12:06.973Z</time></trkpt><trkpt lat="44.5916088" lon="8.5287611"><ele>534.0</ele><time>2026-04-01T10:12:08.972Z</time></trkpt><trkpt lat="44.5915529" lon="8.5286688"><ele>533.1666666666666</ele><time>2026-04-01T10:12:10.973Z</time></trkpt><trkpt lat="44.5914969" lon="8.5285749"><ele>532.3333333333334</ele><time>2026-04-01T10:12:12.971Z</time></trkpt><trkpt lat="44.5914875" lon="8.5284609"><ele>531.5</ele><time>2026-04-01T10:12:14.971Z</time></trkpt><trkpt lat="44.5914938" lon="8.5283146"><ele>530.6666666666667</ele><time>2026-04-01T10:12:16.971Z</time></trkpt><trkpt lat="44.5914731" lon="8.528203"><ele>529.8333333333334</ele><time>2026-04-01T10:12:18.972Z</time></trkpt><trkpt lat="44.5914075" lon="8.5281364"><ele>529.0</ele><time>2026-04-01T10:12:20.973Z</time></trkpt><trkpt lat="44.5913244" lon="8.5280624"><ele>529.0</ele><time>2026-04-01T10:12:22.973Z</time></trkpt><trkpt lat="44.5912636" lon="8.528007"><ele>529.0</ele><time>2026-04-01T10:12:24.971Z</time></trkpt><trkpt lat="44.5912208" lon="8.5279311"><ele>529.0</ele><time>2026-04-01T10:12:26.973Z</time></trkpt><trkpt lat="44.5911988" lon="8.5278424"><ele>529.0</ele><time>2026-04-01T10:12:29.97Z</time></trkpt><trkpt lat="44.5911789" lon="8.5277381"><ele>529.0</ele><time>2026-04-01T10:12:32.973Z</time></trkpt><trkpt lat="44.5911552" lon="8.5276414"><ele>529.0</ele><time>2026-04-01T10:12:34.974Z</time></trkpt><trkpt lat="44.5911208" lon="8.527555"><ele>529.0</ele><time>2026-04-01T10:12:36.971Z</time></trkpt><trkpt lat="44.5910745" lon="8.5274936"><ele>530.1666666666667</ele><time>2026-04-01T10:12:38.971Z</time></trkpt><trkpt lat="44.5910222" lon="8.5274362"><ele>531.3333333333334</ele><time>2026-04-01T10:12:47.971Z</time></trkpt><trkpt lat="44.5909641" lon="8.5273753"><ele>532.5</ele><time>2026-04-01T10:12:49.971Z</time></trkpt><trkpt lat="44.5909145" lon="8.5273034"><ele>533.6666666666666</ele><time>2026-04-01T10:12:51.97Z</time></trkpt><trkpt lat="44.5908493" lon="8.527227"><ele>534.8333333333333</ele><time>2026-04-01T10:12:54.971Z</time></trkpt><trkpt lat="44.5907536" lon="8.5271961"><ele>536.0</ele><time>2026-04-01T10:12:57.972Z</time></trkpt><trkpt lat="44.5906845" lon="8.5271761"><ele>536.0</ele><time>2026-04-01T10:12:59.971Z</time></trkpt><trkpt lat="44.5906108" lon="8.5271368"><ele>536.0</ele><time>2026-04-01T10:13:01.974Z</time></trkpt><trkpt lat="44.5905309" lon="8.5270838"><ele>536.0</ele><time>2026-04-01T10:13:04.97Z</time></trkpt><trkpt lat="44.5905367" lon="8.5269443"><ele>536.0</ele><time>2026-04-01T10:13:07.974Z</time></trkpt><trkpt lat="44.5905846" lon="8.5268349"><ele>536.0</ele><time>2026-04-01T10:13:09.971Z</time></trkpt><trkpt lat="44.5906082" lon="8.5267216"><ele>536.0</ele><time>2026-04-01T10:13:12.971Z</time></trkpt><trkpt lat="44.5905185" lon="8.5266668"><ele>532.6</ele><time>2026-04-01T10:13:15.972Z</time></trkpt><trkpt lat="44.5904279" lon="8.5266643"><ele>529.2</ele><time>2026-04-01T10:13:17.971Z</time></trkpt><trkpt lat="44.5903307" lon="8.5266669"><ele>525.8</ele><time>2026-04-01T10:13:19.971Z</time></trkpt><trkpt lat="44.5902371" lon="8.5266642"><ele>522.4</ele><time>2026-04-01T10:13:21.972Z</time></trkpt><trkpt lat="44.5901451" lon="8.526644"><ele>519.0</ele><time>2026-04-01T10:13:23.971Z</time></trkpt><trkpt lat="44.5900656" lon="8.5266325"><ele>516.0</ele><time>2026-04-01T10:13:25.97Z</time></trkpt><trkpt lat="44.5899953" lon="8.5266293"><ele>513.0</ele><time>2026-04-01T10:13:27.972Z</time></trkpt><trkpt lat="44.5899152" lon="8.5266312"><ele>510.0</ele><time>2026-04-01T10:13:29.971Z</time></trkpt><trkpt lat="44.5898454" lon="8.5266016"><ele>507.0</ele><time>2026-04-01T10:13:31.971Z</time></trkpt><trkpt lat="44.5898047" lon="8.5265157"><ele>504.0</ele><time>2026-04-01T10:13:33.97Z</time></trkpt><trkpt lat="44.5897281" lon="8.5264851"><ele>501.0</ele><time>2026-04-01T10:13:35.97Z</time></trkpt><trkpt lat="44.5896364" lon="8.5264541"><ele>501.0</ele><time>2026-04-01T10:13:37.97Z</time></trkpt><trkpt lat="44.589547" lon="8.5263969"><ele>501.0</ele><time>2026-04-01T10:13:39.97Z</time></trkpt><trkpt lat="44.5894753" lon="8.5263617"><ele>501.0</ele><time>2026-04-01T10:14:57.971Z</time></trkpt><trkpt lat="44.5894069" lon="8.5263489"><ele>501.0</ele><time>2026-04-01T10:14:58.971Z</time></trkpt><trkpt lat="44.5893107" lon="8.5263359"><ele>501.0</ele><time>2026-04-01T10:14:59.97Z</time></trkpt><trkpt lat="44.589196" lon="8.5263232"><ele>497.0</ele><time>2026-04-01T10:15:00.972Z</time></trkpt><trkpt lat="44.5890735" lon="8.5263085"><ele>493.0</ele><time>2026-04-01T10:15:01.971Z</time></trkpt><trkpt lat="44.5889546" lon="8.5262838"><ele>489.0</ele><time>2026-04-01T10:15:02.972Z</time></trkpt><trkpt lat="44.5888564" lon="8.5262416"><ele>485.0</ele><time>2026-04-01T10:15:03.971Z</time></trkpt><trkpt lat="44.5887713" lon="8.5262039"><ele>481.0</ele><time>2026-04-01T10:15:04.971Z</time></trkpt><trkpt lat="44.5886937" lon="8.5261778"><ele>478.50000000000006</ele><time>2026-04-01T10:15:05.973Z</time></trkpt><trkpt lat="44.5886195" lon="8.5261708"><ele>476.0</ele><time>2026-04-01T10:15:06.972Z</time></trkpt><trkpt lat="44.5885113" lon="8.5260974"><ele>473.5</ele><time>2026-04-01T10:15:08.972Z</time></trkpt><trkpt lat="44.5884716" lon="8.526013"><ele>471.0</ele><time>2026-04-01T10:15:09.971Z</time></trkpt><trkpt lat="44.5884361" lon="8.5259297"><ele>468.50000000000006</ele><time>2026-04-01T10:15:10.971Z</time></trkpt><trkpt lat="44.5883992" lon="8.5258395"><ele>466.0</ele><time>2026-04-01T10:15:11.971Z</time></trkpt><trkpt lat="44.5883236" lon="8.5257348"><ele>466.00000000000006</ele><time>2026-04-01T10:15:13.971Z</time></trkpt><trkpt lat="44.5882564" lon="8.5257587"><ele>466.0</ele><time>2026-04-01T10:15:15.97Z</time></trkpt><trkpt lat="44.5882649" lon="8.5258909"><ele>466.0</ele><time>2026-04-01T10:15:17.97Z</time></trkpt><trkpt lat="44.5882512" lon="8.5259903"><ele>466.0</ele><time>2026-04-01T10:15:19.97Z</time></trkpt><trkpt lat="44.5881636" lon="8.5259418"><ele>466.00000000000006</ele><time>2026-04-01T10:15:22.971Z</time></trkpt><trkpt lat="44.5881151" lon="8.525807"><ele>466.0</ele><time>2026-04-01T10:15:24.971Z</time></trkpt><trkpt lat="44.5880699" lon="8.5256802"><ele>466.00000000000006</ele><time>2026-04-01T10:15:26.972Z</time></trkpt><trkpt lat="44.58802" lon="8.5255687"><ele>466.0</ele><time>2026-04-01T10:15:28.971Z</time></trkpt><trkpt lat="44.5880117" lon="8.5254563"><ele>466.0</ele><time>2026-04-01T10:15:30.971Z</time></trkpt><trkpt lat="44.5880318" lon="8.5253432"><ele>466.0</ele><time>2026-04-01T10:15:32.972Z</time></trkpt><trkpt lat="44.5880629" lon="8.5252445"><ele>466.00000000000006</ele><time>2026-04-01T10:15:34.972Z</time></trkpt><trkpt lat="44.5880918" lon="8.525134"><ele>466.0</ele><time>2026-04-01T10:15:36.972Z</time></trkpt><trkpt lat="44.5880781" lon="8.5250096"><ele>464.50000000000006</ele><time>2026-04-01T10:15:39.971Z</time></trkpt><trkpt lat="44.5880752" lon="8.5249178"><ele>463.0</ele><time>2026-04-01T10:15:41.973Z</time></trkpt><trkpt lat="44.588137" lon="8.5248105"><ele>461.5</ele><time>2026-04-01T10:15:44.973Z</time></trkpt><trkpt lat="44.5882145" lon="8.5247297"><ele>460.0</ele><time>2026-04-01T10:15:46.972Z</time></trkpt><trkpt lat="44.588306" lon="8.5246779"><ele>458.50000000000006</ele><time>2026-04-01T10:15:48.972Z</time></trkpt><trkpt lat="44.588367" lon="8.5246558"><ele>457.0</ele><time>2026-04-01T10:15:49.972Z</time></trkpt><trkpt lat="44.5884339" lon="8.5246342"><ele>454.20000000000005</ele><time>2026-04-01T10:15:50.972Z</time></trkpt><trkpt lat="44.5885433" lon="8.5245348"><ele>451.40000000000003</ele><time>2026-04-01T10:15:52.973Z</time></trkpt><trkpt lat="44.5885977" lon="8.5244505"><ele>448.59999999999997</ele><time>2026-04-01T10:15:53.973Z</time></trkpt><trkpt lat="44.5886245" lon="8.524355"><ele>445.79999999999995</ele><time>2026-04-01T10:15:54.972Z</time></trkpt><trkpt lat="44.5886479" lon="8.5242636"><ele>443.0</ele><time>2026-04-01T10:15:55.973Z</time></trkpt><trkpt lat="44.58867" lon="8.5241134"><ele>443.66666666666663</ele><time>2026-04-01T10:15:57.97Z</time></trkpt><trkpt lat="44.5887003" lon="8.5240142"><ele>444.3333333333333</ele><time>2026-04-01T10:15:59.972Z</time></trkpt><trkpt lat="44.5888115" lon="8.523996"><ele>445.0</ele><time>2026-04-01T10:16:01.972Z</time></trkpt><trkpt lat="44.5888929" lon="8.5240189"><ele>445.66666666666663</ele><time>2026-04-01T10:16:02.972Z</time></trkpt><trkpt lat="44.5889622" lon="8.5240312"><ele>446.3333333333333</ele><time>2026-04-01T10:16:03.969Z</time></trkpt><trkpt lat="44.5890438" lon="8.5240386"><ele>447.0</ele><time>2026-04-01T10:16:05.974Z</time></trkpt><trkpt lat="44.5891218" lon="8.5240334"><ele>447.0</ele><time>2026-04-01T10:16:09.972Z</time></trkpt><trkpt lat="44.5891909" lon="8.5240149"><ele>447.0</ele><time>2026-04-01T10:16:12.972Z</time></trkpt><trkpt lat="44.589136" lon="8.5239396"><ele>447.0</ele><time>2026-04-01T10:16:17.97Z</time></trkpt><trkpt lat="44.5890723" lon="8.5238868"><ele>447.0</ele><time>2026-04-01T10:16:19.973Z</time></trkpt><trkpt lat="44.5890177" lon="8.5237909"><ele>447.0</ele><time>2026-04-01T10:16:29.971Z</time></trkpt><trkpt lat="44.5889297" lon="8.5237193"><ele>447.0</ele><time>2026-04-01T10:16:59.972Z</time></trkpt><trkpt lat="44.5888544" lon="8.5236592"><ele>444.0</ele><time>2026-04-01T10:17:00.971Z</time></trkpt><trkpt lat="44.5887599" lon="8.5235948"><ele>441.0</ele><time>2026-04-01T10:17:01.97Z</time></trkpt><trkpt lat="44.5886431" lon="8.5235232"><ele>438.0</ele><time>2026-04-01T10:17:02.972Z</time></trkpt><trkpt lat="44.5885216" lon="8.5234464"><ele>435.0</ele><time>2026-04-01T10:17:03.971Z</time></trkpt><trkpt lat="44.5884054" lon="8.5233802"><ele>434.6</ele><time>2026-04-01T10:17:04.97Z</time></trkpt><trkpt lat="44.5882897" lon="8.5233382"><ele>434.2</ele><time>2026-04-01T10:17:05.972Z</time></trkpt><trkpt lat="44.5881795" lon="8.5232989"><ele>433.79999999999995</ele><time>2026-04-01T10:17:06.972Z</time></trkpt><trkpt lat="44.5880797" lon="8.5232546"><ele>433.4</ele><time>2026-04-01T10:17:07.97Z</time></trkpt><trkpt lat="44.587995" lon="8.5232176"><ele>433.0</ele><time>2026-04-01T10:17:08.972Z</time></trkpt><trkpt lat="44.5879089" lon="8.5231625"><ele>433.83333333333337</ele><time>2026-04-01T10:17:09.972Z</time></trkpt><trkpt lat="44.5878399" lon="8.5231068"><ele>434.6666666666667</ele><time>2026-04-01T10:17:10.972Z</time></trkpt><trkpt lat="44.5877893" lon="8.5230255"><ele>435.5</ele><time>2026-04-01T10:17:11.971Z</time></trkpt><trkpt lat="44.5877684" lon="8.5229113"><ele>436.33333333333337</ele><time>2026-04-01T10:17:12.972Z</time></trkpt><trkpt lat="44.587769" lon="8.5227774"><ele>437.1666666666667</ele><time>2026-04-01T10:17:13.973Z</time></trkpt><trkpt lat="44.5877875" lon="8.5226306"><ele>438.0</ele><time>2026-04-01T10:17:14.972Z</time></trkpt><trkpt lat="44.5878098" lon="8.5225019"><ele>439.79999999999995</ele><time>2026-04-01T10:17:15.97Z</time></trkpt><trkpt lat="44.5878405" lon="8.5223959"><ele>441.59999999999997</ele><time>2026-04-01T10:17:16.971Z</time></trkpt><trkpt lat="44.5878907" lon="8.5222585"><ele>443.40000000000003</ele><time>2026-04-01T10:17:18.971Z</time></trkpt><trkpt lat="44.587893" lon="8.5221475"><ele>445.20000000000005</ele><time>2026-04-01T10:17:20.972Z</time></trkpt><trkpt lat="44.5878405" lon="8.5219949"><ele>447.0</ele><time>2026-04-01T10:17:22.97Z</time></trkpt><trkpt lat="44.5877973" lon="8.5219251"><ele>447.6666666666667</ele><time>2026-04-01T10:17:23.971Z</time></trkpt><trkpt lat="44.5877371" lon="8.5218762"><ele>448.33333333333337</ele><time>2026-04-01T10:17:24.972Z</time></trkpt><trkpt lat="44.5876713" lon="8.5218363"><ele>449.0</ele><time>2026-04-01T10:17:25.973Z</time></trkpt><trkpt lat="44.5876045" lon="8.5217813"><ele>449.6666666666667</ele><time>2026-04-01T10:17:26.973Z</time></trkpt><trkpt lat="44.5875281" lon="8.5217106"><ele>450.33333333333337</ele><time>2026-04-01T10:17:27.972Z</time></trkpt><trkpt lat="44.5874627" lon="8.5216417"><ele>451.0</ele><time>2026-04-01T10:17:28.971Z</time></trkpt><trkpt lat="44.5874107" lon="8.5215875"><ele>451.0</ele><time>2026-04-01T10:17:29.973Z</time></trkpt><trkpt lat="44.5873789" lon="8.521491"><ele>451.0</ele><time>2026-04-01T10:17:50.971Z</time></trkpt><trkpt lat="44.5874064" lon="8.5213395"><ele>451.0</ele><time>2026-04-01T10:17:52.971Z</time></trkpt><trkpt lat="44.5874368" lon="8.5212108"><ele>451.0</ele><time>2026-04-01T10:17:53.972Z</time></trkpt><trkpt lat="44.5874655" lon="8.5210889"><ele>451.0</ele><time>2026-04-01T10:17:54.971Z</time></trkpt><trkpt lat="44.587486" lon="8.5209704"><ele>453.6</ele><time>2026-04-01T10:17:55.971Z</time></trkpt><trkpt lat="44.587489" lon="8.5208639"><ele>456.20000000000005</ele><time>2026-04-01T10:17:56.971Z</time></trkpt><trkpt lat="44.5874858" lon="8.5207635"><ele>458.79999999999995</ele><time>2026-04-01T10:17:57.97Z</time></trkpt><trkpt lat="44.5874717" lon="8.5206012"><ele>461.4</ele><time>2026-04-01T10:17:59.972Z</time></trkpt><trkpt lat="44.5874936" lon="8.5204488"><ele>464.0</ele><time>2026-04-01T10:18:01.972Z</time></trkpt><trkpt lat="44.5875695" lon="8.5203034"><ele>466.8333333333333</ele><time>2026-04-01T10:18:03.971Z</time></trkpt><trkpt lat="44.5876279" lon="8.5202112"><ele>469.66666666666663</ele><time>2026-04-01T10:18:05.973Z</time></trkpt><trkpt lat="44.5876339" lon="8.5201105"><ele>472.5</ele><time>2026-04-01T10:18:08.971Z</time></trkpt><trkpt lat="44.5876296" lon="8.5200096"><ele>475.33333333333337</ele><time>2026-04-01T10:18:10.971Z</time></trkpt><trkpt lat="44.5876124" lon="8.5198357"><ele>478.1666666666667</ele><time>2026-04-01T10:18:12.972Z</time></trkpt><trkpt lat="44.5876104" lon="8.519732"><ele>481.0</ele><time>2026-04-01T10:18:13.972Z</time></trkpt><trkpt lat="44.5876174" lon="8.5196369"><ele>479.50000000000006</ele><time>2026-04-01T10:18:14.972Z</time></trkpt><trkpt lat="44.5876315" lon="8.5194836"><ele>478.0</ele><time>2026-04-01T10:18:16.971Z</time></trkpt><trkpt lat="44.587595" lon="8.5194084"><ele>476.5</ele><time>2026-04-01T10:18:18.97Z</time></trkpt><trkpt lat="44.5875209" lon="8.5193845"><ele>475.0</ele><time>2026-04-01T10:18:20.972Z</time></trkpt><trkpt lat="44.5874363" lon="8.5193278"><ele>473.50000000000006</ele><time>2026-04-01T10:18:22.972Z</time></trkpt><trkpt lat="44.5873707" lon="8.5192891"><ele>472.0</ele><time>2026-04-01T10:18:23.974Z</time></trkpt><trkpt lat="44.5873011" lon="8.5192491"><ele>472.00000000000006</ele><time>2026-04-01T10:18:24.971Z</time></trkpt><trkpt lat="44.5872387" lon="8.5192034"><ele>472.0</ele><time>2026-04-01T10:18:25.973Z</time></trkpt><trkpt lat="44.5871855" lon="8.5191538"><ele>472.0</ele><time>2026-04-01T10:18:26.971Z</time></trkpt><trkpt lat="44.5870876" lon="8.5190365"><ele>472.0</ele><time>2026-04-01T10:18:28.971Z</time></trkpt><trkpt lat="44.5870353" lon="8.518958"><ele>472.00000000000006</ele><time>2026-04-01T10:18:29.971Z</time></trkpt><trkpt lat="44.586985" lon="8.518872"><ele>472.0</ele><time>2026-04-01T10:18:30.971Z</time></trkpt><trkpt lat="44.5869333" lon="8.5187762"><ele>470.0</ele><time>2026-04-01T10:18:31.971Z</time></trkpt><trkpt lat="44.5868894" lon="8.5186913"><ele>468.0</ele><time>2026-04-01T10:18:32.972Z</time></trkpt><trkpt lat="44.5868447" lon="8.5186252"><ele>466.0</ele><time>2026-04-01T10:18:33.971Z</time></trkpt><trkpt lat="44.5867906" lon="8.5185748"><ele>464.0</ele><time>2026-04-01T10:18:34.971Z</time></trkpt><trkpt lat="44.5867235" lon="8.5185336"><ele>462.0</ele><time>2026-04-01T10:18:35.972Z</time></trkpt><trkpt lat="44.5866454" lon="8.5184867"><ele>460.0</ele><time>2026-04-01T10:18:36.972Z</time></trkpt><trkpt lat="44.5865682" lon="8.5184409"><ele>458.0</ele><time>2026-04-01T10:18:37.972Z</time></trkpt><trkpt lat="44.5864973" lon="8.5183875"><ele>457.99999999999994</ele><time>2026-04-01T10:18:38.973Z</time></trkpt><trkpt lat="44.5864015" lon="8.5182784"><ele>458.0</ele><time>2026-04-01T10:18:40.973Z</time></trkpt><trkpt lat="44.5863092" lon="8.5182138"><ele>458.0</ele><time>2026-04-01T10:18:42.972Z</time></trkpt><trkpt lat="44.5862436" lon="8.5181833"><ele>458.0</ele><time>2026-04-01T10:18:43.972Z</time></trkpt><trkpt lat="44.5861716" lon="8.5181652"><ele>457.99999999999994</ele><time>2026-04-01T10:18:44.972Z</time></trkpt><trkpt lat="44.5860996" lon="8.5181658"><ele>458.0</ele><time>2026-04-01T10:18:45.972Z</time></trkpt><trkpt lat="44.5860283" lon="8.5181708"><ele>461.16666666666663</ele><time>2026-04-01T10:18:46.972Z</time></trkpt><trkpt lat="44.5859643" lon="8.5181942"><ele>464.3333333333333</ele><time>2026-04-01T10:18:47.972Z</time></trkpt><trkpt lat="44.5859013" lon="8.5182322"><ele>467.5</ele><time>2026-04-01T10:18:48.972Z</time></trkpt><trkpt lat="44.5858422" lon="8.518263"><ele>470.66666666666663</ele><time>2026-04-01T10:18:49.973Z</time></trkpt><trkpt lat="44.585779" lon="8.5182649"><ele>473.8333333333333</ele><time>2026-04-01T10:18:50.973Z</time></trkpt><trkpt lat="44.5856618" lon="8.518225"><ele>477.0</ele><time>2026-04-01T10:18:52.969Z</time></trkpt><trkpt lat="44.5855963" lon="8.5181493"><ele>477.0</ele><time>2026-04-01T10:18:53.971Z</time></trkpt><trkpt lat="44.5855403" lon="8.518054"><ele>476.99999999999994</ele><time>2026-04-01T10:18:54.97Z</time></trkpt><trkpt lat="44.5855179" lon="8.5179651"><ele>477.0</ele><time>2026-04-01T10:18:55.97Z</time></trkpt><trkpt lat="44.5854817" lon="8.5178825"><ele>477.0</ele><time>2026-04-01T10:18:56.97Z</time></trkpt><trkpt lat="44.5854383" lon="8.5178142"><ele>476.99999999999994</ele><time>2026-04-01T10:18:57.97Z</time></trkpt><trkpt lat="44.5853822" lon="8.5177436"><ele>477.0</ele><time>2026-04-01T10:18:58.971Z</time></trkpt><trkpt lat="44.5853113" lon="8.5177011"><ele>477.0</ele><time>2026-04-01T10:18:59.971Z</time></trkpt><trkpt lat="44.5852352" lon="8.5176831"><ele>474.4285714285714</ele><time>2026-04-01T10:19:00.972Z</time></trkpt><trkpt lat="44.5851637" lon="8.5176841"><ele>471.8571428571428</ele><time>2026-04-01T10:19:01.972Z</time></trkpt><trkpt lat="44.5850979" lon="8.5176951"><ele>469.2857142857143</ele><time>2026-04-01T10:19:02.971Z</time></trkpt><trkpt lat="44.5850149" lon="8.5177045"><ele>466.71428571428567</ele><time>2026-04-01T10:19:03.97Z</time></trkpt><trkpt lat="44.5849355" lon="8.5177089"><ele>464.1428571428571</ele><time>2026-04-01T10:19:04.971Z</time></trkpt><trkpt lat="44.584858" lon="8.5177275"><ele>461.57142857142856</ele><time>2026-04-01T10:19:05.974Z</time></trkpt><trkpt lat="44.5847925" lon="8.5177459"><ele>459.0</ele><time>2026-04-01T10:19:06.971Z</time></trkpt><trkpt lat="44.5846944" lon="8.5178255"><ele>462.2</ele><time>2026-04-01T10:19:08.971Z</time></trkpt><trkpt lat="44.584616" lon="8.5179196"><ele>465.4</ele><time>2026-04-01T10:19:10.971Z</time></trkpt><trkpt lat="44.5845339" lon="8.5179911"><ele>468.6</ele><time>2026-04-01T10:19:12.973Z</time></trkpt><trkpt lat="44.584444" lon="8.5180492"><ele>471.8</ele><time>2026-04-01T10:19:14.971Z</time></trkpt><trkpt lat="44.5843834" lon="8.5180795"><ele>475.0</ele><time>2026-04-01T10:19:15.97Z</time></trkpt><trkpt lat="44.5842669" lon="8.5181101"><ele>475.00000000000006</ele><time>2026-04-01T10:19:17.971Z</time></trkpt><trkpt lat="44.5842008" lon="8.5181186"><ele>475.0</ele><time>2026-04-01T10:19:19.969Z</time></trkpt><trkpt lat="44.5841448" lon="8.5180611"><ele>475.0</ele><time>2026-04-01T10:19:26.972Z</time></trkpt><trkpt lat="44.5840988" lon="8.517962"><ele>475.0</ele><time>2026-04-01T10:19:31.97Z</time></trkpt><trkpt lat="44.5840591" lon="8.5178674"><ele>475.00000000000006</ele><time>2026-04-01T10:19:34.97Z</time></trkpt><trkpt lat="44.5840264" lon="8.5177872"><ele>475.0</ele><time>2026-04-01T10:19:36.972Z</time></trkpt><trkpt lat="44.5839848" lon="8.5176822"><ele>473.33333333333337</ele><time>2026-04-01T10:19:39.972Z</time></trkpt><trkpt lat="44.5839492" lon="8.5176021"><ele>471.6666666666667</ele><time>2026-04-01T10:19:42.971Z</time></trkpt><trkpt lat="44.5838985" lon="8.5175163"><ele>470.0</ele><time>2026-04-01T10:19:44.971Z</time></trkpt><trkpt lat="44.5838311" lon="8.517433"><ele>468.33333333333337</ele><time>2026-04-01T10:19:46.97Z</time></trkpt><trkpt lat="44.5837631" lon="8.5173993"><ele>466.6666666666667</ele><time>2026-04-01T10:19:48.97Z</time></trkpt><trkpt lat="44.583683" lon="8.5173554"><ele>465.0</ele><time>2026-04-01T10:19:50.972Z</time></trkpt><trkpt lat="44.5836294" lon="8.5172839"><ele>465.0</ele><time>2026-04-01T10:19:53.97Z</time></trkpt><trkpt lat="44.5836591" lon="8.5171609"><ele>465.0</ele><time>2026-04-01T10:19:56.97Z</time></trkpt><trkpt lat="44.5836752" lon="8.5170736"><ele>465.0</ele><time>2026-04-01T10:19:57.97Z</time></trkpt><trkpt lat="44.5836817" lon="8.5169786"><ele>465.0</ele><time>2026-04-01T10:19:58.971Z</time></trkpt><trkpt lat="44.5836943" lon="8.5168501"><ele>465.0</ele><time>2026-04-01T10:20:00.97Z</time></trkpt><trkpt lat="44.5836973" lon="8.5167517"><ele>465.0</ele><time>2026-04-01T10:20:03.97Z</time></trkpt><trkpt lat="44.5837058" lon="8.5166599"><ele>466.1666666666667</ele><time>2026-04-01T10:20:05.971Z</time></trkpt><trkpt lat="44.5836801" lon="8.5165582"><ele>467.33333333333337</ele><time>2026-04-01T10:20:07.972Z</time></trkpt><trkpt lat="44.5836244" lon="8.5165115"><ele>468.5</ele><time>2026-04-01T10:20:10.97Z</time></trkpt><trkpt lat="44.5835763" lon="8.5164526"><ele>469.6666666666667</ele><time>2026-04-01T10:20:17.971Z</time></trkpt><trkpt lat="44.5835742" lon="8.5163469"><ele>470.83333333333337</ele><time>2026-04-01T10:20:21.97Z</time></trkpt><trkpt lat="44.583662" lon="8.5163801"><ele>472.0</ele><time>2026-04-01T10:20:24.969Z</time></trkpt><trkpt lat="44.583746" lon="8.5164234"><ele>471.33333333333337</ele><time>2026-04-01T10:20:26.974Z</time></trkpt><trkpt lat="44.5838449" lon="8.5164184"><ele>470.6666666666667</ele><time>2026-04-01T10:20:28.971Z</time></trkpt><trkpt lat="44.5838993" lon="8.5163182"><ele>470.0</ele><time>2026-04-01T10:20:30.971Z</time></trkpt><trkpt lat="44.5838727" lon="8.5162036"><ele>469.33333333333337</ele><time>2026-04-01T10:20:31.971Z</time></trkpt><trkpt lat="44.5838497" lon="8.5161111"><ele>468.6666666666667</ele><time>2026-04-01T10:20:32.971Z</time></trkpt><trkpt lat="44.5838017" lon="8.5159818"><ele>468.0</ele><time>2026-04-01T10:20:34.972Z</time></trkpt><trkpt lat="44.5837626" lon="8.515879"><ele>468.0</ele><time>2026-04-01T10:20:37.972Z</time></trkpt><trkpt lat="44.5837482" lon="8.5157566"><ele>468.0</ele><time>2026-04-01T10:20:40.97Z</time></trkpt><trkpt lat="44.5837481" lon="8.5156639"><ele>468.0</ele><time>2026-04-01T10:20:42.969Z</time></trkpt><trkpt lat="44.5837614" lon="8.5155273"><ele>468.0</ele><time>2026-04-01T10:20:44.973Z</time></trkpt><trkpt lat="44.5837779" lon="8.5154399"><ele>468.0</ele><time>2026-04-01T10:20:45.97Z</time></trkpt><trkpt lat="44.5838016" lon="8.5153255"><ele>468.0</ele><time>2026-04-01T10:20:46.971Z</time></trkpt><trkpt lat="44.5838441" lon="8.5152091"><ele>470.79999999999995</ele><time>2026-04-01T10:20:47.971Z</time></trkpt><trkpt lat="44.5838993" lon="8.5150952"><ele>473.59999999999997</ele><time>2026-04-01T10:20:48.97Z</time></trkpt><trkpt lat="44.583956" lon="8.5150109"><ele>476.40000000000003</ele><time>2026-04-01T10:20:49.971Z</time></trkpt><trkpt lat="44.5840313" lon="8.5149227"><ele>479.20000000000005</ele><time>2026-04-01T10:20:51.969Z</time></trkpt><trkpt lat="44.5839342" lon="8.5149719"><ele>482.0</ele><time>2026-04-01T10:22:08.973Z</time></trkpt><trkpt lat="44.5838722" lon="8.5150246"><ele>481.99999999999994</ele><time>2026-04-01T10:22:09.972Z</time></trkpt><trkpt lat="44.5838074" lon="8.5150687"><ele>482.0</ele><time>2026-04-01T10:22:10.973Z</time></trkpt><trkpt lat="44.5837102" lon="8.5150995"><ele>482.0</ele><time>2026-04-01T10:22:12.975Z</time></trkpt><trkpt lat="44.5836284" lon="8.5150878"><ele>482.0</ele><time>2026-04-01T10:22:14.972Z</time></trkpt><trkpt lat="44.58356" lon="8.5150471"><ele>481.99999999999994</ele><time>2026-04-01T10:22:16.972Z</time></trkpt><trkpt lat="44.5834892" lon="8.5150026"><ele>482.0</ele><time>2026-04-01T10:22:19.972Z</time></trkpt><trkpt lat="44.5834134" lon="8.5149889"><ele>482.0</ele><time>2026-04-01T10:22:22.972Z</time></trkpt><trkpt lat="44.5833406" lon="8.5149952"><ele>482.00000000000006</ele><time>2026-04-01T10:22:45.971Z</time></trkpt><trkpt lat="44.5834098" lon="8.5150056"><ele>482.00000000000006</ele><time>2026-04-01T10:22:58.972Z</time></trkpt><trkpt lat="44.5835259" lon="8.5150524"><ele>482.0</ele><time>2026-04-01T10:23:00.973Z</time></trkpt><trkpt lat="44.5836409" lon="8.5150955"><ele>482.0</ele><time>2026-04-01T10:23:02.973Z</time></trkpt><trkpt lat="44.5837341" lon="8.515111"><ele>481.99999999999994</ele><time>2026-04-01T10:23:04.974Z</time></trkpt><trkpt lat="44.5838271" lon="8.5150705"><ele>482.0</ele><time>2026-04-01T10:23:06.972Z</time></trkpt><trkpt lat="44.5839192" lon="8.5149984"><ele>482.0</ele><time>2026-04-01T10:23:08.972Z</time></trkpt><trkpt lat="44.584" lon="8.5149405"><ele>482.0</ele><time>2026-04-01T10:23:10.972Z</time></trkpt><trkpt lat="44.5840545" lon="8.5148924"><ele>481.99999999999994</ele><time>2026-04-01T10:23:13.971Z</time></trkpt><trkpt lat="44.5841186" lon="8.5148037"><ele>482.0</ele><time>2026-04-01T10:23:43.971Z</time></trkpt><trkpt lat="44.5841625" lon="8.5147359"><ele>482.0</ele><time>2026-04-01T10:23:44.971Z</time></trkpt><trkpt lat="44.5842165" lon="8.5146528"><ele>482.00000000000006</ele><time>2026-04-01T10:23:45.97Z</time></trkpt><trkpt lat="44.584272" lon="8.5145756"><ele>482.0</ele><time>2026-04-01T10:23:46.973Z</time></trkpt><trkpt lat="44.5843288" lon="8.5145015"><ele>482.0</ele><time>2026-04-01T10:23:47.972Z</time></trkpt><trkpt lat="44.5843843" lon="8.5144343"><ele>482.00000000000006</ele><time>2026-04-01T10:23:48.972Z</time></trkpt><trkpt lat="44.5844351" lon="8.5143698"><ele>482.0</ele><time>2026-04-01T10:23:49.972Z</time></trkpt><trkpt lat="44.5844793" lon="8.5143003"><ele>482.0</ele><time>2026-04-01T10:23:50.971Z</time></trkpt><trkpt lat="44.5845085" lon="8.5142161"><ele>483.14285714285717</ele><time>2026-04-01T10:23:51.972Z</time></trkpt><trkpt lat="44.5845335" lon="8.5141314"><ele>484.28571428571433</ele><time>2026-04-01T10:23:52.972Z</time></trkpt><trkpt lat="44.5845698" lon="8.5140438"><ele>485.42857142857144</ele><time>2026-04-01T10:23:53.972Z</time></trkpt><trkpt lat="44.5846236" lon="8.5139656"><ele>486.57142857142856</ele><time>2026-04-01T10:23:54.973Z</time></trkpt><trkpt lat="44.5846836" lon="8.5138993"><ele>487.7142857142857</ele><time>2026-04-01T10:23:55.972Z</time></trkpt><trkpt lat="44.584754" lon="8.5138658"><ele>488.8571428571429</ele><time>2026-04-01T10:23:56.972Z</time></trkpt><trkpt lat="44.5848306" lon="8.5138421"><ele>490.0</ele><time>2026-04-01T10:23:57.972Z</time></trkpt><trkpt lat="44.584895" lon="8.5138232"><ele>490.0</ele><time>2026-04-01T10:23:58.972Z</time></trkpt><trkpt lat="44.5849668" lon="8.5137643"><ele>490.0</ele><time>2026-04-01T10:24:00.971Z</time></trkpt><trkpt lat="44.584976" lon="8.5136322"><ele>490.0</ele><time>2026-04-01T10:24:03.972Z</time></trkpt><trkpt lat="44.5849348" lon="8.5135148"><ele>490.0</ele><time>2026-04-01T10:24:05.972Z</time></trkpt><trkpt lat="44.5849602" lon="8.5133921"><ele>490.0</ele><time>2026-04-01T10:24:07.973Z</time></trkpt><trkpt lat="44.58503" lon="8.5132501"><ele>490.8</ele><time>2026-04-01T10:24:09.972Z</time></trkpt><trkpt lat="44.5851162" lon="8.5131779"><ele>491.6</ele><time>2026-04-01T10:24:10.972Z</time></trkpt><trkpt lat="44.5852025" lon="8.5131"><ele>492.4</ele><time>2026-04-01T10:24:11.973Z</time></trkpt><trkpt lat="44.5852833" lon="8.5130226"><ele>493.2</ele><time>2026-04-01T10:24:12.971Z</time></trkpt><trkpt lat="44.5853549" lon="8.5129563"><ele>494.0</ele><time>2026-04-01T10:24:13.973Z</time></trkpt><trkpt lat="44.5854131" lon="8.5129094"><ele>498.2</ele><time>2026-04-01T10:24:14.973Z</time></trkpt><trkpt lat="44.5855292" lon="8.5128373"><ele>502.4</ele><time>2026-04-01T10:24:16.971Z</time></trkpt><trkpt lat="44.5855987" lon="8.5128177"><ele>506.6</ele><time>2026-04-01T10:24:17.972Z</time></trkpt><trkpt lat="44.5856791" lon="8.5128195"><ele>510.8</ele><time>2026-04-01T10:24:18.971Z</time></trkpt><trkpt lat="44.5857804" lon="8.5128484"><ele>515.0</ele><time>2026-04-01T10:24:19.972Z</time></trkpt><trkpt lat="44.5858924" lon="8.5128754"><ele>515.0</ele><time>2026-04-01T10:24:20.972Z</time></trkpt><trkpt lat="44.5860107" lon="8.5128878"><ele>515.0</ele><time>2026-04-01T10:24:21.971Z</time></trkpt><trkpt lat="44.5861393" lon="8.5128882"><ele>515.0</ele><time>2026-04-01T10:24:22.975Z</time></trkpt><trkpt lat="44.5862533" lon="8.5128704"><ele>515.0</ele><time>2026-04-01T10:24:23.972Z</time></trkpt><trkpt lat="44.5863509" lon="8.5128485"><ele>513.0</ele><time>2026-04-01T10:24:24.973Z</time></trkpt><trkpt lat="44.5864141" lon="8.5128116"><ele>511.0</ele><time>2026-04-01T10:24:25.972Z</time></trkpt><trkpt lat="44.5864674" lon="8.5127453"><ele>509.0</ele><time>2026-04-01T10:24:26.973Z</time></trkpt><trkpt lat="44.5865046" lon="8.5126587"><ele>507.0</ele><time>2026-04-01T10:24:27.972Z</time></trkpt><trkpt lat="44.5865426" lon="8.5125487"><ele>504.99999999999994</ele><time>2026-04-01T10:24:28.974Z</time></trkpt><trkpt lat="44.5865888" lon="8.5124391"><ele>503.0</ele><time>2026-04-01T10:24:29.972Z</time></trkpt><trkpt lat="44.5866349" lon="8.512344"><ele>502.99999999999994</ele><time>2026-04-01T10:24:30.975Z</time></trkpt><trkpt lat="44.586688" lon="8.512266"><ele>503.0</ele><time>2026-04-01T10:24:31.973Z</time></trkpt><trkpt lat="44.5867422" lon="8.5122207"><ele>503.0</ele><time>2026-04-01T10:24:32.973Z</time></trkpt><trkpt lat="44.5868588" lon="8.5121977"><ele>503.0</ele><time>2026-04-01T10:24:34.971Z</time></trkpt><trkpt lat="44.5869187" lon="8.5121703"><ele>502.99999999999994</ele><time>2026-04-01T10:24:35.973Z</time></trkpt><trkpt lat="44.5869937" lon="8.5120634"><ele>503.0</ele><time>2026-04-01T10:24:37.972Z</time></trkpt><trkpt lat="44.5870388" lon="8.5119252"><ele>503.79999999999995</ele><time>2026-04-01T10:24:39.972Z</time></trkpt><trkpt lat="44.5870862" lon="8.5117656"><ele>504.59999999999997</ele><time>2026-04-01T10:24:41.973Z</time></trkpt><trkpt lat="44.587114" lon="8.5116767"><ele>505.40000000000003</ele><time>2026-04-01T10:24:42.972Z</time></trkpt><trkpt lat="44.5871744" lon="8.5115487"><ele>506.20000000000005</ele><time>2026-04-01T10:24:44.972Z</time></trkpt><trkpt lat="44.5872334" lon="8.5114473"><ele>507.0</ele><time>2026-04-01T10:24:46.972Z</time></trkpt><trkpt lat="44.5872759" lon="8.5113511"><ele>507.0</ele><time>2026-04-01T10:24:48.972Z</time></trkpt><trkpt lat="44.5873243" lon="8.51126"><ele>507.0</ele><time>2026-04-01T10:24:50.974Z</time></trkpt><trkpt lat="44.5873911" lon="8.5112026"><ele>507.0</ele><time>2026-04-01T10:24:52.973Z</time></trkpt><trkpt lat="44.5874597" lon="8.5111415"><ele>507.0</ele><time>2026-04-01T10:24:54.971Z</time></trkpt><trkpt lat="44.5875122" lon="8.5110331"><ele>507.0</ele><time>2026-04-01T10:24:56.971Z</time></trkpt><trkpt lat="44.5875536" lon="8.5109174"><ele>507.0</ele><time>2026-04-01T10:24:58.972Z</time></trkpt><trkpt lat="44.5875715" lon="8.510821"><ele>504.6666666666667</ele><time>2026-04-01T10:25:00.97Z</time></trkpt><trkpt lat="44.5875987" lon="8.5107253"><ele>502.33333333333337</ele><time>2026-04-01T10:25:02.972Z</time></trkpt><trkpt lat="44.5876518" lon="8.5105738"><ele>500.0</ele><time>2026-04-01T10:25:04.972Z</time></trkpt><trkpt lat="44.5876908" lon="8.5104936"><ele>497.6666666666667</ele><time>2026-04-01T10:25:05.972Z</time></trkpt><trkpt lat="44.5877427" lon="8.5104147"><ele>495.33333333333337</ele><time>2026-04-01T10:25:06.972Z</time></trkpt><trkpt lat="44.5878074" lon="8.5103496"><ele>493.0</ele><time>2026-04-01T10:25:07.97Z</time></trkpt><trkpt lat="44.5878743" lon="8.510282"><ele>491.1666666666667</ele><time>2026-04-01T10:25:08.972Z</time></trkpt><trkpt lat="44.5879401" lon="8.5102042"><ele>489.33333333333337</ele><time>2026-04-01T10:25:09.972Z</time></trkpt><trkpt lat="44.5879905" lon="8.5101154"><ele>487.5</ele><time>2026-04-01T10:25:10.971Z</time></trkpt><trkpt lat="44.588025" lon="8.5100243"><ele>485.66666666666663</ele><time>2026-04-01T10:25:11.972Z</time></trkpt><trkpt lat="44.5880488" lon="8.5099337"><ele>483.8333333333333</ele><time>2026-04-01T10:25:12.971Z</time></trkpt><trkpt lat="44.5880809" lon="8.5097827"><ele>482.0</ele><time>2026-04-01T10:25:14.974Z</time></trkpt><trkpt lat="44.5880949" lon="8.5096786"><ele>481.99999999999994</ele><time>2026-04-01T10:25:16.971Z</time></trkpt><trkpt lat="44.5881394" lon="8.5095857"><ele>482.0</ele><time>2026-04-01T10:25:20.974Z</time></trkpt><trkpt lat="44.5882406" lon="8.5095894"><ele>482.0</ele><time>2026-04-01T10:25:23.972Z</time></trkpt><trkpt lat="44.5883686" lon="8.5095896"><ele>482.0</ele><time>2026-04-01T10:25:25.971Z</time></trkpt><trkpt lat="44.5884387" lon="8.5095846"><ele>481.99999999999994</ele><time>2026-04-01T10:25:26.973Z</time></trkpt><trkpt lat="44.5885067" lon="8.5095722"><ele>482.0</ele><time>2026-04-01T10:25:27.971Z</time></trkpt><trkpt lat="44.5885823" lon="8.5095458"><ele>478.8333333333333</ele><time>2026-04-01T10:25:28.972Z</time></trkpt><trkpt lat="44.5886543" lon="8.5095061"><ele>475.66666666666663</ele><time>2026-04-01T10:25:29.971Z</time></trkpt><trkpt lat="44.5887258" lon="8.5094394"><ele>472.5</ele><time>2026-04-01T10:25:30.974Z</time></trkpt><trkpt lat="44.5887917" lon="8.5093699"><ele>469.33333333333337</ele><time>2026-04-01T10:25:31.971Z</time></trkpt><trkpt lat="44.5888626" lon="8.5093074"><ele>466.1666666666667</ele><time>2026-04-01T10:25:32.971Z</time></trkpt><trkpt lat="44.5889368" lon="8.5092463"><ele>463.0</ele><time>2026-04-01T10:25:33.972Z</time></trkpt><trkpt lat="44.5890113" lon="8.5091906"><ele>463.00000000000006</ele><time>2026-04-01T10:25:34.97Z</time></trkpt><trkpt lat="44.5890844" lon="8.5091471"><ele>463.0</ele><time>2026-04-01T10:25:35.974Z</time></trkpt><trkpt lat="44.5891647" lon="8.5091142"><ele>463.0</ele><time>2026-04-01T10:25:36.97Z</time></trkpt><trkpt lat="44.589247" lon="8.5090869"><ele>463.0</ele><time>2026-04-01T10:25:37.972Z</time></trkpt><trkpt lat="44.5893278" lon="8.5090484"><ele>463.00000000000006</ele><time>2026-04-01T10:25:38.971Z</time></trkpt><trkpt lat="44.5894079" lon="8.5090057"><ele>463.0</ele><time>2026-04-01T10:25:39.971Z</time></trkpt><trkpt lat="44.5894906" lon="8.5089672"><ele>461.50000000000006</ele><time>2026-04-01T10:25:40.971Z</time></trkpt><trkpt lat="44.5895759" lon="8.5089286"><ele>460.0</ele><time>2026-04-01T10:25:41.974Z</time></trkpt><trkpt lat="44.5896625" lon="8.5089046"><ele>458.5</ele><time>2026-04-01T10:25:42.971Z</time></trkpt><trkpt lat="44.5897482" lon="8.5088921"><ele>457.0</ele><time>2026-04-01T10:25:43.972Z</time></trkpt><trkpt lat="44.5898358" lon="8.5088902"><ele>455.50000000000006</ele><time>2026-04-01T10:25:44.973Z</time></trkpt><trkpt lat="44.5899222" lon="8.5088842"><ele>454.0</ele><time>2026-04-01T10:25:45.971Z</time></trkpt><trkpt lat="44.5900066" lon="8.5088605"><ele>454.00000000000006</ele><time>2026-04-01T10:25:46.971Z</time></trkpt><trkpt lat="44.5900863" lon="8.5088136"><ele>454.0</ele><time>2026-04-01T10:25:47.972Z</time></trkpt><trkpt lat="44.5901622" lon="8.5087577"><ele>454.0</ele><time>2026-04-01T10:25:48.97Z</time></trkpt><trkpt lat="44.5902303" lon="8.5086967"><ele>454.0</ele><time>2026-04-01T10:25:49.972Z</time></trkpt><trkpt lat="44.5903012" lon="8.5086266"><ele>454.00000000000006</ele><time>2026-04-01T10:25:50.971Z</time></trkpt><trkpt lat="44.5903552" lon="8.5085132"><ele>454.0</ele><time>2026-04-01T10:25:51.97Z</time></trkpt><trkpt lat="44.5903949" lon="8.5083658"><ele>453.2</ele><time>2026-04-01T10:25:52.97Z</time></trkpt><trkpt lat="44.5904338" lon="8.5082286"><ele>452.4</ele><time>2026-04-01T10:25:53.971Z</time></trkpt><trkpt lat="44.5904698" lon="8.5080943"><ele>451.6</ele><time>2026-04-01T10:25:54.972Z</time></trkpt><trkpt lat="44.5905083" lon="8.507962"><ele>450.8</ele><time>2026-04-01T10:25:55.971Z</time></trkpt><trkpt lat="44.5905519" lon="8.5078333"><ele>450.0</ele><time>2026-04-01T10:25:56.971Z</time></trkpt><trkpt lat="44.5905994" lon="8.5077103"><ele>447.8333333333333</ele><time>2026-04-01T10:25:57.971Z</time></trkpt><trkpt lat="44.5906393" lon="8.5075974"><ele>445.66666666666663</ele><time>2026-04-01T10:25:58.974Z</time></trkpt><trkpt lat="44.5906595" lon="8.5074826"><ele>443.5</ele><time>2026-04-01T10:25:59.972Z</time></trkpt><trkpt lat="44.59066" lon="8.5073647"><ele>441.3333333333333</ele><time>2026-04-01T10:26:00.973Z</time></trkpt><trkpt lat="44.5906489" lon="8.5072536"><ele>439.16666666666663</ele><time>2026-04-01T10:26:01.972Z</time></trkpt><trkpt lat="44.5906216" lon="8.5071506"><ele>437.0</ele><time>2026-04-01T10:26:02.973Z</time></trkpt><trkpt lat="44.5905807" lon="8.5070635"><ele>434.99999999999994</ele><time>2026-04-01T10:26:03.973Z</time></trkpt><trkpt lat="44.5905352" lon="8.5069937"><ele>433.0</ele><time>2026-04-01T10:26:04.973Z</time></trkpt><trkpt lat="44.5904139" lon="8.5069385"><ele>431.0</ele><time>2026-04-01T10:26:06.971Z</time></trkpt><trkpt lat="44.5903388" lon="8.5069557"><ele>429.0</ele><time>2026-04-01T10:26:07.971Z</time></trkpt><trkpt lat="44.5902573" lon="8.5069914"><ele>426.99999999999994</ele><time>2026-04-01T10:26:08.972Z</time></trkpt><trkpt lat="44.590167" lon="8.5070156"><ele>425.0</ele><time>2026-04-01T10:26:09.971Z</time></trkpt><trkpt lat="44.5900644" lon="8.5070289"><ele>424.99999999999994</ele><time>2026-04-01T10:26:10.971Z</time></trkpt><trkpt lat="44.5899613" lon="8.5070307"><ele>425.0</ele><time>2026-04-01T10:26:11.972Z</time></trkpt><trkpt lat="44.5898669" lon="8.5070272"><ele>425.0</ele><time>2026-04-01T10:26:12.972Z</time></trkpt><trkpt lat="44.5897831" lon="8.5070231"><ele>425.0</ele><time>2026-04-01T10:26:13.972Z</time></trkpt><trkpt lat="44.5897141" lon="8.5070141"><ele>424.99999999999994</ele><time>2026-04-01T10:26:14.972Z</time></trkpt><trkpt lat="44.5896374" lon="8.5069591"><ele>425.0</ele><time>2026-04-01T10:26:16.973Z</time></trkpt><trkpt lat="44.5896621" lon="8.5068707"><ele>424.99999999999994</ele><time>2026-04-01T10:26:18.97Z</time></trkpt><trkpt lat="44.5897296" lon="8.5067542"><ele>425.0</ele><time>2026-04-01T10:26:20.972Z</time></trkpt><trkpt lat="44.5897354" lon="8.5066559"><ele>425.0</ele><time>2026-04-01T10:26:22.972Z</time></trkpt><trkpt lat="44.5896518" lon="8.5066483"><ele>425.0</ele><time>2026-04-01T10:26:24.973Z</time></trkpt><trkpt lat="44.5895734" lon="8.5066677"><ele>424.99999999999994</ele><time>2026-04-01T10:26:25.974Z</time></trkpt><trkpt lat="44.5895003" lon="8.5066696"><ele>425.0</ele><time>2026-04-01T10:26:26.971Z</time></trkpt><trkpt lat="44.5894182" lon="8.5066554"><ele>424.3333333333333</ele><time>2026-04-01T10:26:27.972Z</time></trkpt><trkpt lat="44.5893381" lon="8.506644"><ele>423.66666666666663</ele><time>2026-04-01T10:26:28.972Z</time></trkpt><trkpt lat="44.5892533" lon="8.5066351"><ele>423.0</ele><time>2026-04-01T10:26:29.971Z</time></trkpt><trkpt lat="44.5891861" lon="8.5066231"><ele>422.33333333333337</ele><time>2026-04-01T10:26:30.972Z</time></trkpt><trkpt lat="44.5890998" lon="8.5065639"><ele>421.6666666666667</ele><time>2026-04-01T10:26:32.974Z</time></trkpt><trkpt lat="44.5891052" lon="8.5064368"><ele>421.0</ele><time>2026-04-01T10:26:34.971Z</time></trkpt><trkpt lat="44.5891255" lon="8.5063434"><ele>418.4</ele><time>2026-04-01T10:26:35.97Z</time></trkpt><trkpt lat="44.5891283" lon="8.5061868"><ele>415.8</ele><time>2026-04-01T10:26:37.972Z</time></trkpt><trkpt lat="44.589114" lon="8.506053"><ele>413.2</ele><time>2026-04-01T10:26:39.971Z</time></trkpt><trkpt lat="44.5891038" lon="8.5058892"><ele>410.59999999999997</ele><time>2026-04-01T10:26:41.971Z</time></trkpt><trkpt lat="44.5891139" lon="8.5057793"><ele>408.0</ele><time>2026-04-01T10:26:43.972Z</time></trkpt><trkpt lat="44.5890957" lon="8.5056842"><ele>408.0</ele><time>2026-04-01T10:26:45.971Z</time></trkpt><trkpt lat="44.5889935" lon="8.5056674"><ele>408.0</ele><time>2026-04-01T10:26:48.971Z</time></trkpt><trkpt lat="44.5889132" lon="8.5056826"><ele>408.0</ele><time>2026-04-01T10:26:50.972Z</time></trkpt><trkpt lat="44.5888425" lon="8.5056631"><ele>408.0</ele><time>2026-04-01T10:26:52.972Z</time></trkpt><trkpt lat="44.5887643" lon="8.5056351"><ele>408.0</ele><time>2026-04-01T10:26:55.972Z</time></trkpt><trkpt lat="44.588717" lon="8.5055624"><ele>408.0</ele><time>2026-04-01T10:26:58.972Z</time></trkpt><trkpt lat="44.5887296" lon="8.5054374"><ele>405.5</ele><time>2026-04-01T10:27:01.972Z</time></trkpt><trkpt lat="44.5887537" lon="8.5053403"><ele>403.0</ele><time>2026-04-01T10:27:03.972Z</time></trkpt><trkpt lat="44.5887726" lon="8.5052324"><ele>400.5</ele><time>2026-04-01T10:27:05.973Z</time></trkpt><trkpt lat="44.5887916" lon="8.5051216"><ele>398.0</ele><time>2026-04-01T10:27:07.972Z</time></trkpt><trkpt lat="44.5888003" lon="8.504997"><ele>395.5</ele><time>2026-04-01T10:27:09.971Z</time></trkpt><trkpt lat="44.5887935" lon="8.5048765"><ele>393.0</ele><time>2026-04-01T10:27:11.972Z</time></trkpt><trkpt lat="44.5887926" lon="8.5047598"><ele>393.0</ele><time>2026-04-01T10:27:13.971Z</time></trkpt><trkpt lat="44.5887764" lon="8.5046429"><ele>393.0</ele><time>2026-04-01T10:27:15.971Z</time></trkpt><trkpt lat="44.5887304" lon="8.5045134"><ele>393.0</ele><time>2026-04-01T10:27:17.972Z</time></trkpt><trkpt lat="44.588675" lon="8.5043661"><ele>393.0</ele><time>2026-04-01T10:27:19.972Z</time></trkpt><trkpt lat="44.5886093" lon="8.5042279"><ele>393.0</ele><time>2026-04-01T10:27:21.972Z</time></trkpt><trkpt lat="44.5885411" lon="8.5041179"><ele>390.4</ele><time>2026-04-01T10:27:23.971Z</time></trkpt><trkpt lat="44.5884527" lon="8.5040359"><ele>387.79999999999995</ele><time>2026-04-01T10:27:25.972Z</time></trkpt><trkpt lat="44.588349" lon="8.5039828"><ele>385.2</ele><time>2026-04-01T10:27:27.97Z</time></trkpt><trkpt lat="44.5882585" lon="8.5039619"><ele>382.6</ele><time>2026-04-01T10:27:29.973Z</time></trkpt><trkpt lat="44.5881558" lon="8.5039768"><ele>380.0</ele><time>2026-04-01T10:27:31.973Z</time></trkpt><trkpt lat="44.5880895" lon="8.5040069"><ele>380.0</ele><time>2026-04-01T10:27:32.974Z</time></trkpt><trkpt lat="44.5880005" lon="8.5040468"><ele>380.0</ele><time>2026-04-01T10:27:33.97Z</time></trkpt><trkpt lat="44.5878983" lon="8.5040865"><ele>380.0</ele><time>2026-04-01T10:27:34.973Z</time></trkpt><trkpt lat="44.5877754" lon="8.504072"><ele>380.0</ele><time>2026-04-01T10:27:35.972Z</time></trkpt><trkpt lat="44.5876378" lon="8.5040319"><ele>379.5</ele><time>2026-04-01T10:27:36.972Z</time></trkpt><trkpt lat="44.5875049" lon="8.5039903"><ele>379.0</ele><time>2026-04-01T10:27:37.973Z</time></trkpt><trkpt lat="44.5873825" lon="8.5039548"><ele>378.5</ele><time>2026-04-01T10:27:38.972Z</time></trkpt><trkpt lat="44.5872664" lon="8.5039607"><ele>378.0</ele><time>2026-04-01T10:27:39.971Z</time></trkpt><trkpt lat="44.587139" lon="8.5039868"><ele>378.6666666666667</ele><time>2026-04-01T10:27:40.972Z</time></trkpt><trkpt lat="44.5869909" lon="8.5040353"><ele>379.33333333333337</ele><time>2026-04-01T10:27:41.972Z</time></trkpt><trkpt lat="44.5868275" lon="8.5040859"><ele>380.0</ele><time>2026-04-01T10:27:42.97Z</time></trkpt><trkpt lat="44.5866697" lon="8.5041342"><ele>380.0</ele><time>2026-04-01T10:27:43.971Z</time></trkpt><trkpt lat="44.5865304" lon="8.5041856"><ele>380.0</ele><time>2026-04-01T10:27:44.971Z</time></trkpt><trkpt lat="44.5863843" lon="8.5042477"><ele>380.0</ele><time>2026-04-01T10:27:45.971Z</time></trkpt><trkpt lat="44.5862415" lon="8.504315"><ele>380.0</ele><time>2026-04-01T10:27:46.972Z</time></trkpt><trkpt lat="44.5861174" lon="8.5043801"><ele>379.83333333333337</ele><time>2026-04-01T10:27:47.974Z</time></trkpt><trkpt lat="44.5860145" lon="8.5044347"><ele>379.6666666666667</ele><time>2026-04-01T10:27:48.971Z</time></trkpt><trkpt lat="44.5859288" lon="8.5044701"><ele>379.5</ele><time>2026-04-01T10:27:49.972Z</time></trkpt><trkpt lat="44.585854" lon="8.5044864"><ele>379.3333333333333</ele><time>2026-04-01T10:27:50.974Z</time></trkpt><trkpt lat="44.5857732" lon="8.5045043"><ele>379.16666666666663</ele><time>2026-04-01T10:27:51.971Z</time></trkpt><trkpt lat="44.5856947" lon="8.5045286"><ele>379.0</ele><time>2026-04-01T10:27:52.971Z</time></trkpt><trkpt lat="44.5856234" lon="8.5045349"><ele>379.0</ele><time>2026-04-01T10:27:53.972Z</time></trkpt><trkpt lat="44.5855502" lon="8.5045255"><ele>379.0</ele><time>2026-04-01T10:27:54.971Z</time></trkpt><trkpt lat="44.5854869" lon="8.5045254"><ele>379.0</ele><time>2026-04-01T10:27:55.971Z</time></trkpt><trkpt lat="44.585394" lon="8.5045837"><ele>379.0</ele><time>2026-04-01T10:27:57.972Z</time></trkpt><trkpt lat="44.5853095" lon="8.5046847"><ele>379.0</ele><time>2026-04-01T10:27:59.971Z</time></trkpt><trkpt lat="44.5851918" lon="8.5046723"><ele>379.2</ele><time>2026-04-01T10:28:01.973Z</time></trkpt><trkpt lat="44.5851194" lon="8.5046307"><ele>379.4</ele><time>2026-04-01T10:28:02.974Z</time></trkpt><trkpt lat="44.5850371" lon="8.5045899"><ele>379.6</ele><time>2026-04-01T10:28:03.972Z</time></trkpt><trkpt lat="44.5849496" lon="8.5045384"><ele>379.8</ele><time>2026-04-01T10:28:04.971Z</time></trkpt><trkpt lat="44.584853" lon="8.5044647"><ele>380.0</ele><time>2026-04-01T10:28:05.972Z</time></trkpt><trkpt lat="44.5847494" lon="8.5043893"><ele>380.0</ele><time>2026-04-01T10:28:06.971Z</time></trkpt><trkpt lat="44.5846538" lon="8.5043325"><ele>380.0</ele><time>2026-04-01T10:28:07.973Z</time></trkpt><trkpt lat="44.5845566" lon="8.5042789"><ele>380.0</ele><time>2026-04-01T10:28:08.972Z</time></trkpt><trkpt lat="44.5844504" lon="8.5042067"><ele>380.0</ele><time>2026-04-01T10:28:09.972Z</time></trkpt><trkpt lat="44.584358" lon="8.5041323"><ele>380.0</ele><time>2026-04-01T10:28:10.972Z</time></trkpt><trkpt lat="44.5842814" lon="8.5040614"><ele>381.6666666666667</ele><time>2026-04-01T10:28:11.972Z</time></trkpt><trkpt lat="44.5842015" lon="8.5039998"><ele>383.33333333333337</ele><time>2026-04-01T10:28:12.97Z</time></trkpt><trkpt lat="44.5841197" lon="8.5039565"><ele>385.0</ele><time>2026-04-01T10:28:13.972Z</time></trkpt><trkpt lat="44.5840456" lon="8.5039439"><ele>386.6666666666667</ele><time>2026-04-01T10:28:14.972Z</time></trkpt><trkpt lat="44.5839753" lon="8.5039445"><ele>388.3333333333333</ele><time>2026-04-01T10:28:15.971Z</time></trkpt><trkpt lat="44.58391" lon="8.5039382"><ele>390.0</ele><time>2026-04-01T10:28:16.971Z</time></trkpt><trkpt lat="44.5838242" lon="8.5039163"><ele>390.0</ele><time>2026-04-01T10:28:18.971Z</time></trkpt><trkpt lat="44.5837537" lon="8.5039004"><ele>390.0</ele><time>2026-04-01T10:28:21.971Z</time></trkpt><trkpt lat="44.5836931" lon="8.5038483"><ele>390.0</ele><time>2026-04-01T10:28:40.971Z</time></trkpt><trkpt lat="44.5836231" lon="8.5037945"><ele>390.0</ele><time>2026-04-01T10:28:56.972Z</time></trkpt><trkpt lat="44.5835398" lon="8.5037499"><ele>390.0</ele><time>2026-04-01T10:28:58.972Z</time></trkpt><trkpt lat="44.5834739" lon="8.503707"><ele>390.0</ele><time>2026-04-01T10:28:59.973Z</time></trkpt><trkpt lat="44.583399" lon="8.5036761"><ele>387.5</ele><time>2026-04-01T10:29:00.971Z</time></trkpt><trkpt lat="44.5833133" lon="8.5036627"><ele>385.0</ele><time>2026-04-01T10:29:01.972Z</time></trkpt><trkpt lat="44.5832252" lon="8.5036504"><ele>382.5</ele><time>2026-04-01T10:29:02.973Z</time></trkpt><trkpt lat="44.5831414" lon="8.5036263"><ele>380.0</ele><time>2026-04-01T10:29:03.971Z</time></trkpt><trkpt lat="44.5830636" lon="8.5035893"><ele>377.5</ele><time>2026-04-01T10:29:04.972Z</time></trkpt><trkpt lat="44.5829959" lon="8.5035394"><ele>375.0</ele><time>2026-04-01T10:29:05.973Z</time></trkpt><trkpt lat="44.5829395" lon="8.5034858"><ele>375.0</ele><time>2026-04-01T10:29:06.972Z</time></trkpt><trkpt lat="44.5828598" lon="8.503393"><ele>375.0</ele><time>2026-04-01T10:29:08.972Z</time></trkpt><trkpt lat="44.5827748" lon="8.5032989"><ele>375.0</ele><time>2026-04-01T10:29:10.973Z</time></trkpt><trkpt lat="44.5826949" lon="8.5032282"><ele>375.0</ele><time>2026-04-01T10:29:12.972Z</time></trkpt><trkpt lat="44.5825993" lon="8.503135"><ele>375.0</ele><time>2026-04-01T10:29:14.973Z</time></trkpt><trkpt lat="44.5825304" lon="8.5030671"><ele>375.8</ele><time>2026-04-01T10:29:15.971Z</time></trkpt><trkpt lat="44.5824658" lon="8.5029847"><ele>376.6</ele><time>2026-04-01T10:29:16.972Z</time></trkpt><trkpt lat="44.5823577" lon="8.5029131"><ele>377.4</ele><time>2026-04-01T10:29:18.971Z</time></trkpt><trkpt lat="44.5822812" lon="8.502852"><ele>378.2</ele><time>2026-04-01T10:29:19.97Z</time></trkpt><trkpt lat="44.5821999" lon="8.502803"><ele>379.0</ele><time>2026-04-01T10:29:20.972Z</time></trkpt><trkpt lat="44.5821071" lon="8.5027478"><ele>379.0</ele><time>2026-04-01T10:29:21.971Z</time></trkpt><trkpt lat="44.5820243" lon="8.5027133"><ele>379.0</ele><time>2026-04-01T10:29:22.972Z</time></trkpt><trkpt lat="44.5819476" lon="8.50269"><ele>379.0</ele><time>2026-04-01T10:29:23.971Z</time></trkpt><trkpt lat="44.5818747" lon="8.5026541"><ele>379.0</ele><time>2026-04-01T10:29:24.971Z</time></trkpt><trkpt lat="44.5818014" lon="8.5026075"><ele>379.0</ele><time>2026-04-01T10:29:25.971Z</time></trkpt><trkpt lat="44.5817457" lon="8.5025276"><ele>379.0</ele><time>2026-04-01T10:29:26.973Z</time></trkpt><trkpt lat="44.5817109" lon="8.5024465"><ele>380.2</ele><time>2026-04-01T10:29:27.97Z</time></trkpt><trkpt lat="44.5816876" lon="8.5023472"><ele>381.4</ele><time>2026-04-01T10:29:28.972Z</time></trkpt><trkpt lat="44.5816826" lon="8.5022311"><ele>382.6</ele><time>2026-04-01T10:29:29.973Z</time></trkpt><trkpt lat="44.5816682" lon="8.502084"><ele>383.8</ele><time>2026-04-01T10:29:30.971Z</time></trkpt><trkpt lat="44.581636" lon="8.5019168"><ele>385.0</ele><time>2026-04-01T10:29:31.972Z</time></trkpt><trkpt lat="44.5816337" lon="8.5017667"><ele>385.0</ele><time>2026-04-01T10:29:32.972Z</time></trkpt><trkpt lat="44.5816268" lon="8.5016301"><ele>385.0</ele><time>2026-04-01T10:29:33.97Z</time></trkpt><trkpt lat="44.5816096" lon="8.501537"><ele>385.0</ele><time>2026-04-01T10:29:34.971Z</time></trkpt><trkpt lat="44.5815879" lon="8.5014053"><ele>385.0</ele><time>2026-04-01T10:29:35.971Z</time></trkpt><trkpt lat="44.5815607" lon="8.5012826"><ele>385.0</ele><time>2026-04-01T10:29:36.971Z</time></trkpt><trkpt lat="44.5814855" lon="8.5011644"><ele>386.33333333333337</ele><time>2026-04-01T10:29:38.973Z</time></trkpt><trkpt lat="44.5814198" lon="8.5011029"><ele>387.6666666666667</ele><time>2026-04-01T10:29:39.97Z</time></trkpt><trkpt lat="44.5813368" lon="8.5010685"><ele>389.0</ele><time>2026-04-01T10:29:40.97Z</time></trkpt><trkpt lat="44.5812486" lon="8.5010359"><ele>390.33333333333337</ele><time>2026-04-01T10:29:41.972Z</time></trkpt><trkpt lat="44.5811605" lon="8.5010051"><ele>391.6666666666667</ele><time>2026-04-01T10:29:42.971Z</time></trkpt><trkpt lat="44.5810847" lon="8.5009753"><ele>393.0</ele><time>2026-04-01T10:29:43.972Z</time></trkpt><trkpt lat="44.5810021" lon="8.500938"><ele>393.0</ele><time>2026-04-01T10:29:44.972Z</time></trkpt><trkpt lat="44.5809223" lon="8.5009033"><ele>393.0</ele><time>2026-04-01T10:29:45.97Z</time></trkpt><trkpt lat="44.580847" lon="8.5008808"><ele>393.0</ele><time>2026-04-01T10:29:46.972Z</time></trkpt><trkpt lat="44.5807759" lon="8.5008629"><ele>393.0</ele><time>2026-04-01T10:29:47.972Z</time></trkpt><trkpt lat="44.5807035" lon="8.500847"><ele>393.0</ele><time>2026-04-01T10:29:49.971Z</time></trkpt><trkpt lat="44.5806095" lon="8.5008564"><ele>393.0</ele><time>2026-04-01T10:30:27.971Z</time></trkpt><trkpt lat="44.5805078" lon="8.5008415"><ele>393.0</ele><time>2026-04-01T10:30:29.972Z</time></trkpt><trkpt lat="44.5804492" lon="8.500805"><ele>393.0</ele><time>2026-04-01T10:30:30.972Z</time></trkpt><trkpt lat="44.5803888" lon="8.5007475"><ele>393.0</ele><time>2026-04-01T10:30:31.974Z</time></trkpt><trkpt lat="44.5803157" lon="8.5006859"><ele>393.0</ele><time>2026-04-01T10:30:32.972Z</time></trkpt><trkpt lat="44.5802398" lon="8.5006637"><ele>393.0</ele><time>2026-04-01T10:30:33.971Z</time></trkpt><trkpt lat="44.5801554" lon="8.5006466"><ele>393.0</ele><time>2026-04-01T10:30:34.971Z</time></trkpt><trkpt lat="44.5800756" lon="8.5006406"><ele>393.59999999999997</ele><time>2026-04-01T10:30:35.972Z</time></trkpt><trkpt lat="44.5799915" lon="8.500659"><ele>394.2</ele><time>2026-04-01T10:30:36.972Z</time></trkpt><trkpt lat="44.5798971" lon="8.5007058"><ele>394.8</ele><time>2026-04-01T10:30:37.973Z</time></trkpt><trkpt lat="44.5797911" lon="8.5007594"><ele>395.4</ele><time>2026-04-01T10:30:38.973Z</time></trkpt><trkpt lat="44.5796944" lon="8.5008375"><ele>396.0</ele><time>2026-04-01T10:30:39.971Z</time></trkpt><trkpt lat="44.5796093" lon="8.500924"><ele>396.0</ele><time>2026-04-01T10:30:40.972Z</time></trkpt><trkpt lat="44.5795488" lon="8.501008"><ele>396.0</ele><time>2026-04-01T10:30:41.972Z</time></trkpt><trkpt lat="44.5794913" lon="8.5010803"><ele>396.0</ele><time>2026-04-01T10:30:42.971Z</time></trkpt><trkpt lat="44.5793597" lon="8.5011647"><ele>396.0</ele><time>2026-04-01T10:30:44.972Z</time></trkpt><trkpt lat="44.5792761" lon="8.5011927"><ele>396.0</ele><time>2026-04-01T10:30:45.971Z</time></trkpt><trkpt lat="44.5791775" lon="8.5012069"><ele>396.6</ele><time>2026-04-01T10:30:46.972Z</time></trkpt><trkpt lat="44.5790718" lon="8.5012172"><ele>397.20000000000005</ele><time>2026-04-01T10:30:47.972Z</time></trkpt><trkpt lat="44.5789773" lon="8.5012509"><ele>397.79999999999995</ele><time>2026-04-01T10:30:48.971Z</time></trkpt><trkpt lat="44.5788687" lon="8.5012751"><ele>398.4</ele><time>2026-04-01T10:30:49.97Z</time></trkpt><trkpt lat="44.5787665" lon="8.5012712"><ele>399.0</ele><time>2026-04-01T10:30:50.972Z</time></trkpt><trkpt lat="44.5786778" lon="8.5012436"><ele>399.8333333333333</ele><time>2026-04-01T10:30:51.971Z</time></trkpt><trkpt lat="44.5786076" lon="8.5012208"><ele>400.66666666666663</ele><time>2026-04-01T10:30:52.972Z</time></trkpt><trkpt lat="44.5785401" lon="8.5012275"><ele>401.5</ele><time>2026-04-01T10:30:53.972Z</time></trkpt><trkpt lat="44.5784634" lon="8.5012599"><ele>402.3333333333333</ele><time>2026-04-01T10:30:54.972Z</time></trkpt><trkpt lat="44.5783681" lon="8.5013048"><ele>403.16666666666663</ele><time>2026-04-01T10:30:55.972Z</time></trkpt><trkpt lat="44.5782561" lon="8.5013466"><ele>404.0</ele><time>2026-04-01T10:30:56.973Z</time></trkpt><trkpt lat="44.5781358" lon="8.5013733"><ele>407.0</ele><time>2026-04-01T10:30:57.971Z</time></trkpt><trkpt lat="44.5780141" lon="8.5013905"><ele>410.0</ele><time>2026-04-01T10:30:58.971Z</time></trkpt><trkpt lat="44.5778829" lon="8.5014103"><ele>413.0</ele><time>2026-04-01T10:30:59.973Z</time></trkpt><trkpt lat="44.5777641" lon="8.5014286"><ele>416.0</ele><time>2026-04-01T10:31:00.971Z</time></trkpt><trkpt lat="44.57766" lon="8.5014503"><ele>416.0</ele><time>2026-04-01T10:31:01.971Z</time></trkpt><trkpt lat="44.5775835" lon="8.5014536"><ele>416.0</ele><time>2026-04-01T10:31:02.972Z</time></trkpt><trkpt lat="44.5775158" lon="8.5014441"><ele>416.0</ele><time>2026-04-01T10:31:03.972Z</time></trkpt><trkpt lat="44.5774085" lon="8.5014007"><ele>416.0</ele><time>2026-04-01T10:31:05.972Z</time></trkpt><trkpt lat="44.5773447" lon="8.5014029"><ele>416.0</ele><time>2026-04-01T10:31:06.971Z</time></trkpt><trkpt lat="44.5772102" lon="8.5014486"><ele>416.0</ele><time>2026-04-01T10:31:08.973Z</time></trkpt><trkpt lat="44.5771088" lon="8.5014917"><ele>416.0</ele><time>2026-04-01T10:31:09.97Z</time></trkpt><trkpt lat="44.5770031" lon="8.5015319"><ele>416.0</ele><time>2026-04-01T10:31:10.972Z</time></trkpt><trkpt lat="44.5769044" lon="8.5015671"><ele>416.0</ele><time>2026-04-01T10:31:11.972Z</time></trkpt><trkpt lat="44.5767972" lon="8.5015839"><ele>416.0</ele><time>2026-04-01T10:31:12.971Z</time></trkpt><trkpt lat="44.5766789" lon="8.5015895"><ele>416.5</ele><time>2026-04-01T10:31:13.972Z</time></trkpt><trkpt lat="44.5765431" lon="8.5015675"><ele>417.0</ele><time>2026-04-01T10:31:14.972Z</time></trkpt><trkpt lat="44.5764075" lon="8.5015499"><ele>417.5</ele><time>2026-04-01T10:31:15.973Z</time></trkpt><trkpt lat="44.5762828" lon="8.5015414"><ele>418.0</ele><time>2026-04-01T10:31:16.972Z</time></trkpt><trkpt lat="44.5761714" lon="8.5015253"><ele>418.1666666666667</ele><time>2026-04-01T10:31:17.972Z</time></trkpt><trkpt lat="44.5760751" lon="8.5015134"><ele>418.33333333333337</ele><time>2026-04-01T10:31:18.971Z</time></trkpt><trkpt lat="44.5759994" lon="8.5014996"><ele>418.5</ele><time>2026-04-01T10:31:19.971Z</time></trkpt><trkpt lat="44.575896" lon="8.5014959"><ele>418.66666666666663</ele><time>2026-04-01T10:31:21.972Z</time></trkpt><trkpt lat="44.5758307" lon="8.5014955"><ele>418.8333333333333</ele><time>2026-04-01T10:31:24.971Z</time></trkpt><trkpt lat="44.575763" lon="8.501546"><ele>419.0</ele><time>2026-04-01T10:31:29.972Z</time></trkpt><trkpt lat="44.5757227" lon="8.5016202"><ele>418.99999999999994</ele><time>2026-04-01T10:31:31.973Z</time></trkpt><trkpt lat="44.5756815" lon="8.5017044"><ele>419.0</ele><time>2026-04-01T10:31:33.972Z</time></trkpt><trkpt lat="44.5756234" lon="8.5017421"><ele>419.0</ele><time>2026-04-01T10:31:37.972Z</time></trkpt><trkpt lat="44.5755632" lon="8.5016951"><ele>419.0</ele><time>2026-04-01T10:32:27.971Z</time></trkpt><trkpt lat="44.5754691" lon="8.5016557"><ele>418.99999999999994</ele><time>2026-04-01T10:32:30.971Z</time></trkpt><trkpt lat="44.5753409" lon="8.5016889"><ele>419.0</ele><time>2026-04-01T10:32:32.972Z</time></trkpt><trkpt lat="44.5752716" lon="8.5017074"><ele>420.25</ele><time>2026-04-01T10:32:33.971Z</time></trkpt><trkpt lat="44.5751497" lon="8.5017272"><ele>421.5</ele><time>2026-04-01T10:32:35.971Z</time></trkpt><trkpt lat="44.575039" lon="8.5017765"><ele>422.75</ele><time>2026-04-01T10:32:37.972Z</time></trkpt><trkpt lat="44.5749407" lon="8.5018243"><ele>424.0</ele><time>2026-04-01T10:32:39.971Z</time></trkpt><trkpt lat="44.5748265" lon="8.501888"><ele>424.0</ele><time>2026-04-01T10:32:41.972Z</time></trkpt><trkpt lat="44.5747279" lon="8.5019771"><ele>424.0</ele><time>2026-04-01T10:32:43.973Z</time></trkpt><trkpt lat="44.5746145" lon="8.5020407"><ele>424.0</ele><time>2026-04-01T10:32:45.972Z</time></trkpt><trkpt lat="44.5745469" lon="8.5020476"><ele>424.0</ele><time>2026-04-01T10:32:46.972Z</time></trkpt><trkpt lat="44.5744865" lon="8.5020754"><ele>424.0</ele><time>2026-04-01T10:32:47.972Z</time></trkpt><trkpt lat="44.5744073" lon="8.5021677"><ele>425.4</ele><time>2026-04-01T10:32:49.972Z</time></trkpt><trkpt lat="44.5743275" lon="8.5022761"><ele>426.79999999999995</ele><time>2026-04-01T10:32:51.971Z</time></trkpt><trkpt lat="44.5742283" lon="8.5023701"><ele>428.20000000000005</ele><time>2026-04-01T10:32:53.972Z</time></trkpt><trkpt lat="44.5741283" lon="8.5024036"><ele>429.6</ele><time>2026-04-01T10:32:55.972Z</time></trkpt><trkpt lat="44.5740715" lon="8.5022953"><ele>431.0</ele><time>2026-04-01T10:32:57.972Z</time></trkpt><trkpt lat="44.5740923" lon="8.5021759"><ele>430.99999999999994</ele><time>2026-04-01T10:32:59.974Z</time></trkpt><trkpt lat="44.5741492" lon="8.5021096"><ele>431.0</ele><time>2026-04-01T10:33:01.973Z</time></trkpt><trkpt lat="44.5742416" lon="8.5020547"><ele>431.0</ele><time>2026-04-01T10:33:03.97Z</time></trkpt><trkpt lat="44.5743288" lon="8.5019695"><ele>431.0</ele><time>2026-04-01T10:33:05.971Z</time></trkpt><trkpt lat="44.5743647" lon="8.5018511"><ele>430.99999999999994</ele><time>2026-04-01T10:33:07.972Z</time></trkpt><trkpt lat="44.5743679" lon="8.5017567"><ele>431.0</ele><time>2026-04-01T10:33:08.972Z</time></trkpt><trkpt lat="44.5743788" lon="8.5016468"><ele>433.6</ele><time>2026-04-01T10:33:09.971Z</time></trkpt><trkpt lat="44.5743914" lon="8.5015497"><ele>436.20000000000005</ele><time>2026-04-01T10:33:10.971Z</time></trkpt><trkpt lat="44.5743872" lon="8.5014118"><ele>438.79999999999995</ele><time>2026-04-01T10:33:12.971Z</time></trkpt><trkpt lat="44.5742838" lon="8.5014387"><ele>441.4</ele><time>2026-04-01T10:33:15.971Z</time></trkpt><trkpt lat="44.5741774" lon="8.5014967"><ele>444.0</ele><time>2026-04-01T10:33:17.971Z</time></trkpt><trkpt lat="44.5740812" lon="8.5015431"><ele>444.0</ele><time>2026-04-01T10:33:19.972Z</time></trkpt><trkpt lat="44.5739796" lon="8.5015834"><ele>444.0</ele><time>2026-04-01T10:33:21.972Z</time></trkpt><trkpt lat="44.5738781" lon="8.5016435"><ele>444.0</ele><time>2026-04-01T10:33:23.97Z</time></trkpt><trkpt lat="44.573822" lon="8.5016912"><ele>444.0</ele><time>2026-04-01T10:33:24.97Z</time></trkpt><trkpt lat="44.5737229" lon="8.5018076"><ele>444.0</ele><time>2026-04-01T10:33:26.971Z</time></trkpt><trkpt lat="44.5736669" lon="8.5018536"><ele>446.1666666666667</ele><time>2026-04-01T10:33:27.97Z</time></trkpt><trkpt lat="44.5735884" lon="8.50186"><ele>448.33333333333337</ele><time>2026-04-01T10:33:29.971Z</time></trkpt><trkpt lat="44.573544" lon="8.5017094"><ele>450.5</ele><time>2026-04-01T10:33:31.972Z</time></trkpt><trkpt lat="44.5735448" lon="8.501601"><ele>452.6666666666667</ele><time>2026-04-01T10:33:32.973Z</time></trkpt><trkpt lat="44.5735522" lon="8.5014794"><ele>454.83333333333337</ele><time>2026-04-01T10:33:33.97Z</time></trkpt><trkpt lat="44.5735447" lon="8.5013849"><ele>457.0</ele><time>2026-04-01T10:33:34.971Z</time></trkpt><trkpt lat="44.5734908" lon="8.501256"><ele>460.8</ele><time>2026-04-01T10:33:36.972Z</time></trkpt><trkpt lat="44.5734238" lon="8.5011473"><ele>464.6</ele><time>2026-04-01T10:33:38.973Z</time></trkpt><trkpt lat="44.5732998" lon="8.5010897"><ele>468.40000000000003</ele><time>2026-04-01T10:33:40.972Z</time></trkpt><trkpt lat="44.5732336" lon="8.5011178"><ele>472.20000000000005</ele><time>2026-04-01T10:33:41.974Z</time></trkpt><trkpt lat="44.5731608" lon="8.5011688"><ele>476.0</ele><time>2026-04-01T10:33:42.972Z</time></trkpt><trkpt lat="44.573103" lon="8.5012241"><ele>478.20000000000005</ele><time>2026-04-01T10:33:43.973Z</time></trkpt><trkpt lat="44.5730203" lon="8.5013023"><ele>480.40000000000003</ele><time>2026-04-01T10:33:45.972Z</time></trkpt><trkpt lat="44.5729534" lon="8.5012833"><ele>482.6</ele><time>2026-04-01T10:33:47.973Z</time></trkpt><trkpt lat="44.5728314" lon="8.5012254"><ele>484.8</ele><time>2026-04-01T10:33:49.97Z</time></trkpt><trkpt lat="44.5727431" lon="8.5012292"><ele>487.0</ele><time>2026-04-01T10:33:50.971Z</time></trkpt><trkpt lat="44.572668" lon="8.5012518"><ele>487.00000000000006</ele><time>2026-04-01T10:33:51.971Z</time></trkpt><trkpt lat="44.5725983" lon="8.5012836"><ele>487.0</ele><time>2026-04-01T10:33:52.971Z</time></trkpt><trkpt lat="44.5725339" lon="8.5013047"><ele>487.0</ele><time>2026-04-01T10:33:53.972Z</time></trkpt><trkpt lat="44.5724137" lon="8.5012815"><ele>487.0</ele><time>2026-04-01T10:33:55.971Z</time></trkpt><trkpt lat="44.5723481" lon="8.5012321"><ele>487.00000000000006</ele><time>2026-04-01T10:33:56.971Z</time></trkpt><trkpt lat="44.5722682" lon="8.5011773"><ele>487.0</ele><time>2026-04-01T10:33:57.971Z</time></trkpt><trkpt lat="44.5721882" lon="8.5011286"><ele>487.0</ele><time>2026-04-01T10:33:58.97Z</time></trkpt><trkpt lat="44.5721219" lon="8.5010732"><ele>487.0</ele><time>2026-04-01T10:33:59.971Z</time></trkpt><trkpt lat="44.572069" lon="8.5010098"><ele>487.0</ele><time>2026-04-01T10:34:00.971Z</time></trkpt><trkpt lat="44.5720335" lon="8.5009254"><ele>487.0</ele><time>2026-04-01T10:34:01.973Z</time></trkpt><trkpt lat="44.5719926" lon="8.5008405"><ele>487.0</ele><time>2026-04-01T10:34:02.97Z</time></trkpt><trkpt lat="44.5719583" lon="8.5007505"><ele>487.0</ele><time>2026-04-01T10:34:03.97Z</time></trkpt><trkpt lat="44.5719267" lon="8.5006593"><ele>487.0</ele><time>2026-04-01T10:34:04.97Z</time></trkpt><trkpt lat="44.5718915" lon="8.5005706"><ele>486.83333333333337</ele><time>2026-04-01T10:34:05.972Z</time></trkpt><trkpt lat="44.571807" lon="8.5004736"><ele>486.6666666666667</ele><time>2026-04-01T10:34:07.972Z</time></trkpt><trkpt lat="44.571744" lon="8.5004654"><ele>486.5</ele><time>2026-04-01T10:34:08.971Z</time></trkpt><trkpt lat="44.5716652" lon="8.5004876"><ele>486.33333333333337</ele><time>2026-04-01T10:34:09.971Z</time></trkpt><trkpt lat="44.5716013" lon="8.5005109"><ele>486.1666666666667</ele><time>2026-04-01T10:34:10.973Z</time></trkpt><trkpt lat="44.5714987" lon="8.5005596"><ele>486.0</ele><time>2026-04-01T10:34:12.971Z</time></trkpt><trkpt lat="44.5714226" lon="8.5005741"><ele>486.0</ele><time>2026-04-01T10:34:14.972Z</time></trkpt><trkpt lat="44.5713226" lon="8.5005751"><ele>486.0</ele><time>2026-04-01T10:34:41.97Z</time></trkpt><trkpt lat="44.5712603" lon="8.5005553"><ele>486.0</ele><time>2026-04-01T10:34:42.971Z</time></trkpt><trkpt lat="44.5711997" lon="8.5005306"><ele>486.0</ele><time>2026-04-01T10:34:43.972Z</time></trkpt><trkpt lat="44.5711369" lon="8.5004956"><ele>486.0</ele><time>2026-04-01T10:34:44.972Z</time></trkpt><trkpt lat="44.5710848" lon="8.5004403"><ele>486.0</ele><time>2026-04-01T10:34:45.972Z</time></trkpt><trkpt lat="44.5710373" lon="8.500378"><ele>486.0</ele><time>2026-04-01T10:34:46.971Z</time></trkpt><trkpt lat="44.5709803" lon="8.5003154"><ele>486.1666666666667</ele><time>2026-04-01T10:34:47.973Z</time></trkpt><trkpt lat="44.5709259" lon="8.5002461"><ele>486.33333333333337</ele><time>2026-04-01T10:34:48.971Z</time></trkpt><trkpt lat="44.5708788" lon="8.5001754"><ele>486.5</ele><time>2026-04-01T10:34:49.972Z</time></trkpt><trkpt lat="44.5708308" lon="8.5000089"><ele>486.6666666666667</ele><time>2026-04-01T10:34:51.972Z</time></trkpt><trkpt lat="44.5708171" lon="8.4998935"><ele>486.83333333333337</ele><time>2026-04-01T10:34:52.971Z</time></trkpt><trkpt lat="44.5708009" lon="8.4997759"><ele>487.0</ele><time>2026-04-01T10:34:53.971Z</time></trkpt><trkpt lat="44.5707761" lon="8.4996602"><ele>488.6666666666667</ele><time>2026-04-01T10:34:54.971Z</time></trkpt><trkpt lat="44.570737" lon="8.499568"><ele>490.33333333333337</ele><time>2026-04-01T10:34:55.972Z</time></trkpt><trkpt lat="44.5706796" lon="8.4994979"><ele>492.0</ele><time>2026-04-01T10:34:56.97Z</time></trkpt><trkpt lat="44.570621" lon="8.4994304"><ele>493.66666666666663</ele><time>2026-04-01T10:34:57.971Z</time></trkpt><trkpt lat="44.5705661" lon="8.4993691"><ele>495.3333333333333</ele><time>2026-04-01T10:34:58.972Z</time></trkpt><trkpt lat="44.5704868" lon="8.499275"><ele>497.0</ele><time>2026-04-01T10:35:00.97Z</time></trkpt><trkpt lat="44.5704481" lon="8.4992013"><ele>496.99999999999994</ele><time>2026-04-01T10:35:02.972Z</time></trkpt><trkpt lat="44.5704434" lon="8.4990854"><ele>497.0</ele><time>2026-04-01T10:35:06.97Z</time></trkpt><trkpt lat="44.57036" lon="8.4990474"><ele>497.0</ele><time>2026-04-01T10:35:09.972Z</time></trkpt><trkpt lat="44.5702945" lon="8.4990585"><ele>497.0</ele><time>2026-04-01T10:35:11.971Z</time></trkpt><trkpt lat="44.5702238" lon="8.4990724"><ele>496.99999999999994</ele><time>2026-04-01T10:35:13.971Z</time></trkpt><trkpt lat="44.5701567" lon="8.4990678"><ele>497.0</ele><time>2026-04-01T10:35:15.971Z</time></trkpt><trkpt lat="44.5700639" lon="8.4990646"><ele>495.6</ele><time>2026-04-01T10:35:27.971Z</time></trkpt><trkpt lat="44.5699971" lon="8.4990502"><ele>494.20000000000005</ele><time>2026-04-01T10:35:28.971Z</time></trkpt><trkpt lat="44.5699089" lon="8.4990044"><ele>492.8</ele><time>2026-04-01T10:35:29.971Z</time></trkpt><trkpt lat="44.5697998" lon="8.4989444"><ele>491.4</ele><time>2026-04-01T10:35:30.973Z</time></trkpt><trkpt lat="44.5696854" lon="8.498904"><ele>490.0</ele><time>2026-04-01T10:35:31.972Z</time></trkpt><trkpt lat="44.5695781" lon="8.4988797"><ele>492.4</ele><time>2026-04-01T10:35:32.974Z</time></trkpt><trkpt lat="44.5694768" lon="8.4988742"><ele>494.8</ele><time>2026-04-01T10:35:33.972Z</time></trkpt><trkpt lat="44.5693766" lon="8.498872"><ele>497.20000000000005</ele><time>2026-04-01T10:35:34.972Z</time></trkpt><trkpt lat="44.5692738" lon="8.4988467"><ele>499.6</ele><time>2026-04-01T10:35:35.972Z</time></trkpt><trkpt lat="44.5691702" lon="8.4988064"><ele>502.0</ele><time>2026-04-01T10:35:36.972Z</time></trkpt><trkpt lat="44.5690617" lon="8.4987634"><ele>499.75</ele><time>2026-04-01T10:35:37.972Z</time></trkpt><trkpt lat="44.5689397" lon="8.4987324"><ele>497.5</ele><time>2026-04-01T10:35:38.971Z</time></trkpt><trkpt lat="44.5688024" lon="8.4987132"><ele>495.25</ele><time>2026-04-01T10:35:39.972Z</time></trkpt><trkpt lat="44.5686571" lon="8.4987027"><ele>493.0</ele><time>2026-04-01T10:35:40.972Z</time></trkpt><trkpt lat="44.5685193" lon="8.4986902"><ele>493.0</ele><time>2026-04-01T10:35:41.972Z</time></trkpt><trkpt lat="44.5683907" lon="8.4986741"><ele>493.0</ele><time>2026-04-01T10:35:42.972Z</time></trkpt><trkpt lat="44.5682541" lon="8.4986532"><ele>493.0</ele><time>2026-04-01T10:35:43.972Z</time></trkpt><trkpt lat="44.5681065" lon="8.4986333"><ele>493.0</ele><time>2026-04-01T10:35:44.972Z</time></trkpt><trkpt lat="44.5679605" lon="8.4986142"><ele>493.5</ele><time>2026-04-01T10:35:45.972Z</time></trkpt><trkpt lat="44.5678377" lon="8.4985868"><ele>494.0</ele><time>2026-04-01T10:35:46.972Z</time></trkpt><trkpt lat="44.5677282" lon="8.4985528"><ele>494.5</ele><time>2026-04-01T10:35:47.972Z</time></trkpt><trkpt lat="44.5676197" lon="8.4985341"><ele>495.0</ele><time>2026-04-01T10:35:48.972Z</time></trkpt><trkpt lat="44.5675126" lon="8.4985318"><ele>495.0</ele><time>2026-04-01T10:35:49.971Z</time></trkpt><trkpt lat="44.5674097" lon="8.4985471"><ele>495.0</ele><time>2026-04-01T10:35:50.972Z</time></trkpt><trkpt lat="44.5672998" lon="8.4985652"><ele>495.0</ele><time>2026-04-01T10:35:51.971Z</time></trkpt><trkpt lat="44.5671984" lon="8.498588"><ele>495.0</ele><time>2026-04-01T10:35:52.971Z</time></trkpt><trkpt lat="44.5671061" lon="8.4986071"><ele>495.0</ele><time>2026-04-01T10:35:53.971Z</time></trkpt><trkpt lat="44.567027" lon="8.4986285"><ele>495.6</ele><time>2026-04-01T10:35:54.972Z</time></trkpt><trkpt lat="44.5669625" lon="8.4986622"><ele>496.2</ele><time>2026-04-01T10:35:55.972Z</time></trkpt><trkpt lat="44.5668535" lon="8.4987165"><ele>496.79999999999995</ele><time>2026-04-01T10:35:57.972Z</time></trkpt><trkpt lat="44.5667275" lon="8.4986857"><ele>497.4</ele><time>2026-04-01T10:35:59.972Z</time></trkpt><trkpt lat="44.5666559" lon="8.4986142"><ele>498.0</ele><time>2026-04-01T10:36:00.972Z</time></trkpt><trkpt lat="44.5665854" lon="8.4985433"><ele>498.0</ele><time>2026-04-01T10:36:01.972Z</time></trkpt><trkpt lat="44.566529" lon="8.4984954"><ele>497.99999999999994</ele><time>2026-04-01T10:36:02.973Z</time></trkpt><trkpt lat="44.566437" lon="8.498533"><ele>497.99999999999994</ele><time>2026-04-01T10:36:04.972Z</time></trkpt><trkpt lat="44.5664193" lon="8.4986449"><ele>498.0</ele><time>2026-04-01T10:36:05.971Z</time></trkpt><trkpt lat="44.566391" lon="8.4987803"><ele>498.0</ele><time>2026-04-01T10:36:06.972Z</time></trkpt><trkpt lat="44.5663626" lon="8.4989449"><ele>502.0</ele><time>2026-04-01T10:36:07.972Z</time></trkpt><trkpt lat="44.5663354" lon="8.4991137"><ele>505.99999999999994</ele><time>2026-04-01T10:36:08.972Z</time></trkpt><trkpt lat="44.5663173" lon="8.4992668"><ele>509.99999999999994</ele><time>2026-04-01T10:36:09.971Z</time></trkpt><trkpt lat="44.5662897" lon="8.4993985"><ele>514.0</ele><time>2026-04-01T10:36:10.972Z</time></trkpt><trkpt lat="44.5662432" lon="8.4995081"><ele>518.0</ele><time>2026-04-01T10:36:11.972Z</time></trkpt><trkpt lat="44.5661882" lon="8.4995923"><ele>519.5</ele><time>2026-04-01T10:36:12.97Z</time></trkpt><trkpt lat="44.5661129" lon="8.4996487"><ele>521.0</ele><time>2026-04-01T10:36:13.973Z</time></trkpt><trkpt lat="44.5660219" lon="8.4996864"><ele>522.5</ele><time>2026-04-01T10:36:14.972Z</time></trkpt><trkpt lat="44.565932" lon="8.4997037"><ele>524.0</ele><time>2026-04-01T10:36:15.971Z</time></trkpt><trkpt lat="44.5658523" lon="8.4997416"><ele>525.5</ele><time>2026-04-01T10:36:16.971Z</time></trkpt><trkpt lat="44.5657728" lon="8.4998009"><ele>527.0</ele><time>2026-04-01T10:36:17.972Z</time></trkpt><trkpt lat="44.5656825" lon="8.499888"><ele>527.0</ele><time>2026-04-01T10:36:18.97Z</time></trkpt><trkpt lat="44.5655967" lon="8.5000214"><ele>527.0</ele><time>2026-04-01T10:36:19.972Z</time></trkpt><trkpt lat="44.5655217" lon="8.5001586"><ele>527.0</ele><time>2026-04-01T10:36:20.972Z</time></trkpt><trkpt lat="44.5654492" lon="8.5002711"><ele>527.0</ele><time>2026-04-01T10:36:21.971Z</time></trkpt><trkpt lat="44.5653502" lon="8.5003559"><ele>528.2</ele><time>2026-04-01T10:36:23.972Z</time></trkpt><trkpt lat="44.5652852" lon="8.5002942"><ele>529.4000000000001</ele><time>2026-04-01T10:36:25.973Z</time></trkpt><trkpt lat="44.5652706" lon="8.5001387"><ele>530.5999999999999</ele><time>2026-04-01T10:36:27.972Z</time></trkpt><trkpt lat="44.5652755" lon="8.4999657"><ele>531.8</ele><time>2026-04-01T10:36:29.972Z</time></trkpt><trkpt lat="44.5652875" lon="8.4998591"><ele>533.0</ele><time>2026-04-01T10:36:31.971Z</time></trkpt><trkpt lat="44.5652069" lon="8.4999062"><ele>533.0</ele><time>2026-04-01T10:36:35.972Z</time></trkpt><trkpt lat="44.5651087" lon="8.4999875"><ele>533.0</ele><time>2026-04-01T10:36:37.971Z</time></trkpt><trkpt lat="44.5650366" lon="8.5000541"><ele>533.0</ele><time>2026-04-01T10:36:38.973Z</time></trkpt><trkpt lat="44.5649543" lon="8.5001248"><ele>533.0</ele><time>2026-04-01T10:36:39.97Z</time></trkpt><trkpt lat="44.5648747" lon="8.5001871"><ele>533.0</ele><time>2026-04-01T10:36:40.972Z</time></trkpt><trkpt lat="44.5647925" lon="8.5002335"><ele>533.0</ele><time>2026-04-01T10:36:41.972Z</time></trkpt><trkpt lat="44.5647111" lon="8.5002585"><ele>533.0</ele><time>2026-04-01T10:36:42.971Z</time></trkpt><trkpt lat="44.564634" lon="8.500289"><ele>533.0</ele><time>2026-04-01T10:36:43.972Z</time></trkpt><trkpt lat="44.5645636" lon="8.50033"><ele>533.0</ele><time>2026-04-01T10:36:44.972Z</time></trkpt><trkpt lat="44.5645093" lon="8.5003843"><ele>533.0</ele><time>2026-04-01T10:36:45.971Z</time></trkpt><trkpt lat="44.5644546" lon="8.5004455"><ele>533.0</ele><time>2026-04-01T10:36:46.972Z</time></trkpt><trkpt lat="44.5643489" lon="8.5005059"><ele>535.8333333333333</ele><time>2026-04-01T10:36:48.971Z</time></trkpt><trkpt lat="44.5642574" lon="8.5004485"><ele>538.6666666666666</ele><time>2026-04-01T10:36:50.971Z</time></trkpt><trkpt lat="44.5642267" lon="8.5002831"><ele>541.5</ele><time>2026-04-01T10:36:52.972Z</time></trkpt><trkpt lat="44.5642347" lon="8.5001927"><ele>544.3333333333334</ele><time>2026-04-01T10:36:53.971Z</time></trkpt><trkpt lat="44.5642738" lon="8.5001037"><ele>547.1666666666667</ele><time>2026-04-01T10:36:54.97Z</time></trkpt><trkpt lat="44.5643292" lon="8.5000076"><ele>550.0</ele><time>2026-04-01T10:36:55.972Z</time></trkpt><trkpt lat="44.5643624" lon="8.4999259"><ele>550.4</ele><time>2026-04-01T10:36:56.971Z</time></trkpt><trkpt lat="44.5643788" lon="8.4997805"><ele>550.8</ele><time>2026-04-01T10:36:58.971Z</time></trkpt><trkpt lat="44.5642773" lon="8.4996808"><ele>551.2</ele><time>2026-04-01T10:37:00.971Z</time></trkpt><trkpt lat="44.564198" lon="8.4996228"><ele>551.6</ele><time>2026-04-01T10:37:01.971Z</time></trkpt><trkpt lat="44.5641248" lon="8.4995698"><ele>552.0</ele><time>2026-04-01T10:37:02.972Z</time></trkpt><trkpt lat="44.564046" lon="8.4995337"><ele>552.0</ele><time>2026-04-01T10:37:03.971Z</time></trkpt><trkpt lat="44.5639678" lon="8.4995097"><ele>552.0</ele><time>2026-04-01T10:37:04.97Z</time></trkpt><trkpt lat="44.5639016" lon="8.4995646"><ele>552.0</ele><time>2026-04-01T10:37:05.972Z</time></trkpt><trkpt lat="44.5638546" lon="8.4996457"><ele>552.0</ele><time>2026-04-01T10:37:06.971Z</time></trkpt><trkpt lat="44.5638139" lon="8.4997528"><ele>552.0</ele><time>2026-04-01T10:37:07.972Z</time></trkpt><trkpt lat="44.5637881" lon="8.499891"><ele>552.0</ele><time>2026-04-01T10:37:08.972Z</time></trkpt><trkpt lat="44.5637569" lon="8.5000372"><ele>552.0</ele><time>2026-04-01T10:37:09.97Z</time></trkpt><trkpt lat="44.5637153" lon="8.500164"><ele>552.0</ele><time>2026-04-01T10:37:10.971Z</time></trkpt><trkpt lat="44.5636652" lon="8.5002847"><ele>552.0</ele><time>2026-04-01T10:37:11.971Z</time></trkpt><trkpt lat="44.5636147" lon="8.5003867"><ele>552.0</ele><time>2026-04-01T10:37:12.971Z</time></trkpt><trkpt lat="44.5635647" lon="8.5004743"><ele>552.0</ele><time>2026-04-01T10:37:13.971Z</time></trkpt><trkpt lat="44.5635201" lon="8.5005577"><ele>552.0</ele><time>2026-04-01T10:37:14.973Z</time></trkpt><trkpt lat="44.5634837" lon="8.5006587"><ele>570.0</ele><time>2026-04-01T10:37:16.971Z</time></trkpt></trkseg><trkseg><trkpt lat="44.5633576" lon="8.5007059"><ele>570.0</ele><time>2026-04-01T10:53:20.97Z</time></trkpt><trkpt lat="44.5633189" lon="8.5007897"><ele>570.0</ele><time>2026-04-01T10:53:21.971Z</time></trkpt><trkpt lat="44.5632883" lon="8.5008832"><ele>570.0</ele><time>2026-04-01T10:53:22.971Z</time></trkpt><trkpt lat="44.5632641" lon="8.5009789"><ele>570.0</ele><time>2026-04-01T10:53:23.971Z</time></trkpt><trkpt lat="44.56324" lon="8.5010669"><ele>570.0</ele><time>2026-04-01T10:53:24.972Z</time></trkpt><trkpt lat="44.5631686" lon="8.5012291"><ele>570.0</ele><time>2026-04-01T10:53:26.971Z</time></trkpt><trkpt lat="44.5631281" lon="8.5013001"><ele>570.2</ele><time>2026-04-01T10:53:27.972Z</time></trkpt><trkpt lat="44.5630728" lon="8.5014428"><ele>570.4</ele><time>2026-04-01T10:53:29.971Z</time></trkpt><trkpt lat="44.5630578" lon="8.5016099"><ele>570.6</ele><time>2026-04-01T10:53:31.97Z</time></trkpt><trkpt lat="44.5630556" lon="8.5017082"><ele>570.8</ele><time>2026-04-01T10:53:32.972Z</time></trkpt><trkpt lat="44.5630392" lon="8.5018203"><ele>571.0</ele><time>2026-04-01T10:53:33.97Z</time></trkpt><trkpt lat="44.5630061" lon="8.5019351"><ele>571.0</ele><time>2026-04-01T10:53:34.972Z</time></trkpt><trkpt lat="44.5629617" lon="8.5020513"><ele>571.0</ele><time>2026-04-01T10:53:35.971Z</time></trkpt><trkpt lat="44.5628977" lon="8.5021667"><ele>571.0</ele><time>2026-04-01T10:53:36.971Z</time></trkpt><trkpt lat="44.5628328" lon="8.5023001"><ele>571.0</ele><time>2026-04-01T10:53:37.97Z</time></trkpt><trkpt lat="44.562781" lon="8.5024373"><ele>571.0</ele><time>2026-04-01T10:53:38.971Z</time></trkpt><trkpt lat="44.5627529" lon="8.502574"><ele>575.3333333333334</ele><time>2026-04-01T10:53:39.975Z</time></trkpt><trkpt lat="44.5627399" lon="8.5027026"><ele>579.6666666666667</ele><time>2026-04-01T10:53:40.971Z</time></trkpt><trkpt lat="44.5627452" lon="8.5028197"><ele>584.0</ele><time>2026-04-01T10:53:41.972Z</time></trkpt><trkpt lat="44.5627595" lon="8.502919"><ele>588.3333333333334</ele><time>2026-04-01T10:53:42.974Z</time></trkpt><trkpt lat="44.5628241" lon="8.5030263"><ele>592.6666666666666</ele><time>2026-04-01T10:53:44.971Z</time></trkpt><trkpt lat="44.5627523" lon="8.5030758"><ele>597.0</ele><time>2026-04-01T10:53:50.973Z</time></trkpt><trkpt lat="44.5626971" lon="8.5031543"><ele>598.2</ele><time>2026-04-01T10:53:51.973Z</time></trkpt><trkpt lat="44.5626591" lon="8.5032613"><ele>599.4000000000001</ele><time>2026-04-01T10:53:52.97Z</time></trkpt><trkpt lat="44.5626274" lon="8.5033971"><ele>600.5999999999999</ele><time>2026-04-01T10:53:53.972Z</time></trkpt><trkpt lat="44.5626343" lon="8.5035258"><ele>601.8</ele><time>2026-04-01T10:53:54.97Z</time></trkpt><trkpt lat="44.5626885" lon="8.50366"><ele>603.0</ele><time>2026-04-01T10:53:55.971Z</time></trkpt><trkpt lat="44.5627483" lon="8.5037927"><ele>605.0</ele><time>2026-04-01T10:53:56.971Z</time></trkpt><trkpt lat="44.5628048" lon="8.5039247"><ele>607.0</ele><time>2026-04-01T10:53:57.97Z</time></trkpt><trkpt lat="44.5628589" lon="8.5040513"><ele>609.0</ele><time>2026-04-01T10:53:58.97Z</time></trkpt><trkpt lat="44.5628978" lon="8.5041852"><ele>611.0</ele><time>2026-04-01T10:53:59.972Z</time></trkpt><trkpt lat="44.5629242" lon="8.5043305"><ele>613.0</ele><time>2026-04-01T10:54:00.97Z</time></trkpt><trkpt lat="44.5629474" lon="8.5044767"><ele>613.0</ele><time>2026-04-01T10:54:01.972Z</time></trkpt><trkpt lat="44.5629695" lon="8.5046145"><ele>613.0</ele><time>2026-04-01T10:54:02.971Z</time></trkpt><trkpt lat="44.5629849" lon="8.5047407"><ele>613.0</ele><time>2026-04-01T10:54:03.971Z</time></trkpt><trkpt lat="44.5629788" lon="8.5048518"><ele>613.0</ele><time>2026-04-01T10:54:04.974Z</time></trkpt><trkpt lat="44.562951" lon="8.5049478"><ele>613.0</ele><time>2026-04-01T10:54:05.971Z</time></trkpt><trkpt lat="44.5629004" lon="8.5050401"><ele>613.0</ele><time>2026-04-01T10:54:06.972Z</time></trkpt><trkpt lat="44.5628255" lon="8.5051269"><ele>613.0</ele><time>2026-04-01T10:54:07.97Z</time></trkpt><trkpt lat="44.5627207" lon="8.5051926"><ele>613.0</ele><time>2026-04-01T10:54:08.972Z</time></trkpt><trkpt lat="44.5625835" lon="8.5052243"><ele>613.0</ele><time>2026-04-01T10:54:09.971Z</time></trkpt><trkpt lat="44.5624381" lon="8.5052589"><ele>613.0</ele><time>2026-04-01T10:54:10.971Z</time></trkpt><trkpt lat="44.5622938" lon="8.5053117"><ele>613.0</ele><time>2026-04-01T10:54:11.972Z</time></trkpt><trkpt lat="44.5621599" lon="8.5053836"><ele>613.0</ele><time>2026-04-01T10:54:12.97Z</time></trkpt><trkpt lat="44.5620455" lon="8.5054662"><ele>613.0</ele><time>2026-04-01T10:54:13.971Z</time></trkpt><trkpt lat="44.5619375" lon="8.5055373"><ele>613.0</ele><time>2026-04-01T10:54:14.972Z</time></trkpt><trkpt lat="44.561805" lon="8.5055966"><ele>613.0</ele><time>2026-04-01T10:54:15.972Z</time></trkpt><trkpt lat="44.5616512" lon="8.5056525"><ele>613.0</ele><time>2026-04-01T10:54:16.97Z</time></trkpt><trkpt lat="44.5615071" lon="8.5056923"><ele>613.0</ele><time>2026-04-01T10:54:17.969Z</time></trkpt><trkpt lat="44.5613817" lon="8.5057052"><ele>613.0</ele><time>2026-04-01T10:54:18.969Z</time></trkpt><trkpt lat="44.5612666" lon="8.5056808"><ele>614.1999999999999</ele><time>2026-04-01T10:54:19.972Z</time></trkpt><trkpt lat="44.5611636" lon="8.5056575"><ele>615.4</ele><time>2026-04-01T10:54:20.972Z</time></trkpt><trkpt lat="44.5610679" lon="8.5056545"><ele>616.5999999999999</ele><time>2026-04-01T10:54:21.972Z</time></trkpt><trkpt lat="44.5609785" lon="8.5056878"><ele>617.8</ele><time>2026-04-01T10:54:22.971Z</time></trkpt><trkpt lat="44.5608902" lon="8.5057502"><ele>619.0</ele><time>2026-04-01T10:54:23.97Z</time></trkpt><trkpt lat="44.5607949" lon="8.505824"><ele>619.0</ele><time>2026-04-01T10:54:24.971Z</time></trkpt><trkpt lat="44.5606867" lon="8.5058924"><ele>619.0</ele><time>2026-04-01T10:54:25.971Z</time></trkpt><trkpt lat="44.560566" lon="8.5059513"><ele>619.0</ele><time>2026-04-01T10:54:26.97Z</time></trkpt><trkpt lat="44.5604285" lon="8.5060032"><ele>619.0</ele><time>2026-04-01T10:54:27.971Z</time></trkpt><trkpt lat="44.5602709" lon="8.5060513"><ele>620.0</ele><time>2026-04-01T10:54:28.969Z</time></trkpt><trkpt lat="44.5601026" lon="8.5060985"><ele>621.0</ele><time>2026-04-01T10:54:29.971Z</time></trkpt><trkpt lat="44.5599289" lon="8.5061436"><ele>622.0</ele><time>2026-04-01T10:54:30.97Z</time></trkpt><trkpt lat="44.5597544" lon="8.5061855"><ele>622.0</ele><time>2026-04-01T10:54:31.969Z</time></trkpt><trkpt lat="44.5595898" lon="8.5062199"><ele>622.0</ele><time>2026-04-01T10:54:32.97Z</time></trkpt><trkpt lat="44.559439" lon="8.5062577"><ele>622.0</ele><time>2026-04-01T10:54:33.969Z</time></trkpt><trkpt lat="44.5593016" lon="8.5063091"><ele>624.0</ele><time>2026-04-01T10:54:34.97Z</time></trkpt><trkpt lat="44.5591699" lon="8.5063854"><ele>626.0</ele><time>2026-04-01T10:54:35.971Z</time></trkpt><trkpt lat="44.5590353" lon="8.5064751"><ele>628.0</ele><time>2026-04-01T10:54:36.97Z</time></trkpt><trkpt lat="44.558896" lon="8.506559"><ele>630.0</ele><time>2026-04-01T10:54:37.97Z</time></trkpt><trkpt lat="44.5587602" lon="8.5066377"><ele>630.75</ele><time>2026-04-01T10:54:38.971Z</time></trkpt><trkpt lat="44.5586385" lon="8.5067164"><ele>631.5</ele><time>2026-04-01T10:54:39.971Z</time></trkpt><trkpt lat="44.5585227" lon="8.5067908"><ele>632.25</ele><time>2026-04-01T10:54:40.97Z</time></trkpt><trkpt lat="44.5584046" lon="8.5068616"><ele>633.0</ele><time>2026-04-01T10:54:41.971Z</time></trkpt><trkpt lat="44.5582848" lon="8.5069348"><ele>633.0</ele><time>2026-04-01T10:54:42.97Z</time></trkpt><trkpt lat="44.5581658" lon="8.507005"><ele>633.0</ele><time>2026-04-01T10:54:43.971Z</time></trkpt><trkpt lat="44.5580521" lon="8.5070741"><ele>633.0</ele><time>2026-04-01T10:54:44.971Z</time></trkpt><trkpt lat="44.5579439" lon="8.5071501"><ele>633.0</ele><time>2026-04-01T10:54:45.97Z</time></trkpt><trkpt lat="44.5578476" lon="8.5072433"><ele>633.0</ele><time>2026-04-01T10:54:46.971Z</time></trkpt><trkpt lat="44.5577565" lon="8.5073513"><ele>633.0</ele><time>2026-04-01T10:54:47.971Z</time></trkpt><trkpt lat="44.5576677" lon="8.5074642"><ele>633.0</ele><time>2026-04-01T10:54:48.971Z</time></trkpt><trkpt lat="44.5575815" lon="8.507583"><ele>633.0</ele><time>2026-04-01T10:54:49.97Z</time></trkpt><trkpt lat="44.5574959" lon="8.507709"><ele>633.0</ele><time>2026-04-01T10:54:50.971Z</time></trkpt><trkpt lat="44.5574099" lon="8.5078405"><ele>633.0</ele><time>2026-04-01T10:54:51.97Z</time></trkpt><trkpt lat="44.5573241" lon="8.5079728"><ele>633.0</ele><time>2026-04-01T10:54:52.97Z</time></trkpt><trkpt lat="44.5572441" lon="8.5081044"><ele>633.0</ele><time>2026-04-01T10:54:53.97Z</time></trkpt><trkpt lat="44.5571703" lon="8.5082328"><ele>634.1999999999999</ele><time>2026-04-01T10:54:54.971Z</time></trkpt><trkpt lat="44.557105" lon="8.5083424"><ele>635.4</ele><time>2026-04-01T10:54:55.969Z</time></trkpt><trkpt lat="44.5570456" lon="8.5084165"><ele>636.5999999999999</ele><time>2026-04-01T10:54:56.97Z</time></trkpt><trkpt lat="44.5569265" lon="8.5083881"><ele>637.8</ele><time>2026-04-01T10:54:58.971Z</time></trkpt><trkpt lat="44.5568611" lon="8.5083093"><ele>639.0</ele><time>2026-04-01T10:54:59.97Z</time></trkpt><trkpt lat="44.5567906" lon="8.5082067"><ele>642.2</ele><time>2026-04-01T10:55:00.97Z</time></trkpt><trkpt lat="44.55673" lon="8.5081195"><ele>645.4</ele><time>2026-04-01T10:55:01.971Z</time></trkpt><trkpt lat="44.5566806" lon="8.5080472"><ele>648.6</ele><time>2026-04-01T10:55:02.971Z</time></trkpt><trkpt lat="44.5566354" lon="8.5079344"><ele>651.8</ele><time>2026-04-01T10:55:04.97Z</time></trkpt><trkpt lat="44.5566715" lon="8.5077401"><ele>655.0</ele><time>2026-04-01T10:55:06.971Z</time></trkpt><trkpt lat="44.5566931" lon="8.5076019"><ele>655.0</ele><time>2026-04-01T10:55:07.97Z</time></trkpt><trkpt lat="44.5566864" lon="8.5074448"><ele>655.0</ele><time>2026-04-01T10:55:08.974Z</time></trkpt><trkpt lat="44.5566515" lon="8.5072847"><ele>655.0</ele><time>2026-04-01T10:55:09.971Z</time></trkpt><trkpt lat="44.5565944" lon="8.5071131"><ele>655.0</ele><time>2026-04-01T10:55:10.971Z</time></trkpt><trkpt lat="44.5565239" lon="8.5069286"><ele>654.0</ele><time>2026-04-01T10:55:11.973Z</time></trkpt><trkpt lat="44.5564334" lon="8.5067528"><ele>653.0</ele><time>2026-04-01T10:55:12.97Z</time></trkpt><trkpt lat="44.5563402" lon="8.5065748"><ele>652.0</ele><time>2026-04-01T10:55:13.969Z</time></trkpt><trkpt lat="44.5562505" lon="8.5064018"><ele>657.75</ele><time>2026-04-01T10:55:14.971Z</time></trkpt><trkpt lat="44.5561566" lon="8.5062428"><ele>663.5</ele><time>2026-04-01T10:55:15.97Z</time></trkpt><trkpt lat="44.5560541" lon="8.5060958"><ele>669.25</ele><time>2026-04-01T10:55:16.969Z</time></trkpt><trkpt lat="44.5559446" lon="8.5059666"><ele>675.0</ele><time>2026-04-01T10:55:17.97Z</time></trkpt><trkpt lat="44.5558308" lon="8.5058489"><ele>675.0</ele><time>2026-04-01T10:55:18.97Z</time></trkpt><trkpt lat="44.5557193" lon="8.505732"><ele>675.0</ele><time>2026-04-01T10:55:19.969Z</time></trkpt><trkpt lat="44.5556108" lon="8.5056178"><ele>675.0</ele><time>2026-04-01T10:55:20.97Z</time></trkpt><trkpt lat="44.555529" lon="8.5054961"><ele>675.0</ele><time>2026-04-01T10:55:21.971Z</time></trkpt><trkpt lat="44.5554945" lon="8.5053868"><ele>674.4</ele><time>2026-04-01T10:55:22.97Z</time></trkpt><trkpt lat="44.5555088" lon="8.505288"><ele>673.8</ele><time>2026-04-01T10:55:23.97Z</time></trkpt><trkpt lat="44.5555548" lon="8.5051878"><ele>673.2</ele><time>2026-04-01T10:55:24.969Z</time></trkpt><trkpt lat="44.5556322" lon="8.5051022"><ele>672.6</ele><time>2026-04-01T10:55:25.971Z</time></trkpt><trkpt lat="44.5557332" lon="8.5050299"><ele>672.0</ele><time>2026-04-01T10:55:26.971Z</time></trkpt><trkpt lat="44.5558237" lon="8.50495"><ele>672.0</ele><time>2026-04-01T10:55:27.97Z</time></trkpt><trkpt lat="44.5558819" lon="8.5048452"><ele>672.0</ele><time>2026-04-01T10:55:28.969Z</time></trkpt><trkpt lat="44.5559138" lon="8.504723"><ele>672.0</ele><time>2026-04-01T10:55:29.971Z</time></trkpt><trkpt lat="44.5559072" lon="8.5045953"><ele>672.0</ele><time>2026-04-01T10:55:30.97Z</time></trkpt><trkpt lat="44.5558604" lon="8.5044922"><ele>672.0</ele><time>2026-04-01T10:55:31.971Z</time></trkpt><trkpt lat="44.5558022" lon="8.5044147"><ele>672.0</ele><time>2026-04-01T10:55:32.971Z</time></trkpt><trkpt lat="44.5557539" lon="8.5043571"><ele>672.0</ele><time>2026-04-01T10:55:33.97Z</time></trkpt><trkpt lat="44.5556833" lon="8.5043172"><ele>672.0</ele><time>2026-04-01T10:55:35.972Z</time></trkpt><trkpt lat="44.5556285" lon="8.5043697"><ele>672.0</ele><time>2026-04-01T10:55:37.971Z</time></trkpt><trkpt lat="44.5556219" lon="8.5044821"><ele>672.0</ele><time>2026-04-01T10:55:38.971Z</time></trkpt><trkpt lat="44.5556105" lon="8.504623"><ele>672.0</ele><time>2026-04-01T10:55:39.97Z</time></trkpt><trkpt lat="44.5555881" lon="8.5047731"><ele>672.0</ele><time>2026-04-01T10:55:40.97Z</time></trkpt><trkpt lat="44.5555425" lon="8.5049106"><ele>672.0</ele><time>2026-04-01T10:55:41.971Z</time></trkpt><trkpt lat="44.5554756" lon="8.5050198"><ele>672.0</ele><time>2026-04-01T10:55:42.97Z</time></trkpt><trkpt lat="44.5553908" lon="8.5051075"><ele>672.0</ele><time>2026-04-01T10:55:43.971Z</time></trkpt><trkpt lat="44.5552945" lon="8.5051802"><ele>672.0</ele><time>2026-04-01T10:55:44.971Z</time></trkpt><trkpt lat="44.5551964" lon="8.5052473"><ele>672.0</ele><time>2026-04-01T10:55:45.97Z</time></trkpt><trkpt lat="44.5551096" lon="8.5053161"><ele>672.8</ele><time>2026-04-01T10:55:46.97Z</time></trkpt><trkpt lat="44.5550466" lon="8.5054043"><ele>673.6</ele><time>2026-04-01T10:55:47.971Z</time></trkpt><trkpt lat="44.5549976" lon="8.5055105"><ele>674.4</ele><time>2026-04-01T10:55:48.97Z</time></trkpt><trkpt lat="44.5549976" lon="8.5056437"><ele>675.1999999999999</ele><time>2026-04-01T10:55:49.971Z</time></trkpt><trkpt lat="44.5550173" lon="8.5057874"><ele>676.0</ele><time>2026-04-01T10:55:50.971Z</time></trkpt><trkpt lat="44.5550389" lon="8.5059245"><ele>677.8</ele><time>2026-04-01T10:55:51.97Z</time></trkpt><trkpt lat="44.555046" lon="8.506056"><ele>679.5999999999999</ele><time>2026-04-01T10:55:52.971Z</time></trkpt><trkpt lat="44.5550339" lon="8.5061829"><ele>681.4</ele><time>2026-04-01T10:55:53.97Z</time></trkpt><trkpt lat="44.5550006" lon="8.5063081"><ele>683.2</ele><time>2026-04-01T10:55:54.971Z</time></trkpt><trkpt lat="44.5549521" lon="8.5064352"><ele>685.0</ele><time>2026-04-01T10:55:55.971Z</time></trkpt><trkpt lat="44.5549002" lon="8.5065592"><ele>687.6</ele><time>2026-04-01T10:55:56.971Z</time></trkpt><trkpt lat="44.5548453" lon="8.5066788"><ele>690.2</ele><time>2026-04-01T10:55:57.971Z</time></trkpt><trkpt lat="44.5547909" lon="8.5067896"><ele>692.8</ele><time>2026-04-01T10:55:58.971Z</time></trkpt><trkpt lat="44.5547407" lon="8.5068923"><ele>695.4</ele><time>2026-04-01T10:55:59.972Z</time></trkpt><trkpt lat="44.5546906" lon="8.5069879"><ele>698.0</ele><time>2026-04-01T10:56:00.971Z</time></trkpt><trkpt lat="44.5546342" lon="8.5070871"><ele>699.6666666666666</ele><time>2026-04-01T10:56:01.971Z</time></trkpt><trkpt lat="44.5545709" lon="8.5071868"><ele>701.3333333333333</ele><time>2026-04-01T10:56:02.972Z</time></trkpt><trkpt lat="44.5545001" lon="8.5072783"><ele>703.0</ele><time>2026-04-01T10:56:03.971Z</time></trkpt><trkpt lat="44.5544253" lon="8.5073508"><ele>704.6666666666666</ele><time>2026-04-01T10:56:04.972Z</time></trkpt><trkpt lat="44.5543491" lon="8.5074008"><ele>706.3333333333334</ele><time>2026-04-01T10:56:05.971Z</time></trkpt><trkpt lat="44.5542681" lon="8.5074177"><ele>708.0</ele><time>2026-04-01T10:56:06.972Z</time></trkpt><trkpt lat="44.5541813" lon="8.5074042"><ele>708.0</ele><time>2026-04-01T10:56:07.971Z</time></trkpt><trkpt lat="44.5540938" lon="8.5073805"><ele>708.0</ele><time>2026-04-01T10:56:08.972Z</time></trkpt><trkpt lat="44.5540154" lon="8.5073571"><ele>708.0</ele><time>2026-04-01T10:56:09.97Z</time></trkpt><trkpt lat="44.5539044" lon="8.5073377"><ele>708.0</ele><time>2026-04-01T10:56:11.971Z</time></trkpt><trkpt lat="44.5538376" lon="8.5073221"><ele>708.0</ele><time>2026-04-01T10:56:13.97Z</time></trkpt><trkpt lat="44.5538296" lon="8.5076701"><ele>711.0</ele><time>2026-04-01T11:00:22.97Z</time></trkpt><trkpt lat="44.5538912" lon="8.5079896"><ele>714.0</ele><time>2026-04-01T11:00:26.971Z</time></trkpt><trkpt lat="44.5538872" lon="8.5080966"><ele>717.0</ele><time>2026-04-01T11:00:27.971Z</time></trkpt><trkpt lat="44.5538755" lon="8.5081955"><ele>720.0</ele><time>2026-04-01T11:00:28.971Z</time></trkpt><trkpt lat="44.5538497" lon="8.5083339"><ele>720.0</ele><time>2026-04-01T11:00:30.971Z</time></trkpt><trkpt lat="44.5538097" lon="8.5084745"><ele>720.0</ele><time>2026-04-01T11:01:09.969Z</time></trkpt><trkpt lat="44.5537757" lon="8.5085522"><ele>720.0</ele><time>2026-04-01T11:01:10.97Z</time></trkpt><trkpt lat="44.5537326" lon="8.5086456"><ele>720.0</ele><time>2026-04-01T11:01:11.971Z</time></trkpt><trkpt lat="44.5536901" lon="8.5087593"><ele>720.0</ele><time>2026-04-01T11:01:12.97Z</time></trkpt><trkpt lat="44.5536551" lon="8.5088991"><ele>720.0</ele><time>2026-04-01T11:01:13.97Z</time></trkpt><trkpt lat="44.553636" lon="8.5090624"><ele>718.0</ele><time>2026-04-01T11:01:14.971Z</time></trkpt><trkpt lat="44.553628" lon="8.5092326"><ele>716.0</ele><time>2026-04-01T11:01:15.971Z</time></trkpt><trkpt lat="44.5536268" lon="8.5094006"><ele>714.0</ele><time>2026-04-01T11:01:16.97Z</time></trkpt><trkpt lat="44.5536249" lon="8.5095595"><ele>712.0</ele><time>2026-04-01T11:01:17.971Z</time></trkpt><trkpt lat="44.5536133" lon="8.5097138"><ele>712.0</ele><time>2026-04-01T11:01:18.97Z</time></trkpt><trkpt lat="44.5535845" lon="8.5098593"><ele>712.0</ele><time>2026-04-01T11:01:19.971Z</time></trkpt><trkpt lat="44.5535316" lon="8.50999"><ele>712.0</ele><time>2026-04-01T11:01:20.97Z</time></trkpt><trkpt lat="44.5534632" lon="8.5101003"><ele>712.0</ele><time>2026-04-01T11:01:21.97Z</time></trkpt><trkpt lat="44.5533818" lon="8.5101848"><ele>712.0</ele><time>2026-04-01T11:01:22.971Z</time></trkpt><trkpt lat="44.5532944" lon="8.510259"><ele>712.0</ele><time>2026-04-01T11:01:23.97Z</time></trkpt><trkpt lat="44.5532002" lon="8.510333"><ele>712.0</ele><time>2026-04-01T11:01:24.971Z</time></trkpt><trkpt lat="44.5531095" lon="8.5104203"><ele>712.0</ele><time>2026-04-01T11:01:25.972Z</time></trkpt><trkpt lat="44.5530262" lon="8.5105234"><ele>712.0</ele><time>2026-04-01T11:01:26.971Z</time></trkpt><trkpt lat="44.5529494" lon="8.5106342"><ele>712.0</ele><time>2026-04-01T11:01:27.97Z</time></trkpt><trkpt lat="44.5528753" lon="8.5107372"><ele>711.6</ele><time>2026-04-01T11:01:28.971Z</time></trkpt><trkpt lat="44.5527977" lon="8.5108153"><ele>711.2</ele><time>2026-04-01T11:01:29.97Z</time></trkpt><trkpt lat="44.5527152" lon="8.5108691"><ele>710.8</ele><time>2026-04-01T11:01:30.97Z</time></trkpt><trkpt lat="44.5526262" lon="8.5108991"><ele>710.4</ele><time>2026-04-01T11:01:31.97Z</time></trkpt><trkpt lat="44.5525359" lon="8.5109056"><ele>710.0</ele><time>2026-04-01T11:01:32.971Z</time></trkpt><trkpt lat="44.5524436" lon="8.5109156"><ele>710.0</ele><time>2026-04-01T11:01:33.971Z</time></trkpt><trkpt lat="44.5523509" lon="8.5109475"><ele>710.0</ele><time>2026-04-01T11:01:34.97Z</time></trkpt><trkpt lat="44.5522587" lon="8.5109935"><ele>710.0</ele><time>2026-04-01T11:01:35.971Z</time></trkpt><trkpt lat="44.552166" lon="8.5110487"><ele>710.0</ele><time>2026-04-01T11:01:36.971Z</time></trkpt><trkpt lat="44.5520774" lon="8.5111193"><ele>710.0</ele><time>2026-04-01T11:01:37.971Z</time></trkpt><trkpt lat="44.5519939" lon="8.5112"><ele>711.8</ele><time>2026-04-01T11:01:38.971Z</time></trkpt><trkpt lat="44.5519183" lon="8.5112837"><ele>713.6</ele><time>2026-04-01T11:01:39.971Z</time></trkpt><trkpt lat="44.5518481" lon="8.5113742"><ele>715.4000000000001</ele><time>2026-04-01T11:01:40.971Z</time></trkpt><trkpt lat="44.551774" lon="8.511473"><ele>717.2</ele><time>2026-04-01T11:01:41.971Z</time></trkpt><trkpt lat="44.5516964" lon="8.5115806"><ele>719.0</ele><time>2026-04-01T11:01:42.971Z</time></trkpt><trkpt lat="44.5516188" lon="8.5116996"><ele>719.0</ele><time>2026-04-01T11:01:43.971Z</time></trkpt><trkpt lat="44.5515402" lon="8.511816"><ele>719.0</ele><time>2026-04-01T11:01:44.971Z</time></trkpt><trkpt lat="44.551458" lon="8.5119352"><ele>719.0</ele><time>2026-04-01T11:01:45.971Z</time></trkpt><trkpt lat="44.5513787" lon="8.5120614"><ele>719.0</ele><time>2026-04-01T11:01:46.971Z</time></trkpt><trkpt lat="44.5512575" lon="8.5123392"><ele>718.0</ele><time>2026-04-01T11:01:48.971Z</time></trkpt><trkpt lat="44.5512122" lon="8.5124849"><ele>717.0</ele><time>2026-04-01T11:01:49.974Z</time></trkpt><trkpt lat="44.5511661" lon="8.5126204"><ele>716.0</ele><time>2026-04-01T11:01:50.971Z</time></trkpt><trkpt lat="44.5511148" lon="8.5127483"><ele>715.0</ele><time>2026-04-01T11:01:51.97Z</time></trkpt><trkpt lat="44.5510553" lon="8.512874"><ele>714.0</ele><time>2026-04-01T11:01:52.972Z</time></trkpt><trkpt lat="44.5509883" lon="8.5129983"><ele>717.75</ele><time>2026-04-01T11:01:53.972Z</time></trkpt><trkpt lat="44.5509266" lon="8.5131229"><ele>721.5</ele><time>2026-04-01T11:01:54.969Z</time></trkpt><trkpt lat="44.5508698" lon="8.513243"><ele>725.25</ele><time>2026-04-01T11:01:55.971Z</time></trkpt><trkpt lat="44.5508143" lon="8.51348"><ele>729.0</ele><time>2026-04-01T11:01:57.969Z</time></trkpt><trkpt lat="44.5508194" lon="8.5136147"><ele>729.6</ele><time>2026-04-01T11:01:58.971Z</time></trkpt><trkpt lat="44.5508591" lon="8.5137438"><ele>730.2</ele><time>2026-04-01T11:01:59.971Z</time></trkpt><trkpt lat="44.5509142" lon="8.5138706"><ele>730.8000000000001</ele><time>2026-04-01T11:02:00.971Z</time></trkpt><trkpt lat="44.5509645" lon="8.5139952"><ele>731.4000000000001</ele><time>2026-04-01T11:02:01.972Z</time></trkpt><trkpt lat="44.5509909" lon="8.5141266"><ele>732.0</ele><time>2026-04-01T11:02:02.972Z</time></trkpt><trkpt lat="44.5510006" lon="8.5142579"><ele>732.0</ele><time>2026-04-01T11:02:03.97Z</time></trkpt><trkpt lat="44.5509591" lon="8.5145281"><ele>732.0</ele><time>2026-04-01T11:02:05.97Z</time></trkpt><trkpt lat="44.5509145" lon="8.5146658"><ele>732.0</ele><time>2026-04-01T11:02:06.971Z</time></trkpt><trkpt lat="44.5508031" lon="8.5149437"><ele>732.0</ele><time>2026-04-01T11:02:08.972Z</time></trkpt><trkpt lat="44.5507414" lon="8.5150765"><ele>732.0</ele><time>2026-04-01T11:02:09.971Z</time></trkpt><trkpt lat="44.5506733" lon="8.5152113"><ele>732.0</ele><time>2026-04-01T11:02:10.971Z</time></trkpt><trkpt lat="44.5505097" lon="8.5154729"><ele>729.3333333333334</ele><time>2026-04-01T11:02:12.97Z</time></trkpt><trkpt lat="44.5504227" lon="8.515595"><ele>726.6666666666667</ele><time>2026-04-01T11:02:13.972Z</time></trkpt><trkpt lat="44.5502463" lon="8.5158607"><ele>724.0</ele><time>2026-04-01T11:02:15.971Z</time></trkpt><trkpt lat="44.5500869" lon="8.5161657"><ele>725.0</ele><time>2026-04-01T11:02:17.971Z</time></trkpt><trkpt lat="44.550009" lon="8.5163141"><ele>726.0</ele><time>2026-04-01T11:02:18.97Z</time></trkpt><trkpt lat="44.5498482" lon="8.5166006"><ele>727.0</ele><time>2026-04-01T11:02:20.971Z</time></trkpt><trkpt lat="44.5497711" lon="8.5167441"><ele>727.0</ele><time>2026-04-01T11:02:21.969Z</time></trkpt><trkpt lat="44.5496504" lon="8.5170557"><ele>727.0</ele><time>2026-04-01T11:02:23.97Z</time></trkpt><trkpt lat="44.5496003" lon="8.5172239"><ele>727.0</ele><time>2026-04-01T11:02:24.973Z</time></trkpt><trkpt lat="44.5495561" lon="8.517387"><ele>728.0</ele><time>2026-04-01T11:02:25.971Z</time></trkpt><trkpt lat="44.5495037" lon="8.5175421"><ele>729.0</ele><time>2026-04-01T11:02:26.972Z</time></trkpt><trkpt lat="44.5494527" lon="8.5176876"><ele>730.0</ele><time>2026-04-01T11:02:27.971Z</time></trkpt><trkpt lat="44.5494088" lon="8.5178235"><ele>731.0</ele><time>2026-04-01T11:02:28.971Z</time></trkpt><trkpt lat="44.5493812" lon="8.5179587"><ele>732.0</ele><time>2026-04-01T11:02:29.971Z</time></trkpt><trkpt lat="44.5493663" lon="8.5180835"><ele>732.0</ele><time>2026-04-01T11:02:30.969Z</time></trkpt><trkpt lat="44.5493523" lon="8.5182093"><ele>732.0</ele><time>2026-04-01T11:02:31.97Z</time></trkpt><trkpt lat="44.5493435" lon="8.5183356"><ele>732.0</ele><time>2026-04-01T11:02:32.972Z</time></trkpt><trkpt lat="44.5493381" lon="8.5184554"><ele>732.0</ele><time>2026-04-01T11:02:33.971Z</time></trkpt><trkpt lat="44.549331" lon="8.5185705"><ele>732.0</ele><time>2026-04-01T11:02:34.972Z</time></trkpt><trkpt lat="44.5493334" lon="8.5188038"><ele>731.25</ele><time>2026-04-01T11:02:36.971Z</time></trkpt><trkpt lat="44.5493319" lon="8.5189375"><ele>730.5</ele><time>2026-04-01T11:02:37.972Z</time></trkpt><trkpt lat="44.5493191" lon="8.5192159"><ele>729.75</ele><time>2026-04-01T11:02:39.971Z</time></trkpt><trkpt lat="44.5493104" lon="8.5193492"><ele>729.0</ele><time>2026-04-01T11:02:40.971Z</time></trkpt><trkpt lat="44.5493037" lon="8.519483"><ele>728.2</ele><time>2026-04-01T11:02:41.971Z</time></trkpt><trkpt lat="44.5492966" lon="8.5196122"><ele>727.4000000000001</ele><time>2026-04-01T11:02:42.97Z</time></trkpt><trkpt lat="44.5492884" lon="8.5197315"><ele>726.6</ele><time>2026-04-01T11:02:43.972Z</time></trkpt><trkpt lat="44.5492781" lon="8.5198435"><ele>725.8</ele><time>2026-04-01T11:02:44.971Z</time></trkpt><trkpt lat="44.5492428" lon="8.5200317"><ele>725.0</ele><time>2026-04-01T11:02:46.969Z</time></trkpt><trkpt lat="44.5491567" lon="8.520144"><ele>725.0</ele><time>2026-04-01T11:02:49.97Z</time></trkpt><trkpt lat="44.5490813" lon="8.5202038"><ele>725.0</ele><time>2026-04-01T11:03:07.971Z</time></trkpt><trkpt lat="44.5489751" lon="8.5202828"><ele>725.0</ele><time>2026-04-01T11:03:09.972Z</time></trkpt><trkpt lat="44.5489007" lon="8.5203192"><ele>725.0</ele><time>2026-04-01T11:03:10.972Z</time></trkpt><trkpt lat="44.5488199" lon="8.52035"><ele>725.0</ele><time>2026-04-01T11:03:11.97Z</time></trkpt><trkpt lat="44.548743" lon="8.5203755"><ele>725.0</ele><time>2026-04-01T11:03:12.97Z</time></trkpt><trkpt lat="44.5486717" lon="8.5203871"><ele>728.5</ele><time>2026-04-01T11:03:13.971Z</time></trkpt><trkpt lat="44.548513" lon="8.5202927"><ele>732.0</ele><time>2026-04-01T11:03:16.971Z</time></trkpt><trkpt lat="44.5484891" lon="8.5202077"><ele>735.5</ele><time>2026-04-01T11:03:17.972Z</time></trkpt><trkpt lat="44.5484715" lon="8.5199812"><ele>739.0</ele><time>2026-04-01T11:03:19.972Z</time></trkpt><trkpt lat="44.5484263" lon="8.5197731"><ele>739.0</ele><time>2026-04-01T11:03:21.97Z</time></trkpt><trkpt lat="44.5483912" lon="8.5196828"><ele>739.0</ele><time>2026-04-01T11:03:22.971Z</time></trkpt><trkpt lat="44.5483466" lon="8.5195903"><ele>739.0</ele><time>2026-04-01T11:03:23.971Z</time></trkpt><trkpt lat="44.548301" lon="8.5194983"><ele>739.0</ele><time>2026-04-01T11:03:24.97Z</time></trkpt><trkpt lat="44.5482633" lon="8.5194002"><ele>739.0</ele><time>2026-04-01T11:03:25.97Z</time></trkpt><trkpt lat="44.5482345" lon="8.5192975"><ele>739.0</ele><time>2026-04-01T11:03:26.971Z</time></trkpt><trkpt lat="44.5482169" lon="8.5191859"><ele>740.1666666666667</ele><time>2026-04-01T11:03:27.97Z</time></trkpt><trkpt lat="44.5482084" lon="8.5190737"><ele>741.3333333333334</ele><time>2026-04-01T11:03:28.971Z</time></trkpt><trkpt lat="44.5481959" lon="8.5189694"><ele>742.5</ele><time>2026-04-01T11:03:29.971Z</time></trkpt><trkpt lat="44.5481826" lon="8.5188685"><ele>743.6666666666666</ele><time>2026-04-01T11:03:30.972Z</time></trkpt><trkpt lat="44.5481611" lon="8.5187737"><ele>744.8333333333333</ele><time>2026-04-01T11:03:31.972Z</time></trkpt><trkpt lat="44.5481446" lon="8.5186713"><ele>746.0</ele><time>2026-04-01T11:03:32.971Z</time></trkpt><trkpt lat="44.548128" lon="8.5185667"><ele>747.4</ele><time>2026-04-01T11:03:33.971Z</time></trkpt><trkpt lat="44.5481175" lon="8.5184575"><ele>748.8</ele><time>2026-04-01T11:03:34.971Z</time></trkpt><trkpt lat="44.5481081" lon="8.5182188"><ele>750.1999999999999</ele><time>2026-04-01T11:03:36.972Z</time></trkpt><trkpt lat="44.5481053" lon="8.5180849"><ele>751.5999999999999</ele><time>2026-04-01T11:03:37.971Z</time></trkpt><trkpt lat="44.5481017" lon="8.5179524"><ele>753.0</ele><time>2026-04-01T11:03:38.971Z</time></trkpt><trkpt lat="44.5480964" lon="8.5178273"><ele>753.5999999999999</ele><time>2026-04-01T11:03:39.971Z</time></trkpt><trkpt lat="44.5480863" lon="8.517705"><ele>754.1999999999999</ele><time>2026-04-01T11:03:40.97Z</time></trkpt><trkpt lat="44.5480736" lon="8.5175964"><ele>754.8</ele><time>2026-04-01T11:03:41.973Z</time></trkpt><trkpt lat="44.5480503" lon="8.5174344"><ele>755.4</ele><time>2026-04-01T11:03:43.97Z</time></trkpt><trkpt lat="44.5480216" lon="8.5173082"><ele>756.0</ele><time>2026-04-01T11:03:55.97Z</time></trkpt><trkpt lat="44.5479781" lon="8.5172219"><ele>756.0</ele><time>2026-04-01T11:03:57.97Z</time></trkpt><trkpt lat="44.5479004" lon="8.5171481"><ele>756.0</ele><time>2026-04-01T11:03:59.969Z</time></trkpt><trkpt lat="44.5477892" lon="8.5171154"><ele>756.0</ele><time>2026-04-01T11:04:01.972Z</time></trkpt><trkpt lat="44.5477227" lon="8.5171339"><ele>756.0</ele><time>2026-04-01T11:04:02.972Z</time></trkpt><trkpt lat="44.5476101" lon="8.5172101"><ele>756.0</ele><time>2026-04-01T11:04:04.969Z</time></trkpt><trkpt lat="44.5475475" lon="8.5172355"><ele>756.0</ele><time>2026-04-01T11:04:05.97Z</time></trkpt><trkpt lat="44.5474087" lon="8.5172329"><ele>756.0</ele><time>2026-04-01T11:04:07.971Z</time></trkpt><trkpt lat="44.5473315" lon="8.5172258"><ele>756.0</ele><time>2026-04-01T11:04:08.971Z</time></trkpt><trkpt lat="44.5472555" lon="8.5172198"><ele>756.0</ele><time>2026-04-01T11:04:09.97Z</time></trkpt><trkpt lat="44.5471833" lon="8.5172102"><ele>756.0</ele><time>2026-04-01T11:04:10.971Z</time></trkpt><trkpt lat="44.5470705" lon="8.5171899"><ele>757.5</ele><time>2026-04-01T11:04:12.971Z</time></trkpt><trkpt lat="44.5468886" lon="8.5171143"><ele>759.0</ele><time>2026-04-01T11:04:15.971Z</time></trkpt><trkpt lat="44.5468087" lon="8.5170755"><ele>760.5</ele><time>2026-04-01T11:04:16.969Z</time></trkpt><trkpt lat="44.5467266" lon="8.5170343"><ele>762.0</ele><time>2026-04-01T11:04:17.971Z</time></trkpt><trkpt lat="44.5465522" lon="8.5169505"><ele>762.5</ele><time>2026-04-01T11:04:19.97Z</time></trkpt><trkpt lat="44.5464698" lon="8.5169109"><ele>763.0</ele><time>2026-04-01T11:04:20.972Z</time></trkpt><trkpt lat="44.546394" lon="8.5168732"><ele>763.5</ele><time>2026-04-01T11:04:21.971Z</time></trkpt><trkpt lat="44.5463267" lon="8.5168327"><ele>764.0</ele><time>2026-04-01T11:04:22.971Z</time></trkpt><trkpt lat="44.5462682" lon="8.5167898"><ele>764.5</ele><time>2026-04-01T11:04:23.97Z</time></trkpt><trkpt lat="44.5461869" lon="8.5166724"><ele>765.0</ele><time>2026-04-01T11:04:25.972Z</time></trkpt><trkpt lat="44.5461588" lon="8.5165924"><ele>761.4</ele><time>2026-04-01T11:04:26.971Z</time></trkpt><trkpt lat="44.5461379" lon="8.5165031"><ele>757.8</ele><time>2026-04-01T11:04:27.971Z</time></trkpt><trkpt lat="44.5461333" lon="8.5164142"><ele>754.2</ele><time>2026-04-01T11:04:28.971Z</time></trkpt><trkpt lat="44.5461324" lon="8.5161488"><ele>750.6</ele><time>2026-04-01T11:04:31.975Z</time></trkpt><trkpt lat="44.5461233" lon="8.5160595"><ele>747.0</ele><time>2026-04-01T11:04:32.97Z</time></trkpt><trkpt lat="44.5460924" lon="8.5159096"><ele>747.0</ele><time>2026-04-01T11:04:34.974Z</time></trkpt><trkpt lat="44.5460206" lon="8.5157434"><ele>747.0</ele><time>2026-04-01T11:04:37.971Z</time></trkpt><trkpt lat="44.5459947" lon="8.5156325"><ele>747.0</ele><time>2026-04-01T11:04:39.97Z</time></trkpt><trkpt lat="44.5459836" lon="8.5155008"><ele>747.0</ele><time>2026-04-01T11:04:41.97Z</time></trkpt><trkpt lat="44.5459808" lon="8.5153374"><ele>747.0</ele><time>2026-04-01T11:04:43.972Z</time></trkpt><trkpt lat="44.5459915" lon="8.5151724"><ele>747.4000000000001</ele><time>2026-04-01T11:04:45.972Z</time></trkpt><trkpt lat="44.5460256" lon="8.5150233"><ele>747.8000000000001</ele><time>2026-04-01T11:04:47.971Z</time></trkpt><trkpt lat="44.5460865" lon="8.5148904"><ele>748.2</ele><time>2026-04-01T11:04:49.971Z</time></trkpt><trkpt lat="44.5461451" lon="8.5147975"><ele>748.6</ele><time>2026-04-01T11:04:51.97Z</time></trkpt><trkpt lat="44.5462309" lon="8.5146757"><ele>749.0</ele><time>2026-04-01T11:04:54.971Z</time></trkpt><trkpt lat="44.5462859" lon="8.5146285"><ele>749.0</ele><time>2026-04-01T11:04:57.974Z</time></trkpt><trkpt lat="44.5462178" lon="8.5146176"><ele>749.0</ele><time>2026-04-01T11:08:07.971Z</time></trkpt><trkpt lat="44.5461559" lon="8.5146637"><ele>749.0</ele><time>2026-04-01T11:08:29.972Z</time></trkpt><trkpt lat="44.5460987" lon="8.5147742"><ele>749.0</ele><time>2026-04-01T11:08:31.971Z</time></trkpt><trkpt lat="44.5459892" lon="8.5149928"><ele>749.0</ele><time>2026-04-01T11:08:34.971Z</time></trkpt><trkpt lat="44.545946" lon="8.5151485"><ele>749.0</ele><time>2026-04-01T11:08:36.971Z</time></trkpt><trkpt lat="44.545945" lon="8.5153275"><ele>749.0</ele><time>2026-04-01T11:08:38.972Z</time></trkpt><trkpt lat="44.5459501" lon="8.5154271"><ele>749.0</ele><time>2026-04-01T11:08:39.971Z</time></trkpt><trkpt lat="44.5459712" lon="8.5156196"><ele>749.0</ele><time>2026-04-01T11:08:41.972Z</time></trkpt><trkpt lat="44.5460146" lon="8.5157816"><ele>748.6</ele><time>2026-04-01T11:08:43.972Z</time></trkpt><trkpt lat="44.5460774" lon="8.5159364"><ele>748.2</ele><time>2026-04-01T11:08:45.971Z</time></trkpt><trkpt lat="44.5461018" lon="8.5160203"><ele>747.8000000000001</ele><time>2026-04-01T11:08:46.973Z</time></trkpt><trkpt lat="44.5461177" lon="8.5161818"><ele>747.4000000000001</ele><time>2026-04-01T11:08:48.972Z</time></trkpt><trkpt lat="44.5461208" lon="8.5163486"><ele>747.0</ele><time>2026-04-01T11:08:50.973Z</time></trkpt><trkpt lat="44.5461335" lon="8.5165171"><ele>746.4000000000001</ele><time>2026-04-01T11:08:52.97Z</time></trkpt><trkpt lat="44.5461709" lon="8.5166601"><ele>745.8000000000001</ele><time>2026-04-01T11:08:54.972Z</time></trkpt><trkpt lat="44.5462128" lon="8.5167543"><ele>745.2</ele><time>2026-04-01T11:08:56.972Z</time></trkpt><trkpt lat="44.5462752" lon="8.5168424"><ele>744.6</ele><time>2026-04-01T11:09:35.971Z</time></trkpt><trkpt lat="44.5463372" lon="8.5169451"><ele>744.0</ele><time>2026-04-01T11:09:38.974Z</time></trkpt><trkpt lat="44.5462911" lon="8.5171224"><ele>743.4000000000001</ele><time>2026-04-01T11:09:42.971Z</time></trkpt><trkpt lat="44.5462439" lon="8.51724"><ele>742.8</ele><time>2026-04-01T11:09:44.971Z</time></trkpt><trkpt lat="44.5462161" lon="8.5173578"><ele>742.2</ele><time>2026-04-01T11:09:46.971Z</time></trkpt><trkpt lat="44.5461992" lon="8.5174655"><ele>741.5999999999999</ele><time>2026-04-01T11:09:48.972Z</time></trkpt><trkpt lat="44.5462062" lon="8.517608"><ele>741.0</ele><time>2026-04-01T11:09:51.971Z</time></trkpt><trkpt lat="44.5462045" lon="8.5177306"><ele>744.5999999999999</ele><time>2026-04-01T11:09:53.97Z</time></trkpt><trkpt lat="44.5462161" lon="8.51784"><ele>748.2</ele><time>2026-04-01T11:09:55.971Z</time></trkpt><trkpt lat="44.5462382" lon="8.5179768"><ele>751.8</ele><time>2026-04-01T11:09:57.971Z</time></trkpt><trkpt lat="44.5462696" lon="8.518129"><ele>755.4000000000001</ele><time>2026-04-01T11:09:59.971Z</time></trkpt><trkpt lat="44.5462934" lon="8.5183338"><ele>759.0</ele><time>2026-04-01T11:10:02.973Z</time></trkpt><trkpt lat="44.5463375" lon="8.5184985"><ele>759.0</ele><time>2026-04-01T11:10:05.972Z</time></trkpt><trkpt lat="44.5463674" lon="8.5185923"><ele>759.0</ele><time>2026-04-01T11:10:07.972Z</time></trkpt><trkpt lat="44.5463678" lon="8.5186819"><ele>759.0</ele><time>2026-04-01T11:10:09.971Z</time></trkpt><trkpt lat="44.546312" lon="8.5187941"><ele>759.0</ele><time>2026-04-01T11:10:11.973Z</time></trkpt><trkpt lat="44.5462658" lon="8.5188649"><ele>759.0</ele><time>2026-04-01T11:10:12.972Z</time></trkpt><trkpt lat="44.5462121" lon="8.518939"><ele>759.0</ele><time>2026-04-01T11:10:13.971Z</time></trkpt><trkpt lat="44.5461582" lon="8.5190174"><ele>756.0</ele><time>2026-04-01T11:10:14.973Z</time></trkpt><trkpt lat="44.5461002" lon="8.5190958"><ele>753.0</ele><time>2026-04-01T11:10:15.971Z</time></trkpt><trkpt lat="44.5460423" lon="8.5191677"><ele>750.0</ele><time>2026-04-01T11:10:16.973Z</time></trkpt><trkpt lat="44.5459913" lon="8.5192342"><ele>747.0</ele><time>2026-04-01T11:10:17.972Z</time></trkpt><trkpt lat="44.5459063" lon="8.5193518"><ele>744.0</ele><time>2026-04-01T11:10:19.972Z</time></trkpt><trkpt lat="44.5458323" lon="8.519463"><ele>744.0</ele><time>2026-04-01T11:10:21.975Z</time></trkpt><trkpt lat="44.5457671" lon="8.5196001"><ele>744.0</ele><time>2026-04-01T11:10:23.97Z</time></trkpt><trkpt lat="44.5457421" lon="8.5196821"><ele>744.0</ele><time>2026-04-01T11:10:24.97Z</time></trkpt><trkpt lat="44.5457199" lon="8.5197779"><ele>744.0</ele><time>2026-04-01T11:10:25.973Z</time></trkpt><trkpt lat="44.5456971" lon="8.5198659"><ele>744.0</ele><time>2026-04-01T11:10:26.972Z</time></trkpt><trkpt lat="44.5456594" lon="8.5199488"><ele>744.0</ele><time>2026-04-01T11:10:27.97Z</time></trkpt><trkpt lat="44.5456047" lon="8.5200326"><ele>744.0</ele><time>2026-04-01T11:10:28.97Z</time></trkpt><trkpt lat="44.545534" lon="8.5201215"><ele>744.0</ele><time>2026-04-01T11:10:29.97Z</time></trkpt><trkpt lat="44.5454496" lon="8.5202148"><ele>744.0</ele><time>2026-04-01T11:10:30.971Z</time></trkpt><trkpt lat="44.5453734" lon="8.5202859"><ele>744.0</ele><time>2026-04-01T11:10:31.971Z</time></trkpt><trkpt lat="44.5453016" lon="8.5203289"><ele>744.0</ele><time>2026-04-01T11:10:32.973Z</time></trkpt><trkpt lat="44.5452339" lon="8.5203416"><ele>744.0</ele><time>2026-04-01T11:10:33.971Z</time></trkpt><trkpt lat="44.5451662" lon="8.5203283"><ele>742.8000000000001</ele><time>2026-04-01T11:10:34.972Z</time></trkpt><trkpt lat="44.5450476" lon="8.5202791"><ele>741.6</ele><time>2026-04-01T11:10:36.971Z</time></trkpt><trkpt lat="44.5449518" lon="8.5202261"><ele>740.4</ele><time>2026-04-01T11:10:38.972Z</time></trkpt><trkpt lat="44.5448684" lon="8.520221"><ele>739.2</ele><time>2026-04-01T11:10:40.972Z</time></trkpt><trkpt lat="44.5447825" lon="8.5202555"><ele>738.0</ele><time>2026-04-01T11:10:42.972Z</time></trkpt><trkpt lat="44.5446907" lon="8.5202637"><ele>738.0</ele><time>2026-04-01T11:10:44.974Z</time></trkpt><trkpt lat="44.5446118" lon="8.5201947"><ele>738.0</ele><time>2026-04-01T11:10:47.971Z</time></trkpt><trkpt lat="44.5445966" lon="8.5200906"><ele>738.0</ele><time>2026-04-01T11:10:49.971Z</time></trkpt><trkpt lat="44.544532" lon="8.5200005"><ele>738.0</ele><time>2026-04-01T11:10:52.973Z</time></trkpt><trkpt lat="44.5444573" lon="8.520012"><ele>738.0</ele><time>2026-04-01T11:10:54.971Z</time></trkpt><trkpt lat="44.5443791" lon="8.5200785"><ele>738.0</ele><time>2026-04-01T11:10:56.972Z</time></trkpt><trkpt lat="44.5443143" lon="8.5201381"><ele>735.1666666666666</ele><time>2026-04-01T11:10:59.971Z</time></trkpt><trkpt lat="44.5442535" lon="8.5200765"><ele>732.3333333333334</ele><time>2026-04-01T11:11:03.972Z</time></trkpt><trkpt lat="44.5442317" lon="8.519979"><ele>729.5</ele><time>2026-04-01T11:11:05.97Z</time></trkpt><trkpt lat="44.544216" lon="8.519861"><ele>726.6666666666667</ele><time>2026-04-01T11:11:08.971Z</time></trkpt><trkpt lat="44.5441944" lon="8.5197696"><ele>723.8333333333334</ele><time>2026-04-01T11:11:11.97Z</time></trkpt><trkpt lat="44.5441272" lon="8.5198494"><ele>721.0</ele><time>2026-04-01T11:11:15.971Z</time></trkpt><trkpt lat="44.5440809" lon="8.5199495"><ele>721.0</ele><time>2026-04-01T11:11:17.97Z</time></trkpt><trkpt lat="44.5440329" lon="8.5200427"><ele>721.0</ele><time>2026-04-01T11:11:19.971Z</time></trkpt><trkpt lat="44.5439906" lon="8.5201315"><ele>721.0</ele><time>2026-04-01T11:11:21.971Z</time></trkpt><trkpt lat="44.5439463" lon="8.5202155"><ele>721.0</ele><time>2026-04-01T11:11:24.971Z</time></trkpt><trkpt lat="44.5439189" lon="8.5203199"><ele>721.0</ele><time>2026-04-01T11:11:28.971Z</time></trkpt><trkpt lat="44.5439125" lon="8.520426"><ele>721.0</ele><time>2026-04-01T11:11:32.972Z</time></trkpt><trkpt lat="44.5439195" lon="8.5205259"><ele>720.6666666666667</ele><time>2026-04-01T11:11:35.97Z</time></trkpt><trkpt lat="44.5439302" lon="8.5206233"><ele>720.3333333333334</ele><time>2026-04-01T11:11:38.972Z</time></trkpt><trkpt lat="44.5439506" lon="8.5207397"><ele>720.0</ele><time>2026-04-01T11:11:41.971Z</time></trkpt><trkpt lat="44.5439617" lon="8.5208372"><ele>719.6666666666666</ele><time>2026-04-01T11:11:44.972Z</time></trkpt><trkpt lat="44.5439713" lon="8.5209544"><ele>719.3333333333333</ele><time>2026-04-01T11:11:47.972Z</time></trkpt><trkpt lat="44.5439759" lon="8.521066"><ele>719.0</ele><time>2026-04-01T11:11:51.971Z</time></trkpt><trkpt lat="44.5439662" lon="8.5211562"><ele>718.9999999999999</ele><time>2026-04-01T11:11:53.973Z</time></trkpt><trkpt lat="44.5439667" lon="8.5212542"><ele>719.0</ele><time>2026-04-01T11:11:55.972Z</time></trkpt><trkpt lat="44.5439254" lon="8.5213267"><ele>719.0</ele><time>2026-04-01T11:13:06.971Z</time></trkpt><trkpt lat="44.5438451" lon="8.5212983"><ele>719.0</ele><time>2026-04-01T11:13:09.971Z</time></trkpt><trkpt lat="44.5437758" lon="8.5212453"><ele>719.0</ele><time>2026-04-01T11:13:12.97Z</time></trkpt><trkpt lat="44.5437161" lon="8.5211971"><ele>718.9999999999999</ele><time>2026-04-01T11:13:14.973Z</time></trkpt><trkpt lat="44.5436575" lon="8.521135"><ele>719.0</ele><time>2026-04-01T11:13:16.972Z</time></trkpt><trkpt lat="44.5436075" lon="8.5210604"><ele>713.5</ele><time>2026-04-01T11:13:18.97Z</time></trkpt><trkpt lat="44.5435544" lon="8.5209999"><ele>708.0</ele><time>2026-04-01T11:13:20.971Z</time></trkpt><trkpt lat="44.5434971" lon="8.5209624"><ele>702.5</ele><time>2026-04-01T11:13:22.971Z</time></trkpt><trkpt lat="44.5434235" lon="8.5209061"><ele>697.0</ele><time>2026-04-01T11:13:25.971Z</time></trkpt><trkpt lat="44.5433333" lon="8.5209057"><ele>691.5</ele><time>2026-04-01T11:13:27.973Z</time></trkpt><trkpt lat="44.5432195" lon="8.5209237"><ele>686.0</ele><time>2026-04-01T11:13:29.971Z</time></trkpt><trkpt lat="44.5431365" lon="8.5209412"><ele>686.0</ele><time>2026-04-01T11:13:31.971Z</time></trkpt><trkpt lat="44.5430612" lon="8.5209621"><ele>686.0</ele><time>2026-04-01T11:13:34.972Z</time></trkpt><trkpt lat="44.5429974" lon="8.5209471"><ele>686.0</ele><time>2026-04-01T11:13:37.97Z</time></trkpt><trkpt lat="44.5429428" lon="8.5209011"><ele>686.0</ele><time>2026-04-01T11:13:40.972Z</time></trkpt><trkpt lat="44.5428792" lon="8.5208433"><ele>686.0</ele><time>2026-04-01T11:13:43.972Z</time></trkpt><trkpt lat="44.5428367" lon="8.520773"><ele>686.0</ele><time>2026-04-01T11:13:45.971Z</time></trkpt><trkpt lat="44.542771" lon="8.5206984"><ele>686.0</ele><time>2026-04-01T11:13:48.974Z</time></trkpt><trkpt lat="44.5426777" lon="8.5206709"><ele>681.5714285714286</ele><time>2026-04-01T11:13:52.971Z</time></trkpt><trkpt lat="44.5425973" lon="8.5206363"><ele>677.1428571428571</ele><time>2026-04-01T11:13:55.972Z</time></trkpt><trkpt lat="44.5425392" lon="8.5205689"><ele>672.7142857142858</ele><time>2026-04-01T11:13:58.971Z</time></trkpt><trkpt lat="44.5424849" lon="8.5205151"><ele>668.2857142857142</ele><time>2026-04-01T11:14:01.972Z</time></trkpt><trkpt lat="44.5424293" lon="8.5204455"><ele>663.8571428571429</ele><time>2026-04-01T11:14:05.97Z</time></trkpt><trkpt lat="44.5423641" lon="8.5204655"><ele>659.4285714285714</ele><time>2026-04-01T11:14:09.972Z</time></trkpt><trkpt lat="44.542304" lon="8.5205413"><ele>655.0</ele><time>2026-04-01T11:14:20.971Z</time></trkpt><trkpt lat="44.5422213" lon="8.5205489"><ele>655.0</ele><time>2026-04-01T11:14:24.97Z</time></trkpt><trkpt lat="44.5421714" lon="8.5206182"><ele>655.0</ele><time>2026-04-01T11:14:27.97Z</time></trkpt><trkpt lat="44.5421097" lon="8.5206989"><ele>655.0</ele><time>2026-04-01T11:14:30.97Z</time></trkpt><trkpt lat="44.5420487" lon="8.5207402"><ele>655.0</ele><time>2026-04-01T11:14:33.971Z</time></trkpt><trkpt lat="44.5419925" lon="8.5207819"><ele>655.0</ele><time>2026-04-01T11:14:37.97Z</time></trkpt><trkpt lat="44.5419746" lon="8.5208722"><ele>655.0</ele><time>2026-04-01T11:15:07.97Z</time></trkpt><trkpt lat="44.5419837" lon="8.5209703"><ele>655.0</ele><time>2026-04-01T11:15:10.97Z</time></trkpt><trkpt lat="44.5419205" lon="8.5209805"><ele>649.5714285714286</ele><time>2026-04-01T11:15:17.97Z</time></trkpt><trkpt lat="44.5418659" lon="8.5208909"><ele>644.1428571428571</ele><time>2026-04-01T11:15:20.97Z</time></trkpt><trkpt lat="44.5418093" lon="8.5208509"><ele>638.7142857142858</ele><time>2026-04-01T11:15:23.97Z</time></trkpt><trkpt lat="44.5417754" lon="8.5207651"><ele>633.2857142857142</ele><time>2026-04-01T11:15:26.972Z</time></trkpt><trkpt lat="44.5417472" lon="8.5206742"><ele>627.8571428571428</ele><time>2026-04-01T11:15:29.971Z</time></trkpt><trkpt lat="44.541725" lon="8.5205886"><ele>622.4285714285714</ele><time>2026-04-01T11:15:32.972Z</time></trkpt><trkpt lat="44.5417278" lon="8.520483"><ele>617.0</ele><time>2026-04-01T11:15:35.97Z</time></trkpt><trkpt lat="44.5417272" lon="8.5203578"><ele>616.8333333333333</ele><time>2026-04-01T11:15:38.971Z</time></trkpt><trkpt lat="44.5417407" lon="8.5202248"><ele>616.6666666666666</ele><time>2026-04-01T11:15:41.971Z</time></trkpt><trkpt lat="44.5417696" lon="8.520116"><ele>616.5</ele><time>2026-04-01T11:15:43.97Z</time></trkpt><trkpt lat="44.5418186" lon="8.5200378"><ele>616.3333333333334</ele><time>2026-04-01T11:15:45.97Z</time></trkpt><trkpt lat="44.5418454" lon="8.5199557"><ele>616.1666666666667</ele><time>2026-04-01T11:15:48.971Z</time></trkpt><trkpt lat="44.5417726" lon="8.5199179"><ele>616.0</ele><time>2026-04-01T11:16:09.97Z</time></trkpt><trkpt lat="44.5416952" lon="8.5198527"><ele>616.0</ele><time>2026-04-01T11:17:42.97Z</time></trkpt><trkpt lat="44.5416058" lon="8.5197875"><ele>616.0</ele><time>2026-04-01T11:17:44.973Z</time></trkpt><trkpt lat="44.5414919" lon="8.5197429"><ele>616.0</ele><time>2026-04-01T11:17:46.972Z</time></trkpt><trkpt lat="44.5413708" lon="8.5197318"><ele>616.0</ele><time>2026-04-01T11:17:48.971Z</time></trkpt><trkpt lat="44.5412853" lon="8.5197095"><ele>616.0</ele><time>2026-04-01T11:17:50.973Z</time></trkpt><trkpt lat="44.5412274" lon="8.519645"><ele>612.7142857142857</ele><time>2026-04-01T11:17:52.97Z</time></trkpt><trkpt lat="44.5411552" lon="8.5196349"><ele>609.4285714285714</ele><time>2026-04-01T11:17:54.969Z</time></trkpt><trkpt lat="44.5410821" lon="8.5196952"><ele>606.1428571428571</ele><time>2026-04-01T11:17:57.97Z</time></trkpt><trkpt lat="44.5410106" lon="8.5196699"><ele>602.8571428571429</ele><time>2026-04-01T11:18:00.97Z</time></trkpt><trkpt lat="44.5409581" lon="8.5196001"><ele>599.5714285714286</ele><time>2026-04-01T11:18:03.97Z</time></trkpt><trkpt lat="44.5409181" lon="8.5195164"><ele>596.2857142857142</ele><time>2026-04-01T11:18:06.971Z</time></trkpt><trkpt lat="44.5408735" lon="8.5194452"><ele>593.0</ele><time>2026-04-01T11:18:08.972Z</time></trkpt><trkpt lat="44.54081" lon="8.5194115"><ele>592.8571428571428</ele><time>2026-04-01T11:18:11.97Z</time></trkpt><trkpt lat="44.5407614" lon="8.5193501"><ele>592.7142857142857</ele><time>2026-04-01T11:18:14.971Z</time></trkpt><trkpt lat="44.5406875" lon="8.5193431"><ele>592.5714285714286</ele><time>2026-04-01T11:18:17.97Z</time></trkpt><trkpt lat="44.5406042" lon="8.5193558"><ele>592.4285714285713</ele><time>2026-04-01T11:18:20.971Z</time></trkpt><trkpt lat="44.5405361" lon="8.5193656"><ele>592.2857142857142</ele><time>2026-04-01T11:18:24.97Z</time></trkpt><trkpt lat="44.5404721" lon="8.5193759"><ele>592.1428571428571</ele><time>2026-04-01T11:18:27.97Z</time></trkpt><trkpt lat="44.5404255" lon="8.519442"><ele>592.0</ele><time>2026-04-01T11:18:30.97Z</time></trkpt><trkpt lat="44.540347" lon="8.5195123"><ele>588.3333333333334</ele><time>2026-04-01T11:18:33.969Z</time></trkpt><trkpt lat="44.5402919" lon="8.5195836"><ele>584.6666666666667</ele><time>2026-04-01T11:18:35.969Z</time></trkpt><trkpt lat="44.5402365" lon="8.5196471"><ele>581.0</ele><time>2026-04-01T11:18:37.971Z</time></trkpt><trkpt lat="44.5401969" lon="8.5197324"><ele>577.3333333333334</ele><time>2026-04-01T11:18:40.969Z</time></trkpt><trkpt lat="44.5401445" lon="8.5197815"><ele>573.6666666666666</ele><time>2026-04-01T11:18:43.97Z</time></trkpt><trkpt lat="44.5401004" lon="8.519865"><ele>570.0</ele><time>2026-04-01T11:18:46.97Z</time></trkpt><trkpt lat="44.5400679" lon="8.5199885"><ele>570.0</ele><time>2026-04-01T11:19:34.971Z</time></trkpt><trkpt lat="44.5400308" lon="8.5200823"><ele>570.0</ele><time>2026-04-01T11:19:37.971Z</time></trkpt><trkpt lat="44.5400498" lon="8.5201685"><ele>570.0</ele><time>2026-04-01T11:19:40.97Z</time></trkpt><trkpt lat="44.5400161" lon="8.5202577"><ele>570.0</ele><time>2026-04-01T11:19:43.972Z</time></trkpt><trkpt lat="44.5399424" lon="8.5202444"><ele>570.0</ele><time>2026-04-01T11:19:45.971Z</time></trkpt><trkpt lat="44.5398828" lon="8.5201979"><ele>570.0</ele><time>2026-04-01T11:19:47.973Z</time></trkpt><trkpt lat="44.5398309" lon="8.5201352"><ele>570.0</ele><time>2026-04-01T11:19:49.971Z</time></trkpt><trkpt lat="44.5398043" lon="8.5200518"><ele>570.0</ele><time>2026-04-01T11:19:51.971Z</time></trkpt><trkpt lat="44.5397858" lon="8.5199601"><ele>570.0</ele><time>2026-04-01T11:19:53.971Z</time></trkpt><trkpt lat="44.5397808" lon="8.5198377"><ele>570.0</ele><time>2026-04-01T11:19:56.972Z</time></trkpt><trkpt lat="44.539792" lon="8.5197316"><ele>570.0</ele><time>2026-04-01T11:19:58.973Z</time></trkpt><trkpt lat="44.539787" lon="8.5196086"><ele>570.0</ele><time>2026-04-01T11:20:00.972Z</time></trkpt><trkpt lat="44.5397671" lon="8.5194987"><ele>570.0</ele><time>2026-04-01T11:20:02.971Z</time></trkpt><trkpt lat="44.5397548" lon="8.5193725"><ele>570.1666666666666</ele><time>2026-04-01T11:20:04.971Z</time></trkpt><trkpt lat="44.5397413" lon="8.519254"><ele>570.3333333333334</ele><time>2026-04-01T11:20:06.971Z</time></trkpt><trkpt lat="44.5397256" lon="8.5191549"><ele>570.5</ele><time>2026-04-01T11:20:08.972Z</time></trkpt><trkpt lat="44.5397184" lon="8.5190647"><ele>570.6666666666667</ele><time>2026-04-01T11:20:10.971Z</time></trkpt><trkpt lat="44.5396735" lon="8.5189497"><ele>570.8333333333334</ele><time>2026-04-01T11:20:13.97Z</time></trkpt><trkpt lat="44.5396264" lon="8.5188548"><ele>571.0</ele><time>2026-04-01T11:20:16.97Z</time></trkpt><trkpt lat="44.5396114" lon="8.5187609"><ele>569.8571428571429</ele><time>2026-04-01T11:20:18.971Z</time></trkpt><trkpt lat="44.5396064" lon="8.5186417"><ele>568.7142857142857</ele><time>2026-04-01T11:20:21.971Z</time></trkpt><trkpt lat="44.5396184" lon="8.5185465"><ele>567.5714285714286</ele><time>2026-04-01T11:20:23.971Z</time></trkpt><trkpt lat="44.5396046" lon="8.5184527"><ele>566.4285714285714</ele><time>2026-04-01T11:20:25.971Z</time></trkpt><trkpt lat="44.5395721" lon="8.5183712"><ele>565.2857142857143</ele><time>2026-04-01T11:20:27.971Z</time></trkpt><trkpt lat="44.5395297" lon="8.5182683"><ele>564.1428571428571</ele><time>2026-04-01T11:20:30.971Z</time></trkpt><trkpt lat="44.5395146" lon="8.5181775"><ele>563.0</ele><time>2026-04-01T11:20:32.97Z</time></trkpt><trkpt lat="44.5395031" lon="8.5180533"><ele>559.8333333333333</ele><time>2026-04-01T11:20:35.971Z</time></trkpt><trkpt lat="44.539503" lon="8.5179441"><ele>556.6666666666666</ele><time>2026-04-01T11:20:37.972Z</time></trkpt><trkpt lat="44.5394968" lon="8.5178455"><ele>553.5</ele><time>2026-04-01T11:20:39.971Z</time></trkpt><trkpt lat="44.5395183" lon="8.5177339"><ele>550.3333333333334</ele><time>2026-04-01T11:20:41.971Z</time></trkpt><trkpt lat="44.5395555" lon="8.5176214"><ele>547.1666666666667</ele><time>2026-04-01T11:20:43.97Z</time></trkpt><trkpt lat="44.5395881" lon="8.5175434"><ele>544.0</ele><time>2026-04-01T11:20:45.971Z</time></trkpt><trkpt lat="44.5396387" lon="8.51745"><ele>544.0</ele><time>2026-04-01T11:20:48.969Z</time></trkpt><trkpt lat="44.5396543" lon="8.5173637"><ele>544.0</ele><time>2026-04-01T11:20:52.971Z</time></trkpt><trkpt lat="44.5396441" lon="8.5172341"><ele>544.0</ele><time>2026-04-01T11:20:55.972Z</time></trkpt><trkpt lat="44.539624" lon="8.5171129"><ele>544.0</ele><time>2026-04-01T11:20:58.971Z</time></trkpt><trkpt lat="44.5396095" lon="8.5169943"><ele>544.0</ele><time>2026-04-01T11:21:01.971Z</time></trkpt><trkpt lat="44.5395935" lon="8.5168962"><ele>544.0</ele><time>2026-04-01T11:21:05.973Z</time></trkpt><trkpt lat="44.5395707" lon="8.5167655"><ele>534.0</ele><time>2026-04-01T11:21:08.971Z</time></trkpt><trkpt lat="44.5395909" lon="8.5166622"><ele>534.0</ele><time>2026-04-01T11:21:11.972Z</time></trkpt><trkpt lat="44.5396671" lon="8.5166338"><ele>534.0</ele><time>2026-04-01T11:21:15.971Z</time></trkpt><trkpt lat="44.5397285" lon="8.5166123"><ele>534.0</ele><time>2026-04-01T11:21:18.971Z</time></trkpt><trkpt lat="44.5397519" lon="8.5165216"><ele>534.0</ele><time>2026-04-01T11:21:28.972Z</time></trkpt><trkpt lat="44.539698" lon="8.5164568"><ele>534.0</ele><time>2026-04-01T11:21:33.971Z</time></trkpt><trkpt lat="44.539637" lon="8.516418"><ele>534.0</ele><time>2026-04-01T11:21:39.97Z</time></trkpt></trkseg><trkseg><trkpt lat="44.53957" lon="8.5163619"><ele>531.6666666666666</ele><time>2026-04-01T11:41:49.971Z</time></trkpt><trkpt lat="44.539505" lon="8.5162896"><ele>529.3333333333334</ele><time>2026-04-01T11:41:52.972Z</time></trkpt><trkpt lat="44.5394458" lon="8.5162245"><ele>527.0</ele><time>2026-04-01T11:41:55.971Z</time></trkpt><trkpt lat="44.5393604" lon="8.5161639"><ele>524.6666666666667</ele><time>2026-04-01T11:41:58.97Z</time></trkpt><trkpt lat="44.5392886" lon="8.5160848"><ele>522.3333333333334</ele><time>2026-04-01T11:42:01.971Z</time></trkpt><trkpt lat="44.5392403" lon="8.5159885"><ele>520.0</ele><time>2026-04-01T11:42:04.972Z</time></trkpt><trkpt lat="44.5392357" lon="8.5158936"><ele>519.2</ele><time>2026-04-01T11:42:08.972Z</time></trkpt><trkpt lat="44.539233" lon="8.5157954"><ele>518.4</ele><time>2026-04-01T11:42:12.971Z</time></trkpt><trkpt lat="44.5392283" lon="8.5156848"><ele>517.6</ele><time>2026-04-01T11:42:17.971Z</time></trkpt><trkpt lat="44.5392786" lon="8.5155888"><ele>516.8</ele><time>2026-04-01T11:42:21.972Z</time></trkpt><trkpt lat="44.5393143" lon="8.5153746"><ele>516.0</ele><time>2026-04-01T11:42:35.972Z</time></trkpt><trkpt lat="44.5393545" lon="8.5152814"><ele>514.8333333333334</ele><time>2026-04-01T11:42:39.971Z</time></trkpt><trkpt lat="44.5393966" lon="8.5151801"><ele>513.6666666666666</ele><time>2026-04-01T11:42:42.971Z</time></trkpt><trkpt lat="44.5394414" lon="8.5150663"><ele>512.5</ele><time>2026-04-01T11:42:44.972Z</time></trkpt><trkpt lat="44.5394599" lon="8.5149606"><ele>511.3333333333333</ele><time>2026-04-01T11:42:46.97Z</time></trkpt><trkpt lat="44.5394729" lon="8.5148729"><ele>510.16666666666663</ele><time>2026-04-01T11:42:50.972Z</time></trkpt><trkpt lat="44.5394524" lon="8.5147738"><ele>509.0</ele><time>2026-04-01T11:44:15.972Z</time></trkpt><trkpt lat="44.5393718" lon="8.5147173"><ele>509.0</ele><time>2026-04-01T11:44:20.971Z</time></trkpt><trkpt lat="44.539296" lon="8.5147109"><ele>509.0</ele><time>2026-04-01T11:44:23.97Z</time></trkpt><trkpt lat="44.5392167" lon="8.5146949"><ele>509.0</ele><time>2026-04-01T11:44:26.972Z</time></trkpt><trkpt lat="44.5391196" lon="8.514624"><ele>509.0</ele><time>2026-04-01T11:44:29.971Z</time></trkpt><trkpt lat="44.5390729" lon="8.5145513"><ele>509.0</ele><time>2026-04-01T11:44:31.972Z</time></trkpt><trkpt lat="44.5390112" lon="8.5143795"><ele>509.0</ele><time>2026-04-01T11:44:35.97Z</time></trkpt><trkpt lat="44.5390137" lon="8.5142568"><ele>509.0</ele><time>2026-04-01T11:44:37.97Z</time></trkpt><trkpt lat="44.5390414" lon="8.5141093"><ele>509.0</ele><time>2026-04-01T11:44:40.971Z</time></trkpt><trkpt lat="44.5390489" lon="8.5140031"><ele>509.0</ele><time>2026-04-01T11:45:38.975Z</time></trkpt><trkpt lat="44.539008" lon="8.5137407"><ele>509.66666666666663</ele><time>2026-04-01T11:45:42.971Z</time></trkpt><trkpt lat="44.5390175" lon="8.5136056"><ele>510.3333333333333</ele><time>2026-04-01T11:45:43.97Z</time></trkpt><trkpt lat="44.539032" lon="8.5134548"><ele>511.0</ele><time>2026-04-01T11:45:44.975Z</time></trkpt><trkpt lat="44.5390411" lon="8.5133229"><ele>511.66666666666663</ele><time>2026-04-01T11:45:45.971Z</time></trkpt><trkpt lat="44.5390467" lon="8.5132211"><ele>512.3333333333334</ele><time>2026-04-01T11:45:46.971Z</time></trkpt><trkpt lat="44.5390629" lon="8.51313"><ele>513.0</ele><time>2026-04-01T11:45:47.972Z</time></trkpt><trkpt lat="44.5390851" lon="8.5129921"><ele>513.0</ele><time>2026-04-01T11:45:49.973Z</time></trkpt><trkpt lat="44.5389424" lon="8.5129972"><ele>513.0</ele><time>2026-04-01T11:45:53.974Z</time></trkpt><trkpt lat="44.5388219" lon="8.5130052"><ele>513.0</ele><time>2026-04-01T11:45:55.972Z</time></trkpt><trkpt lat="44.5386932" lon="8.5130558"><ele>513.0</ele><time>2026-04-01T11:45:57.972Z</time></trkpt><trkpt lat="44.5385774" lon="8.5132142"><ele>516.4</ele><time>2026-04-01T11:45:59.972Z</time></trkpt><trkpt lat="44.538498" lon="8.5133279"><ele>519.8</ele><time>2026-04-01T11:46:01.972Z</time></trkpt><trkpt lat="44.5384132" lon="8.5132574"><ele>523.2</ele><time>2026-04-01T11:46:05.973Z</time></trkpt><trkpt lat="44.5384" lon="8.5131622"><ele>526.6</ele><time>2026-04-01T11:46:07.975Z</time></trkpt><trkpt lat="44.5383884" lon="8.5130146"><ele>530.0</ele><time>2026-04-01T11:46:10.971Z</time></trkpt><trkpt lat="44.53834" lon="8.5127657"><ele>530.25</ele><time>2026-04-01T11:46:13.972Z</time></trkpt><trkpt lat="44.538285" lon="8.5126608"><ele>530.5</ele><time>2026-04-01T11:46:15.971Z</time></trkpt><trkpt lat="44.5381707" lon="8.5126387"><ele>530.75</ele><time>2026-04-01T11:46:17.971Z</time></trkpt><trkpt lat="44.5380808" lon="8.51264"><ele>531.0</ele><time>2026-04-01T11:46:18.972Z</time></trkpt><trkpt lat="44.5378883" lon="8.5126321"><ele>532.25</ele><time>2026-04-01T11:46:20.973Z</time></trkpt><trkpt lat="44.5377946" lon="8.5126025"><ele>533.5</ele><time>2026-04-01T11:46:21.972Z</time></trkpt><trkpt lat="44.5376998" lon="8.5125544"><ele>534.75</ele><time>2026-04-01T11:46:22.972Z</time></trkpt><trkpt lat="44.5376105" lon="8.5124969"><ele>536.0</ele><time>2026-04-01T11:46:23.971Z</time></trkpt><trkpt lat="44.5374546" lon="8.5124566"><ele>536.0</ele><time>2026-04-01T11:46:25.971Z</time></trkpt><trkpt lat="44.5373086" lon="8.5125446"><ele>536.0</ele><time>2026-04-01T11:46:27.971Z</time></trkpt><trkpt lat="44.5372425" lon="8.5126325"><ele>536.0</ele><time>2026-04-01T11:46:28.972Z</time></trkpt><trkpt lat="44.53719" lon="8.512723"><ele>536.0</ele><time>2026-04-01T11:46:29.973Z</time></trkpt><trkpt lat="44.5371671" lon="8.5128123"><ele>536.0</ele><time>2026-04-01T11:46:30.971Z</time></trkpt><trkpt lat="44.5371413" lon="8.5129459"><ele>536.6</ele><time>2026-04-01T11:46:32.973Z</time></trkpt><trkpt lat="44.5371937" lon="8.5130525"><ele>537.2</ele><time>2026-04-01T11:46:34.972Z</time></trkpt><trkpt lat="44.5372362" lon="8.5131274"><ele>537.8</ele><time>2026-04-01T11:46:35.971Z</time></trkpt><trkpt lat="44.5372529" lon="8.5132812"><ele>538.4</ele><time>2026-04-01T11:46:37.972Z</time></trkpt><trkpt lat="44.537154" lon="8.5133169"><ele>539.0</ele><time>2026-04-01T11:46:40.971Z</time></trkpt><trkpt lat="44.5370807" lon="8.5132705"><ele>543.0</ele><time>2026-04-01T11:46:41.973Z</time></trkpt><trkpt lat="44.5369484" lon="8.5132348"><ele>547.0</ele><time>2026-04-01T11:46:43.972Z</time></trkpt><trkpt lat="44.5368091" lon="8.5133511"><ele>551.0</ele><time>2026-04-01T11:46:46.973Z</time></trkpt><trkpt lat="44.5367692" lon="8.5134423"><ele>555.0</ele><time>2026-04-01T11:46:47.974Z</time></trkpt><trkpt lat="44.5367343" lon="8.513641"><ele>555.0</ele><time>2026-04-01T11:46:49.971Z</time></trkpt><trkpt lat="44.536732" lon="8.5137363"><ele>555.0</ele><time>2026-04-01T11:46:50.974Z</time></trkpt><trkpt lat="44.5367276" lon="8.5138937"><ele>555.0</ele><time>2026-04-01T11:46:52.972Z</time></trkpt><trkpt lat="44.5367031" lon="8.5139823"><ele>555.0</ele><time>2026-04-01T11:46:53.971Z</time></trkpt><trkpt lat="44.5366691" lon="8.5140918"><ele>555.0</ele><time>2026-04-01T11:46:54.971Z</time></trkpt><trkpt lat="44.5366445" lon="8.5142024"><ele>555.0</ele><time>2026-04-01T11:46:55.972Z</time></trkpt><trkpt lat="44.5366307" lon="8.5142976"><ele>555.25</ele><time>2026-04-01T11:46:56.971Z</time></trkpt><trkpt lat="44.5366054" lon="8.5144268"><ele>555.5</ele><time>2026-04-01T11:46:58.972Z</time></trkpt><trkpt lat="44.5366081" lon="8.5145757"><ele>555.75</ele><time>2026-04-01T11:47:19.972Z</time></trkpt><trkpt lat="44.5365374" lon="8.5147051"><ele>556.0</ele><time>2026-04-01T11:47:22.972Z</time></trkpt><trkpt lat="44.5364616" lon="8.5148623"><ele>556.2</ele><time>2026-04-01T11:47:25.973Z</time></trkpt><trkpt lat="44.5364511" lon="8.5150515"><ele>556.4000000000001</ele><time>2026-04-01T11:47:28.972Z</time></trkpt><trkpt lat="44.5364518" lon="8.5151406"><ele>556.6</ele><time>2026-04-01T11:47:29.973Z</time></trkpt><trkpt lat="44.5364497" lon="8.5152974"><ele>556.8000000000001</ele><time>2026-04-01T11:47:31.972Z</time></trkpt><trkpt lat="44.5364344" lon="8.515401"><ele>557.0</ele><time>2026-04-01T11:47:34.971Z</time></trkpt><trkpt lat="44.5364463" lon="8.5155037"><ele>557.0</ele><time>2026-04-01T11:47:40.971Z</time></trkpt><trkpt lat="44.5365083" lon="8.5155614"><ele>557.0</ele><time>2026-04-01T11:47:43.971Z</time></trkpt><trkpt lat="44.5365681" lon="8.5155288"><ele>557.0</ele><time>2026-04-01T11:47:45.971Z</time></trkpt><trkpt lat="44.5366373" lon="8.5154668"><ele>557.0</ele><time>2026-04-01T11:47:47.97Z</time></trkpt><trkpt lat="44.5367207" lon="8.5154086"><ele>557.0</ele><time>2026-04-01T11:47:49.971Z</time></trkpt><trkpt lat="44.536796" lon="8.5153993"><ele>557.0</ele><time>2026-04-01T11:47:51.971Z</time></trkpt><trkpt lat="44.5368552" lon="8.5154467"><ele>555.8333333333333</ele><time>2026-04-01T11:47:53.971Z</time></trkpt><trkpt lat="44.5369255" lon="8.5154966"><ele>554.6666666666666</ele><time>2026-04-01T11:47:55.972Z</time></trkpt><trkpt lat="44.5369984" lon="8.5155486"><ele>553.5</ele><time>2026-04-01T11:47:57.972Z</time></trkpt><trkpt lat="44.5370511" lon="8.5156141"><ele>552.3333333333334</ele><time>2026-04-01T11:47:59.973Z</time></trkpt><trkpt lat="44.5370671" lon="8.5157037"><ele>551.1666666666667</ele><time>2026-04-01T11:48:01.972Z</time></trkpt><trkpt lat="44.5370571" lon="8.5158344"><ele>550.0</ele><time>2026-04-01T11:48:04.971Z</time></trkpt><trkpt lat="44.5370266" lon="8.5159755"><ele>553.1666666666667</ele><time>2026-04-01T11:48:07.972Z</time></trkpt><trkpt lat="44.5369972" lon="8.5160737"><ele>556.3333333333334</ele><time>2026-04-01T11:48:09.97Z</time></trkpt><trkpt lat="44.5369583" lon="8.5161636"><ele>559.5</ele><time>2026-04-01T11:48:11.971Z</time></trkpt><trkpt lat="44.5368853" lon="8.5160881"><ele>562.6666666666666</ele><time>2026-04-01T11:48:15.971Z</time></trkpt><trkpt lat="44.536883" lon="8.5159602"><ele>565.8333333333333</ele><time>2026-04-01T11:48:19.97Z</time></trkpt><trkpt lat="44.5368027" lon="8.5160369"><ele>569.0</ele><time>2026-04-01T11:52:25.97Z</time></trkpt><trkpt lat="44.5367753" lon="8.5161544"><ele>572.3333333333333</ele><time>2026-04-01T11:52:27.971Z</time></trkpt><trkpt lat="44.5367629" lon="8.516241"><ele>575.6666666666666</ele><time>2026-04-01T11:52:29.97Z</time></trkpt><trkpt lat="44.536733" lon="8.5163908"><ele>579.0</ele><time>2026-04-01T11:52:33.97Z</time></trkpt><trkpt lat="44.5367287" lon="8.5164822"><ele>582.3333333333334</ele><time>2026-04-01T11:52:35.973Z</time></trkpt><trkpt lat="44.5367334" lon="8.5166119"><ele>585.6666666666667</ele><time>2026-04-01T11:52:37.97Z</time></trkpt><trkpt lat="44.5367409" lon="8.5167543"><ele>589.0</ele><time>2026-04-01T11:52:39.971Z</time></trkpt><trkpt lat="44.5367421" lon="8.5168792"><ele>589.0</ele><time>2026-04-01T11:52:41.971Z</time></trkpt><trkpt lat="44.5367536" lon="8.5169791"><ele>589.0</ele><time>2026-04-01T11:52:43.972Z</time></trkpt><trkpt lat="44.5367807" lon="8.5170739"><ele>589.0</ele><time>2026-04-01T11:52:45.97Z</time></trkpt><trkpt lat="44.5367963" lon="8.5171767"><ele>589.0</ele><time>2026-04-01T11:52:48.972Z</time></trkpt><trkpt lat="44.5368005" lon="8.5172679"><ele>589.0</ele><time>2026-04-01T11:52:50.972Z</time></trkpt><trkpt lat="44.5368142" lon="8.5173627"><ele>589.0</ele><time>2026-04-01T11:52:52.97Z</time></trkpt><trkpt lat="44.536792" lon="8.5175149"><ele>592.0</ele><time>2026-04-01T11:52:55.973Z</time></trkpt><trkpt lat="44.5367232" lon="8.5175134"><ele>595.0</ele><time>2026-04-01T11:52:57.973Z</time></trkpt><trkpt lat="44.5366339" lon="8.5173902"><ele>598.0</ele><time>2026-04-01T11:52:59.97Z</time></trkpt><trkpt lat="44.5365863" lon="8.5172747"><ele>601.0</ele><time>2026-04-01T11:53:01.97Z</time></trkpt><trkpt lat="44.5365254" lon="8.5173167"><ele>604.0</ele><time>2026-04-01T11:53:06.969Z</time></trkpt><trkpt lat="44.5365243" lon="8.5174163"><ele>607.0</ele><time>2026-04-01T11:53:08.97Z</time></trkpt><trkpt lat="44.5365007" lon="8.5175288"><ele>607.0</ele><time>2026-04-01T11:53:10.974Z</time></trkpt><trkpt lat="44.5365194" lon="8.5176715"><ele>607.0</ele><time>2026-04-01T11:53:12.971Z</time></trkpt><trkpt lat="44.5365525" lon="8.5177861"><ele>607.0</ele><time>2026-04-01T11:53:15.971Z</time></trkpt><trkpt lat="44.5365145" lon="8.5177052"><ele>607.0</ele><time>2026-04-01T11:54:15.97Z</time></trkpt><trkpt lat="44.5364873" lon="8.5178121"><ele>607.0</ele><time>2026-04-01T11:54:18.971Z</time></trkpt><trkpt lat="44.5365062" lon="8.5179043"><ele>607.0</ele><time>2026-04-01T11:54:21.97Z</time></trkpt><trkpt lat="44.5365042" lon="8.5180013"><ele>608.8571428571428</ele><time>2026-04-01T11:54:25.97Z</time></trkpt><trkpt lat="44.5365135" lon="8.5181254"><ele>610.7142857142857</ele><time>2026-04-01T11:54:28.971Z</time></trkpt><trkpt lat="44.5365584" lon="8.518197"><ele>612.5714285714286</ele><time>2026-04-01T11:54:30.971Z</time></trkpt><trkpt lat="44.5366122" lon="8.518287"><ele>614.4285714285713</ele><time>2026-04-01T11:54:32.971Z</time></trkpt><trkpt lat="44.5366467" lon="8.5183701"><ele>616.2857142857142</ele><time>2026-04-01T11:54:34.972Z</time></trkpt><trkpt lat="44.5366687" lon="8.5184625"><ele>618.1428571428571</ele><time>2026-04-01T11:54:36.971Z</time></trkpt><trkpt lat="44.5366572" lon="8.5185532"><ele>620.0</ele><time>2026-04-01T11:54:40.971Z</time></trkpt><trkpt lat="44.5365912" lon="8.5186211"><ele>620.0</ele><time>2026-04-01T11:54:44.971Z</time></trkpt><trkpt lat="44.536529" lon="8.5186946"><ele>620.0</ele><time>2026-04-01T11:56:25.972Z</time></trkpt><trkpt lat="44.5364533" lon="8.5187244"><ele>620.0</ele><time>2026-04-01T11:56:27.971Z</time></trkpt><trkpt lat="44.5363961" lon="8.518762"><ele>620.0</ele><time>2026-04-01T11:56:29.971Z</time></trkpt><trkpt lat="44.5363283" lon="8.5188518"><ele>620.0</ele><time>2026-04-01T11:56:47.97Z</time></trkpt><trkpt lat="44.5362907" lon="8.5189383"><ele>620.0</ele><time>2026-04-01T11:56:58.971Z</time></trkpt><trkpt lat="44.5362736" lon="8.5190331"><ele>621.0</ele><time>2026-04-01T11:57:01.974Z</time></trkpt><trkpt lat="44.5362598" lon="8.5191289"><ele>622.0</ele><time>2026-04-01T11:58:03.971Z</time></trkpt><trkpt lat="44.5362964" lon="8.5192606"><ele>623.0</ele><time>2026-04-01T11:58:06.97Z</time></trkpt><trkpt lat="44.5363225" lon="8.5193497"><ele>624.0</ele><time>2026-04-01T11:58:08.973Z</time></trkpt><trkpt lat="44.536344" lon="8.5194725"><ele>625.0</ele><time>2026-04-01T11:58:11.97Z</time></trkpt><trkpt lat="44.5363867" lon="8.5195544"><ele>626.0</ele><time>2026-04-01T11:58:13.971Z</time></trkpt><trkpt lat="44.5364445" lon="8.5196176"><ele>628.0</ele><time>2026-04-01T11:58:16.972Z</time></trkpt><trkpt lat="44.5365068" lon="8.5197056"><ele>630.0</ele><time>2026-04-01T11:58:18.972Z</time></trkpt><trkpt lat="44.5365504" lon="8.5198047"><ele>632.0</ele><time>2026-04-01T11:58:20.972Z</time></trkpt><trkpt lat="44.5365569" lon="8.5199128"><ele>634.0</ele><time>2026-04-01T11:58:22.97Z</time></trkpt><trkpt lat="44.5365605" lon="8.5200207"><ele>636.0</ele><time>2026-04-01T11:58:24.971Z</time></trkpt><trkpt lat="44.5365864" lon="8.5201022"><ele>638.0</ele><time>2026-04-01T11:58:26.972Z</time></trkpt><trkpt lat="44.5366288" lon="8.5201927"><ele>638.0</ele><time>2026-04-01T11:58:28.971Z</time></trkpt><trkpt lat="44.5366609" lon="8.5203079"><ele>638.0</ele><time>2026-04-01T11:58:30.97Z</time></trkpt><trkpt lat="44.5366894" lon="8.5204365"><ele>638.0</ele><time>2026-04-01T11:58:32.973Z</time></trkpt><trkpt lat="44.5367543" lon="8.5205411"><ele>638.0</ele><time>2026-04-01T11:58:34.971Z</time></trkpt><trkpt lat="44.5368375" lon="8.520592"><ele>638.0</ele><time>2026-04-01T11:58:36.971Z</time></trkpt><trkpt lat="44.5369046" lon="8.5206582"><ele>639.5</ele><time>2026-04-01T11:58:38.972Z</time></trkpt><trkpt lat="44.5369014" lon="8.5207478"><ele>641.0</ele><time>2026-04-01T11:58:40.971Z</time></trkpt><trkpt lat="44.5368582" lon="8.5208895"><ele>642.5</ele><time>2026-04-01T11:58:42.972Z</time></trkpt><trkpt lat="44.5368091" lon="8.5210054"><ele>644.0</ele><time>2026-04-01T11:58:44.971Z</time></trkpt><trkpt lat="44.5367674" lon="8.521101"><ele>645.5</ele><time>2026-04-01T11:58:46.975Z</time></trkpt><trkpt lat="44.5367367" lon="8.5212242"><ele>647.0</ele><time>2026-04-01T11:59:34.971Z</time></trkpt><trkpt lat="44.5367262" lon="8.5213141"><ele>647.2</ele><time>2026-04-01T11:59:35.97Z</time></trkpt><trkpt lat="44.5367118" lon="8.5214335"><ele>647.4000000000001</ele><time>2026-04-01T11:59:36.971Z</time></trkpt><trkpt lat="44.5367035" lon="8.5215712"><ele>647.5999999999999</ele><time>2026-04-01T11:59:37.971Z</time></trkpt><trkpt lat="44.5367058" lon="8.5217185"><ele>647.8</ele><time>2026-04-01T11:59:38.973Z</time></trkpt><trkpt lat="44.5367166" lon="8.521876"><ele>648.0</ele><time>2026-04-01T11:59:39.97Z</time></trkpt><trkpt lat="44.5367313" lon="8.522054"><ele>649.25</ele><time>2026-04-01T11:59:40.972Z</time></trkpt><trkpt lat="44.5367469" lon="8.5222372"><ele>650.5</ele><time>2026-04-01T11:59:41.971Z</time></trkpt><trkpt lat="44.5367701" lon="8.5224202"><ele>651.75</ele><time>2026-04-01T11:59:42.971Z</time></trkpt><trkpt lat="44.5368003" lon="8.5225954"><ele>653.0</ele><time>2026-04-01T11:59:43.971Z</time></trkpt><trkpt lat="44.5368331" lon="8.5227404"><ele>653.0</ele><time>2026-04-01T11:59:44.971Z</time></trkpt><trkpt lat="44.5368762" lon="8.5228578"><ele>653.0</ele><time>2026-04-01T11:59:45.973Z</time></trkpt><trkpt lat="44.5369365" lon="8.5229692"><ele>653.0</ele><time>2026-04-01T11:59:46.97Z</time></trkpt><trkpt lat="44.5370087" lon="8.5230855"><ele>653.0</ele><time>2026-04-01T11:59:47.972Z</time></trkpt><trkpt lat="44.5370794" lon="8.5232099"><ele>653.0</ele><time>2026-04-01T11:59:48.971Z</time></trkpt><trkpt lat="44.5371415" lon="8.5233386"><ele>652.75</ele><time>2026-04-01T11:59:49.97Z</time></trkpt><trkpt lat="44.5371919" lon="8.5234707"><ele>652.5</ele><time>2026-04-01T11:59:50.971Z</time></trkpt><trkpt lat="44.5372395" lon="8.523613"><ele>652.25</ele><time>2026-04-01T11:59:51.971Z</time></trkpt><trkpt lat="44.5372895" lon="8.5237714"><ele>652.0</ele><time>2026-04-01T11:59:52.971Z</time></trkpt><trkpt lat="44.5373313" lon="8.523945"><ele>653.8</ele><time>2026-04-01T11:59:53.971Z</time></trkpt><trkpt lat="44.5373675" lon="8.524115"><ele>655.6</ele><time>2026-04-01T11:59:54.971Z</time></trkpt><trkpt lat="44.5373817" lon="8.5242788"><ele>657.4</ele><time>2026-04-01T11:59:55.972Z</time></trkpt><trkpt lat="44.5373763" lon="8.5244099"><ele>659.1999999999999</ele><time>2026-04-01T11:59:56.971Z</time></trkpt><trkpt lat="44.5373535" lon="8.5245267"><ele>661.0</ele><time>2026-04-01T11:59:57.971Z</time></trkpt><trkpt lat="44.5373198" lon="8.5246323"><ele>661.0</ele><time>2026-04-01T11:59:58.971Z</time></trkpt><trkpt lat="44.5372969" lon="8.5247332"><ele>661.0</ele><time>2026-04-01T11:59:59.971Z</time></trkpt><trkpt lat="44.5372907" lon="8.5248437"><ele>661.0</ele><time>2026-04-01T12:00:00.972Z</time></trkpt><trkpt lat="44.5373032" lon="8.5249766"><ele>661.0</ele><time>2026-04-01T12:00:01.971Z</time></trkpt><trkpt lat="44.5373224" lon="8.5251105"><ele>661.0</ele><time>2026-04-01T12:00:02.973Z</time></trkpt><trkpt lat="44.5373301" lon="8.5252499"><ele>661.0</ele><time>2026-04-01T12:00:03.973Z</time></trkpt><trkpt lat="44.5373224" lon="8.5253941"><ele>660.8</ele><time>2026-04-01T12:00:04.971Z</time></trkpt><trkpt lat="44.5373144" lon="8.5255318"><ele>660.5999999999999</ele><time>2026-04-01T12:00:05.972Z</time></trkpt><trkpt lat="44.5373152" lon="8.5256697"><ele>660.4</ele><time>2026-04-01T12:00:06.971Z</time></trkpt><trkpt lat="44.53733" lon="8.5258053"><ele>660.2</ele><time>2026-04-01T12:00:07.971Z</time></trkpt><trkpt lat="44.5373376" lon="8.5259298"><ele>660.0</ele><time>2026-04-01T12:00:08.971Z</time></trkpt><trkpt lat="44.5373361" lon="8.5260381"><ele>660.0</ele><time>2026-04-01T12:00:09.97Z</time></trkpt><trkpt lat="44.5373143" lon="8.5261364"><ele>660.0</ele><time>2026-04-01T12:00:10.972Z</time></trkpt><trkpt lat="44.5372653" lon="8.5262454"><ele>660.0</ele><time>2026-04-01T12:00:11.971Z</time></trkpt><trkpt lat="44.5372215" lon="8.5263668"><ele>660.0</ele><time>2026-04-01T12:00:12.971Z</time></trkpt><trkpt lat="44.5371997" lon="8.5264846"><ele>660.0</ele><time>2026-04-01T12:00:13.971Z</time></trkpt><trkpt lat="44.5371945" lon="8.5265965"><ele>660.0</ele><time>2026-04-01T12:00:14.971Z</time></trkpt><trkpt lat="44.5372083" lon="8.5266933"><ele>661.2</ele><time>2026-04-01T12:00:15.971Z</time></trkpt><trkpt lat="44.5372473" lon="8.5267647"><ele>662.4</ele><time>2026-04-01T12:00:16.972Z</time></trkpt><trkpt lat="44.5373075" lon="8.526879"><ele>663.5999999999999</ele><time>2026-04-01T12:00:18.971Z</time></trkpt><trkpt lat="44.5372499" lon="8.5269181"><ele>664.8</ele><time>2026-04-01T12:00:21.971Z</time></trkpt><trkpt lat="44.5371286" lon="8.5268113"><ele>666.0</ele><time>2026-04-01T12:00:23.971Z</time></trkpt><trkpt lat="44.5370431" lon="8.5267319"><ele>667.8333333333334</ele><time>2026-04-01T12:00:24.97Z</time></trkpt><trkpt lat="44.536963" lon="8.5266409"><ele>669.6666666666666</ele><time>2026-04-01T12:00:25.971Z</time></trkpt><trkpt lat="44.5368932" lon="8.5265553"><ele>671.5</ele><time>2026-04-01T12:00:26.972Z</time></trkpt><trkpt lat="44.5368277" lon="8.5264823"><ele>673.3333333333333</ele><time>2026-04-01T12:00:27.973Z</time></trkpt><trkpt lat="44.5367644" lon="8.526446"><ele>675.1666666666666</ele><time>2026-04-01T12:00:28.973Z</time></trkpt><trkpt lat="44.5366863" lon="8.5265094"><ele>677.0</ele><time>2026-04-01T12:00:30.974Z</time></trkpt><trkpt lat="44.5367281" lon="8.5267214"><ele>677.0</ele><time>2026-04-01T12:00:32.973Z</time></trkpt><trkpt lat="44.5367929" lon="8.5268521"><ele>677.0</ele><time>2026-04-01T12:00:33.973Z</time></trkpt><trkpt lat="44.536848" lon="8.526967"><ele>677.0</ele><time>2026-04-01T12:00:34.973Z</time></trkpt><trkpt lat="44.5368824" lon="8.5270773"><ele>677.0</ele><time>2026-04-01T12:00:35.974Z</time></trkpt><trkpt lat="44.5369059" lon="8.5272094"><ele>677.0</ele><time>2026-04-01T12:00:36.975Z</time></trkpt><trkpt lat="44.5369146" lon="8.5273765"><ele>678.4000000000001</ele><time>2026-04-01T12:00:37.973Z</time></trkpt><trkpt lat="44.5369136" lon="8.5275344"><ele>679.8000000000001</ele><time>2026-04-01T12:00:38.974Z</time></trkpt><trkpt lat="44.5368917" lon="8.5276679"><ele>681.2</ele><time>2026-04-01T12:00:39.973Z</time></trkpt><trkpt lat="44.53685" lon="8.5277843"><ele>682.6</ele><time>2026-04-01T12:00:40.972Z</time></trkpt><trkpt lat="44.5367905" lon="8.5278836"><ele>684.0</ele><time>2026-04-01T12:00:41.973Z</time></trkpt><trkpt lat="44.5367072" lon="8.5279563"><ele>686.75</ele><time>2026-04-01T12:00:42.973Z</time></trkpt><trkpt lat="44.5366074" lon="8.5280237"><ele>689.5</ele><time>2026-04-01T12:00:43.974Z</time></trkpt><trkpt lat="44.5365007" lon="8.5281025"><ele>692.25</ele><time>2026-04-01T12:00:44.973Z</time></trkpt><trkpt lat="44.5363967" lon="8.5281981"><ele>695.0</ele><time>2026-04-01T12:00:45.971Z</time></trkpt><trkpt lat="44.5362899" lon="8.5282883"><ele>693.6</ele><time>2026-04-01T12:00:46.972Z</time></trkpt><trkpt lat="44.5361798" lon="8.528366"><ele>692.2</ele><time>2026-04-01T12:00:47.97Z</time></trkpt><trkpt lat="44.5360905" lon="8.528445"><ele>690.8</ele><time>2026-04-01T12:00:48.97Z</time></trkpt><trkpt lat="44.5360123" lon="8.5285346"><ele>689.4</ele><time>2026-04-01T12:00:49.972Z</time></trkpt><trkpt lat="44.5359463" lon="8.5286269"><ele>688.0</ele><time>2026-04-01T12:00:50.971Z</time></trkpt><trkpt lat="44.5359004" lon="8.5287106"><ele>689.4</ele><time>2026-04-01T12:00:51.971Z</time></trkpt><trkpt lat="44.5358877" lon="8.5288136"><ele>690.8</ele><time>2026-04-01T12:00:52.971Z</time></trkpt><trkpt lat="44.5358864" lon="8.5289341"><ele>692.2</ele><time>2026-04-01T12:00:53.972Z</time></trkpt><trkpt lat="44.5359194" lon="8.5290646"><ele>693.6</ele><time>2026-04-01T12:00:54.97Z</time></trkpt><trkpt lat="44.5359788" lon="8.5291922"><ele>695.0</ele><time>2026-04-01T12:00:55.972Z</time></trkpt><trkpt lat="44.536049" lon="8.5293249"><ele>695.0</ele><time>2026-04-01T12:00:56.973Z</time></trkpt><trkpt lat="44.5361157" lon="8.5294598"><ele>695.0</ele><time>2026-04-01T12:00:57.972Z</time></trkpt><trkpt lat="44.5361667" lon="8.5295795"><ele>695.0</ele><time>2026-04-01T12:00:58.972Z</time></trkpt><trkpt lat="44.5362049" lon="8.529689"><ele>695.0</ele><time>2026-04-01T12:00:59.972Z</time></trkpt><trkpt lat="44.5362259" lon="8.5298088"><ele>695.0</ele><time>2026-04-01T12:01:00.974Z</time></trkpt><trkpt lat="44.5362168" lon="8.5299602"><ele>694.8</ele><time>2026-04-01T12:01:01.973Z</time></trkpt><trkpt lat="44.5362075" lon="8.530123"><ele>694.6</ele><time>2026-04-01T12:01:02.973Z</time></trkpt><trkpt lat="44.5362112" lon="8.5302872"><ele>694.4000000000001</ele><time>2026-04-01T12:01:03.972Z</time></trkpt><trkpt lat="44.5362227" lon="8.530443"><ele>694.2</ele><time>2026-04-01T12:01:04.973Z</time></trkpt><trkpt lat="44.5362238" lon="8.5305804"><ele>694.0</ele><time>2026-04-01T12:01:05.973Z</time></trkpt><trkpt lat="44.5362135" lon="8.5306952"><ele>695.8000000000001</ele><time>2026-04-01T12:01:06.973Z</time></trkpt><trkpt lat="44.5361757" lon="8.530805"><ele>697.6</ele><time>2026-04-01T12:01:07.972Z</time></trkpt><trkpt lat="44.5361235" lon="8.5309144"><ele>699.4</ele><time>2026-04-01T12:01:08.973Z</time></trkpt><trkpt lat="44.5360515" lon="8.5310285"><ele>701.2</ele><time>2026-04-01T12:01:09.973Z</time></trkpt><trkpt lat="44.5359609" lon="8.5311391"><ele>703.0</ele><time>2026-04-01T12:01:10.972Z</time></trkpt><trkpt lat="44.5358901" lon="8.5312377"><ele>702.8333333333334</ele><time>2026-04-01T12:01:11.973Z</time></trkpt><trkpt lat="44.5358568" lon="8.5313238"><ele>702.6666666666667</ele><time>2026-04-01T12:01:12.974Z</time></trkpt><trkpt lat="44.5358985" lon="8.5314232"><ele>702.5</ele><time>2026-04-01T12:01:14.976Z</time></trkpt><trkpt lat="44.5360211" lon="8.5314"><ele>702.3333333333334</ele><time>2026-04-01T12:01:16.97Z</time></trkpt><trkpt lat="44.5361025" lon="8.5313628"><ele>702.1666666666666</ele><time>2026-04-01T12:01:17.971Z</time></trkpt><trkpt lat="44.5361875" lon="8.5313472"><ele>702.0</ele><time>2026-04-01T12:01:18.971Z</time></trkpt><trkpt lat="44.5362687" lon="8.531355"><ele>702.0</ele><time>2026-04-01T12:01:19.971Z</time></trkpt><trkpt lat="44.5363364" lon="8.5313834"><ele>702.0</ele><time>2026-04-01T12:01:20.971Z</time></trkpt><trkpt lat="44.5364017" lon="8.5314948"><ele>702.0</ele><time>2026-04-01T12:01:22.971Z</time></trkpt><trkpt lat="44.5363449" lon="8.5316672"><ele>702.0</ele><time>2026-04-01T12:01:24.971Z</time></trkpt><trkpt lat="44.5362887" lon="8.5317712"><ele>702.0</ele><time>2026-04-01T12:01:25.971Z</time></trkpt><trkpt lat="44.5362471" lon="8.5318671"><ele>702.0000000000001</ele><time>2026-04-01T12:01:26.972Z</time></trkpt><trkpt lat="44.5362227" lon="8.5319548"><ele>702.0</ele><time>2026-04-01T12:01:27.97Z</time></trkpt><trkpt lat="44.5362128" lon="8.5320432"><ele>702.0</ele><time>2026-04-01T12:01:28.973Z</time></trkpt><trkpt lat="44.536222" lon="8.5321374"><ele>702.0</ele><time>2026-04-01T12:01:29.972Z</time></trkpt><trkpt lat="44.5362454" lon="8.5322416"><ele>702.0</ele><time>2026-04-01T12:01:30.973Z</time></trkpt><trkpt lat="44.5362573" lon="8.5323559"><ele>702.0000000000001</ele><time>2026-04-01T12:01:31.974Z</time></trkpt><trkpt lat="44.5362585" lon="8.5324633"><ele>702.0</ele><time>2026-04-01T12:01:32.973Z</time></trkpt><trkpt lat="44.5362398" lon="8.5325508"><ele>708.5</ele><time>2026-04-01T12:01:33.972Z</time></trkpt><trkpt lat="44.536125" lon="8.5326771"><ele>715.0</ele><time>2026-04-01T12:01:35.973Z</time></trkpt><trkpt lat="44.5360297" lon="8.532745"><ele>721.5</ele><time>2026-04-01T12:01:36.973Z</time></trkpt><trkpt lat="44.535911" lon="8.5328117"><ele>728.0</ele><time>2026-04-01T12:01:37.972Z</time></trkpt><trkpt lat="44.5357441" lon="8.5328465"><ele>728.0</ele><time>2026-04-01T12:01:38.974Z</time></trkpt><trkpt lat="44.5355799" lon="8.5328684"><ele>728.0</ele><time>2026-04-01T12:01:39.971Z</time></trkpt><trkpt lat="44.5354495" lon="8.5329003"><ele>728.0</ele><time>2026-04-01T12:01:40.973Z</time></trkpt><trkpt lat="44.5353259" lon="8.5329335"><ele>728.0</ele><time>2026-04-01T12:01:41.973Z</time></trkpt><trkpt lat="44.5352115" lon="8.53297"><ele>729.8</ele><time>2026-04-01T12:01:42.973Z</time></trkpt><trkpt lat="44.5351022" lon="8.5330015"><ele>731.5999999999999</ele><time>2026-04-01T12:01:43.973Z</time></trkpt><trkpt lat="44.5350042" lon="8.5330131"><ele>733.4000000000001</ele><time>2026-04-01T12:01:44.973Z</time></trkpt><trkpt lat="44.5349122" lon="8.5330002"><ele>735.2</ele><time>2026-04-01T12:01:45.971Z</time></trkpt><trkpt lat="44.5348209" lon="8.5329872"><ele>737.0</ele><time>2026-04-01T12:01:46.971Z</time></trkpt><trkpt lat="44.5347463" lon="8.5329812"><ele>737.0</ele><time>2026-04-01T12:01:47.971Z</time></trkpt><trkpt lat="44.5346694" lon="8.533024"><ele>737.0</ele><time>2026-04-01T12:01:49.973Z</time></trkpt><trkpt lat="44.5346893" lon="8.5331264"><ele>737.0</ele><time>2026-04-01T12:02:36.972Z</time></trkpt><trkpt lat="44.5346755" lon="8.5333022"><ele>737.0</ele><time>2026-04-01T12:02:38.974Z</time></trkpt><trkpt lat="44.5346366" lon="8.5334723"><ele>737.0</ele><time>2026-04-01T12:02:40.972Z</time></trkpt><trkpt lat="44.5346392" lon="8.5336467"><ele>737.5</ele><time>2026-04-01T12:02:43.972Z</time></trkpt><trkpt lat="44.5346804" lon="8.5337273"><ele>738.0</ele><time>2026-04-01T12:02:45.97Z</time></trkpt><trkpt lat="44.5348614" lon="8.5337881"><ele>738.5</ele><time>2026-04-01T12:02:48.974Z</time></trkpt><trkpt lat="44.5349747" lon="8.533807"><ele>739.0</ele><time>2026-04-01T12:02:49.971Z</time></trkpt><trkpt lat="44.5350951" lon="8.5338338"><ele>739.0</ele><time>2026-04-01T12:02:50.972Z</time></trkpt><trkpt lat="44.5352175" lon="8.5338655"><ele>739.0</ele><time>2026-04-01T12:02:51.971Z</time></trkpt><trkpt lat="44.5354493" lon="8.5339554"><ele>739.0</ele><time>2026-04-01T12:02:53.972Z</time></trkpt><trkpt lat="44.5355499" lon="8.5340084"><ele>739.2</ele><time>2026-04-01T12:02:54.972Z</time></trkpt><trkpt lat="44.5356465" lon="8.5340587"><ele>739.4000000000001</ele><time>2026-04-01T12:02:55.973Z</time></trkpt><trkpt lat="44.535737" lon="8.5341077"><ele>739.6</ele><time>2026-04-01T12:02:56.971Z</time></trkpt><trkpt lat="44.5358213" lon="8.5341596"><ele>739.8</ele><time>2026-04-01T12:02:57.971Z</time></trkpt><trkpt lat="44.5359029" lon="8.5342168"><ele>740.0</ele><time>2026-04-01T12:02:58.973Z</time></trkpt><trkpt lat="44.5359832" lon="8.5342843"><ele>740.0</ele><time>2026-04-01T12:02:59.971Z</time></trkpt><trkpt lat="44.536063" lon="8.534352"><ele>740.0</ele><time>2026-04-01T12:03:00.973Z</time></trkpt><trkpt lat="44.5361416" lon="8.5344288"><ele>740.0</ele><time>2026-04-01T12:03:01.974Z</time></trkpt><trkpt lat="44.5362209" lon="8.5345083"><ele>740.0</ele><time>2026-04-01T12:03:02.973Z</time></trkpt><trkpt lat="44.5363752" lon="8.5346882"><ele>740.3333333333333</ele><time>2026-04-01T12:03:04.972Z</time></trkpt><trkpt lat="44.5365251" lon="8.5348827"><ele>740.6666666666666</ele><time>2026-04-01T12:03:06.972Z</time></trkpt><trkpt lat="44.5366679" lon="8.5350841"><ele>741.0</ele><time>2026-04-01T12:03:08.972Z</time></trkpt><trkpt lat="44.53674" lon="8.5351727"><ele>741.0</ele><time>2026-04-01T12:03:09.971Z</time></trkpt><trkpt lat="44.5368185" lon="8.5352525"><ele>741.0</ele><time>2026-04-01T12:03:10.973Z</time></trkpt><trkpt lat="44.5369017" lon="8.5353276"><ele>741.0</ele><time>2026-04-01T12:03:11.974Z</time></trkpt><trkpt lat="44.5369904" lon="8.5353962"><ele>741.0</ele><time>2026-04-01T12:03:12.974Z</time></trkpt><trkpt lat="44.5370812" lon="8.5354475"><ele>741.0</ele><time>2026-04-01T12:03:13.973Z</time></trkpt><trkpt lat="44.5371744" lon="8.5354858"><ele>739.8</ele><time>2026-04-01T12:03:14.974Z</time></trkpt><trkpt lat="44.5372714" lon="8.5355126"><ele>738.5999999999999</ele><time>2026-04-01T12:03:15.973Z</time></trkpt><trkpt lat="44.537369" lon="8.5355334"><ele>737.4</ele><time>2026-04-01T12:03:16.971Z</time></trkpt><trkpt lat="44.5374676" lon="8.5355712"><ele>736.2</ele><time>2026-04-01T12:03:17.97Z</time></trkpt><trkpt lat="44.5375597" lon="8.5356315"><ele>735.0</ele><time>2026-04-01T12:03:18.972Z</time></trkpt><trkpt lat="44.537638" lon="8.5357122"><ele>735.0</ele><time>2026-04-01T12:03:19.97Z</time></trkpt><trkpt lat="44.5377079" lon="8.5357968"><ele>735.0</ele><time>2026-04-01T12:03:20.972Z</time></trkpt><trkpt lat="44.537775" lon="8.5358856"><ele>735.0</ele><time>2026-04-01T12:03:21.971Z</time></trkpt><trkpt lat="44.5378392" lon="8.5359847"><ele>735.0</ele><time>2026-04-01T12:03:22.971Z</time></trkpt><trkpt lat="44.5379086" lon="8.536091"><ele>735.0</ele><time>2026-04-01T12:03:23.973Z</time></trkpt><trkpt lat="44.5380527" lon="8.5363023"><ele>733.25</ele><time>2026-04-01T12:03:25.974Z</time></trkpt><trkpt lat="44.5381236" lon="8.5363984"><ele>731.5</ele><time>2026-04-01T12:03:26.973Z</time></trkpt><trkpt lat="44.5381993" lon="8.5364781"><ele>729.75</ele><time>2026-04-01T12:03:27.971Z</time></trkpt><trkpt lat="44.5383716" lon="8.536544"><ele>728.0</ele><time>2026-04-01T12:03:29.972Z</time></trkpt><trkpt lat="44.5384617" lon="8.5365268"><ele>728.0</ele><time>2026-04-01T12:03:30.972Z</time></trkpt><trkpt lat="44.5386543" lon="8.5364333"><ele>728.0</ele><time>2026-04-01T12:03:32.972Z</time></trkpt><trkpt lat="44.538757" lon="8.5363772"><ele>728.0</ele><time>2026-04-01T12:03:33.972Z</time></trkpt><trkpt lat="44.538862" lon="8.536314"><ele>728.0</ele><time>2026-04-01T12:03:34.971Z</time></trkpt><trkpt lat="44.5389688" lon="8.5362505"><ele>729.0</ele><time>2026-04-01T12:03:35.971Z</time></trkpt><trkpt lat="44.5391647" lon="8.5361639"><ele>730.0</ele><time>2026-04-01T12:03:37.971Z</time></trkpt><trkpt lat="44.5392559" lon="8.5361546"><ele>731.0</ele><time>2026-04-01T12:03:38.971Z</time></trkpt><trkpt lat="44.5394051" lon="8.53625"><ele>731.0</ele><time>2026-04-01T12:03:40.971Z</time></trkpt><trkpt lat="44.5394761" lon="8.5363533"><ele>731.0</ele><time>2026-04-01T12:03:41.972Z</time></trkpt><trkpt lat="44.5395521" lon="8.5364629"><ele>731.0</ele><time>2026-04-01T12:03:42.971Z</time></trkpt><trkpt lat="44.5396342" lon="8.5365619"><ele>731.0</ele><time>2026-04-01T12:03:43.971Z</time></trkpt><trkpt lat="44.5398168" lon="8.5367137"><ele>729.8</ele><time>2026-04-01T12:03:45.971Z</time></trkpt><trkpt lat="44.539922" lon="8.5367587"><ele>728.5999999999999</ele><time>2026-04-01T12:03:46.971Z</time></trkpt><trkpt lat="44.5400242" lon="8.5367847"><ele>727.4</ele><time>2026-04-01T12:03:47.971Z</time></trkpt><trkpt lat="44.5401258" lon="8.5368037"><ele>726.2</ele><time>2026-04-01T12:03:48.971Z</time></trkpt><trkpt lat="44.5402188" lon="8.5368211"><ele>725.0</ele><time>2026-04-01T12:03:49.971Z</time></trkpt><trkpt lat="44.5403065" lon="8.5368359"><ele>724.8333333333333</ele><time>2026-04-01T12:03:50.972Z</time></trkpt><trkpt lat="44.5403857" lon="8.5368564"><ele>724.6666666666666</ele><time>2026-04-01T12:03:51.97Z</time></trkpt><trkpt lat="44.5404496" lon="8.5368749"><ele>724.5</ele><time>2026-04-01T12:03:52.971Z</time></trkpt><trkpt lat="44.5405369" lon="8.5369166"><ele>724.3333333333334</ele><time>2026-04-01T12:03:54.971Z</time></trkpt><trkpt lat="44.5405931" lon="8.5369867"><ele>724.1666666666667</ele><time>2026-04-01T12:03:56.972Z</time></trkpt><trkpt lat="44.5406467" lon="8.5370772"><ele>724.0</ele><time>2026-04-01T12:03:58.971Z</time></trkpt><trkpt lat="44.5406953" lon="8.537153"><ele>724.0</ele><time>2026-04-01T12:04:00.971Z</time></trkpt><trkpt lat="44.5407635" lon="8.5372339"><ele>724.0</ele><time>2026-04-01T12:04:02.972Z</time></trkpt><trkpt lat="44.5408401" lon="8.5372995"><ele>724.0</ele><time>2026-04-01T12:04:04.972Z</time></trkpt><trkpt lat="44.540926" lon="8.5373182"><ele>724.0</ele><time>2026-04-01T12:04:06.973Z</time></trkpt><trkpt lat="44.5410371" lon="8.5373249"><ele>724.0</ele><time>2026-04-01T12:04:08.971Z</time></trkpt><trkpt lat="44.5411011" lon="8.5373297"><ele>724.0</ele><time>2026-04-01T12:04:09.971Z</time></trkpt><trkpt lat="44.5411717" lon="8.5373329"><ele>726.1666666666667</ele><time>2026-04-01T12:04:10.972Z</time></trkpt><trkpt lat="44.5412464" lon="8.5373438"><ele>728.3333333333334</ele><time>2026-04-01T12:04:11.974Z</time></trkpt><trkpt lat="44.5413128" lon="8.5373651"><ele>730.5</ele><time>2026-04-01T12:04:12.971Z</time></trkpt><trkpt lat="44.5413732" lon="8.537403"><ele>732.6666666666666</ele><time>2026-04-01T12:04:13.972Z</time></trkpt><trkpt lat="44.5414216" lon="8.5374599"><ele>734.8333333333333</ele><time>2026-04-01T12:04:14.971Z</time></trkpt><trkpt lat="44.5414468" lon="8.5376173"><ele>737.0</ele><time>2026-04-01T12:04:16.971Z</time></trkpt><trkpt lat="44.5414214" lon="8.5377061"><ele>737.0000000000001</ele><time>2026-04-01T12:04:17.972Z</time></trkpt><trkpt lat="44.5413792" lon="8.537788"><ele>737.0</ele><time>2026-04-01T12:04:18.973Z</time></trkpt><trkpt lat="44.541337" lon="8.537856"><ele>737.0</ele><time>2026-04-01T12:04:19.977Z</time></trkpt><trkpt lat="44.5412807" lon="8.5379602"><ele>737.0</ele><time>2026-04-01T12:04:21.971Z</time></trkpt><trkpt lat="44.5412556" lon="8.5380451"><ele>737.0</ele><time>2026-04-01T12:04:23.976Z</time></trkpt><trkpt lat="44.5412404" lon="8.5381362"><ele>737.0000000000001</ele><time>2026-04-01T12:05:17.973Z</time></trkpt><trkpt lat="44.5412385" lon="8.538229"><ele>737.0</ele><time>2026-04-01T12:05:18.972Z</time></trkpt><trkpt lat="44.5412349" lon="8.5383522"><ele>737.5</ele><time>2026-04-01T12:05:19.971Z</time></trkpt><trkpt lat="44.5412182" lon="8.5386284"><ele>738.0</ele><time>2026-04-01T12:05:21.971Z</time></trkpt><trkpt lat="44.5412072" lon="8.5387538"><ele>738.5</ele><time>2026-04-01T12:05:22.971Z</time></trkpt><trkpt lat="44.5412071" lon="8.5388698"><ele>739.0</ele><time>2026-04-01T12:05:23.97Z</time></trkpt><trkpt lat="44.5412219" lon="8.5389792"><ele>740.2</ele><time>2026-04-01T12:05:24.972Z</time></trkpt><trkpt lat="44.5412302" lon="8.5390845"><ele>741.4000000000001</ele><time>2026-04-01T12:05:25.973Z</time></trkpt><trkpt lat="44.5412254" lon="8.5391873"><ele>742.6</ele><time>2026-04-01T12:05:26.971Z</time></trkpt><trkpt lat="44.5412036" lon="8.5392944"><ele>743.8</ele><time>2026-04-01T12:05:27.971Z</time></trkpt><trkpt lat="44.5411579" lon="8.5395487"><ele>745.0</ele><time>2026-04-01T12:05:29.972Z</time></trkpt><trkpt lat="44.541146" lon="8.5396749"><ele>745.2857142857142</ele><time>2026-04-01T12:05:30.972Z</time></trkpt><trkpt lat="44.5411455" lon="8.539789"><ele>745.5714285714286</ele><time>2026-04-01T12:05:31.972Z</time></trkpt><trkpt lat="44.5411594" lon="8.539889"><ele>745.8571428571429</ele><time>2026-04-01T12:05:32.972Z</time></trkpt><trkpt lat="44.5411841" lon="8.5399713"><ele>746.1428571428571</ele><time>2026-04-01T12:05:33.972Z</time></trkpt><trkpt lat="44.5412251" lon="8.5400425"><ele>746.4285714285714</ele><time>2026-04-01T12:05:34.972Z</time></trkpt><trkpt lat="44.5412718" lon="8.5401144"><ele>746.7142857142857</ele><time>2026-04-01T12:05:35.973Z</time></trkpt><trkpt lat="44.5413127" lon="8.5401912"><ele>747.0</ele><time>2026-04-01T12:05:36.971Z</time></trkpt><trkpt lat="44.5413421" lon="8.5402748"><ele>748.1666666666666</ele><time>2026-04-01T12:05:37.971Z</time></trkpt><trkpt lat="44.5413171" lon="8.5403904"><ele>749.3333333333334</ele><time>2026-04-01T12:05:39.972Z</time></trkpt><trkpt lat="44.5412324" lon="8.5403831"><ele>750.5</ele><time>2026-04-01T12:05:40.971Z</time></trkpt><trkpt lat="44.5411616" lon="8.5403805"><ele>751.6666666666667</ele><time>2026-04-01T12:05:41.971Z</time></trkpt><trkpt lat="44.5410855" lon="8.5403834"><ele>752.8333333333334</ele><time>2026-04-01T12:05:42.971Z</time></trkpt><trkpt lat="44.5410216" lon="8.5404127"><ele>754.0</ele><time>2026-04-01T12:05:43.971Z</time></trkpt><trkpt lat="44.540931" lon="8.5405303"><ele>748.8000000000001</ele><time>2026-04-01T12:05:45.972Z</time></trkpt><trkpt lat="44.5409397" lon="8.5407808"><ele>743.6</ele><time>2026-04-01T12:05:47.972Z</time></trkpt><trkpt lat="44.5409576" lon="8.5409126"><ele>738.4</ele><time>2026-04-01T12:05:48.97Z</time></trkpt><trkpt lat="44.5409567" lon="8.5410243"><ele>733.2</ele><time>2026-04-01T12:05:49.971Z</time></trkpt><trkpt lat="44.5409361" lon="8.5411226"><ele>728.0</ele><time>2026-04-01T12:05:50.972Z</time></trkpt><trkpt lat="44.5408988" lon="8.5412132"><ele>729.5999999999999</ele><time>2026-04-01T12:05:51.971Z</time></trkpt><trkpt lat="44.5408563" lon="8.5413234"><ele>731.1999999999999</ele><time>2026-04-01T12:05:52.971Z</time></trkpt><trkpt lat="44.5408164" lon="8.5414431"><ele>732.8</ele><time>2026-04-01T12:05:53.973Z</time></trkpt><trkpt lat="44.5407783" lon="8.5415593"><ele>734.4</ele><time>2026-04-01T12:05:54.973Z</time></trkpt><trkpt lat="44.5407213" lon="8.5417734"><ele>736.0</ele><time>2026-04-01T12:05:56.973Z</time></trkpt><trkpt lat="44.5406996" lon="8.5419677"><ele>736.5999999999999</ele><time>2026-04-01T12:05:58.973Z</time></trkpt><trkpt lat="44.540718" lon="8.5421881"><ele>737.2</ele><time>2026-04-01T12:06:00.973Z</time></trkpt><trkpt lat="44.540736" lon="8.5423123"><ele>737.8</ele><time>2026-04-01T12:06:01.973Z</time></trkpt><trkpt lat="44.5407537" lon="8.5424452"><ele>738.4000000000001</ele><time>2026-04-01T12:06:02.974Z</time></trkpt><trkpt lat="44.5407651" lon="8.54258"><ele>739.0</ele><time>2026-04-01T12:06:03.973Z</time></trkpt><trkpt lat="44.5407709" lon="8.5427082"><ele>739.0</ele><time>2026-04-01T12:06:04.974Z</time></trkpt><trkpt lat="44.5407751" lon="8.5428229"><ele>739.0</ele><time>2026-04-01T12:06:05.973Z</time></trkpt><trkpt lat="44.5407758" lon="8.5429202"><ele>739.0</ele><time>2026-04-01T12:06:06.972Z</time></trkpt><trkpt lat="44.5407746" lon="8.5430521"><ele>739.0</ele><time>2026-04-01T12:06:08.975Z</time></trkpt><trkpt lat="44.540748" lon="8.543143"><ele>739.0</ele><time>2026-04-01T12:06:20.971Z</time></trkpt><trkpt lat="44.5406744" lon="8.5432313"><ele>739.0</ele><time>2026-04-01T12:06:22.971Z</time></trkpt><trkpt lat="44.5406125" lon="8.5432617"><ele>739.3333333333334</ele><time>2026-04-01T12:06:23.972Z</time></trkpt><trkpt lat="44.5405469" lon="8.5432974"><ele>739.6666666666667</ele><time>2026-04-01T12:06:24.973Z</time></trkpt><trkpt lat="44.5404732" lon="8.5433452"><ele>740.0</ele><time>2026-04-01T12:06:25.972Z</time></trkpt><trkpt lat="44.5404068" lon="8.5434103"><ele>740.3333333333334</ele><time>2026-04-01T12:06:26.972Z</time></trkpt><trkpt lat="44.5403405" lon="8.5434935"><ele>740.6666666666666</ele><time>2026-04-01T12:06:27.973Z</time></trkpt><trkpt lat="44.5402889" lon="8.5435845"><ele>741.0</ele><time>2026-04-01T12:06:28.975Z</time></trkpt><trkpt lat="44.5402393" lon="8.5436855"><ele>741.8</ele><time>2026-04-01T12:06:29.973Z</time></trkpt><trkpt lat="44.5402015" lon="8.5437832"><ele>742.5999999999999</ele><time>2026-04-01T12:06:30.974Z</time></trkpt><trkpt lat="44.5401698" lon="8.543875"><ele>743.4</ele><time>2026-04-01T12:06:31.972Z</time></trkpt><trkpt lat="44.5401219" lon="8.5440413"><ele>744.2</ele><time>2026-04-01T12:06:33.974Z</time></trkpt><trkpt lat="44.5401389" lon="8.5441888"><ele>745.0</ele><time>2026-04-01T12:06:35.973Z</time></trkpt><trkpt lat="44.540181" lon="8.5443192"><ele>745.0</ele><time>2026-04-01T12:06:37.977Z</time></trkpt><trkpt lat="44.5402297" lon="8.5444204"><ele>745.0</ele><time>2026-04-01T12:06:39.973Z</time></trkpt><trkpt lat="44.5402806" lon="8.5445592"><ele>745.0</ele><time>2026-04-01T12:06:41.974Z</time></trkpt><trkpt lat="44.5403106" lon="8.5446383"><ele>745.0</ele><time>2026-04-01T12:06:42.973Z</time></trkpt><trkpt lat="44.540355" lon="8.5447833"><ele>745.0</ele><time>2026-04-01T12:06:44.971Z</time></trkpt><trkpt lat="44.5404097" lon="8.5449128"><ele>746.5</ele><time>2026-04-01T12:06:56.97Z</time></trkpt><trkpt lat="44.5404392" lon="8.544996"><ele>748.0</ele><time>2026-04-01T12:06:57.971Z</time></trkpt><trkpt lat="44.5404759" lon="8.5450786"><ele>749.5</ele><time>2026-04-01T12:06:58.971Z</time></trkpt><trkpt lat="44.5405146" lon="8.5451556"><ele>751.0</ele><time>2026-04-01T12:06:59.971Z</time></trkpt><trkpt lat="44.5405544" lon="8.545227"><ele>752.5</ele><time>2026-04-01T12:07:00.972Z</time></trkpt><trkpt lat="44.5406245" lon="8.5453507"><ele>754.0</ele><time>2026-04-01T12:07:02.972Z</time></trkpt><trkpt lat="44.5406491" lon="8.54548"><ele>754.8333333333334</ele><time>2026-04-01T12:07:04.971Z</time></trkpt><trkpt lat="44.5406508" lon="8.5455865"><ele>755.6666666666667</ele><time>2026-04-01T12:07:06.972Z</time></trkpt><trkpt lat="44.5406542" lon="8.5456969"><ele>756.5</ele><time>2026-04-01T12:07:10.972Z</time></trkpt><trkpt lat="44.54069" lon="8.5458073"><ele>757.3333333333334</ele><time>2026-04-01T12:07:12.973Z</time></trkpt><trkpt lat="44.5407555" lon="8.5458992"><ele>758.1666666666666</ele><time>2026-04-01T12:07:14.974Z</time></trkpt><trkpt lat="44.5408521" lon="8.5459875"><ele>759.0</ele><time>2026-04-01T12:07:16.974Z</time></trkpt><trkpt lat="44.5409159" lon="8.5461059"><ele>758.8000000000001</ele><time>2026-04-01T12:07:18.97Z</time></trkpt><trkpt lat="44.5409641" lon="8.546253"><ele>758.6</ele><time>2026-04-01T12:07:20.972Z</time></trkpt><trkpt lat="44.5410072" lon="8.54642"><ele>758.4</ele><time>2026-04-01T12:07:22.974Z</time></trkpt><trkpt lat="44.5410228" lon="8.546508"><ele>758.2</ele><time>2026-04-01T12:07:23.971Z</time></trkpt><trkpt lat="44.5410479" lon="8.5466697"><ele>758.0</ele><time>2026-04-01T12:07:25.972Z</time></trkpt><trkpt lat="44.5411142" lon="8.5467799"><ele>759.6666666666666</ele><time>2026-04-01T12:07:27.972Z</time></trkpt><trkpt lat="44.5412308" lon="8.5468057"><ele>761.3333333333333</ele><time>2026-04-01T12:07:29.973Z</time></trkpt><trkpt lat="44.5413043" lon="8.5467776"><ele>763.0</ele><time>2026-04-01T12:07:30.974Z</time></trkpt><trkpt lat="44.541379" lon="8.5467174"><ele>764.6666666666666</ele><time>2026-04-01T12:07:31.974Z</time></trkpt><trkpt lat="44.5414433" lon="8.5466393"><ele>766.3333333333334</ele><time>2026-04-01T12:07:32.973Z</time></trkpt><trkpt lat="44.5414897" lon="8.5465578"><ele>768.0</ele><time>2026-04-01T12:07:33.972Z</time></trkpt><trkpt lat="44.5415361" lon="8.5464782"><ele>768.0</ele><time>2026-04-01T12:07:34.973Z</time></trkpt><trkpt lat="44.5415872" lon="8.5464179"><ele>768.0</ele><time>2026-04-01T12:07:35.973Z</time></trkpt><trkpt lat="44.541659" lon="8.5463745"><ele>768.0</ele><time>2026-04-01T12:07:36.973Z</time></trkpt><trkpt lat="44.5417405" lon="8.5463341"><ele>768.0</ele><time>2026-04-01T12:07:37.974Z</time></trkpt><trkpt lat="44.5418412" lon="8.546284"><ele>768.0</ele><time>2026-04-01T12:07:38.973Z</time></trkpt><trkpt lat="44.5419409" lon="8.5462347"><ele>768.0</ele><time>2026-04-01T12:07:39.974Z</time></trkpt><trkpt lat="44.5420313" lon="8.5462016"><ele>770.3333333333334</ele><time>2026-04-01T12:07:40.974Z</time></trkpt><trkpt lat="44.5421031" lon="8.5461893"><ele>772.6666666666667</ele><time>2026-04-01T12:07:41.972Z</time></trkpt><trkpt lat="44.5421532" lon="8.5463166"><ele>775.0</ele><time>2026-04-01T12:07:43.972Z</time></trkpt><trkpt lat="44.5421581" lon="8.5464311"><ele>777.3333333333334</ele><time>2026-04-01T12:07:44.973Z</time></trkpt><trkpt lat="44.5421814" lon="8.5465451"><ele>779.6666666666667</ele><time>2026-04-01T12:07:45.971Z</time></trkpt><trkpt lat="44.5422281" lon="8.5466531"><ele>782.0</ele><time>2026-04-01T12:07:46.972Z</time></trkpt><trkpt lat="44.5422963" lon="8.5467603"><ele>782.0</ele><time>2026-04-01T12:07:47.972Z</time></trkpt><trkpt lat="44.5423851" lon="8.5468831"><ele>782.0</ele><time>2026-04-01T12:07:48.971Z</time></trkpt><trkpt lat="44.5424789" lon="8.5470141"><ele>782.0</ele><time>2026-04-01T12:07:49.971Z</time></trkpt><trkpt lat="44.5425661" lon="8.5471365"><ele>782.0</ele><time>2026-04-01T12:07:50.972Z</time></trkpt><trkpt lat="44.5426483" lon="8.547249"><ele>780.3333333333334</ele><time>2026-04-01T12:07:51.972Z</time></trkpt><trkpt lat="44.5427252" lon="8.5473537"><ele>778.6666666666667</ele><time>2026-04-01T12:07:52.972Z</time></trkpt><trkpt lat="44.5427979" lon="8.5474547"><ele>777.0</ele><time>2026-04-01T12:07:53.972Z</time></trkpt><trkpt lat="44.542862" lon="8.5475421"><ele>775.3333333333333</ele><time>2026-04-01T12:07:54.972Z</time></trkpt><trkpt lat="44.5429161" lon="8.547618"><ele>773.6666666666666</ele><time>2026-04-01T12:07:55.972Z</time></trkpt><trkpt lat="44.5429627" lon="8.547693"><ele>772.0</ele><time>2026-04-01T12:07:56.973Z</time></trkpt><trkpt lat="44.5430062" lon="8.5477815"><ele>772.2</ele><time>2026-04-01T12:07:57.972Z</time></trkpt><trkpt lat="44.5430419" lon="8.5478924"><ele>772.4000000000001</ele><time>2026-04-01T12:07:58.972Z</time></trkpt><trkpt lat="44.5430651" lon="8.5480247"><ele>772.5999999999999</ele><time>2026-04-01T12:07:59.973Z</time></trkpt><trkpt lat="44.5430742" lon="8.5481789"><ele>772.8</ele><time>2026-04-01T12:08:00.973Z</time></trkpt><trkpt lat="44.5430861" lon="8.5483545"><ele>773.0</ele><time>2026-04-01T12:08:01.976Z</time></trkpt><trkpt lat="44.5431111" lon="8.5485394"><ele>775.25</ele><time>2026-04-01T12:08:02.973Z</time></trkpt><trkpt lat="44.5431486" lon="8.5487149"><ele>777.5</ele><time>2026-04-01T12:08:03.971Z</time></trkpt><trkpt lat="44.5431882" lon="8.5488739"><ele>779.75</ele><time>2026-04-01T12:08:04.974Z</time></trkpt><trkpt lat="44.5432332" lon="8.5490158"><ele>782.0</ele><time>2026-04-01T12:08:05.972Z</time></trkpt><trkpt lat="44.5432913" lon="8.5491424"><ele>782.0</ele><time>2026-04-01T12:08:06.972Z</time></trkpt><trkpt lat="44.5433578" lon="8.549268"><ele>782.0</ele><time>2026-04-01T12:08:07.973Z</time></trkpt><trkpt lat="44.5434306" lon="8.5494002"><ele>782.0</ele><time>2026-04-01T12:08:08.972Z</time></trkpt><trkpt lat="44.5435095" lon="8.5495452"><ele>782.0</ele><time>2026-04-01T12:08:09.972Z</time></trkpt><trkpt lat="44.5435839" lon="8.5496992"><ele>781.75</ele><time>2026-04-01T12:08:10.972Z</time></trkpt><trkpt lat="44.5436437" lon="8.5498514"><ele>781.5</ele><time>2026-04-01T12:08:11.974Z</time></trkpt><trkpt lat="44.5436975" lon="8.5500041"><ele>781.25</ele><time>2026-04-01T12:08:12.974Z</time></trkpt><trkpt lat="44.5437534" lon="8.5501418"><ele>781.0</ele><time>2026-04-01T12:08:13.971Z</time></trkpt><trkpt lat="44.5438166" lon="8.5502542"><ele>781.0</ele><time>2026-04-01T12:08:14.972Z</time></trkpt><trkpt lat="44.543886" lon="8.5503264"><ele>781.0</ele><time>2026-04-01T12:08:15.971Z</time></trkpt><trkpt lat="44.5439619" lon="8.5503717"><ele>781.0</ele><time>2026-04-01T12:08:16.973Z</time></trkpt><trkpt lat="44.5440475" lon="8.5504155"><ele>781.0</ele><time>2026-04-01T12:08:17.972Z</time></trkpt><trkpt lat="44.5441396" lon="8.5504773"><ele>781.0</ele><time>2026-04-01T12:08:18.972Z</time></trkpt><trkpt lat="44.5442425" lon="8.5505561"><ele>781.5</ele><time>2026-04-01T12:08:19.972Z</time></trkpt><trkpt lat="44.544345" lon="8.5506443"><ele>782.0</ele><time>2026-04-01T12:08:20.974Z</time></trkpt><trkpt lat="44.5444361" lon="8.5507603"><ele>782.5</ele><time>2026-04-01T12:08:21.974Z</time></trkpt><trkpt lat="44.5445275" lon="8.5509151"><ele>783.0</ele><time>2026-04-01T12:08:22.974Z</time></trkpt><trkpt lat="44.5446175" lon="8.5510789"><ele>782.8</ele><time>2026-04-01T12:08:23.972Z</time></trkpt><trkpt lat="44.5446945" lon="8.5512113"><ele>782.5999999999999</ele><time>2026-04-01T12:08:24.972Z</time></trkpt><trkpt lat="44.5447639" lon="8.5513115"><ele>782.4000000000001</ele><time>2026-04-01T12:08:25.974Z</time></trkpt><trkpt lat="44.5448279" lon="8.551395"><ele>782.2</ele><time>2026-04-01T12:08:26.974Z</time></trkpt><trkpt lat="44.5448829" lon="8.5514634"><ele>782.0</ele><time>2026-04-01T12:08:27.972Z</time></trkpt><trkpt lat="44.5449629" lon="8.5515688"><ele>782.0</ele><time>2026-04-01T12:08:29.972Z</time></trkpt><trkpt lat="44.5450169" lon="8.5516475"><ele>782.0</ele><time>2026-04-01T12:08:31.972Z</time></trkpt><trkpt lat="44.5450466" lon="8.5517433"><ele>782.0</ele><time>2026-04-01T12:08:34.973Z</time></trkpt><trkpt lat="44.5451153" lon="8.5519005"><ele>782.0</ele><time>2026-04-01T12:08:53.972Z</time></trkpt><trkpt lat="44.5451863" lon="8.5520229"><ele>782.0</ele><time>2026-04-01T12:08:54.972Z</time></trkpt><trkpt lat="44.54526" lon="8.5521552"><ele>781.6</ele><time>2026-04-01T12:08:55.971Z</time></trkpt><trkpt lat="44.5453318" lon="8.5522859"><ele>781.2</ele><time>2026-04-01T12:08:56.972Z</time></trkpt><trkpt lat="44.5453911" lon="8.5524078"><ele>780.8</ele><time>2026-04-01T12:08:57.971Z</time></trkpt><trkpt lat="44.5454355" lon="8.5525133"><ele>780.4</ele><time>2026-04-01T12:08:58.971Z</time></trkpt><trkpt lat="44.5454846" lon="8.5526091"><ele>780.0</ele><time>2026-04-01T12:08:59.973Z</time></trkpt><trkpt lat="44.5455538" lon="8.5527029"><ele>779.0</ele><time>2026-04-01T12:09:00.971Z</time></trkpt><trkpt lat="44.5456646" lon="8.552784"><ele>778.0</ele><time>2026-04-01T12:09:01.972Z</time></trkpt><trkpt lat="44.5457693" lon="8.5528605"><ele>777.0</ele><time>2026-04-01T12:09:02.972Z</time></trkpt><trkpt lat="44.5458667" lon="8.5529487"><ele>776.0</ele><time>2026-04-01T12:09:03.973Z</time></trkpt><trkpt lat="44.5459562" lon="8.5530452"><ele>776.0000000000001</ele><time>2026-04-01T12:09:04.973Z</time></trkpt><trkpt lat="44.5460407" lon="8.5531328"><ele>776.0</ele><time>2026-04-01T12:09:05.974Z</time></trkpt><trkpt lat="44.5461176" lon="8.553188"><ele>776.0</ele><time>2026-04-01T12:09:06.972Z</time></trkpt><trkpt lat="44.5461922" lon="8.553221"><ele>776.0</ele><time>2026-04-01T12:09:07.972Z</time></trkpt><trkpt lat="44.5462753" lon="8.5532491"><ele>776.0000000000001</ele><time>2026-04-01T12:09:08.973Z</time></trkpt><trkpt lat="44.5463536" lon="8.5532914"><ele>776.0</ele><time>2026-04-01T12:09:09.974Z</time></trkpt><trkpt lat="44.5464156" lon="8.5533497"><ele>777.0000000000001</ele><time>2026-04-01T12:09:10.971Z</time></trkpt><trkpt lat="44.5464549" lon="8.5534415"><ele>778.0</ele><time>2026-04-01T12:09:11.972Z</time></trkpt><trkpt lat="44.5464783" lon="8.5535599"><ele>779.0</ele><time>2026-04-01T12:09:12.972Z</time></trkpt><trkpt lat="44.5465025" lon="8.5536771"><ele>780.0</ele><time>2026-04-01T12:09:13.972Z</time></trkpt><trkpt lat="44.5465362" lon="8.5537683"><ele>781.0000000000001</ele><time>2026-04-01T12:09:14.972Z</time></trkpt><trkpt lat="44.5465629" lon="8.5538696"><ele>782.0</ele><time>2026-04-01T12:09:15.973Z</time></trkpt><trkpt lat="44.5465901" lon="8.5539826"><ele>782.4000000000001</ele><time>2026-04-01T12:09:16.97Z</time></trkpt><trkpt lat="44.5466206" lon="8.554112"><ele>782.8000000000001</ele><time>2026-04-01T12:09:17.972Z</time></trkpt><trkpt lat="44.5466534" lon="8.5542459"><ele>783.2</ele><time>2026-04-01T12:09:18.972Z</time></trkpt><trkpt lat="44.5466879" lon="8.5543783"><ele>783.6</ele><time>2026-04-01T12:09:19.971Z</time></trkpt><trkpt lat="44.5467261" lon="8.5545011"><ele>784.0</ele><time>2026-04-01T12:09:20.973Z</time></trkpt><trkpt lat="44.5467688" lon="8.5546016"><ele>784.0</ele><time>2026-04-01T12:09:21.972Z</time></trkpt><trkpt lat="44.5468103" lon="8.5546827"><ele>784.0</ele><time>2026-04-01T12:09:22.972Z</time></trkpt><trkpt lat="44.5469049" lon="8.5547832"><ele>784.0</ele><time>2026-04-01T12:09:24.972Z</time></trkpt><trkpt lat="44.5469773" lon="8.5548043"><ele>784.0</ele><time>2026-04-01T12:09:25.971Z</time></trkpt><trkpt lat="44.5470744" lon="8.5548114"><ele>784.0</ele><time>2026-04-01T12:09:26.972Z</time></trkpt><trkpt lat="44.5471901" lon="8.5547938"><ele>784.8000000000001</ele><time>2026-04-01T12:09:27.973Z</time></trkpt><trkpt lat="44.5473017" lon="8.5547611"><ele>785.6</ele><time>2026-04-01T12:09:28.973Z</time></trkpt><trkpt lat="44.5474173" lon="8.5547262"><ele>786.4</ele><time>2026-04-01T12:09:29.972Z</time></trkpt><trkpt lat="44.5475275" lon="8.5546948"><ele>787.2</ele><time>2026-04-01T12:09:30.972Z</time></trkpt><trkpt lat="44.5476194" lon="8.5546765"><ele>788.0</ele><time>2026-04-01T12:09:31.97Z</time></trkpt><trkpt lat="44.5476974" lon="8.5546749"><ele>788.0</ele><time>2026-04-01T12:09:32.971Z</time></trkpt><trkpt lat="44.5477652" lon="8.5546948"><ele>788.0</ele><time>2026-04-01T12:09:33.971Z</time></trkpt><trkpt lat="44.5478192" lon="8.5547563"><ele>788.0</ele><time>2026-04-01T12:09:34.971Z</time></trkpt><trkpt lat="44.5478517" lon="8.554863"><ele>788.0</ele><time>2026-04-01T12:09:35.971Z</time></trkpt><trkpt lat="44.5478731" lon="8.554969"><ele>788.0</ele><time>2026-04-01T12:09:36.971Z</time></trkpt><trkpt lat="44.5479144" lon="8.5550593"><ele>788.0</ele><time>2026-04-01T12:09:37.971Z</time></trkpt><trkpt lat="44.5479731" lon="8.5551099"><ele>788.0</ele><time>2026-04-01T12:09:38.971Z</time></trkpt><trkpt lat="44.5480356" lon="8.5551367"><ele>785.4</ele><time>2026-04-01T12:09:39.971Z</time></trkpt><trkpt lat="44.5480935" lon="8.5551758"><ele>782.8</ele><time>2026-04-01T12:09:40.97Z</time></trkpt><trkpt lat="44.548186" lon="8.5553044"><ele>780.2</ele><time>2026-04-01T12:09:42.971Z</time></trkpt><trkpt lat="44.5482361" lon="8.5553904"><ele>777.6</ele><time>2026-04-01T12:09:43.972Z</time></trkpt><trkpt lat="44.548303" lon="8.5554881"><ele>775.0</ele><time>2026-04-01T12:09:44.972Z</time></trkpt><trkpt lat="44.5483833" lon="8.5556075"><ele>775.0</ele><time>2026-04-01T12:09:45.971Z</time></trkpt><trkpt lat="44.5484665" lon="8.5557088"><ele>775.0</ele><time>2026-04-01T12:09:46.972Z</time></trkpt><trkpt lat="44.5485494" lon="8.5558063"><ele>775.0</ele><time>2026-04-01T12:09:47.972Z</time></trkpt><trkpt lat="44.5486356" lon="8.5559183"><ele>775.0</ele><time>2026-04-01T12:09:48.972Z</time></trkpt><trkpt lat="44.5487206" lon="8.5560264"><ele>774.8</ele><time>2026-04-01T12:09:49.972Z</time></trkpt><trkpt lat="44.5488037" lon="8.5561177"><ele>774.6</ele><time>2026-04-01T12:09:50.971Z</time></trkpt><trkpt lat="44.5488912" lon="8.5562031"><ele>774.4000000000001</ele><time>2026-04-01T12:09:51.971Z</time></trkpt><trkpt lat="44.548983" lon="8.5562911"><ele>774.2</ele><time>2026-04-01T12:09:52.972Z</time></trkpt><trkpt lat="44.5490676" lon="8.5563846"><ele>774.0</ele><time>2026-04-01T12:09:53.971Z</time></trkpt><trkpt lat="44.5491331" lon="8.5564829"><ele>774.0</ele><time>2026-04-01T12:09:54.97Z</time></trkpt><trkpt lat="44.5491738" lon="8.5565812"><ele>774.0</ele><time>2026-04-01T12:09:55.971Z</time></trkpt><trkpt lat="44.5491934" lon="8.5566869"><ele>774.0</ele><time>2026-04-01T12:09:56.971Z</time></trkpt><trkpt lat="44.5492163" lon="8.556786"><ele>774.0</ele><time>2026-04-01T12:09:57.972Z</time></trkpt><trkpt lat="44.5492431" lon="8.5569332"><ele>774.0</ele><time>2026-04-01T12:09:59.971Z</time></trkpt><trkpt lat="44.5492149" lon="8.557106"><ele>773.5</ele><time>2026-04-01T12:10:01.971Z</time></trkpt><trkpt lat="44.5491858" lon="8.5572462"><ele>773.0</ele><time>2026-04-01T12:10:03.971Z</time></trkpt><trkpt lat="44.5491852" lon="8.5573843"><ele>772.5</ele><time>2026-04-01T12:10:35.97Z</time></trkpt><trkpt lat="44.5491855" lon="8.5574891"><ele>772.0</ele><time>2026-04-01T12:10:36.971Z</time></trkpt><trkpt lat="44.5491803" lon="8.5575972"><ele>771.5</ele><time>2026-04-01T12:10:37.972Z</time></trkpt><trkpt lat="44.5491677" lon="8.5576986"><ele>771.0</ele><time>2026-04-01T12:10:38.971Z</time></trkpt><trkpt lat="44.5491467" lon="8.5577835"><ele>771.0</ele><time>2026-04-01T12:10:39.971Z</time></trkpt><trkpt lat="44.5491133" lon="8.5578673"><ele>771.0</ele><time>2026-04-01T12:10:40.972Z</time></trkpt><trkpt lat="44.5490681" lon="8.5579687"><ele>771.0</ele><time>2026-04-01T12:10:41.972Z</time></trkpt><trkpt lat="44.5490236" lon="8.558085"><ele>771.0</ele><time>2026-04-01T12:10:42.973Z</time></trkpt><trkpt lat="44.5489868" lon="8.5582148"><ele>771.0</ele><time>2026-04-01T12:10:43.975Z</time></trkpt><trkpt lat="44.5489571" lon="8.5583712"><ele>770.5</ele><time>2026-04-01T12:10:44.971Z</time></trkpt><trkpt lat="44.5489395" lon="8.5585465"><ele>770.0</ele><time>2026-04-01T12:10:45.97Z</time></trkpt><trkpt lat="44.5489337" lon="8.5587105"><ele>769.5</ele><time>2026-04-01T12:10:46.971Z</time></trkpt><trkpt lat="44.5489294" lon="8.5588612"><ele>769.0</ele><time>2026-04-01T12:10:47.973Z</time></trkpt><trkpt lat="44.5489154" lon="8.5590009"><ele>768.9999999999999</ele><time>2026-04-01T12:10:48.973Z</time></trkpt><trkpt lat="44.5488772" lon="8.5591309"><ele>769.0</ele><time>2026-04-01T12:10:49.972Z</time></trkpt><trkpt lat="44.5488134" lon="8.559245"><ele>769.0</ele><time>2026-04-01T12:10:50.972Z</time></trkpt><trkpt lat="44.5487582" lon="8.5593415"><ele>769.0</ele><time>2026-04-01T12:10:51.972Z</time></trkpt><trkpt lat="44.5487244" lon="8.5594269"><ele>768.9999999999999</ele><time>2026-04-01T12:10:52.972Z</time></trkpt><trkpt lat="44.5487068" lon="8.5595238"><ele>769.0</ele><time>2026-04-01T12:10:53.972Z</time></trkpt><trkpt lat="44.5487038" lon="8.5596424"><ele>768.6</ele><time>2026-04-01T12:10:54.972Z</time></trkpt><trkpt lat="44.5487258" lon="8.5597943"><ele>768.2</ele><time>2026-04-01T12:10:55.971Z</time></trkpt><trkpt lat="44.5487639" lon="8.5599677"><ele>767.8000000000001</ele><time>2026-04-01T12:10:56.972Z</time></trkpt><trkpt lat="44.5487875" lon="8.5601155"><ele>767.4000000000001</ele><time>2026-04-01T12:10:57.971Z</time></trkpt><trkpt lat="44.5487832" lon="8.5602381"><ele>767.0</ele><time>2026-04-01T12:10:58.97Z</time></trkpt><trkpt lat="44.548765" lon="8.560347"><ele>767.2</ele><time>2026-04-01T12:10:59.972Z</time></trkpt><trkpt lat="44.5487297" lon="8.5604512"><ele>767.4000000000001</ele><time>2026-04-01T12:11:00.972Z</time></trkpt><trkpt lat="44.5486795" lon="8.5605468"><ele>767.5999999999999</ele><time>2026-04-01T12:11:01.97Z</time></trkpt><trkpt lat="44.5486197" lon="8.5606423"><ele>767.8</ele><time>2026-04-01T12:11:02.973Z</time></trkpt><trkpt lat="44.548558" lon="8.5607472"><ele>768.0</ele><time>2026-04-01T12:11:03.971Z</time></trkpt><trkpt lat="44.548499" lon="8.5608742"><ele>768.0</ele><time>2026-04-01T12:11:04.972Z</time></trkpt><trkpt lat="44.5484427" lon="8.5610168"><ele>768.0</ele><time>2026-04-01T12:11:05.972Z</time></trkpt><trkpt lat="44.5483974" lon="8.5611423"><ele>768.0</ele><time>2026-04-01T12:11:06.973Z</time></trkpt><trkpt lat="44.5483664" lon="8.5612465"><ele>768.0</ele><time>2026-04-01T12:11:07.97Z</time></trkpt><trkpt lat="44.5483522" lon="8.5613381"><ele>768.0</ele><time>2026-04-01T12:11:08.972Z</time></trkpt><trkpt lat="44.5483567" lon="8.5615266"><ele>768.8333333333334</ele><time>2026-04-01T12:11:10.97Z</time></trkpt><trkpt lat="44.5483763" lon="8.561665"><ele>769.6666666666667</ele><time>2026-04-01T12:11:11.97Z</time></trkpt><trkpt lat="44.5483942" lon="8.5617919"><ele>770.5</ele><time>2026-04-01T12:11:12.97Z</time></trkpt><trkpt lat="44.5484073" lon="8.5619032"><ele>771.3333333333334</ele><time>2026-04-01T12:11:13.972Z</time></trkpt><trkpt lat="44.5484007" lon="8.5619978"><ele>772.1666666666667</ele><time>2026-04-01T12:11:14.971Z</time></trkpt><trkpt lat="44.5483796" lon="8.5620922"><ele>773.0</ele><time>2026-04-01T12:11:15.971Z</time></trkpt><trkpt lat="44.5483445" lon="8.5621998"><ele>773.0000000000001</ele><time>2026-04-01T12:11:16.971Z</time></trkpt><trkpt lat="44.5483062" lon="8.5623169"><ele>773.0</ele><time>2026-04-01T12:11:17.971Z</time></trkpt><trkpt lat="44.5482704" lon="8.562424"><ele>773.0</ele><time>2026-04-01T12:11:18.971Z</time></trkpt><trkpt lat="44.5482347" lon="8.562515"><ele>773.0</ele><time>2026-04-01T12:11:19.972Z</time></trkpt><trkpt lat="44.5481908" lon="8.5626064"><ele>773.0000000000001</ele><time>2026-04-01T12:11:20.973Z</time></trkpt><trkpt lat="44.5481442" lon="8.5626989"><ele>773.0</ele><time>2026-04-01T12:11:21.973Z</time></trkpt><trkpt lat="44.5480971" lon="8.5627913"><ele>773.5999999999999</ele><time>2026-04-01T12:11:22.972Z</time></trkpt><trkpt lat="44.5480517" lon="8.56287"><ele>774.1999999999999</ele><time>2026-04-01T12:11:23.971Z</time></trkpt><trkpt lat="44.5479801" lon="8.5629739"><ele>774.8</ele><time>2026-04-01T12:11:25.972Z</time></trkpt><trkpt lat="44.5479209" lon="8.5630885"><ele>775.4</ele><time>2026-04-01T12:11:27.972Z</time></trkpt><trkpt lat="44.5478677" lon="8.5632436"><ele>776.0</ele><time>2026-04-01T12:11:29.972Z</time></trkpt><trkpt lat="44.5478499" lon="8.5633548"><ele>776.1666666666667</ele><time>2026-04-01T12:11:30.971Z</time></trkpt><trkpt lat="44.5478373" lon="8.5634991"><ele>776.3333333333334</ele><time>2026-04-01T12:11:31.976Z</time></trkpt><trkpt lat="44.5478258" lon="8.5636372"><ele>776.5</ele><time>2026-04-01T12:11:32.972Z</time></trkpt><trkpt lat="44.5478151" lon="8.5637612"><ele>776.6666666666667</ele><time>2026-04-01T12:11:33.972Z</time></trkpt><trkpt lat="44.5478037" lon="8.563859"><ele>776.8333333333334</ele><time>2026-04-01T12:11:34.975Z</time></trkpt><trkpt lat="44.5477804" lon="8.5639524"><ele>777.0</ele><time>2026-04-01T12:11:35.971Z</time></trkpt><trkpt lat="44.5477498" lon="8.5640525"><ele>777.0</ele><time>2026-04-01T12:11:36.971Z</time></trkpt><trkpt lat="44.5477052" lon="8.5641697"><ele>777.0</ele><time>2026-04-01T12:11:37.972Z</time></trkpt><trkpt lat="44.5476505" lon="8.5642887"><ele>777.0</ele><time>2026-04-01T12:11:38.972Z</time></trkpt><trkpt lat="44.5475976" lon="8.5643974"><ele>777.0</ele><time>2026-04-01T12:11:39.971Z</time></trkpt><trkpt lat="44.5475541" lon="8.564508"><ele>777.0</ele><time>2026-04-01T12:11:40.97Z</time></trkpt><trkpt lat="44.5475263" lon="8.5646275"><ele>779.6</ele><time>2026-04-01T12:11:41.972Z</time></trkpt><trkpt lat="44.5475014" lon="8.5647504"><ele>782.2</ele><time>2026-04-01T12:11:42.971Z</time></trkpt><trkpt lat="44.5474633" lon="8.5648762"><ele>784.8</ele><time>2026-04-01T12:11:43.972Z</time></trkpt><trkpt lat="44.5474091" lon="8.5650017"><ele>787.4</ele><time>2026-04-01T12:11:44.973Z</time></trkpt><trkpt lat="44.5473584" lon="8.5651151"><ele>790.0</ele><time>2026-04-01T12:11:45.97Z</time></trkpt><trkpt lat="44.5473189" lon="8.5652226"><ele>789.9999999999999</ele><time>2026-04-01T12:11:46.972Z</time></trkpt><trkpt lat="44.5472937" lon="8.5653323"><ele>790.0</ele><time>2026-04-01T12:11:47.972Z</time></trkpt><trkpt lat="44.5472908" lon="8.5654484"><ele>790.0</ele><time>2026-04-01T12:11:48.97Z</time></trkpt><trkpt lat="44.547308" lon="8.5655721"><ele>790.0</ele><time>2026-04-01T12:11:49.971Z</time></trkpt><trkpt lat="44.5473302" lon="8.5656948"><ele>789.9999999999999</ele><time>2026-04-01T12:11:50.972Z</time></trkpt><trkpt lat="44.5473506" lon="8.5657971"><ele>790.0</ele><time>2026-04-01T12:11:51.97Z</time></trkpt><trkpt lat="44.5473693" lon="8.5658816"><ele>789.4</ele><time>2026-04-01T12:11:52.971Z</time></trkpt><trkpt lat="44.5474225" lon="8.5659901"><ele>788.8</ele><time>2026-04-01T12:11:54.971Z</time></trkpt><trkpt lat="44.5475433" lon="8.565975"><ele>788.2</ele><time>2026-04-01T12:12:28.971Z</time></trkpt><trkpt lat="44.5476072" lon="8.565968"><ele>787.6</ele><time>2026-04-01T12:12:29.971Z</time></trkpt><trkpt lat="44.547706" lon="8.5660015"><ele>787.0</ele><time>2026-04-01T12:12:31.971Z</time></trkpt><trkpt lat="44.5477268" lon="8.5661095"><ele>785.3333333333333</ele><time>2026-04-01T12:12:34.972Z</time></trkpt><trkpt lat="44.5477381" lon="8.566212"><ele>783.6666666666666</ele><time>2026-04-01T12:12:36.971Z</time></trkpt><trkpt lat="44.5477472" lon="8.5663268"><ele>782.0</ele><time>2026-04-01T12:12:38.971Z</time></trkpt><trkpt lat="44.5477735" lon="8.5664538"><ele>780.3333333333333</ele><time>2026-04-01T12:12:40.971Z</time></trkpt><trkpt lat="44.5478107" lon="8.5665715"><ele>778.6666666666666</ele><time>2026-04-01T12:12:42.972Z</time></trkpt><trkpt lat="44.547868" lon="8.5666729"><ele>777.0</ele><time>2026-04-01T12:12:44.971Z</time></trkpt><trkpt lat="44.5479139" lon="8.5667851"><ele>777.0</ele><time>2026-04-01T12:12:46.971Z</time></trkpt><trkpt lat="44.5479405" lon="8.5668707"><ele>777.0</ele><time>2026-04-01T12:12:48.971Z</time></trkpt><trkpt lat="44.5479907" lon="8.5669486"><ele>777.0</ele><time>2026-04-01T12:12:51.972Z</time></trkpt><trkpt lat="44.5480752" lon="8.5670041"><ele>777.0</ele><time>2026-04-01T12:12:54.97Z</time></trkpt><trkpt lat="44.5481531" lon="8.5670583"><ele>777.0</ele><time>2026-04-01T12:12:56.973Z</time></trkpt><trkpt lat="44.5482199" lon="8.5671411"><ele>777.0</ele><time>2026-04-01T12:12:58.971Z</time></trkpt><trkpt lat="44.5482824" lon="8.5672272"><ele>773.4000000000001</ele><time>2026-04-01T12:13:00.971Z</time></trkpt><trkpt lat="44.5483347" lon="8.5673142"><ele>769.8000000000001</ele><time>2026-04-01T12:13:02.971Z</time></trkpt><trkpt lat="44.5483931" lon="8.5673946"><ele>766.2</ele><time>2026-04-01T12:13:05.971Z</time></trkpt><trkpt lat="44.5483794" lon="8.5675537"><ele>762.6</ele><time>2026-04-01T12:13:46.971Z</time></trkpt><trkpt lat="44.548358" lon="8.56767"><ele>759.0</ele><time>2026-04-01T12:13:49.971Z</time></trkpt><trkpt lat="44.5483534" lon="8.5677951"><ele>755.6666666666666</ele><time>2026-04-01T12:13:53.972Z</time></trkpt><trkpt lat="44.5482963" lon="8.5679703"><ele>752.3333333333334</ele><time>2026-04-01T12:14:05.97Z</time></trkpt><trkpt lat="44.5482981" lon="8.5680633"><ele>749.0</ele><time>2026-04-01T12:14:11.971Z</time></trkpt><trkpt lat="44.5483068" lon="8.5681587"><ele>745.6666666666667</ele><time>2026-04-01T12:14:15.971Z</time></trkpt><trkpt lat="44.5482996" lon="8.5682847"><ele>742.3333333333334</ele><time>2026-04-01T12:14:19.971Z</time></trkpt><trkpt lat="44.5482693" lon="8.5683808"><ele>739.0</ele><time>2026-04-01T12:14:24.971Z</time></trkpt><trkpt lat="44.548266" lon="8.5684821"><ele>739.0</ele><time>2026-04-01T12:14:28.972Z</time></trkpt><trkpt lat="44.5482787" lon="8.5685731"><ele>739.0</ele><time>2026-04-01T12:14:31.973Z</time></trkpt><trkpt lat="44.5483055" lon="8.5686766"><ele>739.0</ele><time>2026-04-01T12:14:35.97Z</time></trkpt><trkpt lat="44.5483746" lon="8.5687478"><ele>739.0</ele><time>2026-04-01T12:14:38.973Z</time></trkpt><trkpt lat="44.548419" lon="8.5688282"><ele>739.0</ele><time>2026-04-01T12:15:24.971Z</time></trkpt><trkpt lat="44.5484588" lon="8.5688995"><ele>739.0</ele><time>2026-04-01T12:15:26.973Z</time></trkpt><trkpt lat="44.5485056" lon="8.5689959"><ele>738.1666666666667</ele><time>2026-04-01T12:15:28.971Z</time></trkpt><trkpt lat="44.548546" lon="8.5691067"><ele>737.3333333333334</ele><time>2026-04-01T12:15:31.971Z</time></trkpt><trkpt lat="44.5485804" lon="8.5691895"><ele>736.5</ele><time>2026-04-01T12:15:33.972Z</time></trkpt><trkpt lat="44.5486285" lon="8.5692884"><ele>735.6666666666666</ele><time>2026-04-01T12:15:36.974Z</time></trkpt><trkpt lat="44.5486896" lon="8.5693688"><ele>734.8333333333333</ele><time>2026-04-01T12:15:39.971Z</time></trkpt><trkpt lat="44.5487146" lon="8.5694796"><ele>734.0</ele><time>2026-04-01T12:15:41.971Z</time></trkpt><trkpt lat="44.5487064" lon="8.5695851"><ele>732.8333333333333</ele><time>2026-04-01T12:15:43.973Z</time></trkpt><trkpt lat="44.5486804" lon="8.5696784"><ele>731.6666666666666</ele><time>2026-04-01T12:15:45.971Z</time></trkpt><trkpt lat="44.5486443" lon="8.5697787"><ele>730.5</ele><time>2026-04-01T12:15:48.971Z</time></trkpt><trkpt lat="44.5485873" lon="8.5698742"><ele>729.3333333333334</ele><time>2026-04-01T12:15:51.971Z</time></trkpt><trkpt lat="44.5485365" lon="8.5699507"><ele>728.1666666666667</ele><time>2026-04-01T12:15:54.971Z</time></trkpt><trkpt lat="44.5485191" lon="8.5700666"><ele>727.0</ele><time>2026-04-01T12:15:58.971Z</time></trkpt><trkpt lat="44.5485298" lon="8.5701672"><ele>727.0</ele><time>2026-04-01T12:16:00.971Z</time></trkpt><trkpt lat="44.5485451" lon="8.5702572"><ele>727.0</ele><time>2026-04-01T12:16:02.973Z</time></trkpt><trkpt lat="44.5485679" lon="8.5703729"><ele>727.0</ele><time>2026-04-01T12:16:05.971Z</time></trkpt><trkpt lat="44.548548" lon="8.5704801"><ele>727.0</ele><time>2026-04-01T12:16:08.972Z</time></trkpt><trkpt lat="44.548527" lon="8.5705785"><ele>727.0</ele><time>2026-04-01T12:16:12.971Z</time></trkpt><trkpt lat="44.5485663" lon="8.5706665"><ele>727.0</ele><time>2026-04-01T12:16:18.971Z</time></trkpt><trkpt lat="44.5486026" lon="8.5707757"><ele>726.2857142857142</ele><time>2026-04-01T12:16:21.971Z</time></trkpt><trkpt lat="44.5485959" lon="8.5708762"><ele>725.5714285714287</ele><time>2026-04-01T12:17:27.972Z</time></trkpt><trkpt lat="44.5485761" lon="8.5709753"><ele>724.8571428571429</ele><time>2026-04-01T12:17:30.971Z</time></trkpt><trkpt lat="44.5485842" lon="8.571075"><ele>724.1428571428571</ele><time>2026-04-01T12:17:33.971Z</time></trkpt><trkpt lat="44.5486064" lon="8.5711671"><ele>723.4285714285713</ele><time>2026-04-01T12:17:35.97Z</time></trkpt><trkpt lat="44.5486317" lon="8.5712511"><ele>722.7142857142858</ele><time>2026-04-01T12:17:37.971Z</time></trkpt><trkpt lat="44.5486737" lon="8.5713366"><ele>722.0</ele><time>2026-04-01T12:17:39.972Z</time></trkpt><trkpt lat="44.5487106" lon="8.5714801"><ele>719.3333333333333</ele><time>2026-04-01T12:17:41.972Z</time></trkpt><trkpt lat="44.548748" lon="8.5716331"><ele>716.6666666666666</ele><time>2026-04-01T12:17:43.972Z</time></trkpt><trkpt lat="44.5487741" lon="8.571756"><ele>714.0</ele><time>2026-04-01T12:17:45.971Z</time></trkpt><trkpt lat="44.5487543" lon="8.5718575"><ele>711.3333333333334</ele><time>2026-04-01T12:17:47.971Z</time></trkpt><trkpt lat="44.5487285" lon="8.5719393"><ele>708.6666666666667</ele><time>2026-04-01T12:17:49.971Z</time></trkpt><trkpt lat="44.5487197" lon="8.572071"><ele>706.0</ele><time>2026-04-01T12:17:52.97Z</time></trkpt><trkpt lat="44.5487129" lon="8.5721716"><ele>704.0</ele><time>2026-04-01T12:17:54.97Z</time></trkpt><trkpt lat="44.5486979" lon="8.5722648"><ele>702.0</ele><time>2026-04-01T12:17:56.972Z</time></trkpt><trkpt lat="44.5487007" lon="8.5723616"><ele>700.0</ele><time>2026-04-01T12:17:58.971Z</time></trkpt><trkpt lat="44.5487329" lon="8.5724711"><ele>698.0</ele><time>2026-04-01T12:18:00.971Z</time></trkpt><trkpt lat="44.5488054" lon="8.5725341"><ele>696.0</ele><time>2026-04-01T12:18:02.972Z</time></trkpt><trkpt lat="44.5489071" lon="8.572537"><ele>694.0</ele><time>2026-04-01T12:18:04.97Z</time></trkpt><trkpt lat="44.5490045" lon="8.572507"><ele>694.0</ele><time>2026-04-01T12:18:06.971Z</time></trkpt><trkpt lat="44.5490776" lon="8.5724686"><ele>694.0</ele><time>2026-04-01T12:18:08.971Z</time></trkpt><trkpt lat="44.5491658" lon="8.5724624"><ele>694.0</ele><time>2026-04-01T12:18:10.97Z</time></trkpt><trkpt lat="44.5492802" lon="8.5724296"><ele>694.0</ele><time>2026-04-01T12:18:12.972Z</time></trkpt><trkpt lat="44.5493776" lon="8.5724248"><ele>694.0</ele><time>2026-04-01T12:18:14.971Z</time></trkpt><trkpt lat="44.5494587" lon="8.5724375"><ele>694.0</ele><time>2026-04-01T12:18:16.971Z</time></trkpt><trkpt lat="44.5495291" lon="8.5724795"><ele>694.0</ele><time>2026-04-01T12:18:18.971Z</time></trkpt><trkpt lat="44.5495995" lon="8.5725542"><ele>694.0</ele><time>2026-04-01T12:18:21.971Z</time></trkpt><trkpt lat="44.5496613" lon="8.5726186"><ele>694.0</ele><time>2026-04-01T12:18:25.971Z</time></trkpt><trkpt lat="44.5497119" lon="8.5726773"><ele>694.0</ele><time>2026-04-01T12:18:28.972Z</time></trkpt><trkpt lat="44.5497465" lon="8.572753"><ele>694.0</ele><time>2026-04-01T12:18:31.971Z</time></trkpt><trkpt lat="44.5498018" lon="8.572826"><ele>694.0</ele><time>2026-04-01T12:18:34.971Z</time></trkpt><trkpt lat="44.549874" lon="8.572849"><ele>688.5714285714286</ele><time>2026-04-01T12:18:37.974Z</time></trkpt><trkpt lat="44.5499345" lon="8.5728784"><ele>683.1428571428571</ele><time>2026-04-01T12:18:41.97Z</time></trkpt><trkpt lat="44.5499486" lon="8.5729682"><ele>677.7142857142857</ele><time>2026-04-01T12:18:49.971Z</time></trkpt><trkpt lat="44.5500077" lon="8.5730439"><ele>672.2857142857142</ele><time>2026-04-01T12:18:53.972Z</time></trkpt><trkpt lat="44.550066" lon="8.5730872"><ele>666.8571428571429</ele><time>2026-04-01T12:18:56.972Z</time></trkpt><trkpt lat="44.550145" lon="8.5731175"><ele>661.4285714285713</ele><time>2026-04-01T12:18:59.973Z</time></trkpt><trkpt lat="44.5502177" lon="8.5731561"><ele>656.0</ele><time>2026-04-01T12:19:01.971Z</time></trkpt><trkpt lat="44.5502887" lon="8.5731548"><ele>656.0</ele><time>2026-04-01T12:19:03.972Z</time></trkpt><trkpt lat="44.5503647" lon="8.5731395"><ele>656.0</ele><time>2026-04-01T12:19:05.973Z</time></trkpt><trkpt lat="44.550432" lon="8.5731299"><ele>656.0</ele><time>2026-04-01T12:19:07.972Z</time></trkpt><trkpt lat="44.5505186" lon="8.5731069"><ele>656.0</ele><time>2026-04-01T12:21:11.972Z</time></trkpt><trkpt lat="44.5505765" lon="8.5730591"><ele>656.0</ele><time>2026-04-01T12:21:14.972Z</time></trkpt><trkpt lat="44.5506494" lon="8.5730032"><ele>656.0</ele><time>2026-04-01T12:21:18.971Z</time></trkpt><trkpt lat="44.5507018" lon="8.5729387"><ele>652.6666666666666</ele><time>2026-04-01T12:21:20.971Z</time></trkpt><trkpt lat="44.550761" lon="8.5728717"><ele>649.3333333333333</ele><time>2026-04-01T12:21:22.972Z</time></trkpt><trkpt lat="44.5508347" lon="8.5728749"><ele>646.0</ele><time>2026-04-01T12:21:25.971Z</time></trkpt><trkpt lat="44.5509141" lon="8.5728595"><ele>642.6666666666666</ele><time>2026-04-01T12:21:29.971Z</time></trkpt><trkpt lat="44.5509753" lon="8.5729187"><ele>639.3333333333334</ele><time>2026-04-01T12:21:36.972Z</time></trkpt><trkpt lat="44.5510597" lon="8.5729244"><ele>636.0</ele><time>2026-04-01T12:21:39.971Z</time></trkpt><trkpt lat="44.5511177" lon="8.5729622"><ele>636.0</ele><time>2026-04-01T12:21:41.971Z</time></trkpt><trkpt lat="44.5511806" lon="8.5730442"><ele>636.0</ele><time>2026-04-01T12:21:43.972Z</time></trkpt><trkpt lat="44.5512519" lon="8.573062"><ele>636.0</ele><time>2026-04-01T12:21:45.97Z</time></trkpt><trkpt lat="44.5513382" lon="8.5730817"><ele>636.0</ele><time>2026-04-01T12:21:47.97Z</time></trkpt><trkpt lat="44.5514329" lon="8.5731552"><ele>636.0</ele><time>2026-04-01T12:21:49.972Z</time></trkpt><trkpt lat="44.5515103" lon="8.5732411"><ele>632.1666666666666</ele><time>2026-04-01T12:21:51.971Z</time></trkpt><trkpt lat="44.5515893" lon="8.573298"><ele>628.3333333333334</ele><time>2026-04-01T12:21:54.973Z</time></trkpt><trkpt lat="44.5516519" lon="8.5733198"><ele>624.5</ele><time>2026-04-01T12:21:57.97Z</time></trkpt><trkpt lat="44.5517341" lon="8.5733839"><ele>620.6666666666667</ele><time>2026-04-01T12:22:00.97Z</time></trkpt><trkpt lat="44.5518094" lon="8.5734418"><ele>616.8333333333334</ele><time>2026-04-01T12:22:02.972Z</time></trkpt><trkpt lat="44.5519069" lon="8.5734997"><ele>613.0</ele><time>2026-04-01T12:22:04.971Z</time></trkpt><trkpt lat="44.5520024" lon="8.5735337"><ele>611.1666666666667</ele><time>2026-04-01T12:22:06.971Z</time></trkpt><trkpt lat="44.5521061" lon="8.5735654"><ele>609.3333333333334</ele><time>2026-04-01T12:22:08.971Z</time></trkpt><trkpt lat="44.5521676" lon="8.5735863"><ele>607.5</ele><time>2026-04-01T12:22:09.971Z</time></trkpt><trkpt lat="44.5522381" lon="8.5736108"><ele>605.6666666666666</ele><time>2026-04-01T12:22:10.971Z</time></trkpt><trkpt lat="44.5523138" lon="8.5736338"><ele>603.8333333333333</ele><time>2026-04-01T12:22:11.972Z</time></trkpt><trkpt lat="44.5523789" lon="8.5736506"><ele>602.0</ele><time>2026-04-01T12:22:12.971Z</time></trkpt><trkpt lat="44.5524682" lon="8.5736981"><ele>601.3333333333333</ele><time>2026-04-01T12:22:14.971Z</time></trkpt><trkpt lat="44.55249" lon="8.5737967"><ele>600.6666666666666</ele><time>2026-04-01T12:22:16.971Z</time></trkpt><trkpt lat="44.5525508" lon="8.5738864"><ele>600.0</ele><time>2026-04-01T12:22:18.971Z</time></trkpt><trkpt lat="44.5526495" lon="8.573946"><ele>599.3333333333334</ele><time>2026-04-01T12:22:20.972Z</time></trkpt><trkpt lat="44.5527474" lon="8.5739843"><ele>598.6666666666667</ele><time>2026-04-01T12:22:22.97Z</time></trkpt><trkpt lat="44.552817" lon="8.5740257"><ele>598.0</ele><time>2026-04-01T12:22:24.971Z</time></trkpt><trkpt lat="44.552885" lon="8.5740693"><ele>597.8333333333334</ele><time>2026-04-01T12:22:26.973Z</time></trkpt><trkpt lat="44.5529651" lon="8.5740903"><ele>597.6666666666667</ele><time>2026-04-01T12:22:28.97Z</time></trkpt><trkpt lat="44.5530358" lon="8.5741475"><ele>597.5</ele><time>2026-04-01T12:22:31.97Z</time></trkpt><trkpt lat="44.5530694" lon="8.5742268"><ele>597.3333333333334</ele><time>2026-04-01T12:22:33.972Z</time></trkpt><trkpt lat="44.553115" lon="8.5743329"><ele>597.1666666666666</ele><time>2026-04-01T12:22:36.97Z</time></trkpt><trkpt lat="44.5531499" lon="8.5744619"><ele>597.0</ele><time>2026-04-01T12:22:39.972Z</time></trkpt><trkpt lat="44.5531789" lon="8.574599"><ele>597.0</ele><time>2026-04-01T12:22:41.972Z</time></trkpt><trkpt lat="44.5531952" lon="8.5747151"><ele>597.0</ele><time>2026-04-01T12:22:43.972Z</time></trkpt><trkpt lat="44.5532321" lon="8.5747983"><ele>597.0</ele><time>2026-04-01T12:22:46.971Z</time></trkpt><trkpt lat="44.5533705" lon="8.5748525"><ele>597.0</ele><time>2026-04-01T12:37:53.971Z</time></trkpt><trkpt lat="44.5534548" lon="8.5748873"><ele>597.0</ele><time>2026-04-01T12:37:55.971Z</time></trkpt><trkpt lat="44.5535139" lon="8.574918"><ele>597.0</ele><time>2026-04-01T12:37:59.973Z</time></trkpt><trkpt lat="44.5536395" lon="8.5749428"><ele>598.25</ele><time>2026-04-01T12:38:27.971Z</time></trkpt><trkpt lat="44.553752" lon="8.5750307"><ele>599.5</ele><time>2026-04-01T12:38:29.971Z</time></trkpt><trkpt lat="44.5538597" lon="8.5751259"><ele>600.75</ele><time>2026-04-01T12:38:31.971Z</time></trkpt><trkpt lat="44.5539138" lon="8.5751759"><ele>602.0</ele><time>2026-04-01T12:38:32.971Z</time></trkpt><trkpt lat="44.5540344" lon="8.5753084"><ele>603.5</ele><time>2026-04-01T12:38:34.973Z</time></trkpt><trkpt lat="44.5541004" lon="8.5754468"><ele>605.0</ele><time>2026-04-01T12:38:36.971Z</time></trkpt><trkpt lat="44.5541012" lon="8.5756101"><ele>606.5</ele><time>2026-04-01T12:38:38.971Z</time></trkpt><trkpt lat="44.5541155" lon="8.5758231"><ele>608.0</ele><time>2026-04-01T12:38:40.972Z</time></trkpt><trkpt lat="44.5541403" lon="8.5761739"><ele>606.6666666666666</ele><time>2026-04-01T12:38:43.971Z</time></trkpt><trkpt lat="44.5541865" lon="8.5763508"><ele>605.3333333333334</ele><time>2026-04-01T12:38:45.971Z</time></trkpt><trkpt lat="44.5543134" lon="8.5765498"><ele>604.0</ele><time>2026-04-01T12:38:47.972Z</time></trkpt><trkpt lat="44.5544363" lon="8.5767316"><ele>604.0</ele><time>2026-04-01T12:38:49.971Z</time></trkpt><trkpt lat="44.5545232" lon="8.5768724"><ele>604.0</ele><time>2026-04-01T12:38:51.971Z</time></trkpt><trkpt lat="44.5545482" lon="8.577029"><ele>604.0</ele><time>2026-04-01T12:38:53.972Z</time></trkpt><trkpt lat="44.554565" lon="8.5771853"><ele>604.0</ele><time>2026-04-01T12:38:55.974Z</time></trkpt><trkpt lat="44.5546348" lon="8.5773086"><ele>606.1666666666667</ele><time>2026-04-01T12:38:59.972Z</time></trkpt><trkpt lat="44.5547107" lon="8.5773593"><ele>608.3333333333334</ele><time>2026-04-01T12:39:02.972Z</time></trkpt><trkpt lat="44.5547703" lon="8.5773986"><ele>610.5</ele><time>2026-04-01T12:39:04.972Z</time></trkpt><trkpt lat="44.5548435" lon="8.5774669"><ele>612.6666666666666</ele><time>2026-04-01T12:39:06.973Z</time></trkpt><trkpt lat="44.5549072" lon="8.577512"><ele>614.8333333333333</ele><time>2026-04-01T12:39:08.973Z</time></trkpt><trkpt lat="44.5550004" lon="8.5776413"><ele>617.0</ele><time>2026-04-01T12:39:11.973Z</time></trkpt><trkpt lat="44.5550765" lon="8.5777193"><ele>617.0</ele><time>2026-04-01T12:39:13.972Z</time></trkpt><trkpt lat="44.5551356" lon="8.5777973"><ele>617.0</ele><time>2026-04-01T12:39:15.972Z</time></trkpt><trkpt lat="44.5551697" lon="8.5778984"><ele>617.0</ele><time>2026-04-01T12:39:17.973Z</time></trkpt><trkpt lat="44.5551816" lon="8.5780079"><ele>617.0</ele><time>2026-04-01T12:39:19.97Z</time></trkpt><trkpt lat="44.5551677" lon="8.5781524"><ele>617.0</ele><time>2026-04-01T12:39:23.973Z</time></trkpt><trkpt lat="44.5550826" lon="8.5782393"><ele>617.0</ele><time>2026-04-01T12:39:47.971Z</time></trkpt><trkpt lat="44.554962" lon="8.5782626"><ele>618.0</ele><time>2026-04-01T12:39:50.972Z</time></trkpt><trkpt lat="44.5548839" lon="8.5782704"><ele>619.0</ele><time>2026-04-01T12:39:52.973Z</time></trkpt><trkpt lat="44.5547833" lon="8.5783348"><ele>620.0</ele><time>2026-04-01T12:39:54.971Z</time></trkpt><trkpt lat="44.5547228" lon="8.57836"><ele>621.0</ele><time>2026-04-01T12:39:55.971Z</time></trkpt><trkpt lat="44.5546109" lon="8.5783602"><ele>622.0</ele><time>2026-04-01T12:39:57.97Z</time></trkpt><trkpt lat="44.5545494" lon="8.57838"><ele>623.0</ele><time>2026-04-01T12:39:59.971Z</time></trkpt><trkpt lat="44.5546177" lon="8.5785281"><ele>623.0</ele><time>2026-04-01T12:40:54.97Z</time></trkpt><trkpt lat="44.5547002" lon="8.5786167"><ele>623.0</ele><time>2026-04-01T12:40:56.971Z</time></trkpt><trkpt lat="44.5547964" lon="8.5786815"><ele>623.0</ele><time>2026-04-01T12:40:58.973Z</time></trkpt><trkpt lat="44.5548766" lon="8.5787437"><ele>623.0</ele><time>2026-04-01T12:41:00.971Z</time></trkpt><trkpt lat="44.5549591" lon="8.5788496"><ele>623.0</ele><time>2026-04-01T12:41:02.972Z</time></trkpt><trkpt lat="44.5550427" lon="8.5789497"><ele>620.1666666666666</ele><time>2026-04-01T12:41:04.974Z</time></trkpt><trkpt lat="44.5551067" lon="8.5790597"><ele>617.3333333333333</ele><time>2026-04-01T12:41:06.974Z</time></trkpt><trkpt lat="44.5551313" lon="8.5791502"><ele>614.5</ele><time>2026-04-01T12:41:08.973Z</time></trkpt><trkpt lat="44.5551059" lon="8.5792547"><ele>611.6666666666666</ele><time>2026-04-01T12:41:11.975Z</time></trkpt><trkpt lat="44.5551036" lon="8.5793555"><ele>608.8333333333334</ele><time>2026-04-01T12:41:13.972Z</time></trkpt><trkpt lat="44.5551097" lon="8.5794776"><ele>606.0</ele><time>2026-04-01T12:41:16.971Z</time></trkpt><trkpt lat="44.5551018" lon="8.5795893"><ele>603.0</ele><time>2026-04-01T12:41:19.97Z</time></trkpt><trkpt lat="44.5551226" lon="8.5797546"><ele>600.0</ele><time>2026-04-01T12:41:23.972Z</time></trkpt><trkpt lat="44.555117" lon="8.5798523"><ele>597.0</ele><time>2026-04-01T12:41:25.971Z</time></trkpt><trkpt lat="44.555052" lon="8.5799249"><ele>594.0</ele><time>2026-04-01T12:41:27.971Z</time></trkpt><trkpt lat="44.5549892" lon="8.5800171"><ele>591.0</ele><time>2026-04-01T12:41:29.972Z</time></trkpt><trkpt lat="44.554975" lon="8.5801806"><ele>591.0</ele><time>2026-04-01T12:41:32.972Z</time></trkpt><trkpt lat="44.5549882" lon="8.5802924"><ele>591.0</ele><time>2026-04-01T12:41:34.971Z</time></trkpt><trkpt lat="44.5550218" lon="8.5804584"><ele>591.0</ele><time>2026-04-01T12:41:38.971Z</time></trkpt><trkpt lat="44.5550518" lon="8.5805474"><ele>591.0</ele><time>2026-04-01T12:41:40.97Z</time></trkpt><trkpt lat="44.5551281" lon="8.5806329"><ele>591.0</ele><time>2026-04-01T12:41:43.97Z</time></trkpt><trkpt lat="44.5552218" lon="8.5807021"><ele>592.4</ele><time>2026-04-01T12:41:47.972Z</time></trkpt><trkpt lat="44.5552889" lon="8.580717"><ele>593.8</ele><time>2026-04-01T12:41:49.971Z</time></trkpt><trkpt lat="44.555388" lon="8.5807065"><ele>595.1999999999999</ele><time>2026-04-01T12:41:52.971Z</time></trkpt><trkpt lat="44.5554749" lon="8.5807182"><ele>596.6</ele><time>2026-04-01T12:41:56.971Z</time></trkpt><trkpt lat="44.5555796" lon="8.5807487"><ele>598.0</ele><time>2026-04-01T12:42:17.97Z</time></trkpt><trkpt lat="44.5555801" lon="8.580875"><ele>598.0</ele><time>2026-04-01T12:42:33.97Z</time></trkpt><trkpt lat="44.5555243" lon="8.5809693"><ele>598.0</ele><time>2026-04-01T12:42:39.972Z</time></trkpt><trkpt lat="44.5554848" lon="8.5810783"><ele>598.0</ele><time>2026-04-01T12:45:04.973Z</time></trkpt><trkpt lat="44.5554417" lon="8.5812055"><ele>598.0</ele><time>2026-04-01T12:45:06.973Z</time></trkpt><trkpt lat="44.5553447" lon="8.5813683"><ele>598.0</ele><time>2026-04-01T12:45:08.971Z</time></trkpt><trkpt lat="44.5552775" lon="8.5814514"><ele>592.6</ele><time>2026-04-01T12:45:09.972Z</time></trkpt><trkpt lat="44.5551503" lon="8.5815896"><ele>587.1999999999999</ele><time>2026-04-01T12:45:11.97Z</time></trkpt><trkpt lat="44.5550921" lon="8.5816301"><ele>581.8</ele><time>2026-04-01T12:45:12.971Z</time></trkpt><trkpt lat="44.5550312" lon="8.5817075"><ele>576.4</ele><time>2026-04-01T12:45:14.971Z</time></trkpt><trkpt lat="44.5550897" lon="8.5817815"><ele>571.0</ele><time>2026-04-01T12:45:16.973Z</time></trkpt><trkpt lat="44.5551956" lon="8.581779"><ele>571.0</ele><time>2026-04-01T12:45:18.971Z</time></trkpt><trkpt lat="44.5552818" lon="8.5817782"><ele>571.0</ele><time>2026-04-01T12:45:20.972Z</time></trkpt><trkpt lat="44.5553596" lon="8.5817939"><ele>571.0</ele><time>2026-04-01T12:45:22.972Z</time></trkpt><trkpt lat="44.5554221" lon="8.5818251"><ele>571.0</ele><time>2026-04-01T12:45:24.972Z</time></trkpt><trkpt lat="44.5555025" lon="8.5818575"><ele>571.0</ele><time>2026-04-01T12:45:27.972Z</time></trkpt><trkpt lat="44.5555473" lon="8.581928"><ele>571.0</ele><time>2026-04-01T12:45:29.972Z</time></trkpt><trkpt lat="44.5555871" lon="8.5820207"><ele>568.1666666666667</ele><time>2026-04-01T12:45:31.971Z</time></trkpt><trkpt lat="44.55563" lon="8.582125"><ele>565.3333333333334</ele><time>2026-04-01T12:45:33.971Z</time></trkpt><trkpt lat="44.5556515" lon="8.5822525"><ele>562.5</ele><time>2026-04-01T12:45:36.97Z</time></trkpt><trkpt lat="44.5556646" lon="8.5823798"><ele>559.6666666666666</ele><time>2026-04-01T12:45:39.97Z</time></trkpt><trkpt lat="44.555684" lon="8.5824712"><ele>556.8333333333333</ele><time>2026-04-01T12:45:42.971Z</time></trkpt><trkpt lat="44.5557476" lon="8.582517"><ele>554.0</ele><time>2026-04-01T12:45:48.971Z</time></trkpt><trkpt lat="44.5558084" lon="8.5825453"><ele>554.0</ele><time>2026-04-01T12:45:52.971Z</time></trkpt><trkpt lat="44.5558662" lon="8.5825888"><ele>554.0</ele><time>2026-04-01T12:45:55.97Z</time></trkpt><trkpt lat="44.5559692" lon="8.5826385"><ele>554.0</ele><time>2026-04-01T12:45:58.972Z</time></trkpt><trkpt lat="44.5560748" lon="8.5826883"><ele>554.0</ele><time>2026-04-01T12:46:01.971Z</time></trkpt><trkpt lat="44.5561828" lon="8.5827354"><ele>554.0</ele><time>2026-04-01T12:46:04.971Z</time></trkpt><trkpt lat="44.5562605" lon="8.5827598"><ele>556.1666666666666</ele><time>2026-04-01T12:46:06.971Z</time></trkpt><trkpt lat="44.5563615" lon="8.5827858"><ele>558.3333333333333</ele><time>2026-04-01T12:46:08.974Z</time></trkpt><trkpt lat="44.5564635" lon="8.5828235"><ele>560.5</ele><time>2026-04-01T12:46:11.971Z</time></trkpt><trkpt lat="44.556513" lon="8.5828853"><ele>562.6666666666666</ele><time>2026-04-01T12:46:15.971Z</time></trkpt><trkpt lat="44.5565498" lon="8.5829743"><ele>564.8333333333334</ele><time>2026-04-01T12:46:19.971Z</time></trkpt><trkpt lat="44.5565737" lon="8.5830813"><ele>567.0</ele><time>2026-04-01T12:46:25.971Z</time></trkpt><trkpt lat="44.5566145" lon="8.5831845"><ele>561.8333333333334</ele><time>2026-04-01T12:46:29.973Z</time></trkpt><trkpt lat="44.5566529" lon="8.5832663"><ele>556.6666666666666</ele><time>2026-04-01T12:46:32.972Z</time></trkpt><trkpt lat="44.5567052" lon="8.5833702"><ele>551.5</ele><time>2026-04-01T12:46:36.972Z</time></trkpt><trkpt lat="44.5568005" lon="8.5834764"><ele>546.3333333333333</ele><time>2026-04-01T12:46:40.971Z</time></trkpt><trkpt lat="44.5568592" lon="8.5835189"><ele>541.1666666666666</ele><time>2026-04-01T12:46:42.971Z</time></trkpt><trkpt lat="44.5569325" lon="8.5835582"><ele>536.0</ele><time>2026-04-01T12:46:44.972Z</time></trkpt><trkpt lat="44.5570357" lon="8.5835981"><ele>538.25</ele><time>2026-04-01T12:46:47.972Z</time></trkpt><trkpt lat="44.5571136" lon="8.5836644"><ele>540.5</ele><time>2026-04-01T12:47:52.97Z</time></trkpt><trkpt lat="44.5572016" lon="8.5837938"><ele>542.75</ele><time>2026-04-01T12:48:59.972Z</time></trkpt><trkpt lat="44.5573023" lon="8.5838753"><ele>545.0</ele><time>2026-04-01T12:49:01.971Z</time></trkpt><trkpt lat="44.5574446" lon="8.5839339"><ele>544.6666666666666</ele><time>2026-04-01T12:49:03.973Z</time></trkpt><trkpt lat="44.5575089" lon="8.5839388"><ele>544.3333333333333</ele><time>2026-04-01T12:49:04.973Z</time></trkpt><trkpt lat="44.557583" lon="8.5839332"><ele>544.0</ele><time>2026-04-01T12:49:06.975Z</time></trkpt><trkpt lat="44.5576807" lon="8.5839323"><ele>543.6666666666666</ele><time>2026-04-01T12:49:35.971Z</time></trkpt><trkpt lat="44.5577529" lon="8.5838745"><ele>543.3333333333334</ele><time>2026-04-01T12:49:37.971Z</time></trkpt><trkpt lat="44.5578456" lon="8.5837749"><ele>543.0</ele><time>2026-04-01T12:49:39.972Z</time></trkpt><trkpt lat="44.5579077" lon="8.5837177"><ele>543.0</ele><time>2026-04-01T12:49:40.972Z</time></trkpt><trkpt lat="44.5579676" lon="8.5836697"><ele>543.0</ele><time>2026-04-01T12:49:41.97Z</time></trkpt><trkpt lat="44.5580826" lon="8.5836387"><ele>543.0</ele><time>2026-04-01T12:49:44.972Z</time></trkpt><trkpt lat="44.5581774" lon="8.5837914"><ele>543.0</ele><time>2026-04-01T12:49:47.974Z</time></trkpt><trkpt lat="44.5582988" lon="8.5838235"><ele>543.0</ele><time>2026-04-01T12:49:50.972Z</time></trkpt><trkpt lat="44.5583616" lon="8.5837573"><ele>543.0</ele><time>2026-04-01T12:49:53.971Z</time></trkpt><trkpt lat="44.558428" lon="8.583673"><ele>543.0</ele><time>2026-04-01T12:49:55.972Z</time></trkpt><trkpt lat="44.5585131" lon="8.5835973"><ele>543.0</ele><time>2026-04-01T12:49:57.973Z</time></trkpt><trkpt lat="44.5586644" lon="8.583441"><ele>544.6666666666666</ele><time>2026-04-01T12:50:00.97Z</time></trkpt><trkpt lat="44.5587271" lon="8.5834725"><ele>546.3333333333334</ele><time>2026-04-01T12:50:04.972Z</time></trkpt><trkpt lat="44.5587857" lon="8.5835071"><ele>548.0</ele><time>2026-04-01T12:53:27.97Z</time></trkpt><trkpt lat="44.5587309" lon="8.5834199"><ele>549.6666666666667</ele><time>2026-04-01T13:28:58.973Z</time></trkpt><trkpt lat="44.5587601" lon="8.5832969"><ele>551.3333333333334</ele><time>2026-04-01T13:29:24.97Z</time></trkpt><trkpt lat="44.5588198" lon="8.5831887"><ele>553.0</ele><time>2026-04-01T13:29:26.972Z</time></trkpt><trkpt lat="44.5588837" lon="8.5830602"><ele>553.0</ele><time>2026-04-01T13:29:28.971Z</time></trkpt><trkpt lat="44.558934" lon="8.5829446"><ele>553.0</ele><time>2026-04-01T13:29:30.972Z</time></trkpt><trkpt lat="44.5589884" lon="8.5828523"><ele>553.0</ele><time>2026-04-01T13:29:32.972Z</time></trkpt><trkpt lat="44.559037" lon="8.5827166"><ele>553.0</ele><time>2026-04-01T13:29:35.972Z</time></trkpt><trkpt lat="44.5590386" lon="8.5826259"><ele>553.0</ele><time>2026-04-01T13:29:37.972Z</time></trkpt><trkpt lat="44.5590257" lon="8.5825223"><ele>553.0</ele><time>2026-04-01T13:29:39.972Z</time></trkpt><trkpt lat="44.558999" lon="8.5823669"><ele>550.4</ele><time>2026-04-01T13:29:42.97Z</time></trkpt><trkpt lat="44.5590099" lon="8.5822053"><ele>547.8</ele><time>2026-04-01T13:29:44.972Z</time></trkpt><trkpt lat="44.5590071" lon="8.5820624"><ele>545.2</ele><time>2026-04-01T13:29:46.97Z</time></trkpt><trkpt lat="44.5590126" lon="8.5819494"><ele>542.6</ele><time>2026-04-01T13:29:48.972Z</time></trkpt><trkpt lat="44.5590106" lon="8.5818596"><ele>540.0</ele><time>2026-04-01T13:29:50.972Z</time></trkpt><trkpt lat="44.559" lon="8.5817258"><ele>537.8</ele><time>2026-04-01T13:29:53.971Z</time></trkpt><trkpt lat="44.5589873" lon="8.5816033"><ele>535.6</ele><time>2026-04-01T13:29:55.971Z</time></trkpt><trkpt lat="44.5590009" lon="8.5814652"><ele>533.4</ele><time>2026-04-01T13:29:57.973Z</time></trkpt><trkpt lat="44.5590079" lon="8.5813717"><ele>531.2</ele><time>2026-04-01T13:29:58.971Z</time></trkpt><trkpt lat="44.5590371" lon="8.5812033"><ele>529.0</ele><time>2026-04-01T13:30:00.973Z</time></trkpt><trkpt lat="44.5590838" lon="8.5811063"><ele>528.3333333333334</ele><time>2026-04-01T13:30:02.972Z</time></trkpt><trkpt lat="44.5591252" lon="8.5810287"><ele>527.6666666666667</ele><time>2026-04-01T13:30:06.972Z</time></trkpt><trkpt lat="44.5591548" lon="8.5809047"><ele>527.0</ele><time>2026-04-01T13:30:13.971Z</time></trkpt><trkpt lat="44.559184" lon="8.5807661"><ele>526.3333333333334</ele><time>2026-04-01T13:30:22.973Z</time></trkpt><trkpt lat="44.559165" lon="8.5806792"><ele>525.6666666666666</ele><time>2026-04-01T13:30:27.973Z</time></trkpt><trkpt lat="44.5591232" lon="8.5806003"><ele>525.0</ele><time>2026-04-01T13:30:31.975Z</time></trkpt><trkpt lat="44.5590885" lon="8.5805265"><ele>525.0</ele><time>2026-04-01T13:30:43.974Z</time></trkpt><trkpt lat="44.5590632" lon="8.5804421"><ele>525.0</ele><time>2026-04-01T13:30:47.972Z</time></trkpt><trkpt lat="44.5590526" lon="8.5803471"><ele>525.0</ele><time>2026-04-01T13:33:06.971Z</time></trkpt><trkpt lat="44.5590587" lon="8.5802277"><ele>525.0</ele><time>2026-04-01T13:33:09.971Z</time></trkpt><trkpt lat="44.5590863" lon="8.5801406"><ele>525.0</ele><time>2026-04-01T13:33:12.972Z</time></trkpt><trkpt lat="44.5591232" lon="8.5800339"><ele>525.0</ele><time>2026-04-01T13:33:16.972Z</time></trkpt><trkpt lat="44.5591423" lon="8.5799477"><ele>525.0</ele><time>2026-04-01T13:33:18.972Z</time></trkpt><trkpt lat="44.559164" lon="8.5798521"><ele>524.3333333333334</ele><time>2026-04-01T13:33:20.971Z</time></trkpt><trkpt lat="44.5591742" lon="8.5797418"><ele>523.6666666666666</ele><time>2026-04-01T13:33:23.972Z</time></trkpt><trkpt lat="44.5591985" lon="8.579654"><ele>523.0</ele><time>2026-04-01T13:33:26.973Z</time></trkpt><trkpt lat="44.5592392" lon="8.5795714"><ele>522.3333333333333</ele><time>2026-04-01T13:33:29.972Z</time></trkpt><trkpt lat="44.5592574" lon="8.5794416"><ele>521.6666666666666</ele><time>2026-04-01T13:33:31.973Z</time></trkpt><trkpt lat="44.5592898" lon="8.5793204"><ele>521.0</ele><time>2026-04-01T13:33:33.974Z</time></trkpt><trkpt lat="44.5593484" lon="8.5791372"><ele>522.0</ele><time>2026-04-01T13:33:36.973Z</time></trkpt><trkpt lat="44.5594263" lon="8.5790009"><ele>523.0</ele><time>2026-04-01T13:33:38.972Z</time></trkpt><trkpt lat="44.5594616" lon="8.5789248"><ele>524.0</ele><time>2026-04-01T13:33:39.972Z</time></trkpt><trkpt lat="44.5594846" lon="8.5787803"><ele>525.0</ele><time>2026-04-01T13:33:41.971Z</time></trkpt><trkpt lat="44.5595338" lon="8.5786587"><ele>526.0</ele><time>2026-04-01T13:33:43.972Z</time></trkpt><trkpt lat="44.5596324" lon="8.5786522"><ele>526.0</ele><time>2026-04-01T13:33:45.97Z</time></trkpt><trkpt lat="44.5597431" lon="8.5786747"><ele>526.0</ele><time>2026-04-01T13:33:47.972Z</time></trkpt><trkpt lat="44.5598345" lon="8.5786963"><ele>526.0</ele><time>2026-04-01T13:33:49.973Z</time></trkpt><trkpt lat="44.5599354" lon="8.578671"><ele>526.0</ele><time>2026-04-01T13:33:54.972Z</time></trkpt><trkpt lat="44.5601272" lon="8.5786443"><ele>526.0</ele><time>2026-04-01T13:33:57.971Z</time></trkpt><trkpt lat="44.5602278" lon="8.5786281"><ele>526.0</ele><time>2026-04-01T13:33:59.97Z</time></trkpt><trkpt lat="44.5602909" lon="8.5785289"><ele>526.0</ele><time>2026-04-01T13:34:02.971Z</time></trkpt><trkpt lat="44.5602807" lon="8.578402"><ele>526.0</ele><time>2026-04-01T13:34:06.972Z</time></trkpt><trkpt lat="44.5602634" lon="8.5782173"><ele>526.0</ele><time>2026-04-01T13:34:09.971Z</time></trkpt><trkpt lat="44.5602958" lon="8.5781082"><ele>526.0</ele><time>2026-04-01T13:34:11.973Z</time></trkpt><trkpt lat="44.5603587" lon="8.5780146"><ele>526.0</ele><time>2026-04-01T13:34:13.972Z</time></trkpt><trkpt lat="44.5604367" lon="8.5779205"><ele>526.0</ele><time>2026-04-01T13:34:15.971Z</time></trkpt><trkpt lat="44.5604269" lon="8.5777527"><ele>526.0</ele><time>2026-04-01T13:34:18.973Z</time></trkpt><trkpt lat="44.5603754" lon="8.5776186"><ele>526.0</ele><time>2026-04-01T13:34:20.972Z</time></trkpt><trkpt lat="44.5602696" lon="8.5774279"><ele>525.3333333333334</ele><time>2026-04-01T13:34:23.971Z</time></trkpt><trkpt lat="44.5602295" lon="8.5773109"><ele>524.6666666666667</ele><time>2026-04-01T13:34:25.972Z</time></trkpt><trkpt lat="44.5602307" lon="8.5772147"><ele>524.0</ele><time>2026-04-01T13:34:27.971Z</time></trkpt><trkpt lat="44.5602494" lon="8.5771183"><ele>523.3333333333334</ele><time>2026-04-01T13:34:29.971Z</time></trkpt><trkpt lat="44.5602738" lon="8.5770354"><ele>522.6666666666666</ele><time>2026-04-01T13:34:31.97Z</time></trkpt><trkpt lat="44.5603476" lon="8.5769193"><ele>522.0</ele><time>2026-04-01T13:34:34.97Z</time></trkpt><trkpt lat="44.5604085" lon="8.5768388"><ele>514.4</ele><time>2026-04-01T13:34:45.971Z</time></trkpt><trkpt lat="44.5604372" lon="8.5767418"><ele>506.80000000000007</ele><time>2026-04-01T13:34:47.971Z</time></trkpt><trkpt lat="44.5604279" lon="8.5766224"><ele>499.2</ele><time>2026-04-01T13:34:49.971Z</time></trkpt><trkpt lat="44.5604659" lon="8.5764969"><ele>491.6</ele><time>2026-04-01T13:34:51.974Z</time></trkpt><trkpt lat="44.5604974" lon="8.5763547"><ele>484.0</ele><time>2026-04-01T13:34:53.969Z</time></trkpt><trkpt lat="44.5605044" lon="8.5762023"><ele>481.5</ele><time>2026-04-01T13:34:55.971Z</time></trkpt><trkpt lat="44.5605773" lon="8.5759958"><ele>479.0</ele><time>2026-04-01T13:34:58.971Z</time></trkpt><trkpt lat="44.5605969" lon="8.5758681"><ele>476.5</ele><time>2026-04-01T13:35:00.97Z</time></trkpt><trkpt lat="44.5605998" lon="8.5757296"><ele>474.0</ele><time>2026-04-01T13:35:02.971Z</time></trkpt><trkpt lat="44.5605885" lon="8.5754864"><ele>472.6666666666667</ele><time>2026-04-01T13:35:05.971Z</time></trkpt><trkpt lat="44.5605948" lon="8.5753265"><ele>471.33333333333337</ele><time>2026-04-01T13:35:07.973Z</time></trkpt><trkpt lat="44.5606091" lon="8.5751556"><ele>470.0</ele><time>2026-04-01T13:35:09.973Z</time></trkpt><trkpt lat="44.5606088" lon="8.5750605"><ele>468.6666666666667</ele><time>2026-04-01T13:35:10.972Z</time></trkpt><trkpt lat="44.5606008" lon="8.5749702"><ele>467.33333333333337</ele><time>2026-04-01T13:35:11.974Z</time></trkpt><trkpt lat="44.5606002" lon="8.5748786"><ele>466.0</ele><time>2026-04-01T13:35:12.972Z</time></trkpt><trkpt lat="44.5606032" lon="8.5747801"><ele>466.0</ele><time>2026-04-01T13:35:13.972Z</time></trkpt><trkpt lat="44.5606229" lon="8.5746115"><ele>466.0</ele><time>2026-04-01T13:35:15.973Z</time></trkpt><trkpt lat="44.560592" lon="8.5745272"><ele>466.0</ele><time>2026-04-01T13:35:17.971Z</time></trkpt><trkpt lat="44.5605121" lon="8.5745228"><ele>466.0</ele><time>2026-04-01T13:35:19.973Z</time></trkpt><trkpt lat="44.5604001" lon="8.574467"><ele>466.0</ele><time>2026-04-01T13:35:22.97Z</time></trkpt><trkpt lat="44.560342" lon="8.574383"><ele>468.6</ele><time>2026-04-01T13:35:24.971Z</time></trkpt><trkpt lat="44.560342" lon="8.5742083"><ele>471.20000000000005</ele><time>2026-04-01T13:35:27.971Z</time></trkpt><trkpt lat="44.5603561" lon="8.5740922"><ele>473.79999999999995</ele><time>2026-04-01T13:35:30.972Z</time></trkpt><trkpt lat="44.5602886" lon="8.5740193"><ele>476.4</ele><time>2026-04-01T13:35:34.972Z</time></trkpt><trkpt lat="44.5602088" lon="8.5739566"><ele>479.0</ele><time>2026-04-01T13:35:36.971Z</time></trkpt><trkpt lat="44.5601935" lon="8.5738427"><ele>479.0</ele><time>2026-04-01T13:35:38.971Z</time></trkpt><trkpt lat="44.560231" lon="8.5737209"><ele>479.0</ele><time>2026-04-01T13:35:40.972Z</time></trkpt><trkpt lat="44.5602988" lon="8.5736063"><ele>479.0</ele><time>2026-04-01T13:35:42.973Z</time></trkpt><trkpt lat="44.5603635" lon="8.5734841"><ele>479.0</ele><time>2026-04-01T13:35:44.971Z</time></trkpt><trkpt lat="44.5604386" lon="8.5732974"><ele>474.6</ele><time>2026-04-01T13:35:47.973Z</time></trkpt><trkpt lat="44.5604436" lon="8.5731848"><ele>470.2</ele><time>2026-04-01T13:35:49.973Z</time></trkpt><trkpt lat="44.5603994" lon="8.5730931"><ele>465.80000000000007</ele><time>2026-04-01T13:35:51.973Z</time></trkpt><trkpt lat="44.5603234" lon="8.5729775"><ele>461.40000000000003</ele><time>2026-04-01T13:35:53.972Z</time></trkpt><trkpt lat="44.5602862" lon="8.5728631"><ele>457.0</ele><time>2026-04-01T13:35:55.973Z</time></trkpt><trkpt lat="44.560124" lon="8.572861"><ele>453.0</ele><time>2026-04-01T13:35:59.972Z</time></trkpt><trkpt lat="44.5599973" lon="8.5728524"><ele>449.00000000000006</ele><time>2026-04-01T13:36:01.971Z</time></trkpt><trkpt lat="44.5598932" lon="8.5728062"><ele>445.00000000000006</ele><time>2026-04-01T13:36:03.972Z</time></trkpt><trkpt lat="44.5598303" lon="8.5726488"><ele>441.0</ele><time>2026-04-01T13:36:06.971Z</time></trkpt><trkpt lat="44.5598471" lon="8.5725478"><ele>437.0</ele><time>2026-04-01T13:36:08.971Z</time></trkpt><trkpt lat="44.5598963" lon="8.5724572"><ele>437.0</ele><time>2026-04-01T13:36:10.97Z</time></trkpt><trkpt lat="44.5599402" lon="8.5722805"><ele>437.00000000000006</ele><time>2026-04-01T13:36:13.972Z</time></trkpt><trkpt lat="44.5599667" lon="8.5721064"><ele>437.00000000000006</ele><time>2026-04-01T13:36:16.972Z</time></trkpt><trkpt lat="44.5599982" lon="8.5719916"><ele>437.0</ele><time>2026-04-01T13:36:19.971Z</time></trkpt><trkpt lat="44.5600773" lon="8.5719065"><ele>437.0</ele><time>2026-04-01T13:36:24.973Z</time></trkpt><trkpt lat="44.5601632" lon="8.5718629"><ele>433.8</ele><time>2026-04-01T13:36:26.973Z</time></trkpt><trkpt lat="44.5602663" lon="8.5718139"><ele>430.6</ele><time>2026-04-01T13:36:28.974Z</time></trkpt><trkpt lat="44.5603747" lon="8.5717551"><ele>427.40000000000003</ele><time>2026-04-01T13:36:30.974Z</time></trkpt><trkpt lat="44.5604358" lon="8.5717207"><ele>424.20000000000005</ele><time>2026-04-01T13:36:31.975Z</time></trkpt><trkpt lat="44.5605024" lon="8.5716837"><ele>421.0</ele><time>2026-04-01T13:36:32.975Z</time></trkpt><trkpt lat="44.5606229" lon="8.5716225"><ele>419.83333333333337</ele><time>2026-04-01T13:36:34.972Z</time></trkpt><trkpt lat="44.560716" lon="8.5715569"><ele>418.6666666666667</ele><time>2026-04-01T13:36:36.97Z</time></trkpt><trkpt lat="44.5607961" lon="8.5714943"><ele>417.5</ele><time>2026-04-01T13:36:38.971Z</time></trkpt><trkpt lat="44.5608438" lon="8.5714217"><ele>416.33333333333337</ele><time>2026-04-01T13:36:42.972Z</time></trkpt><trkpt lat="44.5609095" lon="8.5713312"><ele>415.1666666666667</ele><time>2026-04-01T13:36:46.971Z</time></trkpt><trkpt lat="44.5609746" lon="8.5712785"><ele>414.0</ele><time>2026-04-01T13:37:43.971Z</time></trkpt><trkpt lat="44.5610703" lon="8.5712172"><ele>418.0</ele><time>2026-04-01T13:37:46.971Z</time></trkpt><trkpt lat="44.5611332" lon="8.5711863"><ele>422.0</ele><time>2026-04-01T13:37:47.97Z</time></trkpt><trkpt lat="44.5613184" lon="8.5711474"><ele>426.0</ele><time>2026-04-01T13:37:49.97Z</time></trkpt><trkpt lat="44.5615124" lon="8.5711561"><ele>430.0</ele><time>2026-04-01T13:37:51.97Z</time></trkpt><trkpt lat="44.5615997" lon="8.5711546"><ele>430.0</ele><time>2026-04-01T13:37:52.972Z</time></trkpt><trkpt lat="44.5616925" lon="8.571133"><ele>430.0</ele><time>2026-04-01T13:37:53.971Z</time></trkpt><trkpt lat="44.5618824" lon="8.5710315"><ele>430.0</ele><time>2026-04-01T13:37:55.971Z</time></trkpt><trkpt lat="44.5620607" lon="8.5709546"><ele>431.2</ele><time>2026-04-01T13:37:57.972Z</time></trkpt><trkpt lat="44.5621365" lon="8.5709057"><ele>432.4</ele><time>2026-04-01T13:37:58.972Z</time></trkpt><trkpt lat="44.5623103" lon="8.5708429"><ele>433.6</ele><time>2026-04-01T13:38:00.975Z</time></trkpt><trkpt lat="44.5623949" lon="8.570823"><ele>434.8</ele><time>2026-04-01T13:38:01.972Z</time></trkpt><trkpt lat="44.5624822" lon="8.5708251"><ele>436.0</ele><time>2026-04-01T13:38:02.973Z</time></trkpt><trkpt lat="44.5625625" lon="8.5708322"><ele>436.0</ele><time>2026-04-01T13:38:03.972Z</time></trkpt><trkpt lat="44.5626348" lon="8.5708334"><ele>436.0</ele><time>2026-04-01T13:38:04.971Z</time></trkpt><trkpt lat="44.5627112" lon="8.5708319"><ele>436.0</ele><time>2026-04-01T13:38:05.972Z</time></trkpt><trkpt lat="44.5628659" lon="8.5707916"><ele>436.0</ele><time>2026-04-01T13:38:07.976Z</time></trkpt><trkpt lat="44.5630454" lon="8.5706999"><ele>434.75</ele><time>2026-04-01T13:38:09.974Z</time></trkpt><trkpt lat="44.5631459" lon="8.5705723"><ele>433.5</ele><time>2026-04-01T13:38:11.97Z</time></trkpt><trkpt lat="44.5631528" lon="8.5704682"><ele>432.25</ele><time>2026-04-01T13:38:12.971Z</time></trkpt><trkpt lat="44.563143" lon="8.5703111"><ele>431.0</ele><time>2026-04-01T13:38:13.972Z</time></trkpt><trkpt lat="44.5631471" lon="8.5701283"><ele>433.20000000000005</ele><time>2026-04-01T13:38:14.974Z</time></trkpt><trkpt lat="44.5631619" lon="8.5699446"><ele>435.40000000000003</ele><time>2026-04-01T13:38:15.97Z</time></trkpt><trkpt lat="44.5631992" lon="8.5697055"><ele>437.6</ele><time>2026-04-01T13:38:17.974Z</time></trkpt><trkpt lat="44.563224" lon="8.5696124"><ele>439.8</ele><time>2026-04-01T13:38:18.972Z</time></trkpt><trkpt lat="44.5632393" lon="8.5695128"><ele>442.0</ele><time>2026-04-01T13:38:19.972Z</time></trkpt><trkpt lat="44.5632886" lon="8.5692885"><ele>444.20000000000005</ele><time>2026-04-01T13:38:22.971Z</time></trkpt><trkpt lat="44.5633149" lon="8.5691806"><ele>446.40000000000003</ele><time>2026-04-01T13:38:24.973Z</time></trkpt><trkpt lat="44.5634595" lon="8.5691654"><ele>448.59999999999997</ele><time>2026-04-01T13:38:27.971Z</time></trkpt><trkpt lat="44.5635525" lon="8.5691617"><ele>450.79999999999995</ele><time>2026-04-01T13:38:29.973Z</time></trkpt><trkpt lat="44.5636395" lon="8.5690941"><ele>453.0</ele><time>2026-04-01T13:38:31.975Z</time></trkpt><trkpt lat="44.5637034" lon="8.5690513"><ele>446.25</ele><time>2026-04-01T13:38:32.974Z</time></trkpt><trkpt lat="44.5638273" lon="8.5690202"><ele>439.5</ele><time>2026-04-01T13:38:34.971Z</time></trkpt><trkpt lat="44.56391" lon="8.5690734"><ele>432.75</ele><time>2026-04-01T13:38:36.971Z</time></trkpt><trkpt lat="44.5640429" lon="8.5690886"><ele>426.0</ele><time>2026-04-01T13:38:39.971Z</time></trkpt><trkpt lat="44.5641917" lon="8.5690131"><ele>426.0</ele><time>2026-04-01T13:38:41.971Z</time></trkpt><trkpt lat="44.5642626" lon="8.5689589"><ele>426.0</ele><time>2026-04-01T13:38:42.971Z</time></trkpt><trkpt lat="44.5643408" lon="8.5688825"><ele>426.0</ele><time>2026-04-01T13:38:43.972Z</time></trkpt><trkpt lat="44.5644425" lon="8.5687774"><ele>426.0</ele><time>2026-04-01T13:38:44.972Z</time></trkpt><trkpt lat="44.5646161" lon="8.5685782"><ele>423.0</ele><time>2026-04-01T13:38:46.972Z</time></trkpt><trkpt lat="44.564728" lon="8.5683511"><ele>420.0</ele><time>2026-04-01T13:38:48.973Z</time></trkpt><trkpt lat="44.564759" lon="8.5682437"><ele>417.0</ele><time>2026-04-01T13:38:49.97Z</time></trkpt><trkpt lat="44.5647736" lon="8.5681475"><ele>414.0</ele><time>2026-04-01T13:38:50.971Z</time></trkpt><trkpt lat="44.564786" lon="8.5679931"><ele>416.25</ele><time>2026-04-01T13:38:52.971Z</time></trkpt><trkpt lat="44.5648139" lon="8.5677431"><ele>418.5</ele><time>2026-04-01T13:38:55.972Z</time></trkpt><trkpt lat="44.5648707" lon="8.5675666"><ele>420.75</ele><time>2026-04-01T13:38:57.971Z</time></trkpt><trkpt lat="44.5648994" lon="8.5674717"><ele>423.0</ele><time>2026-04-01T13:38:58.971Z</time></trkpt><trkpt lat="44.5649292" lon="8.5673685"><ele>423.0</ele><time>2026-04-01T13:38:59.971Z</time></trkpt><trkpt lat="44.5649453" lon="8.5672815"><ele>423.0</ele><time>2026-04-01T13:39:00.971Z</time></trkpt><trkpt lat="44.5649867" lon="8.5671141"><ele>423.0</ele><time>2026-04-01T13:39:02.972Z</time></trkpt><trkpt lat="44.5650056" lon="8.5669387"><ele>423.0</ele><time>2026-04-01T13:39:04.971Z</time></trkpt><trkpt lat="44.5650476" lon="8.5667835"><ele>423.0</ele><time>2026-04-01T13:39:06.972Z</time></trkpt><trkpt lat="44.5651067" lon="8.5667264"><ele>421.25</ele><time>2026-04-01T13:39:07.973Z</time></trkpt><trkpt lat="44.5652228" lon="8.5666036"><ele>419.5</ele><time>2026-04-01T13:39:09.972Z</time></trkpt><trkpt lat="44.5652664" lon="8.5665101"><ele>417.75</ele><time>2026-04-01T13:39:10.971Z</time></trkpt><trkpt lat="44.5653005" lon="8.566291"><ele>416.0</ele><time>2026-04-01T13:39:12.971Z</time></trkpt><trkpt lat="44.5653135" lon="8.5661869"><ele>414.8</ele><time>2026-04-01T13:39:13.971Z</time></trkpt><trkpt lat="44.5653572" lon="8.5660667"><ele>413.6</ele><time>2026-04-01T13:39:15.972Z</time></trkpt><trkpt lat="44.5654511" lon="8.5659974"><ele>412.4</ele><time>2026-04-01T13:39:17.973Z</time></trkpt><trkpt lat="44.5655164" lon="8.5659259"><ele>411.2</ele><time>2026-04-01T13:39:18.97Z</time></trkpt><trkpt lat="44.5655892" lon="8.5658383"><ele>410.0</ele><time>2026-04-01T13:39:19.973Z</time></trkpt><trkpt lat="44.5656641" lon="8.5657548"><ele>409.3333333333333</ele><time>2026-04-01T13:39:20.972Z</time></trkpt><trkpt lat="44.5657262" lon="8.5656779"><ele>408.66666666666663</ele><time>2026-04-01T13:39:21.971Z</time></trkpt><trkpt lat="44.5657692" lon="8.5656096"><ele>408.0</ele><time>2026-04-01T13:39:22.972Z</time></trkpt><trkpt lat="44.5658034" lon="8.5655003"><ele>407.33333333333337</ele><time>2026-04-01T13:39:24.972Z</time></trkpt><trkpt lat="44.5658334" lon="8.5653481"><ele>406.6666666666667</ele><time>2026-04-01T13:39:28.972Z</time></trkpt><trkpt lat="44.5658301" lon="8.5652284"><ele>406.0</ele><time>2026-04-01T13:39:31.972Z</time></trkpt><trkpt lat="44.5658188" lon="8.5651069"><ele>406.0</ele><time>2026-04-01T13:39:34.972Z</time></trkpt><trkpt lat="44.565713" lon="8.5651476"><ele>406.0</ele><time>2026-04-01T13:40:18.971Z</time></trkpt><trkpt lat="44.5656395" lon="8.5651794"><ele>406.0</ele><time>2026-04-01T13:40:19.971Z</time></trkpt><trkpt lat="44.5655425" lon="8.565217"><ele>406.0</ele><time>2026-04-01T13:40:20.971Z</time></trkpt><trkpt lat="44.565362" lon="8.5652807"><ele>406.8</ele><time>2026-04-01T13:40:22.97Z</time></trkpt><trkpt lat="44.5652646" lon="8.5653322"><ele>407.6</ele><time>2026-04-01T13:40:23.971Z</time></trkpt><trkpt lat="44.5650751" lon="8.5654349"><ele>408.4</ele><time>2026-04-01T13:40:25.971Z</time></trkpt><trkpt lat="44.5650053" lon="8.5654681"><ele>409.2</ele><time>2026-04-01T13:40:26.972Z</time></trkpt><trkpt lat="44.5649506" lon="8.5654125"><ele>410.0</ele><time>2026-04-01T13:40:28.973Z</time></trkpt><trkpt lat="44.5649918" lon="8.5652691"><ele>410.4</ele><time>2026-04-01T13:40:30.971Z</time></trkpt><trkpt lat="44.5649686" lon="8.5651503"><ele>410.8</ele><time>2026-04-01T13:40:32.972Z</time></trkpt><trkpt lat="44.5648919" lon="8.5650059"><ele>411.20000000000005</ele><time>2026-04-01T13:40:35.972Z</time></trkpt><trkpt lat="44.5648434" lon="8.5648784"><ele>411.6</ele><time>2026-04-01T13:40:37.971Z</time></trkpt><trkpt lat="44.5648656" lon="8.5647406"><ele>412.0</ele><time>2026-04-01T13:40:39.97Z</time></trkpt><trkpt lat="44.5649025" lon="8.5646681"><ele>416.25</ele><time>2026-04-01T13:40:40.973Z</time></trkpt><trkpt lat="44.5649767" lon="8.564523"><ele>420.5</ele><time>2026-04-01T13:40:42.971Z</time></trkpt><trkpt lat="44.5650319" lon="8.5643322"><ele>424.75</ele><time>2026-04-01T13:40:44.972Z</time></trkpt><trkpt lat="44.5650513" lon="8.5641198"><ele>429.0</ele><time>2026-04-01T13:40:46.971Z</time></trkpt><trkpt lat="44.5650479" lon="8.564019"><ele>429.0</ele><time>2026-04-01T13:40:47.971Z</time></trkpt><trkpt lat="44.5650616" lon="8.5638664"><ele>429.0</ele><time>2026-04-01T13:40:49.972Z</time></trkpt><trkpt lat="44.5652099" lon="8.563829"><ele>429.0</ele><time>2026-04-01T13:40:52.971Z</time></trkpt><trkpt lat="44.5653329" lon="8.5638039"><ele>429.0</ele><time>2026-04-01T13:40:54.971Z</time></trkpt><trkpt lat="44.5654019" lon="8.5637819"><ele>428.8333333333333</ele><time>2026-04-01T13:40:55.971Z</time></trkpt><trkpt lat="44.5654819" lon="8.5637071"><ele>428.66666666666663</ele><time>2026-04-01T13:40:57.97Z</time></trkpt><trkpt lat="44.5654963" lon="8.5636053"><ele>428.5</ele><time>2026-04-01T13:40:59.972Z</time></trkpt><trkpt lat="44.5654898" lon="8.5635112"><ele>428.3333333333333</ele><time>2026-04-01T13:41:01.972Z</time></trkpt><trkpt lat="44.5654278" lon="8.5634657"><ele>428.16666666666663</ele><time>2026-04-01T13:41:03.972Z</time></trkpt><trkpt lat="44.5653575" lon="8.5634022"><ele>428.0</ele><time>2026-04-01T13:41:05.972Z</time></trkpt><trkpt lat="44.5653756" lon="8.5632159"><ele>432.0</ele><time>2026-04-01T13:41:08.972Z</time></trkpt><trkpt lat="44.5653975" lon="8.5630594"><ele>435.99999999999994</ele><time>2026-04-01T13:41:10.971Z</time></trkpt><trkpt lat="44.5653844" lon="8.5629497"><ele>439.99999999999994</ele><time>2026-04-01T13:41:11.973Z</time></trkpt><trkpt lat="44.5653605" lon="8.5628307"><ele>444.0</ele><time>2026-04-01T13:41:12.971Z</time></trkpt><trkpt lat="44.5653479" lon="8.562716"><ele>448.0</ele><time>2026-04-01T13:41:13.971Z</time></trkpt><trkpt lat="44.5653136" lon="8.5625874"><ele>449.79999999999995</ele><time>2026-04-01T13:41:15.972Z</time></trkpt><trkpt lat="44.5653223" lon="8.5624607"><ele>451.59999999999997</ele><time>2026-04-01T13:41:18.973Z</time></trkpt><trkpt lat="44.5653215" lon="8.5623597"><ele>453.40000000000003</ele><time>2026-04-01T13:41:20.973Z</time></trkpt><trkpt lat="44.5653172" lon="8.5622547"><ele>455.20000000000005</ele><time>2026-04-01T13:41:23.971Z</time></trkpt><trkpt lat="44.5652732" lon="8.5621166"><ele>457.0</ele><time>2026-04-01T13:44:42.972Z</time></trkpt><trkpt lat="44.5652501" lon="8.5618247"><ele>458.0</ele><time>2026-04-01T13:44:45.97Z</time></trkpt><trkpt lat="44.5652404" lon="8.5615925"><ele>459.00000000000006</ele><time>2026-04-01T13:44:47.972Z</time></trkpt><trkpt lat="44.5652421" lon="8.5614712"><ele>460.00000000000006</ele><time>2026-04-01T13:44:48.971Z</time></trkpt><trkpt lat="44.5652503" lon="8.56135"><ele>461.0</ele><time>2026-04-01T13:44:49.972Z</time></trkpt><trkpt lat="44.5652634" lon="8.5612379"><ele>462.0</ele><time>2026-04-01T13:44:50.972Z</time></trkpt><trkpt lat="44.5653199" lon="8.5610637"><ele>465.75</ele><time>2026-04-01T13:44:52.971Z</time></trkpt><trkpt lat="44.5654002" lon="8.5609095"><ele>469.5</ele><time>2026-04-01T13:44:54.972Z</time></trkpt><trkpt lat="44.5654935" lon="8.5608147"><ele>473.25</ele><time>2026-04-01T13:44:56.974Z</time></trkpt><trkpt lat="44.5656648" lon="8.5607138"><ele>477.0</ele><time>2026-04-01T13:44:59.973Z</time></trkpt><trkpt lat="44.5657188" lon="8.5606614"><ele>477.0</ele><time>2026-04-01T13:45:00.971Z</time></trkpt><trkpt lat="44.5657694" lon="8.5606032"><ele>477.00000000000006</ele><time>2026-04-01T13:45:01.971Z</time></trkpt><trkpt lat="44.5658252" lon="8.5605441"><ele>477.00000000000006</ele><time>2026-04-01T13:45:02.973Z</time></trkpt><trkpt lat="44.5659348" lon="8.5604279"><ele>477.0</ele><time>2026-04-01T13:45:04.973Z</time></trkpt><trkpt lat="44.5660425" lon="8.5602772"><ele>477.0</ele><time>2026-04-01T13:45:06.972Z</time></trkpt><trkpt lat="44.5660968" lon="8.560191"><ele>482.33333333333337</ele><time>2026-04-01T13:45:07.971Z</time></trkpt><trkpt lat="44.5662018" lon="8.5600034"><ele>487.6666666666667</ele><time>2026-04-01T13:45:09.97Z</time></trkpt><trkpt lat="44.5662654" lon="8.5599125"><ele>493.0</ele><time>2026-04-01T13:45:10.972Z</time></trkpt><trkpt lat="44.5664407" lon="8.5597527"><ele>493.0</ele><time>2026-04-01T13:45:12.971Z</time></trkpt><trkpt lat="44.5666217" lon="8.5596657"><ele>493.0</ele><time>2026-04-01T13:45:14.972Z</time></trkpt><trkpt lat="44.5667161" lon="8.5596631"><ele>493.0</ele><time>2026-04-01T13:45:15.97Z</time></trkpt><trkpt lat="44.5667972" lon="8.5596952"><ele>493.0</ele><time>2026-04-01T13:45:16.971Z</time></trkpt><trkpt lat="44.56688" lon="8.559719"><ele>493.0</ele><time>2026-04-01T13:45:17.972Z</time></trkpt><trkpt lat="44.5669662" lon="8.5597277"><ele>492.99999999999994</ele><time>2026-04-01T13:45:18.972Z</time></trkpt><trkpt lat="44.5670549" lon="8.5597263"><ele>492.99999999999994</ele><time>2026-04-01T13:45:19.974Z</time></trkpt><trkpt lat="44.5672389" lon="8.559721"><ele>493.0</ele><time>2026-04-01T13:45:21.973Z</time></trkpt><trkpt lat="44.5673276" lon="8.559743"><ele>493.0</ele><time>2026-04-01T13:45:22.972Z</time></trkpt><trkpt lat="44.5674148" lon="8.559774"><ele>494.59999999999997</ele><time>2026-04-01T13:45:23.974Z</time></trkpt><trkpt lat="44.5675074" lon="8.5598197"><ele>496.19999999999993</ele><time>2026-04-01T13:45:24.974Z</time></trkpt><trkpt lat="44.5676011" lon="8.5598734"><ele>497.8</ele><time>2026-04-01T13:45:25.973Z</time></trkpt><trkpt lat="44.567695" lon="8.5599205"><ele>499.4</ele><time>2026-04-01T13:45:26.972Z</time></trkpt><trkpt lat="44.5677869" lon="8.5599435"><ele>501.0</ele><time>2026-04-01T13:45:27.971Z</time></trkpt><trkpt lat="44.5678828" lon="8.5599399"><ele>501.0</ele><time>2026-04-01T13:45:28.973Z</time></trkpt><trkpt lat="44.5679741" lon="8.5599168"><ele>501.0</ele><time>2026-04-01T13:45:29.973Z</time></trkpt><trkpt lat="44.5680732" lon="8.5598836"><ele>501.0</ele><time>2026-04-01T13:45:30.972Z</time></trkpt><trkpt lat="44.5682641" lon="8.5598004"><ele>501.0</ele><time>2026-04-01T13:45:32.973Z</time></trkpt><trkpt lat="44.5684556" lon="8.5596996"><ele>501.0</ele><time>2026-04-01T13:45:34.973Z</time></trkpt><trkpt lat="44.5685434" lon="8.5596389"><ele>501.0</ele><time>2026-04-01T13:45:35.972Z</time></trkpt><trkpt lat="44.5686176" lon="8.5595569"><ele>501.0</ele><time>2026-04-01T13:45:36.971Z</time></trkpt><trkpt lat="44.5686832" lon="8.5594503"><ele>501.0</ele><time>2026-04-01T13:45:37.971Z</time></trkpt><trkpt lat="44.5687866" lon="8.5592109"><ele>505.0</ele><time>2026-04-01T13:45:39.971Z</time></trkpt><trkpt lat="44.5689123" lon="8.5590338"><ele>509.0</ele><time>2026-04-01T13:45:41.972Z</time></trkpt><trkpt lat="44.5690753" lon="8.5588824"><ele>513.0</ele><time>2026-04-01T13:45:43.972Z</time></trkpt><trkpt lat="44.5691661" lon="8.5588161"><ele>513.0</ele><time>2026-04-01T13:45:44.973Z</time></trkpt><trkpt lat="44.5692513" lon="8.5587605"><ele>513.0</ele><time>2026-04-01T13:45:45.972Z</time></trkpt><trkpt lat="44.569323" lon="8.5587167"><ele>513.0</ele><time>2026-04-01T13:45:46.972Z</time></trkpt><trkpt lat="44.5693953" lon="8.5586872"><ele>513.0</ele><time>2026-04-01T13:45:47.971Z</time></trkpt><trkpt lat="44.5694701" lon="8.5586703"><ele>513.0</ele><time>2026-04-01T13:45:48.97Z</time></trkpt><trkpt lat="44.5695507" lon="8.5586579"><ele>513.0</ele><time>2026-04-01T13:45:49.972Z</time></trkpt><trkpt lat="44.5696373" lon="8.5586565"><ele>513.6</ele><time>2026-04-01T13:45:50.972Z</time></trkpt><trkpt lat="44.5697245" lon="8.5586646"><ele>514.1999999999999</ele><time>2026-04-01T13:45:51.971Z</time></trkpt><trkpt lat="44.5698104" lon="8.5586896"><ele>514.8</ele><time>2026-04-01T13:45:52.97Z</time></trkpt><trkpt lat="44.56996" lon="8.5587739"><ele>515.4</ele><time>2026-04-01T13:45:54.971Z</time></trkpt><trkpt lat="44.5700227" lon="8.5588097"><ele>516.0</ele><time>2026-04-01T13:45:55.971Z</time></trkpt><trkpt lat="44.5701396" lon="8.5587987"><ele>516.0</ele><time>2026-04-01T13:45:57.979Z</time></trkpt><trkpt lat="44.5701977" lon="8.5587321"><ele>516.0</ele><time>2026-04-01T13:45:58.972Z</time></trkpt><trkpt lat="44.5702555" lon="8.5586324"><ele>516.0</ele><time>2026-04-01T13:45:59.972Z</time></trkpt><trkpt lat="44.570305" lon="8.5585177"><ele>516.0</ele><time>2026-04-01T13:46:00.972Z</time></trkpt><trkpt lat="44.5703574" lon="8.5583996"><ele>516.0</ele><time>2026-04-01T13:46:01.974Z</time></trkpt><trkpt lat="44.5704732" lon="8.5581797"><ele>512.8</ele><time>2026-04-01T13:46:03.971Z</time></trkpt><trkpt lat="44.5706044" lon="8.5579919"><ele>509.6</ele><time>2026-04-01T13:46:05.972Z</time></trkpt><trkpt lat="44.570675" lon="8.5579282"><ele>506.4</ele><time>2026-04-01T13:46:06.972Z</time></trkpt><trkpt lat="44.5707417" lon="8.5578818"><ele>503.2</ele><time>2026-04-01T13:46:07.972Z</time></trkpt><trkpt lat="44.5708168" lon="8.5578727"><ele>500.0</ele><time>2026-04-01T13:46:08.971Z</time></trkpt><trkpt lat="44.5709183" lon="8.5579388"><ele>497.8</ele><time>2026-04-01T13:46:10.971Z</time></trkpt><trkpt lat="44.5709704" lon="8.557804"><ele>495.6</ele><time>2026-04-01T13:46:14.972Z</time></trkpt><trkpt lat="44.5709071" lon="8.5576497"><ele>493.4</ele><time>2026-04-01T13:46:16.972Z</time></trkpt><trkpt lat="44.5708645" lon="8.5575122"><ele>491.2</ele><time>2026-04-01T13:46:18.971Z</time></trkpt><trkpt lat="44.5709295" lon="8.5574792"><ele>489.0</ele><time>2026-04-01T13:46:20.972Z</time></trkpt><trkpt lat="44.5711085" lon="8.5575257"><ele>488.4</ele><time>2026-04-01T13:46:23.971Z</time></trkpt><trkpt lat="44.5712074" lon="8.5574319"><ele>487.79999999999995</ele><time>2026-04-01T13:46:25.972Z</time></trkpt><trkpt lat="44.5712534" lon="8.557278"><ele>487.20000000000005</ele><time>2026-04-01T13:46:27.972Z</time></trkpt><trkpt lat="44.5712892" lon="8.5571318"><ele>486.6</ele><time>2026-04-01T13:46:29.973Z</time></trkpt><trkpt lat="44.5713078" lon="8.5570458"><ele>486.0</ele><time>2026-04-01T13:46:30.972Z</time></trkpt><trkpt lat="44.571363" lon="8.5567959"><ele>486.0</ele><time>2026-04-01T13:46:32.972Z</time></trkpt><trkpt lat="44.571393" lon="8.5566683"><ele>486.0</ele><time>2026-04-01T13:46:33.972Z</time></trkpt><trkpt lat="44.5714224" lon="8.5565666"><ele>486.0</ele><time>2026-04-01T13:46:34.972Z</time></trkpt><trkpt lat="44.5714439" lon="8.5564677"><ele>486.0</ele><time>2026-04-01T13:46:35.971Z</time></trkpt><trkpt lat="44.5714556" lon="8.5563615"><ele>486.0</ele><time>2026-04-01T13:46:36.972Z</time></trkpt><trkpt lat="44.5714664" lon="8.5562552"><ele>486.0</ele><time>2026-04-01T13:46:37.973Z</time></trkpt><trkpt lat="44.5714718" lon="8.5561576"><ele>487.6666666666667</ele><time>2026-04-01T13:46:38.973Z</time></trkpt><trkpt lat="44.5714752" lon="8.556059"><ele>489.33333333333337</ele><time>2026-04-01T13:46:39.972Z</time></trkpt><trkpt lat="44.571479" lon="8.5559592"><ele>491.0</ele><time>2026-04-01T13:46:40.972Z</time></trkpt><trkpt lat="44.5714854" lon="8.5558192"><ele>492.6666666666667</ele><time>2026-04-01T13:46:42.972Z</time></trkpt><trkpt lat="44.571494" lon="8.5557172"><ele>494.33333333333337</ele><time>2026-04-01T13:46:44.972Z</time></trkpt><trkpt lat="44.571513" lon="8.5556086"><ele>496.0</ele><time>2026-04-01T13:46:46.972Z</time></trkpt><trkpt lat="44.5715294" lon="8.5555047"><ele>496.0</ele><time>2026-04-01T13:46:48.971Z</time></trkpt><trkpt lat="44.5715495" lon="8.5553865"><ele>496.0</ele><time>2026-04-01T13:46:50.971Z</time></trkpt><trkpt lat="44.5715638" lon="8.5552604"><ele>496.0</ele><time>2026-04-01T13:46:52.972Z</time></trkpt><trkpt lat="44.5715863" lon="8.5551204"><ele>496.0</ele><time>2026-04-01T13:46:54.971Z</time></trkpt><trkpt lat="44.5716214" lon="8.554966"><ele>496.0</ele><time>2026-04-01T13:46:56.975Z</time></trkpt><trkpt lat="44.5716742" lon="8.5547719"><ele>498.20000000000005</ele><time>2026-04-01T13:46:59.971Z</time></trkpt><trkpt lat="44.5717168" lon="8.5545932"><ele>500.40000000000003</ele><time>2026-04-01T13:47:01.973Z</time></trkpt><trkpt lat="44.5717621" lon="8.5544585"><ele>502.6</ele><time>2026-04-01T13:47:03.973Z</time></trkpt><trkpt lat="44.5718129" lon="8.5543909"><ele>504.8</ele><time>2026-04-01T13:47:06.97Z</time></trkpt><trkpt lat="44.5718966" lon="8.5543521"><ele>507.0</ele><time>2026-04-01T13:47:10.972Z</time></trkpt><trkpt lat="44.5719793" lon="8.5543283"><ele>509.20000000000005</ele><time>2026-04-01T13:47:14.971Z</time></trkpt><trkpt lat="44.5720996" lon="8.5542907"><ele>511.40000000000003</ele><time>2026-04-01T13:47:18.972Z</time></trkpt><trkpt lat="44.5721661" lon="8.5542549"><ele>513.5999999999999</ele><time>2026-04-01T13:47:22.973Z</time></trkpt><trkpt lat="44.5722429" lon="8.5542259"><ele>515.8</ele><time>2026-04-01T13:48:22.97Z</time></trkpt><trkpt lat="44.5723062" lon="8.554211"><ele>518.0</ele><time>2026-04-01T13:48:23.971Z</time></trkpt><trkpt lat="44.5724572" lon="8.554176"><ele>518.0</ele><time>2026-04-01T13:48:25.972Z</time></trkpt><trkpt lat="44.5726301" lon="8.5541068"><ele>518.0</ele><time>2026-04-01T13:48:27.97Z</time></trkpt><trkpt lat="44.5727328" lon="8.5540681"><ele>518.0</ele><time>2026-04-01T13:48:28.971Z</time></trkpt><trkpt lat="44.5728361" lon="8.5540295"><ele>518.0</ele><time>2026-04-01T13:48:29.972Z</time></trkpt><trkpt lat="44.5729384" lon="8.5539913"><ele>519.75</ele><time>2026-04-01T13:48:30.972Z</time></trkpt><trkpt lat="44.5731357" lon="8.553905"><ele>521.5</ele><time>2026-04-01T13:48:32.974Z</time></trkpt><trkpt lat="44.5732345" lon="8.5538644"><ele>523.25</ele><time>2026-04-01T13:48:33.97Z</time></trkpt><trkpt lat="44.573327" lon="8.5538281"><ele>525.0</ele><time>2026-04-01T13:48:34.973Z</time></trkpt><trkpt lat="44.5734134" lon="8.5537941"><ele>525.0</ele><time>2026-04-01T13:48:35.971Z</time></trkpt><trkpt lat="44.5734895" lon="8.553756"><ele>525.0</ele><time>2026-04-01T13:48:36.971Z</time></trkpt><trkpt lat="44.5735576" lon="8.553713"><ele>525.0</ele><time>2026-04-01T13:48:37.972Z</time></trkpt><trkpt lat="44.5736775" lon="8.5536179"><ele>525.0</ele><time>2026-04-01T13:48:39.972Z</time></trkpt><trkpt lat="44.5737784" lon="8.5535449"><ele>525.0</ele><time>2026-04-01T13:48:41.971Z</time></trkpt><trkpt lat="44.5738925" lon="8.5535388"><ele>527.0</ele><time>2026-04-01T13:48:43.972Z</time></trkpt><trkpt lat="44.5740048" lon="8.5535863"><ele>529.0</ele><time>2026-04-01T13:48:45.972Z</time></trkpt><trkpt lat="44.5741145" lon="8.5536029"><ele>531.0</ele><time>2026-04-01T13:48:47.972Z</time></trkpt><trkpt lat="44.5742307" lon="8.5535822"><ele>533.0</ele><time>2026-04-01T13:48:49.972Z</time></trkpt><trkpt lat="44.5743457" lon="8.5535349"><ele>533.0</ele><time>2026-04-01T13:48:51.972Z</time></trkpt><trkpt lat="44.5745186" lon="8.5533944"><ele>533.0</ele><time>2026-04-01T13:48:54.972Z</time></trkpt><trkpt lat="44.5745725" lon="8.5533399"><ele>533.0</ele><time>2026-04-01T13:48:55.972Z</time></trkpt><trkpt lat="44.5746261" lon="8.5532838"><ele>533.0</ele><time>2026-04-01T13:48:56.972Z</time></trkpt><trkpt lat="44.5746814" lon="8.5532305"><ele>533.0</ele><time>2026-04-01T13:48:57.972Z</time></trkpt><trkpt lat="44.5747396" lon="8.553184"><ele>534.25</ele><time>2026-04-01T13:48:58.972Z</time></trkpt><trkpt lat="44.5748501" lon="8.5530998"><ele>535.5</ele><time>2026-04-01T13:49:00.973Z</time></trkpt><trkpt lat="44.5749738" lon="8.5530375"><ele>536.75</ele><time>2026-04-01T13:49:02.973Z</time></trkpt><trkpt lat="44.5750766" lon="8.5530345"><ele>538.0</ele><time>2026-04-01T13:49:04.971Z</time></trkpt><trkpt lat="44.5752375" lon="8.5531244"><ele>538.25</ele><time>2026-04-01T13:49:07.971Z</time></trkpt><trkpt lat="44.5753676" lon="8.5532536"><ele>538.5</ele><time>2026-04-01T13:49:10.971Z</time></trkpt><trkpt lat="44.5754744" lon="8.5533527"><ele>538.75</ele><time>2026-04-01T13:49:12.972Z</time></trkpt><trkpt lat="44.5755406" lon="8.5534099"><ele>539.0</ele><time>2026-04-01T13:49:13.971Z</time></trkpt><trkpt lat="44.575673" lon="8.5535059"><ele>539.0</ele><time>2026-04-01T13:49:15.972Z</time></trkpt><trkpt lat="44.5757389" lon="8.5535467"><ele>539.0</ele><time>2026-04-01T13:49:16.97Z</time></trkpt><trkpt lat="44.5758153" lon="8.5535924"><ele>539.0</ele><time>2026-04-01T13:49:17.971Z</time></trkpt><trkpt lat="44.5759759" lon="8.5536291"><ele>539.0</ele><time>2026-04-01T13:49:19.972Z</time></trkpt><trkpt lat="44.5760577" lon="8.5536211"><ele>539.0</ele><time>2026-04-01T13:49:20.971Z</time></trkpt><trkpt lat="44.5761419" lon="8.5536211"><ele>536.3333333333333</ele><time>2026-04-01T13:49:21.97Z</time></trkpt><trkpt lat="44.5762305" lon="8.5536285"><ele>533.6666666666666</ele><time>2026-04-01T13:49:22.972Z</time></trkpt><trkpt lat="44.5764203" lon="8.5537131"><ele>531.0</ele><time>2026-04-01T13:49:24.971Z</time></trkpt><trkpt lat="44.5765951" lon="8.5538131"><ele>531.0</ele><time>2026-04-01T13:49:26.973Z</time></trkpt><trkpt lat="44.5766888" lon="8.553848"><ele>531.0</ele><time>2026-04-01T13:49:27.976Z</time></trkpt><trkpt lat="44.5768621" lon="8.5539078"><ele>531.0</ele><time>2026-04-01T13:49:29.972Z</time></trkpt><trkpt lat="44.576949" lon="8.5539294"><ele>531.0</ele><time>2026-04-01T13:49:30.975Z</time></trkpt><trkpt lat="44.577032" lon="8.5539564"><ele>531.0</ele><time>2026-04-01T13:49:31.972Z</time></trkpt><trkpt lat="44.577111" lon="8.5539782"><ele>531.6</ele><time>2026-04-01T13:49:32.973Z</time></trkpt><trkpt lat="44.5772481" lon="8.5540128"><ele>532.2</ele><time>2026-04-01T13:49:34.974Z</time></trkpt><trkpt lat="44.5773336" lon="8.5540466"><ele>532.8</ele><time>2026-04-01T13:49:36.974Z</time></trkpt><trkpt lat="44.5774743" lon="8.5540355"><ele>533.4</ele><time>2026-04-01T13:49:55.971Z</time></trkpt><trkpt lat="44.5775488" lon="8.5540074"><ele>534.0</ele><time>2026-04-01T13:49:56.972Z</time></trkpt><trkpt lat="44.5777058" lon="8.5539046"><ele>534.0</ele><time>2026-04-01T13:49:58.972Z</time></trkpt><trkpt lat="44.5777784" lon="8.553814"><ele>534.0</ele><time>2026-04-01T13:49:59.972Z</time></trkpt><trkpt lat="44.5778435" lon="8.5536941"><ele>534.0</ele><time>2026-04-01T13:50:00.973Z</time></trkpt><trkpt lat="44.5778984" lon="8.5535654"><ele>534.0</ele><time>2026-04-01T13:50:01.97Z</time></trkpt><trkpt lat="44.5780212" lon="8.5533486"><ele>534.0</ele><time>2026-04-01T13:50:03.971Z</time></trkpt><trkpt lat="44.578092" lon="8.5532749"><ele>534.0</ele><time>2026-04-01T13:50:04.971Z</time></trkpt><trkpt lat="44.5781643" lon="8.5532271"><ele>534.0</ele><time>2026-04-01T13:50:05.972Z</time></trkpt><trkpt lat="44.5782472" lon="8.5532134"><ele>534.0</ele><time>2026-04-01T13:50:06.971Z</time></trkpt><trkpt lat="44.5783569" lon="8.5532582"><ele>534.0</ele><time>2026-04-01T13:50:07.972Z</time></trkpt><trkpt lat="44.5784808" lon="8.5532965"><ele>534.0</ele><time>2026-04-01T13:50:08.973Z</time></trkpt><trkpt lat="44.578607" lon="8.5533336"><ele>534.0</ele><time>2026-04-01T13:50:09.972Z</time></trkpt><trkpt lat="44.5787293" lon="8.5533649"><ele>534.0</ele><time>2026-04-01T13:50:10.971Z</time></trkpt><trkpt lat="44.5788394" lon="8.553372"><ele>534.0</ele><time>2026-04-01T13:50:11.971Z</time></trkpt><trkpt lat="44.5789362" lon="8.5533479"><ele>534.4</ele><time>2026-04-01T13:50:12.971Z</time></trkpt><trkpt lat="44.5790236" lon="8.5532914"><ele>534.8</ele><time>2026-04-01T13:50:13.97Z</time></trkpt><trkpt lat="44.5790873" lon="8.5532025"><ele>535.2</ele><time>2026-04-01T13:50:14.976Z</time></trkpt><trkpt lat="44.5791321" lon="8.553086"><ele>535.6</ele><time>2026-04-01T13:50:15.971Z</time></trkpt><trkpt lat="44.5791609" lon="8.5529499"><ele>536.0</ele><time>2026-04-01T13:50:16.972Z</time></trkpt><trkpt lat="44.579151" lon="8.5526514"><ele>536.0</ele><time>2026-04-01T13:50:18.971Z</time></trkpt><trkpt lat="44.5790874" lon="8.5523543"><ele>536.0</ele><time>2026-04-01T13:50:20.974Z</time></trkpt><trkpt lat="44.5790703" lon="8.552204"><ele>536.0</ele><time>2026-04-01T13:50:21.972Z</time></trkpt><trkpt lat="44.5790862" lon="8.5518932"><ele>535.0</ele><time>2026-04-01T13:50:23.972Z</time></trkpt><trkpt lat="44.5791117" lon="8.5517389"><ele>534.0</ele><time>2026-04-01T13:50:24.971Z</time></trkpt><trkpt lat="44.579145" lon="8.5515773"><ele>533.0</ele><time>2026-04-01T13:50:25.97Z</time></trkpt><trkpt lat="44.5792193" lon="8.5512515"><ele>532.75</ele><time>2026-04-01T13:50:27.971Z</time></trkpt><trkpt lat="44.5792498" lon="8.5511072"><ele>532.5</ele><time>2026-04-01T13:50:28.972Z</time></trkpt><trkpt lat="44.5792557" lon="8.5509712"><ele>532.25</ele><time>2026-04-01T13:50:29.972Z</time></trkpt><trkpt lat="44.5791677" lon="8.5507185"><ele>532.0</ele><time>2026-04-01T13:50:31.973Z</time></trkpt><trkpt lat="44.5790841" lon="8.5506013"><ele>532.0</ele><time>2026-04-01T13:50:32.971Z</time></trkpt><trkpt lat="44.5789956" lon="8.5504838"><ele>532.0</ele><time>2026-04-01T13:50:33.974Z</time></trkpt><trkpt lat="44.5789086" lon="8.5503676"><ele>532.0</ele><time>2026-04-01T13:50:34.972Z</time></trkpt><trkpt lat="44.5788314" lon="8.5502521"><ele>532.0</ele><time>2026-04-01T13:50:35.973Z</time></trkpt><trkpt lat="44.5787334" lon="8.5500069"><ele>532.0</ele><time>2026-04-01T13:50:37.972Z</time></trkpt><trkpt lat="44.578738" lon="8.5497473"><ele>532.0</ele><time>2026-04-01T13:50:39.971Z</time></trkpt><trkpt lat="44.578781" lon="8.5496202"><ele>532.0</ele><time>2026-04-01T13:50:40.971Z</time></trkpt><trkpt lat="44.5788576" lon="8.5493326"><ele>532.0</ele><time>2026-04-01T13:50:42.973Z</time></trkpt><trkpt lat="44.5788708" lon="8.5491742"><ele>532.0</ele><time>2026-04-01T13:50:43.972Z</time></trkpt><trkpt lat="44.5788612" lon="8.5490117"><ele>532.0</ele><time>2026-04-01T13:50:44.971Z</time></trkpt><trkpt lat="44.5788311" lon="8.548844"><ele>532.0</ele><time>2026-04-01T13:50:45.973Z</time></trkpt><trkpt lat="44.57877" lon="8.548497"><ele>531.3333333333334</ele><time>2026-04-01T13:50:47.974Z</time></trkpt><trkpt lat="44.5787532" lon="8.5481682"><ele>530.6666666666666</ele><time>2026-04-01T13:50:49.973Z</time></trkpt><trkpt lat="44.5787609" lon="8.5480153"><ele>530.0</ele><time>2026-04-01T13:50:50.974Z</time></trkpt><trkpt lat="44.5788284" lon="8.5477266"><ele>528.5</ele><time>2026-04-01T13:50:52.973Z</time></trkpt><trkpt lat="44.5788764" lon="8.5475826"><ele>527.0</ele><time>2026-04-01T13:50:53.97Z</time></trkpt><trkpt lat="44.5789256" lon="8.5474417"><ele>525.5</ele><time>2026-04-01T13:50:54.973Z</time></trkpt><trkpt lat="44.578962" lon="8.5472992"><ele>524.0</ele><time>2026-04-01T13:50:55.973Z</time></trkpt><trkpt lat="44.5789735" lon="8.5469728"><ele>523.0</ele><time>2026-04-01T13:50:57.971Z</time></trkpt><trkpt lat="44.5789486" lon="8.5467933"><ele>522.0</ele><time>2026-04-01T13:50:58.972Z</time></trkpt><trkpt lat="44.5788757" lon="8.5464107"><ele>521.0</ele><time>2026-04-01T13:51:00.973Z</time></trkpt><trkpt lat="44.5788401" lon="8.5462119"><ele>519.0</ele><time>2026-04-01T13:51:01.972Z</time></trkpt><trkpt lat="44.578804" lon="8.5460101"><ele>517.0</ele><time>2026-04-01T13:51:02.973Z</time></trkpt><trkpt lat="44.5787687" lon="8.545817"><ele>515.0</ele><time>2026-04-01T13:51:03.971Z</time></trkpt><trkpt lat="44.5787357" lon="8.5456359"><ele>513.0</ele><time>2026-04-01T13:51:04.971Z</time></trkpt><trkpt lat="44.5786746" lon="8.5453144"><ele>510.59999999999997</ele><time>2026-04-01T13:51:06.97Z</time></trkpt><trkpt lat="44.5786377" lon="8.5451655"><ele>508.19999999999993</ele><time>2026-04-01T13:51:07.971Z</time></trkpt><trkpt lat="44.5785922" lon="8.545033"><ele>505.8</ele><time>2026-04-01T13:51:08.972Z</time></trkpt><trkpt lat="44.5785298" lon="8.5449167"><ele>503.4</ele><time>2026-04-01T13:51:09.971Z</time></trkpt><trkpt lat="44.5784598" lon="8.5448153"><ele>501.0</ele><time>2026-04-01T13:51:10.972Z</time></trkpt><trkpt lat="44.5783708" lon="8.5445942"><ele>500.5</ele><time>2026-04-01T13:51:12.971Z</time></trkpt><trkpt lat="44.5783854" lon="8.5444715"><ele>500.0</ele><time>2026-04-01T13:51:13.971Z</time></trkpt><trkpt lat="44.5784849" lon="8.5442368"><ele>499.5</ele><time>2026-04-01T13:51:15.971Z</time></trkpt><trkpt lat="44.5785397" lon="8.5441121"><ele>499.0</ele><time>2026-04-01T13:51:16.972Z</time></trkpt><trkpt lat="44.578563" lon="8.5438618"><ele>499.0</ele><time>2026-04-01T13:51:18.973Z</time></trkpt><trkpt lat="44.5785323" lon="8.5437476"><ele>499.0</ele><time>2026-04-01T13:51:19.97Z</time></trkpt><trkpt lat="44.5784113" lon="8.5435207"><ele>499.0</ele><time>2026-04-01T13:51:21.97Z</time></trkpt><trkpt lat="44.5783631" lon="8.5433865"><ele>499.0</ele><time>2026-04-01T13:51:22.969Z</time></trkpt><trkpt lat="44.5783454" lon="8.5431006"><ele>499.25</ele><time>2026-04-01T13:51:24.969Z</time></trkpt><trkpt lat="44.578376" lon="8.5429582"><ele>499.5</ele><time>2026-04-01T13:51:25.971Z</time></trkpt><trkpt lat="44.5784101" lon="8.5428097"><ele>499.75</ele><time>2026-04-01T13:51:26.97Z</time></trkpt><trkpt lat="44.5784383" lon="8.5426536"><ele>500.0</ele><time>2026-04-01T13:51:27.971Z</time></trkpt><trkpt lat="44.5784542" lon="8.5424866"><ele>499.2</ele><time>2026-04-01T13:51:28.97Z</time></trkpt><trkpt lat="44.5784613" lon="8.5423126"><ele>498.4</ele><time>2026-04-01T13:51:29.969Z</time></trkpt><trkpt lat="44.5784668" lon="8.5421427"><ele>497.6</ele><time>2026-04-01T13:51:30.971Z</time></trkpt><trkpt lat="44.5784751" lon="8.5419887"><ele>496.8</ele><time>2026-04-01T13:51:31.97Z</time></trkpt><trkpt lat="44.578494" lon="8.5418604"><ele>496.0</ele><time>2026-04-01T13:51:32.972Z</time></trkpt><trkpt lat="44.5785215" lon="8.5417641"><ele>494.5</ele><time>2026-04-01T13:51:33.971Z</time></trkpt><trkpt lat="44.5785672" lon="8.5416907"><ele>493.0</ele><time>2026-04-01T13:51:34.971Z</time></trkpt><trkpt lat="44.5787172" lon="8.5415923"><ele>491.5</ele><time>2026-04-01T13:51:36.971Z</time></trkpt><trkpt lat="44.5788143" lon="8.541546"><ele>490.0</ele><time>2026-04-01T13:51:37.974Z</time></trkpt><trkpt lat="44.5790334" lon="8.541448"><ele>490.0</ele><time>2026-04-01T13:51:39.971Z</time></trkpt><trkpt lat="44.579143" lon="8.5413945"><ele>490.0</ele><time>2026-04-01T13:51:40.971Z</time></trkpt><trkpt lat="44.5792434" lon="8.5413296"><ele>490.0</ele><time>2026-04-01T13:51:41.97Z</time></trkpt><trkpt lat="44.5793342" lon="8.541254"><ele>490.0</ele><time>2026-04-01T13:51:42.97Z</time></trkpt><trkpt lat="44.5794174" lon="8.5411574"><ele>490.0</ele><time>2026-04-01T13:51:43.971Z</time></trkpt><trkpt lat="44.5795017" lon="8.5410341"><ele>485.33333333333337</ele><time>2026-04-01T13:51:44.971Z</time></trkpt><trkpt lat="44.5795908" lon="8.540906"><ele>480.66666666666663</ele><time>2026-04-01T13:51:45.97Z</time></trkpt><trkpt lat="44.5797974" lon="8.540685"><ele>476.0</ele><time>2026-04-01T13:51:47.97Z</time></trkpt><trkpt lat="44.5800604" lon="8.5405201"><ele>473.5</ele><time>2026-04-01T13:51:49.971Z</time></trkpt><trkpt lat="44.5803476" lon="8.5403437"><ele>471.0</ele><time>2026-04-01T13:51:51.97Z</time></trkpt><trkpt lat="44.5806454" lon="8.540176"><ele>471.0</ele><time>2026-04-01T13:51:53.971Z</time></trkpt><trkpt lat="44.5807832" lon="8.5401027"><ele>471.0</ele><time>2026-04-01T13:51:54.971Z</time></trkpt><trkpt lat="44.5809194" lon="8.5400391"><ele>471.0</ele><time>2026-04-01T13:51:55.971Z</time></trkpt><trkpt lat="44.5811684" lon="8.5399353"><ele>467.25</ele><time>2026-04-01T13:51:57.969Z</time></trkpt><trkpt lat="44.5812626" lon="8.5398732"><ele>463.5</ele><time>2026-04-01T13:51:58.972Z</time></trkpt><trkpt lat="44.5813248" lon="8.5397942"><ele>459.75</ele><time>2026-04-01T13:51:59.971Z</time></trkpt><trkpt lat="44.5813745" lon="8.5397006"><ele>456.0</ele><time>2026-04-01T13:52:00.97Z</time></trkpt><trkpt lat="44.5813657" lon="8.5394404"><ele>456.0</ele><time>2026-04-01T13:52:02.973Z</time></trkpt><trkpt lat="44.5813741" lon="8.5393264"><ele>456.0</ele><time>2026-04-01T13:52:03.971Z</time></trkpt><trkpt lat="44.581433" lon="8.5391894"><ele>456.0</ele><time>2026-04-01T13:52:05.972Z</time></trkpt><trkpt lat="44.5815448" lon="8.539312"><ele>456.0</ele><time>2026-04-01T13:52:07.972Z</time></trkpt><trkpt lat="44.5816095" lon="8.5394927"><ele>455.8</ele><time>2026-04-01T13:52:08.971Z</time></trkpt><trkpt lat="44.5816845" lon="8.5396452"><ele>455.6</ele><time>2026-04-01T13:52:09.971Z</time></trkpt><trkpt lat="44.5817471" lon="8.5397742"><ele>455.4</ele><time>2026-04-01T13:52:10.972Z</time></trkpt><trkpt lat="44.5817735" lon="8.5398863"><ele>455.2</ele><time>2026-04-01T13:52:11.972Z</time></trkpt><trkpt lat="44.5817664" lon="8.5399805"><ele>455.0</ele><time>2026-04-01T13:52:12.97Z</time></trkpt><trkpt lat="44.5816081" lon="8.5400914"><ele>454.99999999999994</ele><time>2026-04-01T13:52:14.971Z</time></trkpt><trkpt lat="44.5815126" lon="8.5401315"><ele>455.0</ele><time>2026-04-01T13:52:15.97Z</time></trkpt><trkpt lat="44.5814299" lon="8.5401904"><ele>455.0</ele><time>2026-04-01T13:52:16.97Z</time></trkpt><trkpt lat="44.5813699" lon="8.5402703"><ele>455.0</ele><time>2026-04-01T13:52:17.971Z</time></trkpt><trkpt lat="44.5813323" lon="8.5403674"><ele>454.99999999999994</ele><time>2026-04-01T13:52:18.971Z</time></trkpt><trkpt lat="44.5813638" lon="8.5404664"><ele>455.0</ele><time>2026-04-01T13:52:19.974Z</time></trkpt><trkpt lat="44.5814357" lon="8.5405278"><ele>455.0</ele><time>2026-04-01T13:52:20.973Z</time></trkpt><trkpt lat="44.581527" lon="8.5405318"><ele>455.0</ele><time>2026-04-01T13:52:21.97Z</time></trkpt><trkpt lat="44.581626" lon="8.5405043"><ele>455.0</ele><time>2026-04-01T13:52:22.971Z</time></trkpt><trkpt lat="44.5817357" lon="8.5404195"><ele>455.0</ele><time>2026-04-01T13:52:23.971Z</time></trkpt><trkpt lat="44.5818493" lon="8.5403408"><ele>455.0</ele><time>2026-04-01T13:52:24.97Z</time></trkpt><trkpt lat="44.5820834" lon="8.5402884"><ele>450.66666666666663</ele><time>2026-04-01T13:52:26.973Z</time></trkpt><trkpt lat="44.5821998" lon="8.5403021"><ele>446.33333333333337</ele><time>2026-04-01T13:52:27.972Z</time></trkpt><trkpt lat="44.5824359" lon="8.540297"><ele>442.0</ele><time>2026-04-01T13:52:29.971Z</time></trkpt><trkpt lat="44.5825526" lon="8.5402818"><ele>442.0</ele><time>2026-04-01T13:52:30.971Z</time></trkpt><trkpt lat="44.5826695" lon="8.5402931"><ele>442.0</ele><time>2026-04-01T13:52:31.97Z</time></trkpt><trkpt lat="44.5827811" lon="8.5403389"><ele>442.0</ele><time>2026-04-01T13:52:32.971Z</time></trkpt><trkpt lat="44.5828856" lon="8.540415"><ele>442.0</ele><time>2026-04-01T13:52:33.972Z</time></trkpt><trkpt lat="44.5829883" lon="8.5405192"><ele>439.25</ele><time>2026-04-01T13:52:34.971Z</time></trkpt><trkpt lat="44.5830909" lon="8.5406406"><ele>436.5</ele><time>2026-04-01T13:52:35.973Z</time></trkpt><trkpt lat="44.5831974" lon="8.540776"><ele>433.75</ele><time>2026-04-01T13:52:36.97Z</time></trkpt><trkpt lat="44.5833066" lon="8.5409243"><ele>431.0</ele><time>2026-04-01T13:52:37.972Z</time></trkpt><trkpt lat="44.5834243" lon="8.5410918"><ele>430.0</ele><time>2026-04-01T13:52:38.972Z</time></trkpt><trkpt lat="44.5835536" lon="8.5412757"><ele>429.0</ele><time>2026-04-01T13:52:39.97Z</time></trkpt><trkpt lat="44.5838288" lon="8.5416476"><ele>429.0</ele><time>2026-04-01T13:52:41.971Z</time></trkpt><trkpt lat="44.5839644" lon="8.5418208"><ele>429.0</ele><time>2026-04-01T13:52:42.971Z</time></trkpt><trkpt lat="44.5840981" lon="8.5419887"><ele>429.0</ele><time>2026-04-01T13:52:43.97Z</time></trkpt><trkpt lat="44.5843686" lon="8.5423157"><ele>430.0</ele><time>2026-04-01T13:52:45.971Z</time></trkpt><trkpt lat="44.5845081" lon="8.5424657"><ele>431.0</ele><time>2026-04-01T13:52:46.974Z</time></trkpt><trkpt lat="44.5847849" lon="8.5427485"><ele>427.5</ele><time>2026-04-01T13:52:48.973Z</time></trkpt><trkpt lat="44.5850316" lon="8.5430627"><ele>424.0</ele><time>2026-04-01T13:52:50.973Z</time></trkpt><trkpt lat="44.5852942" lon="8.543352"><ele>418.5</ele><time>2026-04-01T13:52:52.97Z</time></trkpt><trkpt lat="44.5855883" lon="8.5435807"><ele>413.0</ele><time>2026-04-01T13:52:54.97Z</time></trkpt><trkpt lat="44.5857246" lon="8.5436826"><ele>414.0</ele><time>2026-04-01T13:52:55.971Z</time></trkpt><trkpt lat="44.5858469" lon="8.5437814"><ele>415.0</ele><time>2026-04-01T13:52:56.971Z</time></trkpt><trkpt lat="44.5860476" lon="8.5438962"><ele>416.0</ele><time>2026-04-01T13:52:58.971Z</time></trkpt><trkpt lat="44.5862566" lon="8.5438326"><ele>410.0</ele><time>2026-04-01T13:53:00.972Z</time></trkpt><trkpt lat="44.5864444" lon="8.5435959"><ele>404.0</ele><time>2026-04-01T13:53:02.971Z</time></trkpt><trkpt lat="44.5866277" lon="8.543341"><ele>404.0</ele><time>2026-04-01T13:53:04.971Z</time></trkpt><trkpt lat="44.5867122" lon="8.5432777"><ele>404.0</ele><time>2026-04-01T13:53:05.971Z</time></trkpt><trkpt lat="44.5867916" lon="8.5432514"><ele>404.0</ele><time>2026-04-01T13:53:06.971Z</time></trkpt><trkpt lat="44.5869535" lon="8.5433342"><ele>404.0</ele><time>2026-04-01T13:53:08.974Z</time></trkpt><trkpt lat="44.587158" lon="8.5435051"><ele>403.5</ele><time>2026-04-01T13:53:10.973Z</time></trkpt><trkpt lat="44.5872803" lon="8.5435337"><ele>403.0</ele><time>2026-04-01T13:53:11.971Z</time></trkpt><trkpt lat="44.5874043" lon="8.5435426"><ele>402.5</ele><time>2026-04-01T13:53:12.971Z</time></trkpt><trkpt lat="44.5875191" lon="8.5435489"><ele>402.0</ele><time>2026-04-01T13:53:13.973Z</time></trkpt><trkpt lat="44.587706" lon="8.5437174"><ele>402.0</ele><time>2026-04-01T13:53:15.972Z</time></trkpt><trkpt lat="44.5878204" lon="8.5438459"><ele>402.0</ele><time>2026-04-01T13:53:16.972Z</time></trkpt><trkpt lat="44.5879526" lon="8.5439747"><ele>402.0</ele><time>2026-04-01T13:53:17.972Z</time></trkpt><trkpt lat="44.5880891" lon="8.5440922"><ele>401.0</ele><time>2026-04-01T13:53:18.971Z</time></trkpt><trkpt lat="44.5883154" lon="8.5443574"><ele>400.0</ele><time>2026-04-01T13:53:20.973Z</time></trkpt><trkpt lat="44.5883869" lon="8.5444956"><ele>399.0</ele><time>2026-04-01T13:53:21.972Z</time></trkpt><trkpt lat="44.5884356" lon="8.5448029"><ele>399.0</ele><time>2026-04-01T13:53:23.971Z</time></trkpt><trkpt lat="44.5884145" lon="8.544961"><ele>399.0</ele><time>2026-04-01T13:53:24.969Z</time></trkpt><trkpt lat="44.5883891" lon="8.5452665"><ele>399.0</ele><time>2026-04-01T13:53:26.975Z</time></trkpt><trkpt lat="44.5884138" lon="8.5454295"><ele>399.0</ele><time>2026-04-01T13:53:27.972Z</time></trkpt><trkpt lat="44.588456" lon="8.5455993"><ele>399.0</ele><time>2026-04-01T13:53:28.971Z</time></trkpt><trkpt lat="44.5885171" lon="8.5457719"><ele>399.0</ele><time>2026-04-01T13:53:29.971Z</time></trkpt><trkpt lat="44.5885845" lon="8.545951"><ele>399.0</ele><time>2026-04-01T13:53:30.97Z</time></trkpt><trkpt lat="44.588726" lon="8.546315"><ele>395.75</ele><time>2026-04-01T13:53:32.971Z</time></trkpt><trkpt lat="44.5888153" lon="8.5464827"><ele>392.5</ele><time>2026-04-01T13:53:33.97Z</time></trkpt><trkpt lat="44.5889206" lon="8.5466298"><ele>389.25</ele><time>2026-04-01T13:53:34.972Z</time></trkpt><trkpt lat="44.5890356" lon="8.5467546"><ele>386.0</ele><time>2026-04-01T13:53:35.972Z</time></trkpt><trkpt lat="44.589166" lon="8.5468733"><ele>387.0</ele><time>2026-04-01T13:53:36.97Z</time></trkpt><trkpt lat="44.5894311" lon="8.547111"><ele>388.0</ele><time>2026-04-01T13:53:38.971Z</time></trkpt><trkpt lat="44.5895584" lon="8.5472376"><ele>388.0</ele><time>2026-04-01T13:53:39.97Z</time></trkpt><trkpt lat="44.5897824" lon="8.5475188"><ele>388.0</ele><time>2026-04-01T13:53:41.971Z</time></trkpt><trkpt lat="44.5898858" lon="8.5476619"><ele>388.0</ele><time>2026-04-01T13:53:42.97Z</time></trkpt><trkpt lat="44.5901079" lon="8.5478944"><ele>388.75</ele><time>2026-04-01T13:53:44.972Z</time></trkpt><trkpt lat="44.5902356" lon="8.5479713"><ele>389.5</ele><time>2026-04-01T13:53:45.971Z</time></trkpt><trkpt lat="44.59037" lon="8.5480333"><ele>390.25</ele><time>2026-04-01T13:53:46.971Z</time></trkpt><trkpt lat="44.5905069" lon="8.5480931"><ele>391.0</ele><time>2026-04-01T13:53:47.972Z</time></trkpt><trkpt lat="44.590759" lon="8.548234"><ele>387.0</ele><time>2026-04-01T13:53:49.971Z</time></trkpt><trkpt lat="44.5908694" lon="8.5483339"><ele>383.0</ele><time>2026-04-01T13:53:50.971Z</time></trkpt><trkpt lat="44.5910455" lon="8.5485886"><ele>379.0</ele><time>2026-04-01T13:53:52.971Z</time></trkpt><trkpt lat="44.5911475" lon="8.5487082"><ele>378.66666666666663</ele><time>2026-04-01T13:53:53.971Z</time></trkpt><trkpt lat="44.5912586" lon="8.5488134"><ele>378.3333333333333</ele><time>2026-04-01T13:53:54.971Z</time></trkpt><trkpt lat="44.5913703" lon="8.548911"><ele>378.0</ele><time>2026-04-01T13:53:55.972Z</time></trkpt><trkpt lat="44.5915831" lon="8.5490966"><ele>378.0</ele><time>2026-04-01T13:53:57.971Z</time></trkpt><trkpt lat="44.5916808" lon="8.5491807"><ele>378.0</ele><time>2026-04-01T13:53:58.971Z</time></trkpt><trkpt lat="44.5917714" lon="8.5492495"><ele>378.0</ele><time>2026-04-01T13:53:59.971Z</time></trkpt><trkpt lat="44.5918615" lon="8.5493033"><ele>378.0</ele><time>2026-04-01T13:54:00.972Z</time></trkpt><trkpt lat="44.5920063" lon="8.5493667"><ele>378.2</ele><time>2026-04-01T13:54:02.971Z</time></trkpt><trkpt lat="44.5920342" lon="8.5494753"><ele>378.4</ele><time>2026-04-01T13:54:05.971Z</time></trkpt><trkpt lat="44.5919426" lon="8.5496002"><ele>378.59999999999997</ele><time>2026-04-01T13:54:07.971Z</time></trkpt><trkpt lat="44.5918811" lon="8.5496729"><ele>378.79999999999995</ele><time>2026-04-01T13:54:08.971Z</time></trkpt><trkpt lat="44.5918195" lon="8.5497563"><ele>379.0</ele><time>2026-04-01T13:54:09.973Z</time></trkpt><trkpt lat="44.5917046" lon="8.5499563"><ele>379.0</ele><time>2026-04-01T13:54:11.97Z</time></trkpt><trkpt lat="44.5916545" lon="8.5500718"><ele>379.0</ele><time>2026-04-01T13:54:12.971Z</time></trkpt><trkpt lat="44.5916066" lon="8.5501972"><ele>379.0</ele><time>2026-04-01T13:54:13.97Z</time></trkpt><trkpt lat="44.5915616" lon="8.5503213"><ele>379.0</ele><time>2026-04-01T13:54:14.971Z</time></trkpt><trkpt lat="44.591487" lon="8.5505601"><ele>378.2</ele><time>2026-04-01T13:54:16.971Z</time></trkpt><trkpt lat="44.5914122" lon="8.5508038"><ele>377.4</ele><time>2026-04-01T13:54:18.971Z</time></trkpt><trkpt lat="44.5913768" lon="8.5509213"><ele>376.6</ele><time>2026-04-01T13:54:19.971Z</time></trkpt><trkpt lat="44.5913474" lon="8.5510288"><ele>375.8</ele><time>2026-04-01T13:54:20.972Z</time></trkpt><trkpt lat="44.5913189" lon="8.5511262"><ele>375.0</ele><time>2026-04-01T13:54:21.97Z</time></trkpt><trkpt lat="44.5912928" lon="8.5512153"><ele>374.8333333333333</ele><time>2026-04-01T13:54:22.971Z</time></trkpt><trkpt lat="44.5912685" lon="8.5512999"><ele>374.6666666666667</ele><time>2026-04-01T13:54:23.97Z</time></trkpt><trkpt lat="44.5912288" lon="8.5514509"><ele>374.5</ele><time>2026-04-01T13:54:25.972Z</time></trkpt><trkpt lat="44.5911524" lon="8.5515462"><ele>374.33333333333337</ele><time>2026-04-01T13:54:28.971Z</time></trkpt><trkpt lat="44.5910711" lon="8.5515276"><ele>374.1666666666667</ele><time>2026-04-01T13:54:31.971Z</time></trkpt><trkpt lat="44.5910041" lon="8.5514826"><ele>374.0</ele><time>2026-04-01T13:54:34.971Z</time></trkpt><trkpt lat="44.5910554" lon="8.5517309"><ele>374.0</ele><time>2026-04-01T14:04:21.605Z</time></trkpt><trkpt lat="44.5910365" lon="8.5516292"><ele>374.0</ele><time>2026-04-01T14:09:21.459Z</time></trkpt><trkpt lat="44.5910092" lon="8.5515396"><ele>374.0</ele><time>2026-04-01T14:09:27.973Z</time></trkpt></trkseg></trk></gpx>